<?xml version="1.0" encoding="UTF-8" standalone="no" ?>
<gpx xmlns="http://www.topografix.com/GPX/1/1" xmlns:xsi="http://www.w3.org/2001/XMLSchema-instance" xsi:schemaLocation="http://www.topografix.com/GPX/1/1 http://www.topografix.com/GPX/1/1/gpx.xsd" version="1.1" creator="VisuGPX - https://www.visugpx.com">
  <metadata>
    <name>Aubignosc Cyclisme</name>
    <desc><![CDATA[très jolie un peu de boue vicent,bruno,maurice,lyonel,jean-michel,jean-pierre,michel,christian]]></desc>
  </metadata>
  <trk>
    <name><![CDATA[Aubignosc Cyclisme]]></name>
    <trkseg>
      <trkpt lat="44.1289" lon="5.96913">
        <ele>454</ele>
        <time>2020-12-17T09:32:57.000Z</time>
      </trkpt>
      <trkpt lat="44.12894" lon="5.96916">
        <ele>453.20001220703</ele>
        <time>2020-12-17T09:33:04.000Z</time>
      </trkpt>
      <trkpt lat="44.12894" lon="5.96916">
        <ele>453</ele>
        <time>2020-12-17T09:33:06.000Z</time>
      </trkpt>
      <trkpt lat="44.12894" lon="5.96916">
        <ele>453</ele>
        <time>2020-12-17T09:33:07.000Z</time>
      </trkpt>
      <trkpt lat="44.12895" lon="5.96914">
        <ele>453.20001220703</ele>
        <time>2020-12-17T09:33:08.000Z</time>
      </trkpt>
      <trkpt lat="44.12896" lon="5.96912">
        <ele>453</ele>
        <time>2020-12-17T09:33:10.000Z</time>
      </trkpt>
      <trkpt lat="44.12896" lon="5.9691">
        <ele>453.20001220703</ele>
        <time>2020-12-17T09:33:12.000Z</time>
      </trkpt>
      <trkpt lat="44.12896" lon="5.96909">
        <ele>453</ele>
        <time>2020-12-17T09:33:14.000Z</time>
      </trkpt>
      <trkpt lat="44.12896" lon="5.96909">
        <ele>453</ele>
        <time>2020-12-17T09:33:16.000Z</time>
      </trkpt>
      <trkpt lat="44.12896" lon="5.96908">
        <ele>453.20001220703</ele>
        <time>2020-12-17T09:33:18.000Z</time>
      </trkpt>
      <trkpt lat="44.12896" lon="5.96908">
        <ele>453.20001220703</ele>
        <time>2020-12-17T09:33:20.000Z</time>
      </trkpt>
      <trkpt lat="44.12896" lon="5.96907">
        <ele>453</ele>
        <time>2020-12-17T09:33:22.000Z</time>
      </trkpt>
      <trkpt lat="44.12896" lon="5.96907">
        <ele>453.20001220703</ele>
        <time>2020-12-17T09:33:24.000Z</time>
      </trkpt>
      <trkpt lat="44.12896" lon="5.96906">
        <ele>453</ele>
        <time>2020-12-17T09:33:26.000Z</time>
      </trkpt>
      <trkpt lat="44.12896" lon="5.96906">
        <ele>453.20001220703</ele>
        <time>2020-12-17T09:33:28.000Z</time>
      </trkpt>
      <trkpt lat="44.12896" lon="5.96905">
        <ele>453.20001220703</ele>
        <time>2020-12-17T09:33:31.000Z</time>
      </trkpt>
      <trkpt lat="44.12896" lon="5.96904">
        <ele>453.39999389648</ele>
        <time>2020-12-17T09:33:34.000Z</time>
      </trkpt>
      <trkpt lat="44.12896" lon="5.96904">
        <ele>453.20001220703</ele>
        <time>2020-12-17T09:33:36.000Z</time>
      </trkpt>
      <trkpt lat="44.12896" lon="5.96904">
        <ele>453.20001220703</ele>
        <time>2020-12-17T09:33:37.000Z</time>
      </trkpt>
      <trkpt lat="44.12896" lon="5.96904">
        <ele>453.20001220703</ele>
        <time>2020-12-17T09:33:40.000Z</time>
      </trkpt>
      <trkpt lat="44.12896" lon="5.96903">
        <ele>453</ele>
        <time>2020-12-17T09:33:44.000Z</time>
      </trkpt>
      <trkpt lat="44.12896" lon="5.96903">
        <ele>453</ele>
        <time>2020-12-17T09:33:47.000Z</time>
      </trkpt>
      <trkpt lat="44.12896" lon="5.96903">
        <ele>453</ele>
        <time>2020-12-17T09:33:51.000Z</time>
      </trkpt>
      <trkpt lat="44.12896" lon="5.96903">
        <ele>453</ele>
        <time>2020-12-17T09:33:55.000Z</time>
      </trkpt>
      <trkpt lat="44.12896" lon="5.96903">
        <ele>453</ele>
        <time>2020-12-17T09:34:02.000Z</time>
      </trkpt>
      <trkpt lat="44.12896" lon="5.96903">
        <ele>453.20001220703</ele>
        <time>2020-12-17T09:34:03.000Z</time>
      </trkpt>
      <trkpt lat="44.12896" lon="5.96903">
        <ele>453.20001220703</ele>
        <time>2020-12-17T09:34:04.000Z</time>
      </trkpt>
      <trkpt lat="44.12896" lon="5.96903">
        <ele>453.20001220703</ele>
        <time>2020-12-17T09:34:08.000Z</time>
      </trkpt>
      <trkpt lat="44.12895" lon="5.96901">
        <ele>453.20001220703</ele>
        <time>2020-12-17T09:34:14.000Z</time>
      </trkpt>
      <trkpt lat="44.12895" lon="5.96901">
        <ele>453.20001220703</ele>
        <time>2020-12-17T09:34:15.000Z</time>
      </trkpt>
      <trkpt lat="44.12894" lon="5.96899">
        <ele>453.79998779297</ele>
        <time>2020-12-17T09:34:20.000Z</time>
      </trkpt>
      <trkpt lat="44.12894" lon="5.96899">
        <ele>454</ele>
        <time>2020-12-17T09:34:22.000Z</time>
      </trkpt>
      <trkpt lat="44.12895" lon="5.96898">
        <ele>454.20001220703</ele>
        <time>2020-12-17T09:34:33.000Z</time>
      </trkpt>
      <trkpt lat="44.12895" lon="5.96898">
        <ele>453</ele>
        <time>2020-12-17T09:34:51.000Z</time>
      </trkpt>
      <trkpt lat="44.12895" lon="5.96898">
        <ele>453.60000610352</ele>
        <time>2020-12-17T09:34:53.000Z</time>
      </trkpt>
      <trkpt lat="44.12894" lon="5.96896">
        <ele>453.60000610352</ele>
        <time>2020-12-17T09:35:00.000Z</time>
      </trkpt>
      <trkpt lat="44.12894" lon="5.96895">
        <ele>453.60000610352</ele>
        <time>2020-12-17T09:35:01.000Z</time>
      </trkpt>
      <trkpt lat="44.1289" lon="5.96887">
        <ele>454</ele>
        <time>2020-12-17T09:35:04.000Z</time>
      </trkpt>
      <trkpt lat="44.12888" lon="5.9688">
        <ele>454.60000610352</ele>
        <time>2020-12-17T09:35:07.000Z</time>
      </trkpt>
      <trkpt lat="44.12885" lon="5.96875">
        <ele>455</ele>
        <time>2020-12-17T09:35:09.000Z</time>
      </trkpt>
      <trkpt lat="44.12875" lon="5.96862">
        <ele>454.39999389648</ele>
        <time>2020-12-17T09:35:15.000Z</time>
      </trkpt>
      <trkpt lat="44.12866" lon="5.96847">
        <ele>455.60000610352</ele>
        <time>2020-12-17T09:35:21.000Z</time>
      </trkpt>
      <trkpt lat="44.12864" lon="5.96841">
        <ele>456</ele>
        <time>2020-12-17T09:35:23.000Z</time>
      </trkpt>
      <trkpt lat="44.12859" lon="5.96829">
        <ele>456.79998779297</ele>
        <time>2020-12-17T09:35:27.000Z</time>
      </trkpt>
      <trkpt lat="44.12854" lon="5.96821">
        <ele>457.39999389648</ele>
        <time>2020-12-17T09:35:30.000Z</time>
      </trkpt>
      <trkpt lat="44.12851" lon="5.96815">
        <ele>457.60000610352</ele>
        <time>2020-12-17T09:35:32.000Z</time>
      </trkpt>
      <trkpt lat="44.12849" lon="5.96813">
        <ele>457.79998779297</ele>
        <time>2020-12-17T09:35:33.000Z</time>
      </trkpt>
      <trkpt lat="44.12842" lon="5.96805">
        <ele>459</ele>
        <time>2020-12-17T09:35:37.000Z</time>
      </trkpt>
      <trkpt lat="44.1284" lon="5.96803">
        <ele>459.20001220703</ele>
        <time>2020-12-17T09:35:38.000Z</time>
      </trkpt>
      <trkpt lat="44.12826" lon="5.9679">
        <ele>460.20001220703</ele>
        <time>2020-12-17T09:35:44.000Z</time>
      </trkpt>
      <trkpt lat="44.12824" lon="5.96788">
        <ele>460.39999389648</ele>
        <time>2020-12-17T09:35:45.000Z</time>
      </trkpt>
      <trkpt lat="44.12815" lon="5.96781">
        <ele>461.60000610352</ele>
        <time>2020-12-17T09:35:48.000Z</time>
      </trkpt>
      <trkpt lat="44.12808" lon="5.96778">
        <ele>462.60000610352</ele>
        <time>2020-12-17T09:35:51.000Z</time>
      </trkpt>
      <trkpt lat="44.12803" lon="5.96777">
        <ele>463.79998779297</ele>
        <time>2020-12-17T09:35:54.000Z</time>
      </trkpt>
      <trkpt lat="44.12798" lon="5.96776">
        <ele>465</ele>
        <time>2020-12-17T09:35:57.000Z</time>
      </trkpt>
      <trkpt lat="44.12797" lon="5.96776">
        <ele>465.60000610352</ele>
        <time>2020-12-17T09:35:58.000Z</time>
      </trkpt>
      <trkpt lat="44.12796" lon="5.96776">
        <ele>466.20001220703</ele>
        <time>2020-12-17T09:35:59.000Z</time>
      </trkpt>
      <trkpt lat="44.12791" lon="5.96779">
        <ele>467.20001220703</ele>
        <time>2020-12-17T09:36:03.000Z</time>
      </trkpt>
      <trkpt lat="44.12789" lon="5.96781">
        <ele>467.39999389648</ele>
        <time>2020-12-17T09:36:05.000Z</time>
      </trkpt>
      <trkpt lat="44.12787" lon="5.96784">
        <ele>467.60000610352</ele>
        <time>2020-12-17T09:36:09.000Z</time>
      </trkpt>
      <trkpt lat="44.12785" lon="5.96789">
        <ele>468.39999389648</ele>
        <time>2020-12-17T09:36:16.000Z</time>
      </trkpt>
      <trkpt lat="44.1278" lon="5.96802">
        <ele>468.60000610352</ele>
        <time>2020-12-17T09:36:22.000Z</time>
      </trkpt>
      <trkpt lat="44.12771" lon="5.96814">
        <ele>469.60000610352</ele>
        <time>2020-12-17T09:36:29.000Z</time>
      </trkpt>
      <trkpt lat="44.1277" lon="5.96816">
        <ele>470</ele>
        <time>2020-12-17T09:36:30.000Z</time>
      </trkpt>
      <trkpt lat="44.12769" lon="5.96819">
        <ele>470.60000610352</ele>
        <time>2020-12-17T09:36:32.000Z</time>
      </trkpt>
      <trkpt lat="44.12766" lon="5.96827">
        <ele>471.60000610352</ele>
        <time>2020-12-17T09:36:36.000Z</time>
      </trkpt>
      <trkpt lat="44.12765" lon="5.9683">
        <ele>472</ele>
        <time>2020-12-17T09:36:37.000Z</time>
      </trkpt>
      <trkpt lat="44.12764" lon="5.96837">
        <ele>472.79998779297</ele>
        <time>2020-12-17T09:36:41.000Z</time>
      </trkpt>
      <trkpt lat="44.12761" lon="5.96844">
        <ele>473.39999389648</ele>
        <time>2020-12-17T09:36:46.000Z</time>
      </trkpt>
      <trkpt lat="44.12758" lon="5.9685">
        <ele>473.79998779297</ele>
        <time>2020-12-17T09:36:49.000Z</time>
      </trkpt>
      <trkpt lat="44.12756" lon="5.96858">
        <ele>474.39999389648</ele>
        <time>2020-12-17T09:36:52.000Z</time>
      </trkpt>
      <trkpt lat="44.12751" lon="5.96871">
        <ele>475</ele>
        <time>2020-12-17T09:36:57.000Z</time>
      </trkpt>
      <trkpt lat="44.12749" lon="5.96878">
        <ele>475.39999389648</ele>
        <time>2020-12-17T09:37:00.000Z</time>
      </trkpt>
      <trkpt lat="44.12746" lon="5.96886">
        <ele>476</ele>
        <time>2020-12-17T09:37:03.000Z</time>
      </trkpt>
      <trkpt lat="44.12743" lon="5.96903">
        <ele>477</ele>
        <time>2020-12-17T09:37:09.000Z</time>
      </trkpt>
      <trkpt lat="44.12748" lon="5.9692">
        <ele>478</ele>
        <time>2020-12-17T09:37:15.000Z</time>
      </trkpt>
      <trkpt lat="44.1275" lon="5.96938">
        <ele>479.20001220703</ele>
        <time>2020-12-17T09:37:21.000Z</time>
      </trkpt>
      <trkpt lat="44.1275" lon="5.96941">
        <ele>479.20001220703</ele>
        <time>2020-12-17T09:37:22.000Z</time>
      </trkpt>
      <trkpt lat="44.12748" lon="5.96957">
        <ele>480</ele>
        <time>2020-12-17T09:37:28.000Z</time>
      </trkpt>
      <trkpt lat="44.12747" lon="5.9696">
        <ele>480.20001220703</ele>
        <time>2020-12-17T09:37:29.000Z</time>
      </trkpt>
      <trkpt lat="44.12741" lon="5.96969">
        <ele>481.20001220703</ele>
        <time>2020-12-17T09:37:34.000Z</time>
      </trkpt>
      <trkpt lat="44.1274" lon="5.96971">
        <ele>481.39999389648</ele>
        <time>2020-12-17T09:37:35.000Z</time>
      </trkpt>
      <trkpt lat="44.12729" lon="5.96977">
        <ele>482.39999389648</ele>
        <time>2020-12-17T09:37:41.000Z</time>
      </trkpt>
      <trkpt lat="44.12725" lon="5.96978">
        <ele>482.79998779297</ele>
        <time>2020-12-17T09:37:43.000Z</time>
      </trkpt>
      <trkpt lat="44.12723" lon="5.96979">
        <ele>483</ele>
        <time>2020-12-17T09:37:44.000Z</time>
      </trkpt>
      <trkpt lat="44.12718" lon="5.9698">
        <ele>483.39999389648</ele>
        <time>2020-12-17T09:37:47.000Z</time>
      </trkpt>
      <trkpt lat="44.12707" lon="5.96982">
        <ele>484.39999389648</ele>
        <time>2020-12-17T09:37:53.000Z</time>
      </trkpt>
      <trkpt lat="44.12705" lon="5.96982">
        <ele>484.60000610352</ele>
        <time>2020-12-17T09:37:54.000Z</time>
      </trkpt>
      <trkpt lat="44.12692" lon="5.96985">
        <ele>485.60000610352</ele>
        <time>2020-12-17T09:38:01.000Z</time>
      </trkpt>
      <trkpt lat="44.12689" lon="5.96985">
        <ele>486</ele>
        <time>2020-12-17T09:38:03.000Z</time>
      </trkpt>
      <trkpt lat="44.12679" lon="5.96987">
        <ele>486.79998779297</ele>
        <time>2020-12-17T09:38:09.000Z</time>
      </trkpt>
      <trkpt lat="44.1267" lon="5.9699">
        <ele>487.60000610352</ele>
        <time>2020-12-17T09:38:14.000Z</time>
      </trkpt>
      <trkpt lat="44.12668" lon="5.96992">
        <ele>488</ele>
        <time>2020-12-17T09:38:15.000Z</time>
      </trkpt>
      <trkpt lat="44.12652" lon="5.97001">
        <ele>488.60000610352</ele>
        <time>2020-12-17T09:38:24.000Z</time>
      </trkpt>
      <trkpt lat="44.12642" lon="5.97009">
        <ele>489</ele>
        <time>2020-12-17T09:38:29.000Z</time>
      </trkpt>
      <trkpt lat="44.12639" lon="5.97011">
        <ele>489</ele>
        <time>2020-12-17T09:38:31.000Z</time>
      </trkpt>
      <trkpt lat="44.12626" lon="5.97017">
        <ele>489.20001220703</ele>
        <time>2020-12-17T09:38:38.000Z</time>
      </trkpt>
      <trkpt lat="44.12607" lon="5.97023">
        <ele>489.39999389648</ele>
        <time>2020-12-17T09:38:46.000Z</time>
      </trkpt>
      <trkpt lat="44.12584" lon="5.97022">
        <ele>489.60000610352</ele>
        <time>2020-12-17T09:38:56.000Z</time>
      </trkpt>
      <trkpt lat="44.12566" lon="5.97021">
        <ele>490</ele>
        <time>2020-12-17T09:39:04.000Z</time>
      </trkpt>
      <trkpt lat="44.12559" lon="5.97021">
        <ele>490.20001220703</ele>
        <time>2020-12-17T09:39:07.000Z</time>
      </trkpt>
      <trkpt lat="44.12546" lon="5.97021">
        <ele>490.60000610352</ele>
        <time>2020-12-17T09:39:13.000Z</time>
      </trkpt>
      <trkpt lat="44.12534" lon="5.97021">
        <ele>491.20001220703</ele>
        <time>2020-12-17T09:39:19.000Z</time>
      </trkpt>
      <trkpt lat="44.12532" lon="5.97021">
        <ele>491.39999389648</ele>
        <time>2020-12-17T09:39:20.000Z</time>
      </trkpt>
      <trkpt lat="44.12514" lon="5.97023">
        <ele>491.60000610352</ele>
        <time>2020-12-17T09:39:28.000Z</time>
      </trkpt>
      <trkpt lat="44.12497" lon="5.97026">
        <ele>491.60000610352</ele>
        <time>2020-12-17T09:39:35.000Z</time>
      </trkpt>
      <trkpt lat="44.12478" lon="5.97028">
        <ele>492.20001220703</ele>
        <time>2020-12-17T09:39:42.000Z</time>
      </trkpt>
      <trkpt lat="44.12474" lon="5.97028">
        <ele>492.39999389648</ele>
        <time>2020-12-17T09:39:44.000Z</time>
      </trkpt>
      <trkpt lat="44.12462" lon="5.97027">
        <ele>493</ele>
        <time>2020-12-17T09:39:49.000Z</time>
      </trkpt>
      <trkpt lat="44.12457" lon="5.97026">
        <ele>493.39999389648</ele>
        <time>2020-12-17T09:39:51.000Z</time>
      </trkpt>
      <trkpt lat="44.12445" lon="5.9703">
        <ele>494.20001220703</ele>
        <time>2020-12-17T09:39:57.000Z</time>
      </trkpt>
      <trkpt lat="44.12441" lon="5.97037">
        <ele>494.39999389648</ele>
        <time>2020-12-17T09:40:00.000Z</time>
      </trkpt>
      <trkpt lat="44.12437" lon="5.97039">
        <ele>494.79998779297</ele>
        <time>2020-12-17T09:40:02.000Z</time>
      </trkpt>
      <trkpt lat="44.12435" lon="5.97038">
        <ele>495</ele>
        <time>2020-12-17T09:40:03.000Z</time>
      </trkpt>
      <trkpt lat="44.12428" lon="5.97036">
        <ele>495.60000610352</ele>
        <time>2020-12-17T09:40:06.000Z</time>
      </trkpt>
      <trkpt lat="44.12425" lon="5.97036">
        <ele>495.60000610352</ele>
        <time>2020-12-17T09:40:07.000Z</time>
      </trkpt>
      <trkpt lat="44.12419" lon="5.97037">
        <ele>495.79998779297</ele>
        <time>2020-12-17T09:40:09.000Z</time>
      </trkpt>
      <trkpt lat="44.12412" lon="5.97041">
        <ele>496</ele>
        <time>2020-12-17T09:40:11.000Z</time>
      </trkpt>
      <trkpt lat="44.124" lon="5.97043">
        <ele>496</ele>
        <time>2020-12-17T09:40:15.000Z</time>
      </trkpt>
      <trkpt lat="44.12391" lon="5.97045">
        <ele>496</ele>
        <time>2020-12-17T09:40:17.000Z</time>
      </trkpt>
      <trkpt lat="44.12386" lon="5.97046">
        <ele>496</ele>
        <time>2020-12-17T09:40:18.000Z</time>
      </trkpt>
      <trkpt lat="44.12376" lon="5.97046">
        <ele>495.60000610352</ele>
        <time>2020-12-17T09:40:20.000Z</time>
      </trkpt>
      <trkpt lat="44.12368" lon="5.97044">
        <ele>495.20001220703</ele>
        <time>2020-12-17T09:40:22.000Z</time>
      </trkpt>
      <trkpt lat="44.12359" lon="5.97039">
        <ele>494.20001220703</ele>
        <time>2020-12-17T09:40:24.000Z</time>
      </trkpt>
      <trkpt lat="44.12345" lon="5.97043">
        <ele>493.20001220703</ele>
        <time>2020-12-17T09:40:27.000Z</time>
      </trkpt>
      <trkpt lat="44.12341" lon="5.97045">
        <ele>492.79998779297</ele>
        <time>2020-12-17T09:40:28.000Z</time>
      </trkpt>
      <trkpt lat="44.12329" lon="5.97046">
        <ele>492</ele>
        <time>2020-12-17T09:40:31.000Z</time>
      </trkpt>
      <trkpt lat="44.12326" lon="5.97048">
        <ele>491.79998779297</ele>
        <time>2020-12-17T09:40:32.000Z</time>
      </trkpt>
      <trkpt lat="44.1232" lon="5.97051">
        <ele>490.39999389648</ele>
        <time>2020-12-17T09:40:34.000Z</time>
      </trkpt>
      <trkpt lat="44.12313" lon="5.97055">
        <ele>489</ele>
        <time>2020-12-17T09:40:36.000Z</time>
      </trkpt>
      <trkpt lat="44.12309" lon="5.97056">
        <ele>488.60000610352</ele>
        <time>2020-12-17T09:40:37.000Z</time>
      </trkpt>
      <trkpt lat="44.12302" lon="5.97058">
        <ele>488</ele>
        <time>2020-12-17T09:40:39.000Z</time>
      </trkpt>
      <trkpt lat="44.12301" lon="5.97058">
        <ele>487.60000610352</ele>
        <time>2020-12-17T09:40:40.000Z</time>
      </trkpt>
      <trkpt lat="44.123" lon="5.97059">
        <ele>486.79998779297</ele>
        <time>2020-12-17T09:40:43.000Z</time>
      </trkpt>
      <trkpt lat="44.123" lon="5.97059">
        <ele>486.60000610352</ele>
        <time>2020-12-17T09:40:46.000Z</time>
      </trkpt>
      <trkpt lat="44.12297" lon="5.97061">
        <ele>486.20001220703</ele>
        <time>2020-12-17T09:40:53.000Z</time>
      </trkpt>
      <trkpt lat="44.12296" lon="5.9706">
        <ele>486</ele>
        <time>2020-12-17T09:40:59.000Z</time>
      </trkpt>
      <trkpt lat="44.12296" lon="5.9706">
        <ele>485.79998779297</ele>
        <time>2020-12-17T09:41:01.000Z</time>
      </trkpt>
      <trkpt lat="44.12295" lon="5.97059">
        <ele>485.20001220703</ele>
        <time>2020-12-17T09:41:05.000Z</time>
      </trkpt>
      <trkpt lat="44.12294" lon="5.97058">
        <ele>485.20001220703</ele>
        <time>2020-12-17T09:41:07.000Z</time>
      </trkpt>
      <trkpt lat="44.12293" lon="5.97057">
        <ele>484.79998779297</ele>
        <time>2020-12-17T09:41:16.000Z</time>
      </trkpt>
      <trkpt lat="44.12292" lon="5.97057">
        <ele>484.60000610352</ele>
        <time>2020-12-17T09:41:17.000Z</time>
      </trkpt>
      <trkpt lat="44.12291" lon="5.97057">
        <ele>484.60000610352</ele>
        <time>2020-12-17T09:41:18.000Z</time>
      </trkpt>
      <trkpt lat="44.12285" lon="5.97058">
        <ele>484.39999389648</ele>
        <time>2020-12-17T09:41:23.000Z</time>
      </trkpt>
      <trkpt lat="44.12272" lon="5.97062">
        <ele>483.60000610352</ele>
        <time>2020-12-17T09:41:27.000Z</time>
      </trkpt>
      <trkpt lat="44.12265" lon="5.9707">
        <ele>482.60000610352</ele>
        <time>2020-12-17T09:41:30.000Z</time>
      </trkpt>
      <trkpt lat="44.12265" lon="5.97072">
        <ele>482.39999389648</ele>
        <time>2020-12-17T09:41:31.000Z</time>
      </trkpt>
      <trkpt lat="44.12263" lon="5.97076">
        <ele>482</ele>
        <time>2020-12-17T09:41:34.000Z</time>
      </trkpt>
      <trkpt lat="44.12259" lon="5.97077">
        <ele>481.20001220703</ele>
        <time>2020-12-17T09:41:37.000Z</time>
      </trkpt>
      <trkpt lat="44.12256" lon="5.97078">
        <ele>481</ele>
        <time>2020-12-17T09:41:38.000Z</time>
      </trkpt>
      <trkpt lat="44.12251" lon="5.97086">
        <ele>480.79998779297</ele>
        <time>2020-12-17T09:41:41.000Z</time>
      </trkpt>
      <trkpt lat="44.12251" lon="5.97089">
        <ele>480.60000610352</ele>
        <time>2020-12-17T09:41:42.000Z</time>
      </trkpt>
      <trkpt lat="44.12251" lon="5.97093">
        <ele>480.60000610352</ele>
        <time>2020-12-17T09:41:43.000Z</time>
      </trkpt>
      <trkpt lat="44.12248" lon="5.97096">
        <ele>480.20001220703</ele>
        <time>2020-12-17T09:41:45.000Z</time>
      </trkpt>
      <trkpt lat="44.12246" lon="5.97096">
        <ele>479.60000610352</ele>
        <time>2020-12-17T09:41:46.000Z</time>
      </trkpt>
      <trkpt lat="44.12244" lon="5.97096">
        <ele>479.20001220703</ele>
        <time>2020-12-17T09:41:47.000Z</time>
      </trkpt>
      <trkpt lat="44.12239" lon="5.97098">
        <ele>478.60000610352</ele>
        <time>2020-12-17T09:41:49.000Z</time>
      </trkpt>
      <trkpt lat="44.12237" lon="5.971">
        <ele>478.39999389648</ele>
        <time>2020-12-17T09:41:50.000Z</time>
      </trkpt>
      <trkpt lat="44.12234" lon="5.97108">
        <ele>477.79998779297</ele>
        <time>2020-12-17T09:41:54.000Z</time>
      </trkpt>
      <trkpt lat="44.12233" lon="5.97109">
        <ele>477.39999389648</ele>
        <time>2020-12-17T09:41:55.000Z</time>
      </trkpt>
      <trkpt lat="44.12232" lon="5.97109">
        <ele>476.20001220703</ele>
        <time>2020-12-17T09:41:57.000Z</time>
      </trkpt>
      <trkpt lat="44.1223" lon="5.9711">
        <ele>475.39999389648</ele>
        <time>2020-12-17T09:42:00.000Z</time>
      </trkpt>
      <trkpt lat="44.12229" lon="5.97111">
        <ele>475.20001220703</ele>
        <time>2020-12-17T09:42:02.000Z</time>
      </trkpt>
      <trkpt lat="44.12228" lon="5.97112">
        <ele>475</ele>
        <time>2020-12-17T09:42:03.000Z</time>
      </trkpt>
      <trkpt lat="44.12226" lon="5.97116">
        <ele>474.39999389648</ele>
        <time>2020-12-17T09:42:06.000Z</time>
      </trkpt>
      <trkpt lat="44.12225" lon="5.97122">
        <ele>473.79998779297</ele>
        <time>2020-12-17T09:42:08.000Z</time>
      </trkpt>
      <trkpt lat="44.12219" lon="5.97134">
        <ele>473.39999389648</ele>
        <time>2020-12-17T09:42:12.000Z</time>
      </trkpt>
      <trkpt lat="44.12217" lon="5.97134">
        <ele>473.39999389648</ele>
        <time>2020-12-17T09:42:13.000Z</time>
      </trkpt>
      <trkpt lat="44.1221" lon="5.97138">
        <ele>473.20001220703</ele>
        <time>2020-12-17T09:42:16.000Z</time>
      </trkpt>
      <trkpt lat="44.12209" lon="5.97142">
        <ele>473.20001220703</ele>
        <time>2020-12-17T09:42:17.000Z</time>
      </trkpt>
      <trkpt lat="44.12207" lon="5.97147">
        <ele>472.79998779297</ele>
        <time>2020-12-17T09:42:18.000Z</time>
      </trkpt>
      <trkpt lat="44.12204" lon="5.97152">
        <ele>472.60000610352</ele>
        <time>2020-12-17T09:42:19.000Z</time>
      </trkpt>
      <trkpt lat="44.122" lon="5.97156">
        <ele>472.39999389648</ele>
        <time>2020-12-17T09:42:20.000Z</time>
      </trkpt>
      <trkpt lat="44.12189" lon="5.97162">
        <ele>472</ele>
        <time>2020-12-17T09:42:23.000Z</time>
      </trkpt>
      <trkpt lat="44.12181" lon="5.97171">
        <ele>471.79998779297</ele>
        <time>2020-12-17T09:42:25.000Z</time>
      </trkpt>
      <trkpt lat="44.12178" lon="5.97176">
        <ele>471.79998779297</ele>
        <time>2020-12-17T09:42:26.000Z</time>
      </trkpt>
      <trkpt lat="44.12176" lon="5.97182">
        <ele>471.39999389648</ele>
        <time>2020-12-17T09:42:27.000Z</time>
      </trkpt>
      <trkpt lat="44.12167" lon="5.97194">
        <ele>470.60000610352</ele>
        <time>2020-12-17T09:42:30.000Z</time>
      </trkpt>
      <trkpt lat="44.12162" lon="5.97198">
        <ele>470.39999389648</ele>
        <time>2020-12-17T09:42:31.000Z</time>
      </trkpt>
      <trkpt lat="44.12157" lon="5.97202">
        <ele>470.39999389648</ele>
        <time>2020-12-17T09:42:32.000Z</time>
      </trkpt>
      <trkpt lat="44.12151" lon="5.97215">
        <ele>469.79998779297</ele>
        <time>2020-12-17T09:42:34.000Z</time>
      </trkpt>
      <trkpt lat="44.12148" lon="5.9722">
        <ele>469.60000610352</ele>
        <time>2020-12-17T09:42:35.000Z</time>
      </trkpt>
      <trkpt lat="44.12136" lon="5.97226">
        <ele>469.39999389648</ele>
        <time>2020-12-17T09:42:38.000Z</time>
      </trkpt>
      <trkpt lat="44.12128" lon="5.97233">
        <ele>468.79998779297</ele>
        <time>2020-12-17T09:42:41.000Z</time>
      </trkpt>
      <trkpt lat="44.12126" lon="5.97239">
        <ele>468.79998779297</ele>
        <time>2020-12-17T09:42:43.000Z</time>
      </trkpt>
      <trkpt lat="44.12125" lon="5.97241">
        <ele>468.79998779297</ele>
        <time>2020-12-17T09:42:44.000Z</time>
      </trkpt>
      <trkpt lat="44.12124" lon="5.97244">
        <ele>468.79998779297</ele>
        <time>2020-12-17T09:42:45.000Z</time>
      </trkpt>
      <trkpt lat="44.12118" lon="5.97251">
        <ele>468.79998779297</ele>
        <time>2020-12-17T09:42:49.000Z</time>
      </trkpt>
      <trkpt lat="44.12117" lon="5.97256">
        <ele>469.60000610352</ele>
        <time>2020-12-17T09:42:55.000Z</time>
      </trkpt>
      <trkpt lat="44.12117" lon="5.97258">
        <ele>470.20001220703</ele>
        <time>2020-12-17T09:42:56.000Z</time>
      </trkpt>
      <trkpt lat="44.12117" lon="5.97261">
        <ele>471</ele>
        <time>2020-12-17T09:42:57.000Z</time>
      </trkpt>
      <trkpt lat="44.12115" lon="5.97267">
        <ele>471.79998779297</ele>
        <time>2020-12-17T09:42:59.000Z</time>
      </trkpt>
      <trkpt lat="44.12114" lon="5.9727">
        <ele>472</ele>
        <time>2020-12-17T09:43:00.000Z</time>
      </trkpt>
      <trkpt lat="44.12113" lon="5.97283">
        <ele>472.20001220703</ele>
        <time>2020-12-17T09:43:03.000Z</time>
      </trkpt>
      <trkpt lat="44.1212" lon="5.97306">
        <ele>472.60000610352</ele>
        <time>2020-12-17T09:43:07.000Z</time>
      </trkpt>
      <trkpt lat="44.12122" lon="5.97322">
        <ele>473</ele>
        <time>2020-12-17T09:43:10.000Z</time>
      </trkpt>
      <trkpt lat="44.12121" lon="5.97328">
        <ele>473.39999389648</ele>
        <time>2020-12-17T09:43:11.000Z</time>
      </trkpt>
      <trkpt lat="44.12114" lon="5.97339">
        <ele>473.60000610352</ele>
        <time>2020-12-17T09:43:14.000Z</time>
      </trkpt>
      <trkpt lat="44.12107" lon="5.97346">
        <ele>473.60000610352</ele>
        <time>2020-12-17T09:43:17.000Z</time>
      </trkpt>
      <trkpt lat="44.12105" lon="5.97346">
        <ele>473.60000610352</ele>
        <time>2020-12-17T09:43:18.000Z</time>
      </trkpt>
      <trkpt lat="44.12102" lon="5.97348">
        <ele>473.60000610352</ele>
        <time>2020-12-17T09:43:19.000Z</time>
      </trkpt>
      <trkpt lat="44.12097" lon="5.97357">
        <ele>472.79998779297</ele>
        <time>2020-12-17T09:43:21.000Z</time>
      </trkpt>
      <trkpt lat="44.12089" lon="5.97366">
        <ele>472.39999389648</ele>
        <time>2020-12-17T09:43:23.000Z</time>
      </trkpt>
      <trkpt lat="44.12082" lon="5.97372">
        <ele>472</ele>
        <time>2020-12-17T09:43:25.000Z</time>
      </trkpt>
      <trkpt lat="44.12067" lon="5.97386">
        <ele>470.60000610352</ele>
        <time>2020-12-17T09:43:30.000Z</time>
      </trkpt>
      <trkpt lat="44.12063" lon="5.97389">
        <ele>470.20001220703</ele>
        <time>2020-12-17T09:43:31.000Z</time>
      </trkpt>
      <trkpt lat="44.12054" lon="5.97394">
        <ele>469.39999389648</ele>
        <time>2020-12-17T09:43:33.000Z</time>
      </trkpt>
      <trkpt lat="44.1205" lon="5.97405">
        <ele>468.60000610352</ele>
        <time>2020-12-17T09:43:35.000Z</time>
      </trkpt>
      <trkpt lat="44.1205" lon="5.97409">
        <ele>468</ele>
        <time>2020-12-17T09:43:36.000Z</time>
      </trkpt>
      <trkpt lat="44.12045" lon="5.97414">
        <ele>466.39999389648</ele>
        <time>2020-12-17T09:43:38.000Z</time>
      </trkpt>
      <trkpt lat="44.1204" lon="5.97416">
        <ele>465.39999389648</ele>
        <time>2020-12-17T09:43:39.000Z</time>
      </trkpt>
      <trkpt lat="44.12035" lon="5.97418">
        <ele>463</ele>
        <time>2020-12-17T09:43:40.000Z</time>
      </trkpt>
      <trkpt lat="44.12027" lon="5.97424">
        <ele>462</ele>
        <time>2020-12-17T09:43:42.000Z</time>
      </trkpt>
      <trkpt lat="44.12024" lon="5.9743">
        <ele>461.79998779297</ele>
        <time>2020-12-17T09:43:43.000Z</time>
      </trkpt>
      <trkpt lat="44.12021" lon="5.97441">
        <ele>461.39999389648</ele>
        <time>2020-12-17T09:43:45.000Z</time>
      </trkpt>
      <trkpt lat="44.12015" lon="5.97451">
        <ele>460</ele>
        <time>2020-12-17T09:43:47.000Z</time>
      </trkpt>
      <trkpt lat="44.12013" lon="5.97457">
        <ele>459.39999389648</ele>
        <time>2020-12-17T09:43:48.000Z</time>
      </trkpt>
      <trkpt lat="44.12012" lon="5.97463">
        <ele>458.60000610352</ele>
        <time>2020-12-17T09:43:49.000Z</time>
      </trkpt>
      <trkpt lat="44.12013" lon="5.97476">
        <ele>457.20001220703</ele>
        <time>2020-12-17T09:43:51.000Z</time>
      </trkpt>
      <trkpt lat="44.12012" lon="5.97483">
        <ele>456.20001220703</ele>
        <time>2020-12-17T09:43:53.000Z</time>
      </trkpt>
      <trkpt lat="44.12005" lon="5.97495">
        <ele>455</ele>
        <time>2020-12-17T09:43:56.000Z</time>
      </trkpt>
      <trkpt lat="44.12003" lon="5.97501">
        <ele>454.79998779297</ele>
        <time>2020-12-17T09:43:57.000Z</time>
      </trkpt>
      <trkpt lat="44.11998" lon="5.97516">
        <ele>454</ele>
        <time>2020-12-17T09:44:00.000Z</time>
      </trkpt>
      <trkpt lat="44.11996" lon="5.97522">
        <ele>453.79998779297</ele>
        <time>2020-12-17T09:44:01.000Z</time>
      </trkpt>
      <trkpt lat="44.11995" lon="5.97529">
        <ele>453.60000610352</ele>
        <time>2020-12-17T09:44:02.000Z</time>
      </trkpt>
      <trkpt lat="44.1199" lon="5.97541">
        <ele>452.79998779297</ele>
        <time>2020-12-17T09:44:04.000Z</time>
      </trkpt>
      <trkpt lat="44.11988" lon="5.97549">
        <ele>452.39999389648</ele>
        <time>2020-12-17T09:44:06.000Z</time>
      </trkpt>
      <trkpt lat="44.11982" lon="5.97561">
        <ele>451.60000610352</ele>
        <time>2020-12-17T09:44:09.000Z</time>
      </trkpt>
      <trkpt lat="44.1198" lon="5.97565">
        <ele>450.20001220703</ele>
        <time>2020-12-17T09:44:10.000Z</time>
      </trkpt>
      <trkpt lat="44.11976" lon="5.97568">
        <ele>449.60000610352</ele>
        <time>2020-12-17T09:44:11.000Z</time>
      </trkpt>
      <trkpt lat="44.11969" lon="5.97574">
        <ele>449.20001220703</ele>
        <time>2020-12-17T09:44:13.000Z</time>
      </trkpt>
      <trkpt lat="44.11966" lon="5.97577">
        <ele>449</ele>
        <time>2020-12-17T09:44:14.000Z</time>
      </trkpt>
      <trkpt lat="44.11962" lon="5.97583">
        <ele>448.79998779297</ele>
        <time>2020-12-17T09:44:16.000Z</time>
      </trkpt>
      <trkpt lat="44.1196" lon="5.97589">
        <ele>448.60000610352</ele>
        <time>2020-12-17T09:44:18.000Z</time>
      </trkpt>
      <trkpt lat="44.1196" lon="5.97591">
        <ele>448.39999389648</ele>
        <time>2020-12-17T09:44:20.000Z</time>
      </trkpt>
      <trkpt lat="44.1196" lon="5.97595">
        <ele>448</ele>
        <time>2020-12-17T09:44:26.000Z</time>
      </trkpt>
      <trkpt lat="44.1196" lon="5.97596">
        <ele>448</ele>
        <time>2020-12-17T09:44:27.000Z</time>
      </trkpt>
      <trkpt lat="44.11961" lon="5.97598">
        <ele>447.79998779297</ele>
        <time>2020-12-17T09:44:28.000Z</time>
      </trkpt>
      <trkpt lat="44.11962" lon="5.97608">
        <ele>447.60000610352</ele>
        <time>2020-12-17T09:44:31.000Z</time>
      </trkpt>
      <trkpt lat="44.1196" lon="5.97614">
        <ele>447.39999389648</ele>
        <time>2020-12-17T09:44:34.000Z</time>
      </trkpt>
      <trkpt lat="44.1196" lon="5.97619">
        <ele>446.79998779297</ele>
        <time>2020-12-17T09:44:36.000Z</time>
      </trkpt>
      <trkpt lat="44.11959" lon="5.97623">
        <ele>444.79998779297</ele>
        <time>2020-12-17T09:44:39.000Z</time>
      </trkpt>
      <trkpt lat="44.11959" lon="5.97624">
        <ele>443</ele>
        <time>2020-12-17T09:44:40.000Z</time>
      </trkpt>
      <trkpt lat="44.11965" lon="5.97631">
        <ele>442.20001220703</ele>
        <time>2020-12-17T09:44:44.000Z</time>
      </trkpt>
      <trkpt lat="44.11965" lon="5.97636">
        <ele>442</ele>
        <time>2020-12-17T09:44:46.000Z</time>
      </trkpt>
      <trkpt lat="44.11967" lon="5.9764">
        <ele>441.79998779297</ele>
        <time>2020-12-17T09:44:48.000Z</time>
      </trkpt>
      <trkpt lat="44.11973" lon="5.97649">
        <ele>440.79998779297</ele>
        <time>2020-12-17T09:44:51.000Z</time>
      </trkpt>
      <trkpt lat="44.11975" lon="5.97652">
        <ele>440.60000610352</ele>
        <time>2020-12-17T09:44:52.000Z</time>
      </trkpt>
      <trkpt lat="44.11983" lon="5.97656">
        <ele>440.39999389648</ele>
        <time>2020-12-17T09:44:56.000Z</time>
      </trkpt>
      <trkpt lat="44.11984" lon="5.97661">
        <ele>440.20001220703</ele>
        <time>2020-12-17T09:45:00.000Z</time>
      </trkpt>
      <trkpt lat="44.11984" lon="5.97663">
        <ele>440.39999389648</ele>
        <time>2020-12-17T09:45:01.000Z</time>
      </trkpt>
      <trkpt lat="44.11984" lon="5.97672">
        <ele>442</ele>
        <time>2020-12-17T09:45:05.000Z</time>
      </trkpt>
      <trkpt lat="44.11987" lon="5.97677">
        <ele>442.39999389648</ele>
        <time>2020-12-17T09:45:07.000Z</time>
      </trkpt>
      <trkpt lat="44.11992" lon="5.97685">
        <ele>443.39999389648</ele>
        <time>2020-12-17T09:45:10.000Z</time>
      </trkpt>
      <trkpt lat="44.11997" lon="5.97688">
        <ele>444</ele>
        <time>2020-12-17T09:45:12.000Z</time>
      </trkpt>
      <trkpt lat="44.12002" lon="5.97691">
        <ele>444.20001220703</ele>
        <time>2020-12-17T09:45:15.000Z</time>
      </trkpt>
      <trkpt lat="44.12005" lon="5.97693">
        <ele>444.20001220703</ele>
        <time>2020-12-17T09:45:16.000Z</time>
      </trkpt>
      <trkpt lat="44.12013" lon="5.97708">
        <ele>444.20001220703</ele>
        <time>2020-12-17T09:45:21.000Z</time>
      </trkpt>
      <trkpt lat="44.1201" lon="5.97721">
        <ele>443.79998779297</ele>
        <time>2020-12-17T09:45:24.000Z</time>
      </trkpt>
      <trkpt lat="44.12004" lon="5.97736">
        <ele>443</ele>
        <time>2020-12-17T09:45:28.000Z</time>
      </trkpt>
      <trkpt lat="44.12006" lon="5.97743">
        <ele>442.20001220703</ele>
        <time>2020-12-17T09:45:31.000Z</time>
      </trkpt>
      <trkpt lat="44.12008" lon="5.97744">
        <ele>441.60000610352</ele>
        <time>2020-12-17T09:45:32.000Z</time>
      </trkpt>
      <trkpt lat="44.12009" lon="5.97746">
        <ele>440.79998779297</ele>
        <time>2020-12-17T09:45:33.000Z</time>
      </trkpt>
      <trkpt lat="44.12009" lon="5.97751">
        <ele>439.79998779297</ele>
        <time>2020-12-17T09:45:35.000Z</time>
      </trkpt>
      <trkpt lat="44.1201" lon="5.97755">
        <ele>438.60000610352</ele>
        <time>2020-12-17T09:45:37.000Z</time>
      </trkpt>
      <trkpt lat="44.12009" lon="5.97764">
        <ele>437.39999389648</ele>
        <time>2020-12-17T09:45:40.000Z</time>
      </trkpt>
      <trkpt lat="44.12008" lon="5.97767">
        <ele>437.20001220703</ele>
        <time>2020-12-17T09:45:41.000Z</time>
      </trkpt>
      <trkpt lat="44.12005" lon="5.9777">
        <ele>436.79998779297</ele>
        <time>2020-12-17T09:45:43.000Z</time>
      </trkpt>
      <trkpt lat="44.12003" lon="5.97771">
        <ele>436.20001220703</ele>
        <time>2020-12-17T09:45:44.000Z</time>
      </trkpt>
      <trkpt lat="44.11998" lon="5.9778">
        <ele>434.79998779297</ele>
        <time>2020-12-17T09:45:47.000Z</time>
      </trkpt>
      <trkpt lat="44.11996" lon="5.97786">
        <ele>434.39999389648</ele>
        <time>2020-12-17T09:45:52.000Z</time>
      </trkpt>
      <trkpt lat="44.11997" lon="5.97787">
        <ele>435.39999389648</ele>
        <time>2020-12-17T09:46:05.000Z</time>
      </trkpt>
      <trkpt lat="44.11997" lon="5.97787">
        <ele>435.39999389648</ele>
        <time>2020-12-17T09:46:22.000Z</time>
      </trkpt>
      <trkpt lat="44.11997" lon="5.97787">
        <ele>435.39999389648</ele>
        <time>2020-12-17T09:46:36.000Z</time>
      </trkpt>
      <trkpt lat="44.11997" lon="5.97787">
        <ele>435.20001220703</ele>
        <time>2020-12-17T09:46:58.000Z</time>
      </trkpt>
      <trkpt lat="44.11997" lon="5.97789">
        <ele>435.20001220703</ele>
        <time>2020-12-17T09:47:22.000Z</time>
      </trkpt>
      <trkpt lat="44.11997" lon="5.9779">
        <ele>435.20001220703</ele>
        <time>2020-12-17T09:47:23.000Z</time>
      </trkpt>
      <trkpt lat="44.11997" lon="5.97799">
        <ele>435.20001220703</ele>
        <time>2020-12-17T09:47:27.000Z</time>
      </trkpt>
      <trkpt lat="44.11996" lon="5.97801">
        <ele>435.20001220703</ele>
        <time>2020-12-17T09:47:28.000Z</time>
      </trkpt>
      <trkpt lat="44.11996" lon="5.97813">
        <ele>435.20001220703</ele>
        <time>2020-12-17T09:47:33.000Z</time>
      </trkpt>
      <trkpt lat="44.11996" lon="5.97821">
        <ele>435.60000610352</ele>
        <time>2020-12-17T09:47:36.000Z</time>
      </trkpt>
      <trkpt lat="44.11996" lon="5.97825">
        <ele>436.20001220703</ele>
        <time>2020-12-17T09:47:38.000Z</time>
      </trkpt>
      <trkpt lat="44.11995" lon="5.97829">
        <ele>436.60000610352</ele>
        <time>2020-12-17T09:47:40.000Z</time>
      </trkpt>
      <trkpt lat="44.11992" lon="5.97837">
        <ele>437.39999389648</ele>
        <time>2020-12-17T09:47:43.000Z</time>
      </trkpt>
      <trkpt lat="44.11989" lon="5.97846">
        <ele>437.60000610352</ele>
        <time>2020-12-17T09:47:46.000Z</time>
      </trkpt>
      <trkpt lat="44.11988" lon="5.97847">
        <ele>437.60000610352</ele>
        <time>2020-12-17T09:47:47.000Z</time>
      </trkpt>
      <trkpt lat="44.11984" lon="5.97849">
        <ele>437.79998779297</ele>
        <time>2020-12-17T09:47:49.000Z</time>
      </trkpt>
      <trkpt lat="44.11981" lon="5.97852">
        <ele>438</ele>
        <time>2020-12-17T09:47:51.000Z</time>
      </trkpt>
      <trkpt lat="44.11979" lon="5.97854">
        <ele>438.20001220703</ele>
        <time>2020-12-17T09:47:52.000Z</time>
      </trkpt>
      <trkpt lat="44.11975" lon="5.97859">
        <ele>438.60000610352</ele>
        <time>2020-12-17T09:47:55.000Z</time>
      </trkpt>
      <trkpt lat="44.11974" lon="5.97863">
        <ele>438.79998779297</ele>
        <time>2020-12-17T09:47:57.000Z</time>
      </trkpt>
      <trkpt lat="44.11975" lon="5.97868">
        <ele>438.79998779297</ele>
        <time>2020-12-17T09:47:59.000Z</time>
      </trkpt>
      <trkpt lat="44.11975" lon="5.97874">
        <ele>440</ele>
        <time>2020-12-17T09:48:01.000Z</time>
      </trkpt>
      <trkpt lat="44.11975" lon="5.97877">
        <ele>440.39999389648</ele>
        <time>2020-12-17T09:48:02.000Z</time>
      </trkpt>
      <trkpt lat="44.11974" lon="5.97879">
        <ele>441.20001220703</ele>
        <time>2020-12-17T09:48:03.000Z</time>
      </trkpt>
      <trkpt lat="44.11969" lon="5.97885">
        <ele>442.20001220703</ele>
        <time>2020-12-17T09:48:06.000Z</time>
      </trkpt>
      <trkpt lat="44.11967" lon="5.97886">
        <ele>442.39999389648</ele>
        <time>2020-12-17T09:48:07.000Z</time>
      </trkpt>
      <trkpt lat="44.11966" lon="5.97888">
        <ele>442.60000610352</ele>
        <time>2020-12-17T09:48:08.000Z</time>
      </trkpt>
      <trkpt lat="44.11964" lon="5.9789">
        <ele>443.39999389648</ele>
        <time>2020-12-17T09:48:10.000Z</time>
      </trkpt>
      <trkpt lat="44.1196" lon="5.97892">
        <ele>444.39999389648</ele>
        <time>2020-12-17T09:48:13.000Z</time>
      </trkpt>
      <trkpt lat="44.11958" lon="5.97892">
        <ele>444.79998779297</ele>
        <time>2020-12-17T09:48:14.000Z</time>
      </trkpt>
      <trkpt lat="44.11953" lon="5.97894">
        <ele>446</ele>
        <time>2020-12-17T09:48:17.000Z</time>
      </trkpt>
      <trkpt lat="44.11949" lon="5.97897">
        <ele>447</ele>
        <time>2020-12-17T09:48:19.000Z</time>
      </trkpt>
      <trkpt lat="44.11947" lon="5.97899">
        <ele>447.39999389648</ele>
        <time>2020-12-17T09:48:20.000Z</time>
      </trkpt>
      <trkpt lat="44.11943" lon="5.97897">
        <ele>448.39999389648</ele>
        <time>2020-12-17T09:48:23.000Z</time>
      </trkpt>
      <trkpt lat="44.1194" lon="5.97897">
        <ele>449.60000610352</ele>
        <time>2020-12-17T09:48:26.000Z</time>
      </trkpt>
      <trkpt lat="44.11939" lon="5.97897">
        <ele>450</ele>
        <time>2020-12-17T09:48:28.000Z</time>
      </trkpt>
      <trkpt lat="44.11938" lon="5.97897">
        <ele>451</ele>
        <time>2020-12-17T09:48:31.000Z</time>
      </trkpt>
      <trkpt lat="44.11937" lon="5.97895">
        <ele>452.20001220703</ele>
        <time>2020-12-17T09:48:34.000Z</time>
      </trkpt>
      <trkpt lat="44.11936" lon="5.97893">
        <ele>453</ele>
        <time>2020-12-17T09:48:37.000Z</time>
      </trkpt>
      <trkpt lat="44.11935" lon="5.97892">
        <ele>453</ele>
        <time>2020-12-17T09:48:38.000Z</time>
      </trkpt>
      <trkpt lat="44.11933" lon="5.97889">
        <ele>453</ele>
        <time>2020-12-17T09:48:40.000Z</time>
      </trkpt>
      <trkpt lat="44.11928" lon="5.97889">
        <ele>453</ele>
        <time>2020-12-17T09:48:42.000Z</time>
      </trkpt>
      <trkpt lat="44.11924" lon="5.97892">
        <ele>453.20001220703</ele>
        <time>2020-12-17T09:48:44.000Z</time>
      </trkpt>
      <trkpt lat="44.11922" lon="5.97893">
        <ele>453.39999389648</ele>
        <time>2020-12-17T09:48:45.000Z</time>
      </trkpt>
      <trkpt lat="44.11917" lon="5.97895">
        <ele>453.60000610352</ele>
        <time>2020-12-17T09:48:47.000Z</time>
      </trkpt>
      <trkpt lat="44.11912" lon="5.979">
        <ele>454.60000610352</ele>
        <time>2020-12-17T09:48:49.000Z</time>
      </trkpt>
      <trkpt lat="44.11909" lon="5.97906">
        <ele>455.60000610352</ele>
        <time>2020-12-17T09:48:51.000Z</time>
      </trkpt>
      <trkpt lat="44.11907" lon="5.97909">
        <ele>456</ele>
        <time>2020-12-17T09:48:52.000Z</time>
      </trkpt>
      <trkpt lat="44.11904" lon="5.97914">
        <ele>456.39999389648</ele>
        <time>2020-12-17T09:48:54.000Z</time>
      </trkpt>
      <trkpt lat="44.11901" lon="5.97913">
        <ele>456.79998779297</ele>
        <time>2020-12-17T09:48:56.000Z</time>
      </trkpt>
      <trkpt lat="44.119" lon="5.97912">
        <ele>457</ele>
        <time>2020-12-17T09:48:57.000Z</time>
      </trkpt>
      <trkpt lat="44.11899" lon="5.97908">
        <ele>457.39999389648</ele>
        <time>2020-12-17T09:48:59.000Z</time>
      </trkpt>
      <trkpt lat="44.11898" lon="5.97902">
        <ele>457.79998779297</ele>
        <time>2020-12-17T09:49:01.000Z</time>
      </trkpt>
      <trkpt lat="44.11898" lon="5.97898">
        <ele>458</ele>
        <time>2020-12-17T09:49:02.000Z</time>
      </trkpt>
      <trkpt lat="44.11897" lon="5.9788">
        <ele>459.39999389648</ele>
        <time>2020-12-17T09:49:07.000Z</time>
      </trkpt>
      <trkpt lat="44.11897" lon="5.97877">
        <ele>459.79998779297</ele>
        <time>2020-12-17T09:49:08.000Z</time>
      </trkpt>
      <trkpt lat="44.11895" lon="5.97871">
        <ele>460.60000610352</ele>
        <time>2020-12-17T09:49:10.000Z</time>
      </trkpt>
      <trkpt lat="44.11889" lon="5.97862">
        <ele>461.79998779297</ele>
        <time>2020-12-17T09:49:14.000Z</time>
      </trkpt>
      <trkpt lat="44.11884" lon="5.97855">
        <ele>463.20001220703</ele>
        <time>2020-12-17T09:49:17.000Z</time>
      </trkpt>
      <trkpt lat="44.11882" lon="5.97854">
        <ele>463.39999389648</ele>
        <time>2020-12-17T09:49:18.000Z</time>
      </trkpt>
      <trkpt lat="44.11878" lon="5.97855">
        <ele>464.20001220703</ele>
        <time>2020-12-17T09:49:20.000Z</time>
      </trkpt>
      <trkpt lat="44.11874" lon="5.97863">
        <ele>465.60000610352</ele>
        <time>2020-12-17T09:49:23.000Z</time>
      </trkpt>
      <trkpt lat="44.11873" lon="5.97865">
        <ele>466</ele>
        <time>2020-12-17T09:49:24.000Z</time>
      </trkpt>
      <trkpt lat="44.1187" lon="5.97867">
        <ele>466.79998779297</ele>
        <time>2020-12-17T09:49:26.000Z</time>
      </trkpt>
      <trkpt lat="44.11868" lon="5.97868">
        <ele>467.20001220703</ele>
        <time>2020-12-17T09:49:27.000Z</time>
      </trkpt>
      <trkpt lat="44.11864" lon="5.97869">
        <ele>468.39999389648</ele>
        <time>2020-12-17T09:49:29.000Z</time>
      </trkpt>
      <trkpt lat="44.11855" lon="5.9787">
        <ele>469.60000610352</ele>
        <time>2020-12-17T09:49:33.000Z</time>
      </trkpt>
      <trkpt lat="44.1185" lon="5.97871">
        <ele>470.60000610352</ele>
        <time>2020-12-17T09:49:35.000Z</time>
      </trkpt>
      <trkpt lat="44.11848" lon="5.97872">
        <ele>470.79998779297</ele>
        <time>2020-12-17T09:49:36.000Z</time>
      </trkpt>
      <trkpt lat="44.11842" lon="5.97874">
        <ele>472</ele>
        <time>2020-12-17T09:49:39.000Z</time>
      </trkpt>
      <trkpt lat="44.11838" lon="5.97879">
        <ele>472.39999389648</ele>
        <time>2020-12-17T09:49:41.000Z</time>
      </trkpt>
      <trkpt lat="44.11836" lon="5.97886">
        <ele>473.39999389648</ele>
        <time>2020-12-17T09:49:43.000Z</time>
      </trkpt>
      <trkpt lat="44.11835" lon="5.97897">
        <ele>474.39999389648</ele>
        <time>2020-12-17T09:49:46.000Z</time>
      </trkpt>
      <trkpt lat="44.11835" lon="5.979">
        <ele>474.39999389648</ele>
        <time>2020-12-17T09:49:47.000Z</time>
      </trkpt>
      <trkpt lat="44.11835" lon="5.9791">
        <ele>474.60000610352</ele>
        <time>2020-12-17T09:49:50.000Z</time>
      </trkpt>
      <trkpt lat="44.11836" lon="5.97912">
        <ele>474.60000610352</ele>
        <time>2020-12-17T09:49:51.000Z</time>
      </trkpt>
      <trkpt lat="44.11835" lon="5.97924">
        <ele>474.39999389648</ele>
        <time>2020-12-17T09:49:56.000Z</time>
      </trkpt>
      <trkpt lat="44.11834" lon="5.97931">
        <ele>473.20001220703</ele>
        <time>2020-12-17T09:50:00.000Z</time>
      </trkpt>
      <trkpt lat="44.11838" lon="5.97935">
        <ele>472</ele>
        <time>2020-12-17T09:50:03.000Z</time>
      </trkpt>
      <trkpt lat="44.11839" lon="5.97938">
        <ele>471.20001220703</ele>
        <time>2020-12-17T09:50:04.000Z</time>
      </trkpt>
      <trkpt lat="44.11839" lon="5.97942">
        <ele>470.20001220703</ele>
        <time>2020-12-17T09:50:05.000Z</time>
      </trkpt>
      <trkpt lat="44.11839" lon="5.97945">
        <ele>469.79998779297</ele>
        <time>2020-12-17T09:50:06.000Z</time>
      </trkpt>
      <trkpt lat="44.1184" lon="5.97949">
        <ele>469.60000610352</ele>
        <time>2020-12-17T09:50:07.000Z</time>
      </trkpt>
      <trkpt lat="44.11842" lon="5.9795">
        <ele>469.39999389648</ele>
        <time>2020-12-17T09:50:08.000Z</time>
      </trkpt>
      <trkpt lat="44.11845" lon="5.97943">
        <ele>469.20001220703</ele>
        <time>2020-12-17T09:50:11.000Z</time>
      </trkpt>
      <trkpt lat="44.11849" lon="5.97942">
        <ele>469</ele>
        <time>2020-12-17T09:50:13.000Z</time>
      </trkpt>
      <trkpt lat="44.11851" lon="5.97944">
        <ele>469</ele>
        <time>2020-12-17T09:50:14.000Z</time>
      </trkpt>
      <trkpt lat="44.11856" lon="5.97954">
        <ele>468.60000610352</ele>
        <time>2020-12-17T09:50:18.000Z</time>
      </trkpt>
      <trkpt lat="44.11862" lon="5.97964">
        <ele>468.20001220703</ele>
        <time>2020-12-17T09:50:22.000Z</time>
      </trkpt>
      <trkpt lat="44.11863" lon="5.97966">
        <ele>467.79998779297</ele>
        <time>2020-12-17T09:50:23.000Z</time>
      </trkpt>
      <trkpt lat="44.11866" lon="5.97972">
        <ele>466.60000610352</ele>
        <time>2020-12-17T09:50:26.000Z</time>
      </trkpt>
      <trkpt lat="44.11869" lon="5.97985">
        <ele>466.20001220703</ele>
        <time>2020-12-17T09:50:31.000Z</time>
      </trkpt>
      <trkpt lat="44.11875" lon="5.97988">
        <ele>465.79998779297</ele>
        <time>2020-12-17T09:50:34.000Z</time>
      </trkpt>
      <trkpt lat="44.11878" lon="5.97989">
        <ele>465.39999389648</ele>
        <time>2020-12-17T09:50:35.000Z</time>
      </trkpt>
      <trkpt lat="44.11882" lon="5.97991">
        <ele>465.20001220703</ele>
        <time>2020-12-17T09:50:36.000Z</time>
      </trkpt>
      <trkpt lat="44.11886" lon="5.97995">
        <ele>465</ele>
        <time>2020-12-17T09:50:37.000Z</time>
      </trkpt>
      <trkpt lat="44.11895" lon="5.98002">
        <ele>465</ele>
        <time>2020-12-17T09:50:39.000Z</time>
      </trkpt>
      <trkpt lat="44.11909" lon="5.98017">
        <ele>464.60000610352</ele>
        <time>2020-12-17T09:50:43.000Z</time>
      </trkpt>
      <trkpt lat="44.11909" lon="5.98023">
        <ele>464</ele>
        <time>2020-12-17T09:50:44.000Z</time>
      </trkpt>
      <trkpt lat="44.11906" lon="5.98036">
        <ele>462.79998779297</ele>
        <time>2020-12-17T09:50:47.000Z</time>
      </trkpt>
      <trkpt lat="44.11896" lon="5.9805">
        <ele>461.79998779297</ele>
        <time>2020-12-17T09:50:52.000Z</time>
      </trkpt>
      <trkpt lat="44.11895" lon="5.98052">
        <ele>461.79998779297</ele>
        <time>2020-12-17T09:50:53.000Z</time>
      </trkpt>
      <trkpt lat="44.11894" lon="5.98056">
        <ele>461.79998779297</ele>
        <time>2020-12-17T09:50:54.000Z</time>
      </trkpt>
      <trkpt lat="44.11894" lon="5.9806">
        <ele>461.79998779297</ele>
        <time>2020-12-17T09:50:55.000Z</time>
      </trkpt>
      <trkpt lat="44.11895" lon="5.98065">
        <ele>461.79998779297</ele>
        <time>2020-12-17T09:50:56.000Z</time>
      </trkpt>
      <trkpt lat="44.11896" lon="5.98089">
        <ele>461.79998779297</ele>
        <time>2020-12-17T09:51:01.000Z</time>
      </trkpt>
      <trkpt lat="44.11893" lon="5.98109">
        <ele>462.20001220703</ele>
        <time>2020-12-17T09:51:06.000Z</time>
      </trkpt>
      <trkpt lat="44.11893" lon="5.9812">
        <ele>462.20001220703</ele>
        <time>2020-12-17T09:51:12.000Z</time>
      </trkpt>
      <trkpt lat="44.11892" lon="5.98129">
        <ele>462.60000610352</ele>
        <time>2020-12-17T09:51:17.000Z</time>
      </trkpt>
      <trkpt lat="44.11887" lon="5.98137">
        <ele>462.60000610352</ele>
        <time>2020-12-17T09:51:21.000Z</time>
      </trkpt>
      <trkpt lat="44.11877" lon="5.98141">
        <ele>462.79998779297</ele>
        <time>2020-12-17T09:51:26.000Z</time>
      </trkpt>
      <trkpt lat="44.11875" lon="5.9814">
        <ele>462.79998779297</ele>
        <time>2020-12-17T09:51:27.000Z</time>
      </trkpt>
      <trkpt lat="44.11864" lon="5.98139">
        <ele>463.60000610352</ele>
        <time>2020-12-17T09:51:32.000Z</time>
      </trkpt>
      <trkpt lat="44.11862" lon="5.9814">
        <ele>464</ele>
        <time>2020-12-17T09:51:33.000Z</time>
      </trkpt>
      <trkpt lat="44.11858" lon="5.98142">
        <ele>465.20001220703</ele>
        <time>2020-12-17T09:51:35.000Z</time>
      </trkpt>
      <trkpt lat="44.11852" lon="5.98142">
        <ele>465.79998779297</ele>
        <time>2020-12-17T09:51:37.000Z</time>
      </trkpt>
      <trkpt lat="44.1185" lon="5.98144">
        <ele>466.20001220703</ele>
        <time>2020-12-17T09:51:38.000Z</time>
      </trkpt>
      <trkpt lat="44.11847" lon="5.98145">
        <ele>466.60000610352</ele>
        <time>2020-12-17T09:51:39.000Z</time>
      </trkpt>
      <trkpt lat="44.11841" lon="5.98148">
        <ele>467.39999389648</ele>
        <time>2020-12-17T09:51:41.000Z</time>
      </trkpt>
      <trkpt lat="44.11839" lon="5.98149">
        <ele>467.60000610352</ele>
        <time>2020-12-17T09:51:42.000Z</time>
      </trkpt>
      <trkpt lat="44.11832" lon="5.98154">
        <ele>468.60000610352</ele>
        <time>2020-12-17T09:51:45.000Z</time>
      </trkpt>
      <trkpt lat="44.11825" lon="5.98163">
        <ele>469.79998779297</ele>
        <time>2020-12-17T09:51:49.000Z</time>
      </trkpt>
      <trkpt lat="44.11819" lon="5.98172">
        <ele>471</ele>
        <time>2020-12-17T09:51:53.000Z</time>
      </trkpt>
      <trkpt lat="44.11817" lon="5.98174">
        <ele>471.39999389648</ele>
        <time>2020-12-17T09:51:54.000Z</time>
      </trkpt>
      <trkpt lat="44.11813" lon="5.98178">
        <ele>472.20001220703</ele>
        <time>2020-12-17T09:51:56.000Z</time>
      </trkpt>
      <trkpt lat="44.11806" lon="5.98185">
        <ele>473.20001220703</ele>
        <time>2020-12-17T09:52:00.000Z</time>
      </trkpt>
      <trkpt lat="44.11801" lon="5.98189">
        <ele>473.60000610352</ele>
        <time>2020-12-17T09:52:02.000Z</time>
      </trkpt>
      <trkpt lat="44.11796" lon="5.98193">
        <ele>474.39999389648</ele>
        <time>2020-12-17T09:52:04.000Z</time>
      </trkpt>
      <trkpt lat="44.11786" lon="5.98202">
        <ele>475.60000610352</ele>
        <time>2020-12-17T09:52:09.000Z</time>
      </trkpt>
      <trkpt lat="44.11774" lon="5.98209">
        <ele>476.60000610352</ele>
        <time>2020-12-17T09:52:14.000Z</time>
      </trkpt>
      <trkpt lat="44.11773" lon="5.98211">
        <ele>477</ele>
        <time>2020-12-17T09:52:15.000Z</time>
      </trkpt>
      <trkpt lat="44.11766" lon="5.98219">
        <ele>477.79998779297</ele>
        <time>2020-12-17T09:52:19.000Z</time>
      </trkpt>
      <trkpt lat="44.11761" lon="5.98223">
        <ele>479</ele>
        <time>2020-12-17T09:52:22.000Z</time>
      </trkpt>
      <trkpt lat="44.11758" lon="5.98226">
        <ele>480.20001220703</ele>
        <time>2020-12-17T09:52:24.000Z</time>
      </trkpt>
      <trkpt lat="44.11756" lon="5.98229">
        <ele>481.39999389648</ele>
        <time>2020-12-17T09:52:26.000Z</time>
      </trkpt>
      <trkpt lat="44.11754" lon="5.9823">
        <ele>481.79998779297</ele>
        <time>2020-12-17T09:52:27.000Z</time>
      </trkpt>
      <trkpt lat="44.11743" lon="5.98236">
        <ele>482.60000610352</ele>
        <time>2020-12-17T09:52:32.000Z</time>
      </trkpt>
      <trkpt lat="44.1174" lon="5.98238">
        <ele>483.39999389648</ele>
        <time>2020-12-17T09:52:33.000Z</time>
      </trkpt>
      <trkpt lat="44.11738" lon="5.9824">
        <ele>484</ele>
        <time>2020-12-17T09:52:34.000Z</time>
      </trkpt>
      <trkpt lat="44.11728" lon="5.98245">
        <ele>485.20001220703</ele>
        <time>2020-12-17T09:52:39.000Z</time>
      </trkpt>
      <trkpt lat="44.11723" lon="5.98246">
        <ele>486.20001220703</ele>
        <time>2020-12-17T09:52:42.000Z</time>
      </trkpt>
      <trkpt lat="44.1172" lon="5.98244">
        <ele>486.60000610352</ele>
        <time>2020-12-17T09:52:44.000Z</time>
      </trkpt>
      <trkpt lat="44.11717" lon="5.98244">
        <ele>487.39999389648</ele>
        <time>2020-12-17T09:52:46.000Z</time>
      </trkpt>
      <trkpt lat="44.11714" lon="5.98245">
        <ele>488.20001220703</ele>
        <time>2020-12-17T09:52:48.000Z</time>
      </trkpt>
      <trkpt lat="44.11712" lon="5.98243">
        <ele>488.60000610352</ele>
        <time>2020-12-17T09:52:49.000Z</time>
      </trkpt>
      <trkpt lat="44.11708" lon="5.98243">
        <ele>489.60000610352</ele>
        <time>2020-12-17T09:52:52.000Z</time>
      </trkpt>
      <trkpt lat="44.11707" lon="5.98245">
        <ele>490</ele>
        <time>2020-12-17T09:52:53.000Z</time>
      </trkpt>
      <trkpt lat="44.11704" lon="5.98248">
        <ele>490.60000610352</ele>
        <time>2020-12-17T09:52:55.000Z</time>
      </trkpt>
      <trkpt lat="44.11703" lon="5.9825">
        <ele>490.79998779297</ele>
        <time>2020-12-17T09:52:56.000Z</time>
      </trkpt>
      <trkpt lat="44.11698" lon="5.98254">
        <ele>491.79998779297</ele>
        <time>2020-12-17T09:52:59.000Z</time>
      </trkpt>
      <trkpt lat="44.11691" lon="5.98262">
        <ele>492.79998779297</ele>
        <time>2020-12-17T09:53:03.000Z</time>
      </trkpt>
      <trkpt lat="44.11686" lon="5.98265">
        <ele>493.39999389648</ele>
        <time>2020-12-17T09:53:05.000Z</time>
      </trkpt>
      <trkpt lat="44.11679" lon="5.98269">
        <ele>494</ele>
        <time>2020-12-17T09:53:08.000Z</time>
      </trkpt>
      <trkpt lat="44.11672" lon="5.98275">
        <ele>494.39999389648</ele>
        <time>2020-12-17T09:53:11.000Z</time>
      </trkpt>
      <trkpt lat="44.11663" lon="5.98285">
        <ele>494.60000610352</ele>
        <time>2020-12-17T09:53:16.000Z</time>
      </trkpt>
      <trkpt lat="44.11654" lon="5.98293">
        <ele>495</ele>
        <time>2020-12-17T09:53:20.000Z</time>
      </trkpt>
      <trkpt lat="44.1165" lon="5.98298">
        <ele>495.20001220703</ele>
        <time>2020-12-17T09:53:22.000Z</time>
      </trkpt>
      <trkpt lat="44.11637" lon="5.9831">
        <ele>495.79998779297</ele>
        <time>2020-12-17T09:53:28.000Z</time>
      </trkpt>
      <trkpt lat="44.11635" lon="5.9831">
        <ele>496</ele>
        <time>2020-12-17T09:53:29.000Z</time>
      </trkpt>
      <trkpt lat="44.11617" lon="5.98318">
        <ele>496.79998779297</ele>
        <time>2020-12-17T09:53:36.000Z</time>
      </trkpt>
      <trkpt lat="44.11611" lon="5.9832">
        <ele>497</ele>
        <time>2020-12-17T09:53:38.000Z</time>
      </trkpt>
      <trkpt lat="44.11599" lon="5.98329">
        <ele>498</ele>
        <time>2020-12-17T09:53:43.000Z</time>
      </trkpt>
      <trkpt lat="44.11596" lon="5.9833">
        <ele>498.20001220703</ele>
        <time>2020-12-17T09:53:44.000Z</time>
      </trkpt>
      <trkpt lat="44.11587" lon="5.98331">
        <ele>499</ele>
        <time>2020-12-17T09:53:48.000Z</time>
      </trkpt>
      <trkpt lat="44.11584" lon="5.98328">
        <ele>499.39999389648</ele>
        <time>2020-12-17T09:53:50.000Z</time>
      </trkpt>
      <trkpt lat="44.11578" lon="5.98325">
        <ele>499.79998779297</ele>
        <time>2020-12-17T09:53:53.000Z</time>
      </trkpt>
      <trkpt lat="44.1157" lon="5.9832">
        <ele>500.39999389648</ele>
        <time>2020-12-17T09:53:57.000Z</time>
      </trkpt>
      <trkpt lat="44.11565" lon="5.98317">
        <ele>501.60000610352</ele>
        <time>2020-12-17T09:54:00.000Z</time>
      </trkpt>
      <trkpt lat="44.1156" lon="5.98315">
        <ele>503</ele>
        <time>2020-12-17T09:54:02.000Z</time>
      </trkpt>
      <trkpt lat="44.11554" lon="5.98315">
        <ele>504.20001220703</ele>
        <time>2020-12-17T09:54:05.000Z</time>
      </trkpt>
      <trkpt lat="44.11547" lon="5.98314">
        <ele>505.39999389648</ele>
        <time>2020-12-17T09:54:08.000Z</time>
      </trkpt>
      <trkpt lat="44.11543" lon="5.98314">
        <ele>506.39999389648</ele>
        <time>2020-12-17T09:54:10.000Z</time>
      </trkpt>
      <trkpt lat="44.11542" lon="5.98314">
        <ele>506.79998779297</ele>
        <time>2020-12-17T09:54:11.000Z</time>
      </trkpt>
      <trkpt lat="44.11535" lon="5.98315">
        <ele>508</ele>
        <time>2020-12-17T09:54:14.000Z</time>
      </trkpt>
      <trkpt lat="44.1153" lon="5.98314">
        <ele>509</ele>
        <time>2020-12-17T09:54:17.000Z</time>
      </trkpt>
      <trkpt lat="44.11521" lon="5.98309">
        <ele>510.39999389648</ele>
        <time>2020-12-17T09:54:22.000Z</time>
      </trkpt>
      <trkpt lat="44.11516" lon="5.98306">
        <ele>511.20001220703</ele>
        <time>2020-12-17T09:54:25.000Z</time>
      </trkpt>
      <trkpt lat="44.11514" lon="5.98304">
        <ele>511.39999389648</ele>
        <time>2020-12-17T09:54:26.000Z</time>
      </trkpt>
      <trkpt lat="44.11513" lon="5.98301">
        <ele>511.60000610352</ele>
        <time>2020-12-17T09:54:27.000Z</time>
      </trkpt>
      <trkpt lat="44.11509" lon="5.98294">
        <ele>512.79998779297</ele>
        <time>2020-12-17T09:54:30.000Z</time>
      </trkpt>
      <trkpt lat="44.11506" lon="5.98286">
        <ele>514</ele>
        <time>2020-12-17T09:54:34.000Z</time>
      </trkpt>
      <trkpt lat="44.11504" lon="5.98281">
        <ele>515.20001220703</ele>
        <time>2020-12-17T09:54:37.000Z</time>
      </trkpt>
      <trkpt lat="44.11501" lon="5.98273">
        <ele>516.40002441406</ele>
        <time>2020-12-17T09:54:40.000Z</time>
      </trkpt>
      <trkpt lat="44.115" lon="5.98267">
        <ele>517</ele>
        <time>2020-12-17T09:54:42.000Z</time>
      </trkpt>
      <trkpt lat="44.115" lon="5.98261">
        <ele>517.40002441406</ele>
        <time>2020-12-17T09:54:44.000Z</time>
      </trkpt>
      <trkpt lat="44.11497" lon="5.98249">
        <ele>518</ele>
        <time>2020-12-17T09:54:48.000Z</time>
      </trkpt>
      <trkpt lat="44.11492" lon="5.98242">
        <ele>518.59997558594</ele>
        <time>2020-12-17T09:54:51.000Z</time>
      </trkpt>
      <trkpt lat="44.11488" lon="5.98236">
        <ele>519.20001220703</ele>
        <time>2020-12-17T09:54:54.000Z</time>
      </trkpt>
      <trkpt lat="44.11485" lon="5.98232">
        <ele>519.59997558594</ele>
        <time>2020-12-17T09:54:56.000Z</time>
      </trkpt>
      <trkpt lat="44.1148" lon="5.98225">
        <ele>520.79998779297</ele>
        <time>2020-12-17T09:55:01.000Z</time>
      </trkpt>
      <trkpt lat="44.11477" lon="5.9822">
        <ele>522.20001220703</ele>
        <time>2020-12-17T09:55:07.000Z</time>
      </trkpt>
      <trkpt lat="44.11477" lon="5.98219">
        <ele>522.40002441406</ele>
        <time>2020-12-17T09:55:08.000Z</time>
      </trkpt>
      <trkpt lat="44.11476" lon="5.98217">
        <ele>522.59997558594</ele>
        <time>2020-12-17T09:55:09.000Z</time>
      </trkpt>
      <trkpt lat="44.11477" lon="5.98205">
        <ele>523.20001220703</ele>
        <time>2020-12-17T09:55:14.000Z</time>
      </trkpt>
      <trkpt lat="44.11475" lon="5.98203">
        <ele>523.40002441406</ele>
        <time>2020-12-17T09:55:19.000Z</time>
      </trkpt>
      <trkpt lat="44.11472" lon="5.98193">
        <ele>524.20001220703</ele>
        <time>2020-12-17T09:55:22.000Z</time>
      </trkpt>
      <trkpt lat="44.1147" lon="5.9819">
        <ele>524.59997558594</ele>
        <time>2020-12-17T09:55:23.000Z</time>
      </trkpt>
      <trkpt lat="44.11468" lon="5.98184">
        <ele>525.20001220703</ele>
        <time>2020-12-17T09:55:25.000Z</time>
      </trkpt>
      <trkpt lat="44.11466" lon="5.9817">
        <ele>526</ele>
        <time>2020-12-17T09:55:29.000Z</time>
      </trkpt>
      <trkpt lat="44.11466" lon="5.98168">
        <ele>526.20001220703</ele>
        <time>2020-12-17T09:55:30.000Z</time>
      </trkpt>
      <trkpt lat="44.11468" lon="5.98165">
        <ele>527.59997558594</ele>
        <time>2020-12-17T09:55:33.000Z</time>
      </trkpt>
      <trkpt lat="44.11468" lon="5.98163">
        <ele>528.79998779297</ele>
        <time>2020-12-17T09:55:36.000Z</time>
      </trkpt>
      <trkpt lat="44.11468" lon="5.98162">
        <ele>530</ele>
        <time>2020-12-17T09:55:38.000Z</time>
      </trkpt>
      <trkpt lat="44.11467" lon="5.98161">
        <ele>531.40002441406</ele>
        <time>2020-12-17T09:55:41.000Z</time>
      </trkpt>
      <trkpt lat="44.11467" lon="5.98161">
        <ele>531.59997558594</ele>
        <time>2020-12-17T09:55:42.000Z</time>
      </trkpt>
      <trkpt lat="44.11468" lon="5.98157">
        <ele>532.20001220703</ele>
        <time>2020-12-17T09:55:49.000Z</time>
      </trkpt>
      <trkpt lat="44.11465" lon="5.98144">
        <ele>532.20001220703</ele>
        <time>2020-12-17T09:55:53.000Z</time>
      </trkpt>
      <trkpt lat="44.11464" lon="5.98136">
        <ele>532.40002441406</ele>
        <time>2020-12-17T09:55:55.000Z</time>
      </trkpt>
      <trkpt lat="44.11461" lon="5.98128">
        <ele>532.79998779297</ele>
        <time>2020-12-17T09:55:58.000Z</time>
      </trkpt>
      <trkpt lat="44.11459" lon="5.98119">
        <ele>533.40002441406</ele>
        <time>2020-12-17T09:56:01.000Z</time>
      </trkpt>
      <trkpt lat="44.11458" lon="5.98116">
        <ele>533.59997558594</ele>
        <time>2020-12-17T09:56:02.000Z</time>
      </trkpt>
      <trkpt lat="44.11456" lon="5.98114">
        <ele>533.79998779297</ele>
        <time>2020-12-17T09:56:03.000Z</time>
      </trkpt>
      <trkpt lat="44.11449" lon="5.98118">
        <ele>534.79998779297</ele>
        <time>2020-12-17T09:56:05.000Z</time>
      </trkpt>
      <trkpt lat="44.11446" lon="5.98121">
        <ele>535.40002441406</ele>
        <time>2020-12-17T09:56:06.000Z</time>
      </trkpt>
      <trkpt lat="44.11443" lon="5.98124">
        <ele>535.79998779297</ele>
        <time>2020-12-17T09:56:07.000Z</time>
      </trkpt>
      <trkpt lat="44.11441" lon="5.98126">
        <ele>536.20001220703</ele>
        <time>2020-12-17T09:56:08.000Z</time>
      </trkpt>
      <trkpt lat="44.11437" lon="5.98134">
        <ele>537.20001220703</ele>
        <time>2020-12-17T09:56:11.000Z</time>
      </trkpt>
      <trkpt lat="44.11432" lon="5.98138">
        <ele>537.40002441406</ele>
        <time>2020-12-17T09:56:13.000Z</time>
      </trkpt>
      <trkpt lat="44.11425" lon="5.98142">
        <ele>537.59997558594</ele>
        <time>2020-12-17T09:56:15.000Z</time>
      </trkpt>
      <trkpt lat="44.11422" lon="5.98145">
        <ele>537.79998779297</ele>
        <time>2020-12-17T09:56:16.000Z</time>
      </trkpt>
      <trkpt lat="44.11408" lon="5.98155">
        <ele>538.40002441406</ele>
        <time>2020-12-17T09:56:19.000Z</time>
      </trkpt>
      <trkpt lat="44.11404" lon="5.98157">
        <ele>538.59997558594</ele>
        <time>2020-12-17T09:56:20.000Z</time>
      </trkpt>
      <trkpt lat="44.11393" lon="5.98163">
        <ele>539</ele>
        <time>2020-12-17T09:56:24.000Z</time>
      </trkpt>
      <trkpt lat="44.11384" lon="5.9816">
        <ele>539.20001220703</ele>
        <time>2020-12-17T09:56:29.000Z</time>
      </trkpt>
      <trkpt lat="44.11381" lon="5.98161">
        <ele>539.40002441406</ele>
        <time>2020-12-17T09:56:30.000Z</time>
      </trkpt>
      <trkpt lat="44.11379" lon="5.98161">
        <ele>539.59997558594</ele>
        <time>2020-12-17T09:56:31.000Z</time>
      </trkpt>
      <trkpt lat="44.11372" lon="5.9816">
        <ele>540.79998779297</ele>
        <time>2020-12-17T09:56:35.000Z</time>
      </trkpt>
      <trkpt lat="44.11368" lon="5.98158">
        <ele>541.40002441406</ele>
        <time>2020-12-17T09:56:37.000Z</time>
      </trkpt>
      <trkpt lat="44.11364" lon="5.98157">
        <ele>542</ele>
        <time>2020-12-17T09:56:39.000Z</time>
      </trkpt>
      <trkpt lat="44.11358" lon="5.98154">
        <ele>542.79998779297</ele>
        <time>2020-12-17T09:56:43.000Z</time>
      </trkpt>
      <trkpt lat="44.11356" lon="5.98152">
        <ele>543</ele>
        <time>2020-12-17T09:56:44.000Z</time>
      </trkpt>
      <trkpt lat="44.11349" lon="5.98148">
        <ele>544</ele>
        <time>2020-12-17T09:56:48.000Z</time>
      </trkpt>
      <trkpt lat="44.11347" lon="5.98147">
        <ele>544.20001220703</ele>
        <time>2020-12-17T09:56:49.000Z</time>
      </trkpt>
      <trkpt lat="44.1134" lon="5.98147">
        <ele>545</ele>
        <time>2020-12-17T09:56:52.000Z</time>
      </trkpt>
      <trkpt lat="44.11336" lon="5.98149">
        <ele>545.40002441406</ele>
        <time>2020-12-17T09:56:54.000Z</time>
      </trkpt>
      <trkpt lat="44.11329" lon="5.98151">
        <ele>546.20001220703</ele>
        <time>2020-12-17T09:56:57.000Z</time>
      </trkpt>
      <trkpt lat="44.11321" lon="5.98154">
        <ele>547.20001220703</ele>
        <time>2020-12-17T09:57:01.000Z</time>
      </trkpt>
      <trkpt lat="44.11319" lon="5.98155">
        <ele>547.40002441406</ele>
        <time>2020-12-17T09:57:02.000Z</time>
      </trkpt>
      <trkpt lat="44.1131" lon="5.98156">
        <ele>548</ele>
        <time>2020-12-17T09:57:06.000Z</time>
      </trkpt>
      <trkpt lat="44.11308" lon="5.98156">
        <ele>548.40002441406</ele>
        <time>2020-12-17T09:57:07.000Z</time>
      </trkpt>
      <trkpt lat="44.113" lon="5.98159">
        <ele>549.40002441406</ele>
        <time>2020-12-17T09:57:11.000Z</time>
      </trkpt>
      <trkpt lat="44.11298" lon="5.98161">
        <ele>549.59997558594</ele>
        <time>2020-12-17T09:57:12.000Z</time>
      </trkpt>
      <trkpt lat="44.11287" lon="5.98171">
        <ele>550.59997558594</ele>
        <time>2020-12-17T09:57:16.000Z</time>
      </trkpt>
      <trkpt lat="44.1128" lon="5.9818">
        <ele>551.59997558594</ele>
        <time>2020-12-17T09:57:20.000Z</time>
      </trkpt>
      <trkpt lat="44.11278" lon="5.98184">
        <ele>551.79998779297</ele>
        <time>2020-12-17T09:57:22.000Z</time>
      </trkpt>
      <trkpt lat="44.11275" lon="5.98189">
        <ele>552.20001220703</ele>
        <time>2020-12-17T09:57:27.000Z</time>
      </trkpt>
      <trkpt lat="44.11275" lon="5.9819">
        <ele>552.59997558594</ele>
        <time>2020-12-17T09:57:39.000Z</time>
      </trkpt>
      <trkpt lat="44.11273" lon="5.98191">
        <ele>552.40002441406</ele>
        <time>2020-12-17T09:57:58.000Z</time>
      </trkpt>
      <trkpt lat="44.11273" lon="5.98191">
        <ele>552.59997558594</ele>
        <time>2020-12-17T09:58:16.000Z</time>
      </trkpt>
      <trkpt lat="44.11273" lon="5.98191">
        <ele>552.20001220703</ele>
        <time>2020-12-17T09:58:46.000Z</time>
      </trkpt>
      <trkpt lat="44.11273" lon="5.98191">
        <ele>552</ele>
        <time>2020-12-17T09:59:06.000Z</time>
      </trkpt>
      <trkpt lat="44.11273" lon="5.98191">
        <ele>552.20001220703</ele>
        <time>2020-12-17T09:59:33.000Z</time>
      </trkpt>
      <trkpt lat="44.11273" lon="5.98192">
        <ele>552.20001220703</ele>
        <time>2020-12-17T09:59:59.000Z</time>
      </trkpt>
      <trkpt lat="44.11273" lon="5.98192">
        <ele>552.20001220703</ele>
        <time>2020-12-17T10:00:23.000Z</time>
      </trkpt>
      <trkpt lat="44.11273" lon="5.98192">
        <ele>552.20001220703</ele>
        <time>2020-12-17T10:00:37.000Z</time>
      </trkpt>
      <trkpt lat="44.11273" lon="5.98193">
        <ele>552.20001220703</ele>
        <time>2020-12-17T10:00:49.000Z</time>
      </trkpt>
      <trkpt lat="44.1127" lon="5.98199">
        <ele>552.20001220703</ele>
        <time>2020-12-17T10:00:55.000Z</time>
      </trkpt>
      <trkpt lat="44.11263" lon="5.98211">
        <ele>552</ele>
        <time>2020-12-17T10:01:00.000Z</time>
      </trkpt>
      <trkpt lat="44.11263" lon="5.9822">
        <ele>551.79998779297</ele>
        <time>2020-12-17T10:01:03.000Z</time>
      </trkpt>
      <trkpt lat="44.11264" lon="5.98223">
        <ele>551.79998779297</ele>
        <time>2020-12-17T10:01:04.000Z</time>
      </trkpt>
      <trkpt lat="44.11267" lon="5.98237">
        <ele>550.59997558594</ele>
        <time>2020-12-17T10:01:08.000Z</time>
      </trkpt>
      <trkpt lat="44.11267" lon="5.98241">
        <ele>550.40002441406</ele>
        <time>2020-12-17T10:01:09.000Z</time>
      </trkpt>
      <trkpt lat="44.11267" lon="5.9825">
        <ele>550.40002441406</ele>
        <time>2020-12-17T10:01:11.000Z</time>
      </trkpt>
      <trkpt lat="44.11266" lon="5.98261">
        <ele>550.40002441406</ele>
        <time>2020-12-17T10:01:14.000Z</time>
      </trkpt>
      <trkpt lat="44.11267" lon="5.98266">
        <ele>550.40002441406</ele>
        <time>2020-12-17T10:01:15.000Z</time>
      </trkpt>
      <trkpt lat="44.11267" lon="5.98277">
        <ele>550.20001220703</ele>
        <time>2020-12-17T10:01:17.000Z</time>
      </trkpt>
      <trkpt lat="44.11264" lon="5.9831">
        <ele>550.20001220703</ele>
        <time>2020-12-17T10:01:23.000Z</time>
      </trkpt>
      <trkpt lat="44.11267" lon="5.98321">
        <ele>550.20001220703</ele>
        <time>2020-12-17T10:01:25.000Z</time>
      </trkpt>
      <trkpt lat="44.11266" lon="5.98325">
        <ele>550.20001220703</ele>
        <time>2020-12-17T10:01:26.000Z</time>
      </trkpt>
      <trkpt lat="44.11263" lon="5.98339">
        <ele>550</ele>
        <time>2020-12-17T10:01:29.000Z</time>
      </trkpt>
      <trkpt lat="44.11264" lon="5.98345">
        <ele>549.79998779297</ele>
        <time>2020-12-17T10:01:30.000Z</time>
      </trkpt>
      <trkpt lat="44.11264" lon="5.98359">
        <ele>549.59997558594</ele>
        <time>2020-12-17T10:01:32.000Z</time>
      </trkpt>
      <trkpt lat="44.1126" lon="5.98371">
        <ele>548</ele>
        <time>2020-12-17T10:01:34.000Z</time>
      </trkpt>
      <trkpt lat="44.11247" lon="5.98379">
        <ele>546.79998779297</ele>
        <time>2020-12-17T10:01:37.000Z</time>
      </trkpt>
      <trkpt lat="44.1124" lon="5.98379">
        <ele>545.79998779297</ele>
        <time>2020-12-17T10:01:39.000Z</time>
      </trkpt>
      <trkpt lat="44.11236" lon="5.98379">
        <ele>545</ele>
        <time>2020-12-17T10:01:40.000Z</time>
      </trkpt>
      <trkpt lat="44.11233" lon="5.98378">
        <ele>544.40002441406</ele>
        <time>2020-12-17T10:01:41.000Z</time>
      </trkpt>
      <trkpt lat="44.11218" lon="5.98371">
        <ele>543.59997558594</ele>
        <time>2020-12-17T10:01:46.000Z</time>
      </trkpt>
      <trkpt lat="44.11195" lon="5.98373">
        <ele>544.20001220703</ele>
        <time>2020-12-17T10:01:53.000Z</time>
      </trkpt>
      <trkpt lat="44.11185" lon="5.98375">
        <ele>545.40002441406</ele>
        <time>2020-12-17T10:01:57.000Z</time>
      </trkpt>
      <trkpt lat="44.11183" lon="5.98373">
        <ele>545.79998779297</ele>
        <time>2020-12-17T10:01:58.000Z</time>
      </trkpt>
      <trkpt lat="44.11181" lon="5.98372">
        <ele>546.59997558594</ele>
        <time>2020-12-17T10:02:01.000Z</time>
      </trkpt>
      <trkpt lat="44.11181" lon="5.98371">
        <ele>547</ele>
        <time>2020-12-17T10:02:02.000Z</time>
      </trkpt>
      <trkpt lat="44.11179" lon="5.98369">
        <ele>548</ele>
        <time>2020-12-17T10:02:04.000Z</time>
      </trkpt>
      <trkpt lat="44.11177" lon="5.98367">
        <ele>548.20001220703</ele>
        <time>2020-12-17T10:02:05.000Z</time>
      </trkpt>
      <trkpt lat="44.11174" lon="5.98366">
        <ele>548.59997558594</ele>
        <time>2020-12-17T10:02:06.000Z</time>
      </trkpt>
      <trkpt lat="44.11172" lon="5.98365">
        <ele>549</ele>
        <time>2020-12-17T10:02:07.000Z</time>
      </trkpt>
      <trkpt lat="44.11163" lon="5.98362">
        <ele>549.79998779297</ele>
        <time>2020-12-17T10:02:11.000Z</time>
      </trkpt>
      <trkpt lat="44.11155" lon="5.98359">
        <ele>550.20001220703</ele>
        <time>2020-12-17T10:02:14.000Z</time>
      </trkpt>
      <trkpt lat="44.11152" lon="5.9836">
        <ele>550.59997558594</ele>
        <time>2020-12-17T10:02:15.000Z</time>
      </trkpt>
      <trkpt lat="44.11146" lon="5.9836">
        <ele>551.40002441406</ele>
        <time>2020-12-17T10:02:17.000Z</time>
      </trkpt>
      <trkpt lat="44.11137" lon="5.9836">
        <ele>552.40002441406</ele>
        <time>2020-12-17T10:02:20.000Z</time>
      </trkpt>
      <trkpt lat="44.11132" lon="5.98359">
        <ele>553</ele>
        <time>2020-12-17T10:02:22.000Z</time>
      </trkpt>
      <trkpt lat="44.11127" lon="5.98359">
        <ele>553.40002441406</ele>
        <time>2020-12-17T10:02:24.000Z</time>
      </trkpt>
      <trkpt lat="44.11121" lon="5.9836">
        <ele>554.40002441406</ele>
        <time>2020-12-17T10:02:27.000Z</time>
      </trkpt>
      <trkpt lat="44.11118" lon="5.9836">
        <ele>554.59997558594</ele>
        <time>2020-12-17T10:02:28.000Z</time>
      </trkpt>
      <trkpt lat="44.11112" lon="5.98358">
        <ele>555.79998779297</ele>
        <time>2020-12-17T10:02:31.000Z</time>
      </trkpt>
      <trkpt lat="44.11108" lon="5.98356">
        <ele>556.79998779297</ele>
        <time>2020-12-17T10:02:33.000Z</time>
      </trkpt>
      <trkpt lat="44.11106" lon="5.98355">
        <ele>557.79998779297</ele>
        <time>2020-12-17T10:02:34.000Z</time>
      </trkpt>
      <trkpt lat="44.11099" lon="5.98352">
        <ele>559</ele>
        <time>2020-12-17T10:02:38.000Z</time>
      </trkpt>
      <trkpt lat="44.1109" lon="5.98352">
        <ele>560.40002441406</ele>
        <time>2020-12-17T10:02:42.000Z</time>
      </trkpt>
      <trkpt lat="44.11083" lon="5.98348">
        <ele>561.40002441406</ele>
        <time>2020-12-17T10:02:45.000Z</time>
      </trkpt>
      <trkpt lat="44.11078" lon="5.98345">
        <ele>562.20001220703</ele>
        <time>2020-12-17T10:02:47.000Z</time>
      </trkpt>
      <trkpt lat="44.11077" lon="5.98343">
        <ele>562.40002441406</ele>
        <time>2020-12-17T10:02:48.000Z</time>
      </trkpt>
      <trkpt lat="44.11075" lon="5.9834">
        <ele>562.59997558594</ele>
        <time>2020-12-17T10:02:49.000Z</time>
      </trkpt>
      <trkpt lat="44.11068" lon="5.98327">
        <ele>563.40002441406</ele>
        <time>2020-12-17T10:02:53.000Z</time>
      </trkpt>
      <trkpt lat="44.11066" lon="5.98324">
        <ele>563.59997558594</ele>
        <time>2020-12-17T10:02:54.000Z</time>
      </trkpt>
      <trkpt lat="44.11062" lon="5.98314">
        <ele>564.40002441406</ele>
        <time>2020-12-17T10:02:57.000Z</time>
      </trkpt>
      <trkpt lat="44.1106" lon="5.98308">
        <ele>564.59997558594</ele>
        <time>2020-12-17T10:02:59.000Z</time>
      </trkpt>
      <trkpt lat="44.11058" lon="5.98304">
        <ele>564.79998779297</ele>
        <time>2020-12-17T10:03:00.000Z</time>
      </trkpt>
      <trkpt lat="44.11052" lon="5.98279">
        <ele>565.79998779297</ele>
        <time>2020-12-17T10:03:06.000Z</time>
      </trkpt>
      <trkpt lat="44.11052" lon="5.98274">
        <ele>566</ele>
        <time>2020-12-17T10:03:07.000Z</time>
      </trkpt>
      <trkpt lat="44.11053" lon="5.98244">
        <ele>567</ele>
        <time>2020-12-17T10:03:14.000Z</time>
      </trkpt>
      <trkpt lat="44.11054" lon="5.9824">
        <ele>567</ele>
        <time>2020-12-17T10:03:15.000Z</time>
      </trkpt>
      <trkpt lat="44.11056" lon="5.98222">
        <ele>568</ele>
        <time>2020-12-17T10:03:20.000Z</time>
      </trkpt>
      <trkpt lat="44.11057" lon="5.98218">
        <ele>568.20001220703</ele>
        <time>2020-12-17T10:03:21.000Z</time>
      </trkpt>
      <trkpt lat="44.11062" lon="5.98202">
        <ele>569.20001220703</ele>
        <time>2020-12-17T10:03:26.000Z</time>
      </trkpt>
      <trkpt lat="44.11063" lon="5.98196">
        <ele>569.59997558594</ele>
        <time>2020-12-17T10:03:28.000Z</time>
      </trkpt>
      <trkpt lat="44.11065" lon="5.98186">
        <ele>570.40002441406</ele>
        <time>2020-12-17T10:03:31.000Z</time>
      </trkpt>
      <trkpt lat="44.11067" lon="5.98176">
        <ele>571.20001220703</ele>
        <time>2020-12-17T10:03:34.000Z</time>
      </trkpt>
      <trkpt lat="44.11067" lon="5.98172">
        <ele>571.40002441406</ele>
        <time>2020-12-17T10:03:35.000Z</time>
      </trkpt>
      <trkpt lat="44.11064" lon="5.9816">
        <ele>572.20001220703</ele>
        <time>2020-12-17T10:03:39.000Z</time>
      </trkpt>
      <trkpt lat="44.11061" lon="5.98155">
        <ele>572.59997558594</ele>
        <time>2020-12-17T10:03:41.000Z</time>
      </trkpt>
      <trkpt lat="44.11057" lon="5.98149">
        <ele>573.59997558594</ele>
        <time>2020-12-17T10:03:44.000Z</time>
      </trkpt>
      <trkpt lat="44.11055" lon="5.98146">
        <ele>574</ele>
        <time>2020-12-17T10:03:45.000Z</time>
      </trkpt>
      <trkpt lat="44.11052" lon="5.98142">
        <ele>575</ele>
        <time>2020-12-17T10:03:47.000Z</time>
      </trkpt>
      <trkpt lat="44.11047" lon="5.98138">
        <ele>576.20001220703</ele>
        <time>2020-12-17T10:03:50.000Z</time>
      </trkpt>
      <trkpt lat="44.11045" lon="5.98137">
        <ele>576.40002441406</ele>
        <time>2020-12-17T10:03:51.000Z</time>
      </trkpt>
      <trkpt lat="44.11039" lon="5.98134">
        <ele>577.40002441406</ele>
        <time>2020-12-17T10:03:54.000Z</time>
      </trkpt>
      <trkpt lat="44.11032" lon="5.9813">
        <ele>578.79998779297</ele>
        <time>2020-12-17T10:03:57.000Z</time>
      </trkpt>
      <trkpt lat="44.11024" lon="5.98128">
        <ele>580</ele>
        <time>2020-12-17T10:04:00.000Z</time>
      </trkpt>
      <trkpt lat="44.11016" lon="5.98126">
        <ele>581.20001220703</ele>
        <time>2020-12-17T10:04:03.000Z</time>
      </trkpt>
      <trkpt lat="44.11013" lon="5.98125">
        <ele>581.79998779297</ele>
        <time>2020-12-17T10:04:04.000Z</time>
      </trkpt>
      <trkpt lat="44.11007" lon="5.98125">
        <ele>582.40002441406</ele>
        <time>2020-12-17T10:04:06.000Z</time>
      </trkpt>
      <trkpt lat="44.10998" lon="5.9812">
        <ele>583.40002441406</ele>
        <time>2020-12-17T10:04:10.000Z</time>
      </trkpt>
      <trkpt lat="44.10996" lon="5.98118">
        <ele>583.40002441406</ele>
        <time>2020-12-17T10:04:11.000Z</time>
      </trkpt>
      <trkpt lat="44.10989" lon="5.98114">
        <ele>584.59997558594</ele>
        <time>2020-12-17T10:04:16.000Z</time>
      </trkpt>
      <trkpt lat="44.10986" lon="5.98114">
        <ele>585.79998779297</ele>
        <time>2020-12-17T10:04:22.000Z</time>
      </trkpt>
      <trkpt lat="44.10986" lon="5.98113">
        <ele>586.20001220703</ele>
        <time>2020-12-17T10:04:38.000Z</time>
      </trkpt>
      <trkpt lat="44.10986" lon="5.98114">
        <ele>586.20001220703</ele>
        <time>2020-12-17T10:04:53.000Z</time>
      </trkpt>
      <trkpt lat="44.10978" lon="5.9811">
        <ele>586.20001220703</ele>
        <time>2020-12-17T10:04:59.000Z</time>
      </trkpt>
      <trkpt lat="44.10974" lon="5.98109">
        <ele>586.20001220703</ele>
        <time>2020-12-17T10:05:01.000Z</time>
      </trkpt>
      <trkpt lat="44.1097" lon="5.98108">
        <ele>586.20001220703</ele>
        <time>2020-12-17T10:05:03.000Z</time>
      </trkpt>
      <trkpt lat="44.10967" lon="5.98106">
        <ele>586.20001220703</ele>
        <time>2020-12-17T10:05:04.000Z</time>
      </trkpt>
      <trkpt lat="44.10952" lon="5.98091">
        <ele>585.79998779297</ele>
        <time>2020-12-17T10:05:08.000Z</time>
      </trkpt>
      <trkpt lat="44.10946" lon="5.98087">
        <ele>585.79998779297</ele>
        <time>2020-12-17T10:05:10.000Z</time>
      </trkpt>
      <trkpt lat="44.10944" lon="5.98081">
        <ele>584.79998779297</ele>
        <time>2020-12-17T10:05:12.000Z</time>
      </trkpt>
      <trkpt lat="44.10942" lon="5.98075">
        <ele>583.20001220703</ele>
        <time>2020-12-17T10:05:14.000Z</time>
      </trkpt>
      <trkpt lat="44.10941" lon="5.98072">
        <ele>582</ele>
        <time>2020-12-17T10:05:15.000Z</time>
      </trkpt>
      <trkpt lat="44.10939" lon="5.98068">
        <ele>581</ele>
        <time>2020-12-17T10:05:16.000Z</time>
      </trkpt>
      <trkpt lat="44.10935" lon="5.98058">
        <ele>580</ele>
        <time>2020-12-17T10:05:18.000Z</time>
      </trkpt>
      <trkpt lat="44.1093" lon="5.98052">
        <ele>579.59997558594</ele>
        <time>2020-12-17T10:05:20.000Z</time>
      </trkpt>
      <trkpt lat="44.1092" lon="5.98044">
        <ele>578.79998779297</ele>
        <time>2020-12-17T10:05:24.000Z</time>
      </trkpt>
      <trkpt lat="44.10917" lon="5.98042">
        <ele>578.40002441406</ele>
        <time>2020-12-17T10:05:25.000Z</time>
      </trkpt>
      <trkpt lat="44.1091" lon="5.98037">
        <ele>577.79998779297</ele>
        <time>2020-12-17T10:05:29.000Z</time>
      </trkpt>
      <trkpt lat="44.10907" lon="5.98034">
        <ele>577.79998779297</ele>
        <time>2020-12-17T10:05:31.000Z</time>
      </trkpt>
      <trkpt lat="44.10899" lon="5.98022">
        <ele>578.79998779297</ele>
        <time>2020-12-17T10:05:37.000Z</time>
      </trkpt>
      <trkpt lat="44.10898" lon="5.9802">
        <ele>579.20001220703</ele>
        <time>2020-12-17T10:05:38.000Z</time>
      </trkpt>
      <trkpt lat="44.10897" lon="5.98018">
        <ele>580.40002441406</ele>
        <time>2020-12-17T10:05:41.000Z</time>
      </trkpt>
      <trkpt lat="44.10897" lon="5.98018">
        <ele>580.79998779297</ele>
        <time>2020-12-17T10:05:42.000Z</time>
      </trkpt>
      <trkpt lat="44.10897" lon="5.98018">
        <ele>581.79998779297</ele>
        <time>2020-12-17T10:05:44.000Z</time>
      </trkpt>
      <trkpt lat="44.10897" lon="5.98018">
        <ele>583</ele>
        <time>2020-12-17T10:05:47.000Z</time>
      </trkpt>
      <trkpt lat="44.10895" lon="5.98014">
        <ele>583.59997558594</ele>
        <time>2020-12-17T10:05:52.000Z</time>
      </trkpt>
      <trkpt lat="44.10893" lon="5.98011">
        <ele>583.59997558594</ele>
        <time>2020-12-17T10:05:57.000Z</time>
      </trkpt>
      <trkpt lat="44.10891" lon="5.98003">
        <ele>583.20001220703</ele>
        <time>2020-12-17T10:06:02.000Z</time>
      </trkpt>
      <trkpt lat="44.10888" lon="5.98">
        <ele>583</ele>
        <time>2020-12-17T10:06:07.000Z</time>
      </trkpt>
      <trkpt lat="44.10883" lon="5.97999">
        <ele>583</ele>
        <time>2020-12-17T10:06:10.000Z</time>
      </trkpt>
      <trkpt lat="44.10878" lon="5.98001">
        <ele>583.59997558594</ele>
        <time>2020-12-17T10:06:12.000Z</time>
      </trkpt>
      <trkpt lat="44.10876" lon="5.98002">
        <ele>584</ele>
        <time>2020-12-17T10:06:13.000Z</time>
      </trkpt>
      <trkpt lat="44.10859" lon="5.98002">
        <ele>584.59997558594</ele>
        <time>2020-12-17T10:06:18.000Z</time>
      </trkpt>
      <trkpt lat="44.10846" lon="5.97999">
        <ele>585.20001220703</ele>
        <time>2020-12-17T10:06:22.000Z</time>
      </trkpt>
      <trkpt lat="44.10836" lon="5.98009">
        <ele>585.40002441406</ele>
        <time>2020-12-17T10:06:26.000Z</time>
      </trkpt>
      <trkpt lat="44.10821" lon="5.98018">
        <ele>585.79998779297</ele>
        <time>2020-12-17T10:06:30.000Z</time>
      </trkpt>
      <trkpt lat="44.10807" lon="5.98017">
        <ele>585.79998779297</ele>
        <time>2020-12-17T10:06:34.000Z</time>
      </trkpt>
      <trkpt lat="44.10786" lon="5.98018">
        <ele>586</ele>
        <time>2020-12-17T10:06:39.000Z</time>
      </trkpt>
      <trkpt lat="44.10782" lon="5.98017">
        <ele>586</ele>
        <time>2020-12-17T10:06:40.000Z</time>
      </trkpt>
      <trkpt lat="44.10775" lon="5.98014">
        <ele>586</ele>
        <time>2020-12-17T10:06:42.000Z</time>
      </trkpt>
      <trkpt lat="44.10772" lon="5.98015">
        <ele>585.79998779297</ele>
        <time>2020-12-17T10:06:43.000Z</time>
      </trkpt>
      <trkpt lat="44.10767" lon="5.98022">
        <ele>585.79998779297</ele>
        <time>2020-12-17T10:06:45.000Z</time>
      </trkpt>
      <trkpt lat="44.10766" lon="5.98034">
        <ele>585.59997558594</ele>
        <time>2020-12-17T10:06:49.000Z</time>
      </trkpt>
      <trkpt lat="44.10765" lon="5.98052">
        <ele>584.59997558594</ele>
        <time>2020-12-17T10:06:53.000Z</time>
      </trkpt>
      <trkpt lat="44.10764" lon="5.98055">
        <ele>584</ele>
        <time>2020-12-17T10:06:54.000Z</time>
      </trkpt>
      <trkpt lat="44.10758" lon="5.98069">
        <ele>583.40002441406</ele>
        <time>2020-12-17T10:06:58.000Z</time>
      </trkpt>
      <trkpt lat="44.10753" lon="5.98094">
        <ele>583.20001220703</ele>
        <time>2020-12-17T10:07:03.000Z</time>
      </trkpt>
      <trkpt lat="44.10751" lon="5.98102">
        <ele>583</ele>
        <time>2020-12-17T10:07:05.000Z</time>
      </trkpt>
      <trkpt lat="44.10746" lon="5.98112">
        <ele>583</ele>
        <time>2020-12-17T10:07:08.000Z</time>
      </trkpt>
      <trkpt lat="44.1074" lon="5.98131">
        <ele>583.20001220703</ele>
        <time>2020-12-17T10:07:13.000Z</time>
      </trkpt>
      <trkpt lat="44.10734" lon="5.98141">
        <ele>583.59997558594</ele>
        <time>2020-12-17T10:07:16.000Z</time>
      </trkpt>
      <trkpt lat="44.10732" lon="5.98141">
        <ele>584</ele>
        <time>2020-12-17T10:07:17.000Z</time>
      </trkpt>
      <trkpt lat="44.1073" lon="5.98141">
        <ele>584.20001220703</ele>
        <time>2020-12-17T10:07:18.000Z</time>
      </trkpt>
      <trkpt lat="44.10725" lon="5.98139">
        <ele>584.59997558594</ele>
        <time>2020-12-17T10:07:20.000Z</time>
      </trkpt>
      <trkpt lat="44.10718" lon="5.98134">
        <ele>585</ele>
        <time>2020-12-17T10:07:23.000Z</time>
      </trkpt>
      <trkpt lat="44.10711" lon="5.98132">
        <ele>585.40002441406</ele>
        <time>2020-12-17T10:07:25.000Z</time>
      </trkpt>
      <trkpt lat="44.10707" lon="5.98134">
        <ele>585.79998779297</ele>
        <time>2020-12-17T10:07:26.000Z</time>
      </trkpt>
      <trkpt lat="44.10699" lon="5.98137">
        <ele>586.40002441406</ele>
        <time>2020-12-17T10:07:28.000Z</time>
      </trkpt>
      <trkpt lat="44.10695" lon="5.98139">
        <ele>586.59997558594</ele>
        <time>2020-12-17T10:07:29.000Z</time>
      </trkpt>
      <trkpt lat="44.10687" lon="5.98142">
        <ele>586.59997558594</ele>
        <time>2020-12-17T10:07:31.000Z</time>
      </trkpt>
      <trkpt lat="44.10672" lon="5.98141">
        <ele>586.59997558594</ele>
        <time>2020-12-17T10:07:35.000Z</time>
      </trkpt>
      <trkpt lat="44.1066" lon="5.98139">
        <ele>585.40002441406</ele>
        <time>2020-12-17T10:07:39.000Z</time>
      </trkpt>
      <trkpt lat="44.10657" lon="5.98144">
        <ele>584.20001220703</ele>
        <time>2020-12-17T10:07:41.000Z</time>
      </trkpt>
      <trkpt lat="44.10655" lon="5.98148">
        <ele>583.59997558594</ele>
        <time>2020-12-17T10:07:43.000Z</time>
      </trkpt>
      <trkpt lat="44.10653" lon="5.98153">
        <ele>583.40002441406</ele>
        <time>2020-12-17T10:07:45.000Z</time>
      </trkpt>
      <trkpt lat="44.10645" lon="5.98165">
        <ele>582.79998779297</ele>
        <time>2020-12-17T10:07:49.000Z</time>
      </trkpt>
      <trkpt lat="44.10642" lon="5.98169">
        <ele>582</ele>
        <time>2020-12-17T10:07:51.000Z</time>
      </trkpt>
      <trkpt lat="44.1064" lon="5.98173">
        <ele>580.59997558594</ele>
        <time>2020-12-17T10:07:53.000Z</time>
      </trkpt>
      <trkpt lat="44.10639" lon="5.98174">
        <ele>579.79998779297</ele>
        <time>2020-12-17T10:07:54.000Z</time>
      </trkpt>
      <trkpt lat="44.10638" lon="5.98175">
        <ele>578.79998779297</ele>
        <time>2020-12-17T10:07:55.000Z</time>
      </trkpt>
      <trkpt lat="44.10634" lon="5.98178">
        <ele>577.20001220703</ele>
        <time>2020-12-17T10:07:57.000Z</time>
      </trkpt>
      <trkpt lat="44.10633" lon="5.9818">
        <ele>576.59997558594</ele>
        <time>2020-12-17T10:07:58.000Z</time>
      </trkpt>
      <trkpt lat="44.10631" lon="5.9818">
        <ele>575.59997558594</ele>
        <time>2020-12-17T10:08:00.000Z</time>
      </trkpt>
      <trkpt lat="44.10628" lon="5.98176">
        <ele>574.20001220703</ele>
        <time>2020-12-17T10:08:03.000Z</time>
      </trkpt>
      <trkpt lat="44.10624" lon="5.9817">
        <ele>572.59997558594</ele>
        <time>2020-12-17T10:08:05.000Z</time>
      </trkpt>
      <trkpt lat="44.10623" lon="5.98168">
        <ele>572</ele>
        <time>2020-12-17T10:08:06.000Z</time>
      </trkpt>
      <trkpt lat="44.10621" lon="5.98168">
        <ele>571.40002441406</ele>
        <time>2020-12-17T10:08:07.000Z</time>
      </trkpt>
      <trkpt lat="44.10618" lon="5.98172">
        <ele>570.40002441406</ele>
        <time>2020-12-17T10:08:09.000Z</time>
      </trkpt>
      <trkpt lat="44.10617" lon="5.98175">
        <ele>570</ele>
        <time>2020-12-17T10:08:10.000Z</time>
      </trkpt>
      <trkpt lat="44.10615" lon="5.98177">
        <ele>569.59997558594</ele>
        <time>2020-12-17T10:08:11.000Z</time>
      </trkpt>
      <trkpt lat="44.10613" lon="5.98179">
        <ele>569.20001220703</ele>
        <time>2020-12-17T10:08:12.000Z</time>
      </trkpt>
      <trkpt lat="44.1061" lon="5.98181">
        <ele>568.79998779297</ele>
        <time>2020-12-17T10:08:14.000Z</time>
      </trkpt>
      <trkpt lat="44.10605" lon="5.98181">
        <ele>568.59997558594</ele>
        <time>2020-12-17T10:08:16.000Z</time>
      </trkpt>
      <trkpt lat="44.10589" lon="5.98184">
        <ele>568.59997558594</ele>
        <time>2020-12-17T10:08:21.000Z</time>
      </trkpt>
      <trkpt lat="44.10587" lon="5.98184">
        <ele>569</ele>
        <time>2020-12-17T10:08:22.000Z</time>
      </trkpt>
      <trkpt lat="44.10582" lon="5.98182">
        <ele>569.59997558594</ele>
        <time>2020-12-17T10:08:24.000Z</time>
      </trkpt>
      <trkpt lat="44.10578" lon="5.98179">
        <ele>570</ele>
        <time>2020-12-17T10:08:26.000Z</time>
      </trkpt>
      <trkpt lat="44.10576" lon="5.9818">
        <ele>570</ele>
        <time>2020-12-17T10:08:27.000Z</time>
      </trkpt>
      <trkpt lat="44.10568" lon="5.98182">
        <ele>570.40002441406</ele>
        <time>2020-12-17T10:08:30.000Z</time>
      </trkpt>
      <trkpt lat="44.10566" lon="5.98182">
        <ele>570.59997558594</ele>
        <time>2020-12-17T10:08:31.000Z</time>
      </trkpt>
      <trkpt lat="44.10562" lon="5.98181">
        <ele>570.79998779297</ele>
        <time>2020-12-17T10:08:33.000Z</time>
      </trkpt>
      <trkpt lat="44.10558" lon="5.98178">
        <ele>571.59997558594</ele>
        <time>2020-12-17T10:08:35.000Z</time>
      </trkpt>
      <trkpt lat="44.10548" lon="5.98171">
        <ele>572</ele>
        <time>2020-12-17T10:08:40.000Z</time>
      </trkpt>
      <trkpt lat="44.10544" lon="5.98169">
        <ele>572.20001220703</ele>
        <time>2020-12-17T10:08:42.000Z</time>
      </trkpt>
      <trkpt lat="44.10542" lon="5.98169">
        <ele>572.40002441406</ele>
        <time>2020-12-17T10:08:43.000Z</time>
      </trkpt>
      <trkpt lat="44.10538" lon="5.98173">
        <ele>572.59997558594</ele>
        <time>2020-12-17T10:08:45.000Z</time>
      </trkpt>
      <trkpt lat="44.10537" lon="5.98182">
        <ele>572.79998779297</ele>
        <time>2020-12-17T10:08:48.000Z</time>
      </trkpt>
      <trkpt lat="44.10536" lon="5.98186">
        <ele>572.79998779297</ele>
        <time>2020-12-17T10:08:49.000Z</time>
      </trkpt>
      <trkpt lat="44.1053" lon="5.98208">
        <ele>573.20001220703</ele>
        <time>2020-12-17T10:08:55.000Z</time>
      </trkpt>
      <trkpt lat="44.10527" lon="5.98213">
        <ele>573.20001220703</ele>
        <time>2020-12-17T10:08:57.000Z</time>
      </trkpt>
      <trkpt lat="44.10522" lon="5.98213">
        <ele>573.40002441406</ele>
        <time>2020-12-17T10:08:59.000Z</time>
      </trkpt>
      <trkpt lat="44.10507" lon="5.98209">
        <ele>573.59997558594</ele>
        <time>2020-12-17T10:09:05.000Z</time>
      </trkpt>
      <trkpt lat="44.10505" lon="5.98209">
        <ele>573.59997558594</ele>
        <time>2020-12-17T10:09:06.000Z</time>
      </trkpt>
      <trkpt lat="44.10502" lon="5.98211">
        <ele>573.59997558594</ele>
        <time>2020-12-17T10:09:07.000Z</time>
      </trkpt>
      <trkpt lat="44.10499" lon="5.98214">
        <ele>573.79998779297</ele>
        <time>2020-12-17T10:09:08.000Z</time>
      </trkpt>
      <trkpt lat="44.10488" lon="5.98225">
        <ele>573.79998779297</ele>
        <time>2020-12-17T10:09:13.000Z</time>
      </trkpt>
      <trkpt lat="44.10485" lon="5.98224">
        <ele>573.79998779297</ele>
        <time>2020-12-17T10:09:14.000Z</time>
      </trkpt>
      <trkpt lat="44.10481" lon="5.98224">
        <ele>573.79998779297</ele>
        <time>2020-12-17T10:09:16.000Z</time>
      </trkpt>
      <trkpt lat="44.10475" lon="5.98226">
        <ele>573.79998779297</ele>
        <time>2020-12-17T10:09:18.000Z</time>
      </trkpt>
      <trkpt lat="44.10465" lon="5.98233">
        <ele>573</ele>
        <time>2020-12-17T10:09:22.000Z</time>
      </trkpt>
      <trkpt lat="44.10465" lon="5.98237">
        <ele>573</ele>
        <time>2020-12-17T10:09:23.000Z</time>
      </trkpt>
      <trkpt lat="44.10469" lon="5.98248">
        <ele>572.59997558594</ele>
        <time>2020-12-17T10:09:26.000Z</time>
      </trkpt>
      <trkpt lat="44.10475" lon="5.98263">
        <ele>571.79998779297</ele>
        <time>2020-12-17T10:09:31.000Z</time>
      </trkpt>
      <trkpt lat="44.10475" lon="5.98266">
        <ele>571.40002441406</ele>
        <time>2020-12-17T10:09:32.000Z</time>
      </trkpt>
      <trkpt lat="44.10473" lon="5.98269">
        <ele>569.79998779297</ele>
        <time>2020-12-17T10:09:34.000Z</time>
      </trkpt>
      <trkpt lat="44.10468" lon="5.9827">
        <ele>568.40002441406</ele>
        <time>2020-12-17T10:09:36.000Z</time>
      </trkpt>
      <trkpt lat="44.10465" lon="5.9827">
        <ele>567.79998779297</ele>
        <time>2020-12-17T10:09:37.000Z</time>
      </trkpt>
      <trkpt lat="44.10461" lon="5.9827">
        <ele>567.40002441406</ele>
        <time>2020-12-17T10:09:38.000Z</time>
      </trkpt>
      <trkpt lat="44.10457" lon="5.98272">
        <ele>566.59997558594</ele>
        <time>2020-12-17T10:09:39.000Z</time>
      </trkpt>
      <trkpt lat="44.10453" lon="5.98275">
        <ele>566</ele>
        <time>2020-12-17T10:09:40.000Z</time>
      </trkpt>
      <trkpt lat="44.10446" lon="5.98279">
        <ele>564.79998779297</ele>
        <time>2020-12-17T10:09:42.000Z</time>
      </trkpt>
      <trkpt lat="44.10444" lon="5.98281">
        <ele>564.40002441406</ele>
        <time>2020-12-17T10:09:43.000Z</time>
      </trkpt>
      <trkpt lat="44.10445" lon="5.9829">
        <ele>564</ele>
        <time>2020-12-17T10:09:47.000Z</time>
      </trkpt>
      <trkpt lat="44.10446" lon="5.98294">
        <ele>563.79998779297</ele>
        <time>2020-12-17T10:09:50.000Z</time>
      </trkpt>
      <trkpt lat="44.10445" lon="5.98296">
        <ele>563.59997558594</ele>
        <time>2020-12-17T10:09:51.000Z</time>
      </trkpt>
      <trkpt lat="44.10447" lon="5.98306">
        <ele>562.59997558594</ele>
        <time>2020-12-17T10:09:56.000Z</time>
      </trkpt>
      <trkpt lat="44.10453" lon="5.9832">
        <ele>561.79998779297</ele>
        <time>2020-12-17T10:10:02.000Z</time>
      </trkpt>
      <trkpt lat="44.10457" lon="5.98332">
        <ele>562</ele>
        <time>2020-12-17T10:10:06.000Z</time>
      </trkpt>
      <trkpt lat="44.10461" lon="5.98348">
        <ele>563.20001220703</ele>
        <time>2020-12-17T10:10:11.000Z</time>
      </trkpt>
      <trkpt lat="44.10467" lon="5.98356">
        <ele>563.59997558594</ele>
        <time>2020-12-17T10:10:15.000Z</time>
      </trkpt>
      <trkpt lat="44.1047" lon="5.98357">
        <ele>563.79998779297</ele>
        <time>2020-12-17T10:10:16.000Z</time>
      </trkpt>
      <trkpt lat="44.1048" lon="5.98367">
        <ele>564.20001220703</ele>
        <time>2020-12-17T10:10:20.000Z</time>
      </trkpt>
      <trkpt lat="44.10485" lon="5.98375">
        <ele>564.20001220703</ele>
        <time>2020-12-17T10:10:24.000Z</time>
      </trkpt>
      <trkpt lat="44.10497" lon="5.98385">
        <ele>564.20001220703</ele>
        <time>2020-12-17T10:10:28.000Z</time>
      </trkpt>
      <trkpt lat="44.10503" lon="5.98399">
        <ele>564</ele>
        <time>2020-12-17T10:10:32.000Z</time>
      </trkpt>
      <trkpt lat="44.10506" lon="5.98408">
        <ele>562.79998779297</ele>
        <time>2020-12-17T10:10:35.000Z</time>
      </trkpt>
      <trkpt lat="44.10508" lon="5.9841">
        <ele>562.59997558594</ele>
        <time>2020-12-17T10:10:36.000Z</time>
      </trkpt>
      <trkpt lat="44.10522" lon="5.98416">
        <ele>562</ele>
        <time>2020-12-17T10:10:40.000Z</time>
      </trkpt>
      <trkpt lat="44.10526" lon="5.9842">
        <ele>561.79998779297</ele>
        <time>2020-12-17T10:10:41.000Z</time>
      </trkpt>
      <trkpt lat="44.1053" lon="5.98423">
        <ele>561.79998779297</ele>
        <time>2020-12-17T10:10:42.000Z</time>
      </trkpt>
      <trkpt lat="44.10538" lon="5.98428">
        <ele>561.59997558594</ele>
        <time>2020-12-17T10:10:44.000Z</time>
      </trkpt>
      <trkpt lat="44.10542" lon="5.98432">
        <ele>561.40002441406</ele>
        <time>2020-12-17T10:10:45.000Z</time>
      </trkpt>
      <trkpt lat="44.10545" lon="5.98442">
        <ele>560.79998779297</ele>
        <time>2020-12-17T10:10:47.000Z</time>
      </trkpt>
      <trkpt lat="44.10547" lon="5.98446">
        <ele>560.20001220703</ele>
        <time>2020-12-17T10:10:48.000Z</time>
      </trkpt>
      <trkpt lat="44.10552" lon="5.98455">
        <ele>559</ele>
        <time>2020-12-17T10:10:50.000Z</time>
      </trkpt>
      <trkpt lat="44.10554" lon="5.9846">
        <ele>557.79998779297</ele>
        <time>2020-12-17T10:10:51.000Z</time>
      </trkpt>
      <trkpt lat="44.10557" lon="5.98466">
        <ele>556.20001220703</ele>
        <time>2020-12-17T10:10:53.000Z</time>
      </trkpt>
      <trkpt lat="44.10561" lon="5.98474">
        <ele>555</ele>
        <time>2020-12-17T10:10:55.000Z</time>
      </trkpt>
      <trkpt lat="44.10568" lon="5.98484">
        <ele>554.40002441406</ele>
        <time>2020-12-17T10:10:57.000Z</time>
      </trkpt>
      <trkpt lat="44.1057" lon="5.98489">
        <ele>553.79998779297</ele>
        <time>2020-12-17T10:10:58.000Z</time>
      </trkpt>
      <trkpt lat="44.1057" lon="5.98506">
        <ele>552.79998779297</ele>
        <time>2020-12-17T10:11:01.000Z</time>
      </trkpt>
      <trkpt lat="44.10569" lon="5.98509">
        <ele>552.59997558594</ele>
        <time>2020-12-17T10:11:02.000Z</time>
      </trkpt>
      <trkpt lat="44.10568" lon="5.98512">
        <ele>552.59997558594</ele>
        <time>2020-12-17T10:11:03.000Z</time>
      </trkpt>
      <trkpt lat="44.10567" lon="5.98518">
        <ele>550.20001220703</ele>
        <time>2020-12-17T10:11:05.000Z</time>
      </trkpt>
      <trkpt lat="44.10568" lon="5.98522">
        <ele>549.59997558594</ele>
        <time>2020-12-17T10:11:06.000Z</time>
      </trkpt>
      <trkpt lat="44.10568" lon="5.98525">
        <ele>549.20001220703</ele>
        <time>2020-12-17T10:11:07.000Z</time>
      </trkpt>
      <trkpt lat="44.10568" lon="5.98529">
        <ele>548.79998779297</ele>
        <time>2020-12-17T10:11:08.000Z</time>
      </trkpt>
      <trkpt lat="44.10568" lon="5.98538">
        <ele>548.40002441406</ele>
        <time>2020-12-17T10:11:10.000Z</time>
      </trkpt>
      <trkpt lat="44.10568" lon="5.98553">
        <ele>548.20001220703</ele>
        <time>2020-12-17T10:11:13.000Z</time>
      </trkpt>
      <trkpt lat="44.10569" lon="5.98559">
        <ele>548</ele>
        <time>2020-12-17T10:11:14.000Z</time>
      </trkpt>
      <trkpt lat="44.1057" lon="5.98567">
        <ele>547.59997558594</ele>
        <time>2020-12-17T10:11:15.000Z</time>
      </trkpt>
      <trkpt lat="44.1057" lon="5.98587">
        <ele>547</ele>
        <time>2020-12-17T10:11:18.000Z</time>
      </trkpt>
      <trkpt lat="44.1057" lon="5.98593">
        <ele>546.59997558594</ele>
        <time>2020-12-17T10:11:19.000Z</time>
      </trkpt>
      <trkpt lat="44.10568" lon="5.98606">
        <ele>544.59997558594</ele>
        <time>2020-12-17T10:11:22.000Z</time>
      </trkpt>
      <trkpt lat="44.10561" lon="5.98614">
        <ele>543.40002441406</ele>
        <time>2020-12-17T10:11:25.000Z</time>
      </trkpt>
      <trkpt lat="44.10557" lon="5.98618">
        <ele>543.40002441406</ele>
        <time>2020-12-17T10:11:26.000Z</time>
      </trkpt>
      <trkpt lat="44.10546" lon="5.9863">
        <ele>542.79998779297</ele>
        <time>2020-12-17T10:11:29.000Z</time>
      </trkpt>
      <trkpt lat="44.1054" lon="5.9864">
        <ele>542.79998779297</ele>
        <time>2020-12-17T10:11:31.000Z</time>
      </trkpt>
      <trkpt lat="44.10531" lon="5.98654">
        <ele>542.79998779297</ele>
        <time>2020-12-17T10:11:34.000Z</time>
      </trkpt>
      <trkpt lat="44.10525" lon="5.9866">
        <ele>542.59997558594</ele>
        <time>2020-12-17T10:11:36.000Z</time>
      </trkpt>
      <trkpt lat="44.10512" lon="5.98662">
        <ele>542.20001220703</ele>
        <time>2020-12-17T10:11:40.000Z</time>
      </trkpt>
      <trkpt lat="44.10509" lon="5.98663">
        <ele>542.20001220703</ele>
        <time>2020-12-17T10:11:41.000Z</time>
      </trkpt>
      <trkpt lat="44.10499" lon="5.98669">
        <ele>542</ele>
        <time>2020-12-17T10:11:45.000Z</time>
      </trkpt>
      <trkpt lat="44.10498" lon="5.98673">
        <ele>542</ele>
        <time>2020-12-17T10:11:46.000Z</time>
      </trkpt>
      <trkpt lat="44.10497" lon="5.98691">
        <ele>541.79998779297</ele>
        <time>2020-12-17T10:11:49.000Z</time>
      </trkpt>
      <trkpt lat="44.10493" lon="5.98706">
        <ele>541.40002441406</ele>
        <time>2020-12-17T10:11:52.000Z</time>
      </trkpt>
      <trkpt lat="44.10491" lon="5.98708">
        <ele>541.20001220703</ele>
        <time>2020-12-17T10:11:53.000Z</time>
      </trkpt>
      <trkpt lat="44.10487" lon="5.98711">
        <ele>541.20001220703</ele>
        <time>2020-12-17T10:11:55.000Z</time>
      </trkpt>
      <trkpt lat="44.10485" lon="5.98713">
        <ele>541.20001220703</ele>
        <time>2020-12-17T10:11:56.000Z</time>
      </trkpt>
      <trkpt lat="44.1047" lon="5.9872">
        <ele>540.59997558594</ele>
        <time>2020-12-17T10:12:01.000Z</time>
      </trkpt>
      <trkpt lat="44.10453" lon="5.98727">
        <ele>540.59997558594</ele>
        <time>2020-12-17T10:12:07.000Z</time>
      </trkpt>
      <trkpt lat="44.10442" lon="5.98722">
        <ele>541.40002441406</ele>
        <time>2020-12-17T10:12:12.000Z</time>
      </trkpt>
      <trkpt lat="44.10428" lon="5.98725">
        <ele>542.59997558594</ele>
        <time>2020-12-17T10:12:17.000Z</time>
      </trkpt>
      <trkpt lat="44.10423" lon="5.98732">
        <ele>543.59997558594</ele>
        <time>2020-12-17T10:12:20.000Z</time>
      </trkpt>
      <trkpt lat="44.10421" lon="5.98735">
        <ele>544</ele>
        <time>2020-12-17T10:12:21.000Z</time>
      </trkpt>
      <trkpt lat="44.10416" lon="5.98742">
        <ele>544.79998779297</ele>
        <time>2020-12-17T10:12:24.000Z</time>
      </trkpt>
      <trkpt lat="44.10409" lon="5.98751">
        <ele>545.20001220703</ele>
        <time>2020-12-17T10:12:27.000Z</time>
      </trkpt>
      <trkpt lat="44.10408" lon="5.98758">
        <ele>545.20001220703</ele>
        <time>2020-12-17T10:12:31.000Z</time>
      </trkpt>
      <trkpt lat="44.10403" lon="5.98763">
        <ele>545.40002441406</ele>
        <time>2020-12-17T10:12:39.000Z</time>
      </trkpt>
      <trkpt lat="44.104" lon="5.98763">
        <ele>545.59997558594</ele>
        <time>2020-12-17T10:12:43.000Z</time>
      </trkpt>
      <trkpt lat="44.10399" lon="5.98761">
        <ele>545.59997558594</ele>
        <time>2020-12-17T10:12:44.000Z</time>
      </trkpt>
      <trkpt lat="44.10399" lon="5.98758">
        <ele>546</ele>
        <time>2020-12-17T10:12:45.000Z</time>
      </trkpt>
      <trkpt lat="44.10396" lon="5.98753">
        <ele>546.59997558594</ele>
        <time>2020-12-17T10:12:47.000Z</time>
      </trkpt>
      <trkpt lat="44.10392" lon="5.98753">
        <ele>547</ele>
        <time>2020-12-17T10:12:49.000Z</time>
      </trkpt>
      <trkpt lat="44.10384" lon="5.98752">
        <ele>548</ele>
        <time>2020-12-17T10:12:54.000Z</time>
      </trkpt>
      <trkpt lat="44.10377" lon="5.98758">
        <ele>549.20001220703</ele>
        <time>2020-12-17T10:12:58.000Z</time>
      </trkpt>
      <trkpt lat="44.10374" lon="5.98762">
        <ele>550.20001220703</ele>
        <time>2020-12-17T10:13:00.000Z</time>
      </trkpt>
      <trkpt lat="44.10371" lon="5.98766">
        <ele>551.20001220703</ele>
        <time>2020-12-17T10:13:02.000Z</time>
      </trkpt>
      <trkpt lat="44.10367" lon="5.98772">
        <ele>552</ele>
        <time>2020-12-17T10:13:05.000Z</time>
      </trkpt>
      <trkpt lat="44.10365" lon="5.98773">
        <ele>552.59997558594</ele>
        <time>2020-12-17T10:13:06.000Z</time>
      </trkpt>
      <trkpt lat="44.10358" lon="5.9878">
        <ele>553.79998779297</ele>
        <time>2020-12-17T10:13:10.000Z</time>
      </trkpt>
      <trkpt lat="44.10353" lon="5.98783">
        <ele>554.79998779297</ele>
        <time>2020-12-17T10:13:13.000Z</time>
      </trkpt>
      <trkpt lat="44.10349" lon="5.98779">
        <ele>556</ele>
        <time>2020-12-17T10:13:17.000Z</time>
      </trkpt>
      <trkpt lat="44.10348" lon="5.98778">
        <ele>556.20001220703</ele>
        <time>2020-12-17T10:13:18.000Z</time>
      </trkpt>
      <trkpt lat="44.10347" lon="5.98778">
        <ele>556.20001220703</ele>
        <time>2020-12-17T10:13:19.000Z</time>
      </trkpt>
      <trkpt lat="44.10347" lon="5.98777">
        <ele>557</ele>
        <time>2020-12-17T10:13:24.000Z</time>
      </trkpt>
      <trkpt lat="44.10347" lon="5.98777">
        <ele>557.79998779297</ele>
        <time>2020-12-17T10:13:36.000Z</time>
      </trkpt>
      <trkpt lat="44.10347" lon="5.98777">
        <ele>557.79998779297</ele>
        <time>2020-12-17T10:13:56.000Z</time>
      </trkpt>
      <trkpt lat="44.10346" lon="5.98775">
        <ele>557.79998779297</ele>
        <time>2020-12-17T10:14:15.000Z</time>
      </trkpt>
      <trkpt lat="44.10345" lon="5.98774">
        <ele>557.79998779297</ele>
        <time>2020-12-17T10:14:16.000Z</time>
      </trkpt>
      <trkpt lat="44.10342" lon="5.98768">
        <ele>557.79998779297</ele>
        <time>2020-12-17T10:14:19.000Z</time>
      </trkpt>
      <trkpt lat="44.10341" lon="5.9876">
        <ele>557.79998779297</ele>
        <time>2020-12-17T10:14:22.000Z</time>
      </trkpt>
      <trkpt lat="44.10342" lon="5.98757">
        <ele>557.79998779297</ele>
        <time>2020-12-17T10:14:23.000Z</time>
      </trkpt>
      <trkpt lat="44.10347" lon="5.98739">
        <ele>558</ele>
        <time>2020-12-17T10:14:28.000Z</time>
      </trkpt>
      <trkpt lat="44.10348" lon="5.98736">
        <ele>558</ele>
        <time>2020-12-17T10:14:29.000Z</time>
      </trkpt>
      <trkpt lat="44.10352" lon="5.98722">
        <ele>558</ele>
        <time>2020-12-17T10:14:33.000Z</time>
      </trkpt>
      <trkpt lat="44.10361" lon="5.98711">
        <ele>557.79998779297</ele>
        <time>2020-12-17T10:14:37.000Z</time>
      </trkpt>
      <trkpt lat="44.10369" lon="5.98703">
        <ele>557.59997558594</ele>
        <time>2020-12-17T10:14:41.000Z</time>
      </trkpt>
      <trkpt lat="44.10382" lon="5.98691">
        <ele>557.59997558594</ele>
        <time>2020-12-17T10:14:46.000Z</time>
      </trkpt>
      <trkpt lat="44.10393" lon="5.98681">
        <ele>557.40002441406</ele>
        <time>2020-12-17T10:14:50.000Z</time>
      </trkpt>
      <trkpt lat="44.10406" lon="5.98669">
        <ele>556.59997558594</ele>
        <time>2020-12-17T10:14:55.000Z</time>
      </trkpt>
      <trkpt lat="44.10425" lon="5.98654">
        <ele>556.59997558594</ele>
        <time>2020-12-17T10:15:01.000Z</time>
      </trkpt>
      <trkpt lat="44.10436" lon="5.98644">
        <ele>556.59997558594</ele>
        <time>2020-12-17T10:15:04.000Z</time>
      </trkpt>
      <trkpt lat="44.10442" lon="5.98641">
        <ele>556.59997558594</ele>
        <time>2020-12-17T10:15:05.000Z</time>
      </trkpt>
      <trkpt lat="44.1046" lon="5.98626">
        <ele>556.40002441406</ele>
        <time>2020-12-17T10:15:10.000Z</time>
      </trkpt>
      <trkpt lat="44.10464" lon="5.98623">
        <ele>556.20001220703</ele>
        <time>2020-12-17T10:15:11.000Z</time>
      </trkpt>
      <trkpt lat="44.10472" lon="5.98609">
        <ele>556</ele>
        <time>2020-12-17T10:15:15.000Z</time>
      </trkpt>
      <trkpt lat="44.1048" lon="5.986">
        <ele>556</ele>
        <time>2020-12-17T10:15:19.000Z</time>
      </trkpt>
      <trkpt lat="44.10483" lon="5.98596">
        <ele>556</ele>
        <time>2020-12-17T10:15:20.000Z</time>
      </trkpt>
      <trkpt lat="44.10488" lon="5.98588">
        <ele>556.20001220703</ele>
        <time>2020-12-17T10:15:22.000Z</time>
      </trkpt>
      <trkpt lat="44.10496" lon="5.98579">
        <ele>556.59997558594</ele>
        <time>2020-12-17T10:15:25.000Z</time>
      </trkpt>
      <trkpt lat="44.10499" lon="5.98575">
        <ele>556.79998779297</ele>
        <time>2020-12-17T10:15:26.000Z</time>
      </trkpt>
      <trkpt lat="44.10506" lon="5.98567">
        <ele>556.79998779297</ele>
        <time>2020-12-17T10:15:29.000Z</time>
      </trkpt>
      <trkpt lat="44.10507" lon="5.98568">
        <ele>556.79998779297</ele>
        <time>2020-12-17T10:15:30.000Z</time>
      </trkpt>
      <trkpt lat="44.10515" lon="5.98563">
        <ele>556.79998779297</ele>
        <time>2020-12-17T10:15:33.000Z</time>
      </trkpt>
      <trkpt lat="44.10527" lon="5.98546">
        <ele>556.20001220703</ele>
        <time>2020-12-17T10:15:38.000Z</time>
      </trkpt>
      <trkpt lat="44.10528" lon="5.98532">
        <ele>555.20001220703</ele>
        <time>2020-12-17T10:15:42.000Z</time>
      </trkpt>
      <trkpt lat="44.10528" lon="5.98514">
        <ele>555.20001220703</ele>
        <time>2020-12-17T10:15:47.000Z</time>
      </trkpt>
      <trkpt lat="44.10523" lon="5.98499">
        <ele>555.59997558594</ele>
        <time>2020-12-17T10:15:52.000Z</time>
      </trkpt>
      <trkpt lat="44.10517" lon="5.98486">
        <ele>557.20001220703</ele>
        <time>2020-12-17T10:15:57.000Z</time>
      </trkpt>
      <trkpt lat="44.10516" lon="5.98483">
        <ele>557.59997558594</ele>
        <time>2020-12-17T10:15:58.000Z</time>
      </trkpt>
      <trkpt lat="44.10515" lon="5.98473">
        <ele>558.79998779297</ele>
        <time>2020-12-17T10:16:01.000Z</time>
      </trkpt>
      <trkpt lat="44.10514" lon="5.9847">
        <ele>559.40002441406</ele>
        <time>2020-12-17T10:16:02.000Z</time>
      </trkpt>
      <trkpt lat="44.10513" lon="5.98468">
        <ele>560</ele>
        <time>2020-12-17T10:16:03.000Z</time>
      </trkpt>
      <trkpt lat="44.10511" lon="5.98462">
        <ele>561.20001220703</ele>
        <time>2020-12-17T10:16:05.000Z</time>
      </trkpt>
      <trkpt lat="44.10508" lon="5.98452">
        <ele>561.79998779297</ele>
        <time>2020-12-17T10:16:07.000Z</time>
      </trkpt>
      <trkpt lat="44.10506" lon="5.98448">
        <ele>562.20001220703</ele>
        <time>2020-12-17T10:16:08.000Z</time>
      </trkpt>
      <trkpt lat="44.10502" lon="5.98432">
        <ele>563.40002441406</ele>
        <time>2020-12-17T10:16:12.000Z</time>
      </trkpt>
      <trkpt lat="44.10497" lon="5.98427">
        <ele>563.79998779297</ele>
        <time>2020-12-17T10:16:15.000Z</time>
      </trkpt>
      <trkpt lat="44.10496" lon="5.98426">
        <ele>563.79998779297</ele>
        <time>2020-12-17T10:16:16.000Z</time>
      </trkpt>
      <trkpt lat="44.10493" lon="5.98424">
        <ele>564.40002441406</ele>
        <time>2020-12-17T10:16:18.000Z</time>
      </trkpt>
      <trkpt lat="44.10486" lon="5.98418">
        <ele>565.40002441406</ele>
        <time>2020-12-17T10:16:22.000Z</time>
      </trkpt>
      <trkpt lat="44.1048" lon="5.98416">
        <ele>566.40002441406</ele>
        <time>2020-12-17T10:16:25.000Z</time>
      </trkpt>
      <trkpt lat="44.10476" lon="5.98414">
        <ele>567.40002441406</ele>
        <time>2020-12-17T10:16:27.000Z</time>
      </trkpt>
      <trkpt lat="44.10474" lon="5.98412">
        <ele>567.59997558594</ele>
        <time>2020-12-17T10:16:28.000Z</time>
      </trkpt>
      <trkpt lat="44.10467" lon="5.98404">
        <ele>568.40002441406</ele>
        <time>2020-12-17T10:16:31.000Z</time>
      </trkpt>
      <trkpt lat="44.10464" lon="5.984">
        <ele>568.59997558594</ele>
        <time>2020-12-17T10:16:32.000Z</time>
      </trkpt>
      <trkpt lat="44.10454" lon="5.98386">
        <ele>569.79998779297</ele>
        <time>2020-12-17T10:16:36.000Z</time>
      </trkpt>
      <trkpt lat="44.10435" lon="5.9838">
        <ele>571</ele>
        <time>2020-12-17T10:16:43.000Z</time>
      </trkpt>
      <trkpt lat="44.10433" lon="5.98379">
        <ele>571</ele>
        <time>2020-12-17T10:16:44.000Z</time>
      </trkpt>
      <trkpt lat="44.10421" lon="5.98374">
        <ele>571.79998779297</ele>
        <time>2020-12-17T10:16:49.000Z</time>
      </trkpt>
      <trkpt lat="44.10419" lon="5.98374">
        <ele>572.20001220703</ele>
        <time>2020-12-17T10:16:50.000Z</time>
      </trkpt>
      <trkpt lat="44.10413" lon="5.98374">
        <ele>573.40002441406</ele>
        <time>2020-12-17T10:16:53.000Z</time>
      </trkpt>
      <trkpt lat="44.10411" lon="5.98373">
        <ele>573.79998779297</ele>
        <time>2020-12-17T10:16:54.000Z</time>
      </trkpt>
      <trkpt lat="44.1041" lon="5.98371">
        <ele>574.20001220703</ele>
        <time>2020-12-17T10:16:55.000Z</time>
      </trkpt>
      <trkpt lat="44.10405" lon="5.98369">
        <ele>575.20001220703</ele>
        <time>2020-12-17T10:16:57.000Z</time>
      </trkpt>
      <trkpt lat="44.10403" lon="5.98367">
        <ele>575.59997558594</ele>
        <time>2020-12-17T10:16:58.000Z</time>
      </trkpt>
      <trkpt lat="44.10398" lon="5.98365">
        <ele>576.20001220703</ele>
        <time>2020-12-17T10:17:00.000Z</time>
      </trkpt>
      <trkpt lat="44.10387" lon="5.98361">
        <ele>577.40002441406</ele>
        <time>2020-12-17T10:17:04.000Z</time>
      </trkpt>
      <trkpt lat="44.10375" lon="5.98358">
        <ele>578.59997558594</ele>
        <time>2020-12-17T10:17:08.000Z</time>
      </trkpt>
      <trkpt lat="44.10364" lon="5.98356">
        <ele>579.79998779297</ele>
        <time>2020-12-17T10:17:12.000Z</time>
      </trkpt>
      <trkpt lat="44.10362" lon="5.98355">
        <ele>580</ele>
        <time>2020-12-17T10:17:13.000Z</time>
      </trkpt>
      <trkpt lat="44.10357" lon="5.98351">
        <ele>580.59997558594</ele>
        <time>2020-12-17T10:17:16.000Z</time>
      </trkpt>
      <trkpt lat="44.10353" lon="5.98352">
        <ele>581</ele>
        <time>2020-12-17T10:17:18.000Z</time>
      </trkpt>
      <trkpt lat="44.10346" lon="5.98351">
        <ele>581.59997558594</ele>
        <time>2020-12-17T10:17:22.000Z</time>
      </trkpt>
      <trkpt lat="44.10344" lon="5.98348">
        <ele>581.59997558594</ele>
        <time>2020-12-17T10:17:23.000Z</time>
      </trkpt>
      <trkpt lat="44.10341" lon="5.98345">
        <ele>582</ele>
        <time>2020-12-17T10:17:25.000Z</time>
      </trkpt>
      <trkpt lat="44.10336" lon="5.98341">
        <ele>582.79998779297</ele>
        <time>2020-12-17T10:17:28.000Z</time>
      </trkpt>
      <trkpt lat="44.10334" lon="5.98338">
        <ele>583</ele>
        <time>2020-12-17T10:17:30.000Z</time>
      </trkpt>
      <trkpt lat="44.10333" lon="5.98335">
        <ele>583.20001220703</ele>
        <time>2020-12-17T10:17:31.000Z</time>
      </trkpt>
      <trkpt lat="44.10332" lon="5.98332">
        <ele>583.20001220703</ele>
        <time>2020-12-17T10:17:32.000Z</time>
      </trkpt>
      <trkpt lat="44.1033" lon="5.98325">
        <ele>583.59997558594</ele>
        <time>2020-12-17T10:17:34.000Z</time>
      </trkpt>
      <trkpt lat="44.10327" lon="5.98321">
        <ele>583.40002441406</ele>
        <time>2020-12-17T10:17:36.000Z</time>
      </trkpt>
      <trkpt lat="44.1032" lon="5.98314">
        <ele>584</ele>
        <time>2020-12-17T10:17:41.000Z</time>
      </trkpt>
      <trkpt lat="44.10318" lon="5.98312">
        <ele>584.20001220703</ele>
        <time>2020-12-17T10:17:42.000Z</time>
      </trkpt>
      <trkpt lat="44.10302" lon="5.98301">
        <ele>584.79998779297</ele>
        <time>2020-12-17T10:17:48.000Z</time>
      </trkpt>
      <trkpt lat="44.10293" lon="5.98298">
        <ele>585.40002441406</ele>
        <time>2020-12-17T10:17:51.000Z</time>
      </trkpt>
      <trkpt lat="44.1029" lon="5.98297">
        <ele>585.59997558594</ele>
        <time>2020-12-17T10:17:52.000Z</time>
      </trkpt>
      <trkpt lat="44.10286" lon="5.98297">
        <ele>585.79998779297</ele>
        <time>2020-12-17T10:17:53.000Z</time>
      </trkpt>
      <trkpt lat="44.10281" lon="5.98301">
        <ele>586</ele>
        <time>2020-12-17T10:17:56.000Z</time>
      </trkpt>
      <trkpt lat="44.10278" lon="5.983">
        <ele>586.59997558594</ele>
        <time>2020-12-17T10:18:02.000Z</time>
      </trkpt>
      <trkpt lat="44.10278" lon="5.983">
        <ele>586.59997558594</ele>
        <time>2020-12-17T10:18:15.000Z</time>
      </trkpt>
      <trkpt lat="44.10278" lon="5.98299">
        <ele>586.59997558594</ele>
        <time>2020-12-17T10:18:35.000Z</time>
      </trkpt>
      <trkpt lat="44.10277" lon="5.98299">
        <ele>586.59997558594</ele>
        <time>2020-12-17T10:18:49.000Z</time>
      </trkpt>
      <trkpt lat="44.10275" lon="5.98302">
        <ele>586.40002441406</ele>
        <time>2020-12-17T10:19:05.000Z</time>
      </trkpt>
      <trkpt lat="44.10268" lon="5.98309">
        <ele>586.40002441406</ele>
        <time>2020-12-17T10:19:10.000Z</time>
      </trkpt>
      <trkpt lat="44.10265" lon="5.98311">
        <ele>586.40002441406</ele>
        <time>2020-12-17T10:19:12.000Z</time>
      </trkpt>
      <trkpt lat="44.10262" lon="5.98311">
        <ele>586.20001220703</ele>
        <time>2020-12-17T10:19:14.000Z</time>
      </trkpt>
      <trkpt lat="44.10249" lon="5.98309">
        <ele>585.59997558594</ele>
        <time>2020-12-17T10:19:19.000Z</time>
      </trkpt>
      <trkpt lat="44.10248" lon="5.98307">
        <ele>585.40002441406</ele>
        <time>2020-12-17T10:19:20.000Z</time>
      </trkpt>
      <trkpt lat="44.10242" lon="5.98305">
        <ele>584.79998779297</ele>
        <time>2020-12-17T10:19:23.000Z</time>
      </trkpt>
      <trkpt lat="44.10239" lon="5.98305">
        <ele>584.59997558594</ele>
        <time>2020-12-17T10:19:24.000Z</time>
      </trkpt>
      <trkpt lat="44.10234" lon="5.98308">
        <ele>584.20001220703</ele>
        <time>2020-12-17T10:19:26.000Z</time>
      </trkpt>
      <trkpt lat="44.10227" lon="5.98313">
        <ele>583.79998779297</ele>
        <time>2020-12-17T10:19:28.000Z</time>
      </trkpt>
      <trkpt lat="44.10221" lon="5.98314">
        <ele>583.59997558594</ele>
        <time>2020-12-17T10:19:30.000Z</time>
      </trkpt>
      <trkpt lat="44.10218" lon="5.98313">
        <ele>583.40002441406</ele>
        <time>2020-12-17T10:19:31.000Z</time>
      </trkpt>
      <trkpt lat="44.10209" lon="5.98315">
        <ele>583</ele>
        <time>2020-12-17T10:19:34.000Z</time>
      </trkpt>
      <trkpt lat="44.10205" lon="5.98315">
        <ele>582.59997558594</ele>
        <time>2020-12-17T10:19:35.000Z</time>
      </trkpt>
      <trkpt lat="44.10196" lon="5.98318">
        <ele>581.20001220703</ele>
        <time>2020-12-17T10:19:37.000Z</time>
      </trkpt>
      <trkpt lat="44.10188" lon="5.98324">
        <ele>580.40002441406</ele>
        <time>2020-12-17T10:19:40.000Z</time>
      </trkpt>
      <trkpt lat="44.10184" lon="5.98324">
        <ele>580.20001220703</ele>
        <time>2020-12-17T10:19:41.000Z</time>
      </trkpt>
      <trkpt lat="44.10176" lon="5.98329">
        <ele>579.59997558594</ele>
        <time>2020-12-17T10:19:44.000Z</time>
      </trkpt>
      <trkpt lat="44.10174" lon="5.98339">
        <ele>579</ele>
        <time>2020-12-17T10:19:47.000Z</time>
      </trkpt>
      <trkpt lat="44.10174" lon="5.98343">
        <ele>578.59997558594</ele>
        <time>2020-12-17T10:19:48.000Z</time>
      </trkpt>
      <trkpt lat="44.10174" lon="5.98347">
        <ele>578</ele>
        <time>2020-12-17T10:19:49.000Z</time>
      </trkpt>
      <trkpt lat="44.10177" lon="5.98354">
        <ele>577</ele>
        <time>2020-12-17T10:19:52.000Z</time>
      </trkpt>
      <trkpt lat="44.10178" lon="5.98356">
        <ele>576.79998779297</ele>
        <time>2020-12-17T10:19:53.000Z</time>
      </trkpt>
      <trkpt lat="44.10184" lon="5.98362">
        <ele>576.79998779297</ele>
        <time>2020-12-17T10:19:57.000Z</time>
      </trkpt>
      <trkpt lat="44.10184" lon="5.98364">
        <ele>576.79998779297</ele>
        <time>2020-12-17T10:19:58.000Z</time>
      </trkpt>
      <trkpt lat="44.10179" lon="5.9838">
        <ele>576.79998779297</ele>
        <time>2020-12-17T10:20:02.000Z</time>
      </trkpt>
      <trkpt lat="44.10179" lon="5.98392">
        <ele>577</ele>
        <time>2020-12-17T10:20:05.000Z</time>
      </trkpt>
      <trkpt lat="44.10179" lon="5.98395">
        <ele>577</ele>
        <time>2020-12-17T10:20:06.000Z</time>
      </trkpt>
      <trkpt lat="44.1018" lon="5.98409">
        <ele>577.40002441406</ele>
        <time>2020-12-17T10:20:10.000Z</time>
      </trkpt>
      <trkpt lat="44.10179" lon="5.98413">
        <ele>577.59997558594</ele>
        <time>2020-12-17T10:20:11.000Z</time>
      </trkpt>
      <trkpt lat="44.10171" lon="5.98414">
        <ele>577.59997558594</ele>
        <time>2020-12-17T10:20:14.000Z</time>
      </trkpt>
      <trkpt lat="44.10167" lon="5.98412">
        <ele>577.59997558594</ele>
        <time>2020-12-17T10:20:15.000Z</time>
      </trkpt>
      <trkpt lat="44.10161" lon="5.98411">
        <ele>577.40002441406</ele>
        <time>2020-12-17T10:20:16.000Z</time>
      </trkpt>
      <trkpt lat="44.10151" lon="5.98408">
        <ele>577.40002441406</ele>
        <time>2020-12-17T10:20:18.000Z</time>
      </trkpt>
      <trkpt lat="44.10141" lon="5.98415">
        <ele>577.40002441406</ele>
        <time>2020-12-17T10:20:21.000Z</time>
      </trkpt>
      <trkpt lat="44.1013" lon="5.98428">
        <ele>575.79998779297</ele>
        <time>2020-12-17T10:20:25.000Z</time>
      </trkpt>
      <trkpt lat="44.1012" lon="5.98425">
        <ele>574.20001220703</ele>
        <time>2020-12-17T10:20:28.000Z</time>
      </trkpt>
      <trkpt lat="44.1012" lon="5.98421">
        <ele>574</ele>
        <time>2020-12-17T10:20:29.000Z</time>
      </trkpt>
      <trkpt lat="44.10112" lon="5.98416">
        <ele>573.40002441406</ele>
        <time>2020-12-17T10:20:32.000Z</time>
      </trkpt>
      <trkpt lat="44.10104" lon="5.98419">
        <ele>573.20001220703</ele>
        <time>2020-12-17T10:20:34.000Z</time>
      </trkpt>
      <trkpt lat="44.10101" lon="5.98422">
        <ele>572.59997558594</ele>
        <time>2020-12-17T10:20:35.000Z</time>
      </trkpt>
      <trkpt lat="44.10098" lon="5.98424">
        <ele>571.79998779297</ele>
        <time>2020-12-17T10:20:36.000Z</time>
      </trkpt>
      <trkpt lat="44.10091" lon="5.98425">
        <ele>571</ele>
        <time>2020-12-17T10:20:38.000Z</time>
      </trkpt>
      <trkpt lat="44.10086" lon="5.98426">
        <ele>570.40002441406</ele>
        <time>2020-12-17T10:20:39.000Z</time>
      </trkpt>
      <trkpt lat="44.10076" lon="5.98423">
        <ele>569.40002441406</ele>
        <time>2020-12-17T10:20:41.000Z</time>
      </trkpt>
      <trkpt lat="44.10072" lon="5.98421">
        <ele>569.20001220703</ele>
        <time>2020-12-17T10:20:42.000Z</time>
      </trkpt>
      <trkpt lat="44.10065" lon="5.98419">
        <ele>568.79998779297</ele>
        <time>2020-12-17T10:20:44.000Z</time>
      </trkpt>
      <trkpt lat="44.10057" lon="5.98421">
        <ele>568.59997558594</ele>
        <time>2020-12-17T10:20:46.000Z</time>
      </trkpt>
      <trkpt lat="44.10054" lon="5.98424">
        <ele>568</ele>
        <time>2020-12-17T10:20:47.000Z</time>
      </trkpt>
      <trkpt lat="44.10047" lon="5.98426">
        <ele>566.40002441406</ele>
        <time>2020-12-17T10:20:49.000Z</time>
      </trkpt>
      <trkpt lat="44.10043" lon="5.98427">
        <ele>565.59997558594</ele>
        <time>2020-12-17T10:20:50.000Z</time>
      </trkpt>
      <trkpt lat="44.1004" lon="5.98428">
        <ele>565.20001220703</ele>
        <time>2020-12-17T10:20:51.000Z</time>
      </trkpt>
      <trkpt lat="44.10034" lon="5.98431">
        <ele>564</ele>
        <time>2020-12-17T10:20:53.000Z</time>
      </trkpt>
      <trkpt lat="44.10027" lon="5.98436">
        <ele>563.59997558594</ele>
        <time>2020-12-17T10:20:55.000Z</time>
      </trkpt>
      <trkpt lat="44.10018" lon="5.98442">
        <ele>563</ele>
        <time>2020-12-17T10:20:58.000Z</time>
      </trkpt>
      <trkpt lat="44.10016" lon="5.98445">
        <ele>562.59997558594</ele>
        <time>2020-12-17T10:20:59.000Z</time>
      </trkpt>
      <trkpt lat="44.10011" lon="5.98449">
        <ele>561.40002441406</ele>
        <time>2020-12-17T10:21:01.000Z</time>
      </trkpt>
      <trkpt lat="44.10007" lon="5.98453">
        <ele>559.59997558594</ele>
        <time>2020-12-17T10:21:03.000Z</time>
      </trkpt>
      <trkpt lat="44.09999" lon="5.98463">
        <ele>558</ele>
        <time>2020-12-17T10:21:06.000Z</time>
      </trkpt>
      <trkpt lat="44.09995" lon="5.98464">
        <ele>557.40002441406</ele>
        <time>2020-12-17T10:21:07.000Z</time>
      </trkpt>
      <trkpt lat="44.09992" lon="5.98465">
        <ele>556.79998779297</ele>
        <time>2020-12-17T10:21:08.000Z</time>
      </trkpt>
      <trkpt lat="44.09983" lon="5.98469">
        <ele>556.20001220703</ele>
        <time>2020-12-17T10:21:11.000Z</time>
      </trkpt>
      <trkpt lat="44.0998" lon="5.9847">
        <ele>556</ele>
        <time>2020-12-17T10:21:13.000Z</time>
      </trkpt>
      <trkpt lat="44.09979" lon="5.9847">
        <ele>555.79998779297</ele>
        <time>2020-12-17T10:21:15.000Z</time>
      </trkpt>
      <trkpt lat="44.09978" lon="5.98468">
        <ele>555.40002441406</ele>
        <time>2020-12-17T10:21:17.000Z</time>
      </trkpt>
      <trkpt lat="44.09977" lon="5.98466">
        <ele>555</ele>
        <time>2020-12-17T10:21:18.000Z</time>
      </trkpt>
      <trkpt lat="44.09975" lon="5.9846">
        <ele>554.20001220703</ele>
        <time>2020-12-17T10:21:22.000Z</time>
      </trkpt>
      <trkpt lat="44.09972" lon="5.9846">
        <ele>552.79998779297</ele>
        <time>2020-12-17T10:21:26.000Z</time>
      </trkpt>
      <trkpt lat="44.09971" lon="5.98461">
        <ele>552.20001220703</ele>
        <time>2020-12-17T10:21:27.000Z</time>
      </trkpt>
      <trkpt lat="44.09969" lon="5.98462">
        <ele>551.59997558594</ele>
        <time>2020-12-17T10:21:28.000Z</time>
      </trkpt>
      <trkpt lat="44.09967" lon="5.98465">
        <ele>550.20001220703</ele>
        <time>2020-12-17T10:21:30.000Z</time>
      </trkpt>
      <trkpt lat="44.09964" lon="5.98467">
        <ele>549.59997558594</ele>
        <time>2020-12-17T10:21:31.000Z</time>
      </trkpt>
      <trkpt lat="44.09962" lon="5.9847">
        <ele>549.20001220703</ele>
        <time>2020-12-17T10:21:32.000Z</time>
      </trkpt>
      <trkpt lat="44.09955" lon="5.98474">
        <ele>548.40002441406</ele>
        <time>2020-12-17T10:21:36.000Z</time>
      </trkpt>
      <trkpt lat="44.0995" lon="5.98475">
        <ele>548.20001220703</ele>
        <time>2020-12-17T10:21:38.000Z</time>
      </trkpt>
      <trkpt lat="44.09948" lon="5.98477">
        <ele>548</ele>
        <time>2020-12-17T10:21:39.000Z</time>
      </trkpt>
      <trkpt lat="44.09946" lon="5.98478">
        <ele>548</ele>
        <time>2020-12-17T10:21:40.000Z</time>
      </trkpt>
      <trkpt lat="44.09937" lon="5.98476">
        <ele>548</ele>
        <time>2020-12-17T10:21:45.000Z</time>
      </trkpt>
      <trkpt lat="44.09926" lon="5.98471">
        <ele>549</ele>
        <time>2020-12-17T10:21:50.000Z</time>
      </trkpt>
      <trkpt lat="44.09923" lon="5.9847">
        <ele>549.20001220703</ele>
        <time>2020-12-17T10:21:51.000Z</time>
      </trkpt>
      <trkpt lat="44.09909" lon="5.98462">
        <ele>549.79998779297</ele>
        <time>2020-12-17T10:21:56.000Z</time>
      </trkpt>
      <trkpt lat="44.09907" lon="5.98462">
        <ele>549.79998779297</ele>
        <time>2020-12-17T10:21:57.000Z</time>
      </trkpt>
      <trkpt lat="44.09897" lon="5.98466">
        <ele>550.20001220703</ele>
        <time>2020-12-17T10:22:00.000Z</time>
      </trkpt>
      <trkpt lat="44.0989" lon="5.98475">
        <ele>550.59997558594</ele>
        <time>2020-12-17T10:22:03.000Z</time>
      </trkpt>
      <trkpt lat="44.09883" lon="5.98489">
        <ele>550.59997558594</ele>
        <time>2020-12-17T10:22:06.000Z</time>
      </trkpt>
      <trkpt lat="44.09874" lon="5.98502">
        <ele>550.20001220703</ele>
        <time>2020-12-17T10:22:10.000Z</time>
      </trkpt>
      <trkpt lat="44.09873" lon="5.98512">
        <ele>548.59997558594</ele>
        <time>2020-12-17T10:22:14.000Z</time>
      </trkpt>
      <trkpt lat="44.09874" lon="5.98515">
        <ele>548</ele>
        <time>2020-12-17T10:22:15.000Z</time>
      </trkpt>
      <trkpt lat="44.09875" lon="5.98521">
        <ele>547.40002441406</ele>
        <time>2020-12-17T10:22:17.000Z</time>
      </trkpt>
      <trkpt lat="44.09874" lon="5.98522">
        <ele>547.40002441406</ele>
        <time>2020-12-17T10:22:18.000Z</time>
      </trkpt>
      <trkpt lat="44.0987" lon="5.98521">
        <ele>546.20001220703</ele>
        <time>2020-12-17T10:22:22.000Z</time>
      </trkpt>
      <trkpt lat="44.09866" lon="5.98521">
        <ele>544.20001220703</ele>
        <time>2020-12-17T10:22:24.000Z</time>
      </trkpt>
      <trkpt lat="44.09864" lon="5.98521">
        <ele>543</ele>
        <time>2020-12-17T10:22:25.000Z</time>
      </trkpt>
      <trkpt lat="44.09862" lon="5.98521">
        <ele>542.20001220703</ele>
        <time>2020-12-17T10:22:26.000Z</time>
      </trkpt>
      <trkpt lat="44.09861" lon="5.98521">
        <ele>541.59997558594</ele>
        <time>2020-12-17T10:22:27.000Z</time>
      </trkpt>
      <trkpt lat="44.09858" lon="5.98521">
        <ele>541.40002441406</ele>
        <time>2020-12-17T10:22:28.000Z</time>
      </trkpt>
      <trkpt lat="44.09846" lon="5.98525">
        <ele>541</ele>
        <time>2020-12-17T10:22:32.000Z</time>
      </trkpt>
      <trkpt lat="44.09841" lon="5.98524">
        <ele>540.79998779297</ele>
        <time>2020-12-17T10:22:36.000Z</time>
      </trkpt>
      <trkpt lat="44.09835" lon="5.98521">
        <ele>540.40002441406</ele>
        <time>2020-12-17T10:22:38.000Z</time>
      </trkpt>
      <trkpt lat="44.09833" lon="5.98522">
        <ele>540.40002441406</ele>
        <time>2020-12-17T10:22:39.000Z</time>
      </trkpt>
      <trkpt lat="44.09821" lon="5.98525">
        <ele>539.79998779297</ele>
        <time>2020-12-17T10:22:44.000Z</time>
      </trkpt>
      <trkpt lat="44.09813" lon="5.98527">
        <ele>539.40002441406</ele>
        <time>2020-12-17T10:22:47.000Z</time>
      </trkpt>
      <trkpt lat="44.09811" lon="5.98528">
        <ele>539.40002441406</ele>
        <time>2020-12-17T10:22:48.000Z</time>
      </trkpt>
      <trkpt lat="44.09808" lon="5.98529">
        <ele>539.40002441406</ele>
        <time>2020-12-17T10:22:49.000Z</time>
      </trkpt>
      <trkpt lat="44.09801" lon="5.9853">
        <ele>539.40002441406</ele>
        <time>2020-12-17T10:22:52.000Z</time>
      </trkpt>
      <trkpt lat="44.09799" lon="5.98529">
        <ele>539.40002441406</ele>
        <time>2020-12-17T10:22:53.000Z</time>
      </trkpt>
      <trkpt lat="44.09787" lon="5.9852">
        <ele>539</ele>
        <time>2020-12-17T10:22:57.000Z</time>
      </trkpt>
      <trkpt lat="44.09777" lon="5.98512">
        <ele>538.79998779297</ele>
        <time>2020-12-17T10:23:01.000Z</time>
      </trkpt>
      <trkpt lat="44.09768" lon="5.98507">
        <ele>538.40002441406</ele>
        <time>2020-12-17T10:23:05.000Z</time>
      </trkpt>
      <trkpt lat="44.09762" lon="5.98505">
        <ele>538.20001220703</ele>
        <time>2020-12-17T10:23:08.000Z</time>
      </trkpt>
      <trkpt lat="44.0976" lon="5.98506">
        <ele>538</ele>
        <time>2020-12-17T10:23:09.000Z</time>
      </trkpt>
      <trkpt lat="44.09757" lon="5.98508">
        <ele>537.59997558594</ele>
        <time>2020-12-17T10:23:11.000Z</time>
      </trkpt>
      <trkpt lat="44.09749" lon="5.9851">
        <ele>536.79998779297</ele>
        <time>2020-12-17T10:23:14.000Z</time>
      </trkpt>
      <trkpt lat="44.09746" lon="5.98511">
        <ele>536.59997558594</ele>
        <time>2020-12-17T10:23:15.000Z</time>
      </trkpt>
      <trkpt lat="44.09736" lon="5.98517">
        <ele>536.59997558594</ele>
        <time>2020-12-17T10:23:19.000Z</time>
      </trkpt>
      <trkpt lat="44.09723" lon="5.98524">
        <ele>536.59997558594</ele>
        <time>2020-12-17T10:23:23.000Z</time>
      </trkpt>
      <trkpt lat="44.09705" lon="5.98531">
        <ele>536.40002441406</ele>
        <time>2020-12-17T10:23:28.000Z</time>
      </trkpt>
      <trkpt lat="44.09691" lon="5.98537">
        <ele>536.40002441406</ele>
        <time>2020-12-17T10:23:32.000Z</time>
      </trkpt>
      <trkpt lat="44.09682" lon="5.98545">
        <ele>535.20001220703</ele>
        <time>2020-12-17T10:23:35.000Z</time>
      </trkpt>
      <trkpt lat="44.09677" lon="5.98548">
        <ele>534.79998779297</ele>
        <time>2020-12-17T10:23:36.000Z</time>
      </trkpt>
      <trkpt lat="44.09667" lon="5.9855">
        <ele>534.20001220703</ele>
        <time>2020-12-17T10:23:38.000Z</time>
      </trkpt>
      <trkpt lat="44.09658" lon="5.98553">
        <ele>533.20001220703</ele>
        <time>2020-12-17T10:23:40.000Z</time>
      </trkpt>
      <trkpt lat="44.09653" lon="5.98554">
        <ele>533</ele>
        <time>2020-12-17T10:23:41.000Z</time>
      </trkpt>
      <trkpt lat="44.09644" lon="5.98554">
        <ele>531.79998779297</ele>
        <time>2020-12-17T10:23:43.000Z</time>
      </trkpt>
      <trkpt lat="44.09634" lon="5.98555">
        <ele>530.20001220703</ele>
        <time>2020-12-17T10:23:45.000Z</time>
      </trkpt>
      <trkpt lat="44.09626" lon="5.98558">
        <ele>529.40002441406</ele>
        <time>2020-12-17T10:23:47.000Z</time>
      </trkpt>
      <trkpt lat="44.09621" lon="5.98564">
        <ele>528.79998779297</ele>
        <time>2020-12-17T10:23:51.000Z</time>
      </trkpt>
      <trkpt lat="44.0962" lon="5.98565">
        <ele>528</ele>
        <time>2020-12-17T10:24:04.000Z</time>
      </trkpt>
      <trkpt lat="44.0962" lon="5.98565">
        <ele>528</ele>
        <time>2020-12-17T10:24:23.000Z</time>
      </trkpt>
      <trkpt lat="44.0962" lon="5.98565">
        <ele>527.79998779297</ele>
        <time>2020-12-17T10:24:40.000Z</time>
      </trkpt>
      <trkpt lat="44.09617" lon="5.98574">
        <ele>527.79998779297</ele>
        <time>2020-12-17T10:24:46.000Z</time>
      </trkpt>
      <trkpt lat="44.09609" lon="5.9859">
        <ele>527.59997558594</ele>
        <time>2020-12-17T10:24:51.000Z</time>
      </trkpt>
      <trkpt lat="44.09605" lon="5.98597">
        <ele>527.59997558594</ele>
        <time>2020-12-17T10:24:53.000Z</time>
      </trkpt>
      <trkpt lat="44.09591" lon="5.98618">
        <ele>527.40002441406</ele>
        <time>2020-12-17T10:24:59.000Z</time>
      </trkpt>
      <trkpt lat="44.09571" lon="5.98641">
        <ele>527.40002441406</ele>
        <time>2020-12-17T10:25:05.000Z</time>
      </trkpt>
      <trkpt lat="44.09542" lon="5.98671">
        <ele>527.59997558594</ele>
        <time>2020-12-17T10:25:14.000Z</time>
      </trkpt>
      <trkpt lat="44.09538" lon="5.98676">
        <ele>527.59997558594</ele>
        <time>2020-12-17T10:25:15.000Z</time>
      </trkpt>
      <trkpt lat="44.09528" lon="5.98698">
        <ele>527.59997558594</ele>
        <time>2020-12-17T10:25:19.000Z</time>
      </trkpt>
      <trkpt lat="44.09511" lon="5.98745">
        <ele>526.79998779297</ele>
        <time>2020-12-17T10:25:26.000Z</time>
      </trkpt>
      <trkpt lat="44.09508" lon="5.98752">
        <ele>526.59997558594</ele>
        <time>2020-12-17T10:25:27.000Z</time>
      </trkpt>
      <trkpt lat="44.09496" lon="5.98782">
        <ele>525.20001220703</ele>
        <time>2020-12-17T10:25:31.000Z</time>
      </trkpt>
      <trkpt lat="44.09488" lon="5.98796">
        <ele>524.40002441406</ele>
        <time>2020-12-17T10:25:33.000Z</time>
      </trkpt>
      <trkpt lat="44.09484" lon="5.98801">
        <ele>524.20001220703</ele>
        <time>2020-12-17T10:25:34.000Z</time>
      </trkpt>
      <trkpt lat="44.09476" lon="5.98811">
        <ele>523</ele>
        <time>2020-12-17T10:25:36.000Z</time>
      </trkpt>
      <trkpt lat="44.09467" lon="5.98821">
        <ele>521.79998779297</ele>
        <time>2020-12-17T10:25:38.000Z</time>
      </trkpt>
      <trkpt lat="44.09463" lon="5.98825">
        <ele>521.40002441406</ele>
        <time>2020-12-17T10:25:39.000Z</time>
      </trkpt>
      <trkpt lat="44.0945" lon="5.98838">
        <ele>520.79998779297</ele>
        <time>2020-12-17T10:25:42.000Z</time>
      </trkpt>
      <trkpt lat="44.09432" lon="5.98852">
        <ele>520.59997558594</ele>
        <time>2020-12-17T10:25:46.000Z</time>
      </trkpt>
      <trkpt lat="44.09406" lon="5.98875">
        <ele>519.59997558594</ele>
        <time>2020-12-17T10:25:51.000Z</time>
      </trkpt>
      <trkpt lat="44.0939" lon="5.98893">
        <ele>518.59997558594</ele>
        <time>2020-12-17T10:25:54.000Z</time>
      </trkpt>
      <trkpt lat="44.09382" lon="5.98904">
        <ele>518</ele>
        <time>2020-12-17T10:25:56.000Z</time>
      </trkpt>
      <trkpt lat="44.09374" lon="5.98913">
        <ele>517.20001220703</ele>
        <time>2020-12-17T10:25:58.000Z</time>
      </trkpt>
      <trkpt lat="44.09367" lon="5.98917">
        <ele>515.59997558594</ele>
        <time>2020-12-17T10:26:00.000Z</time>
      </trkpt>
      <trkpt lat="44.09358" lon="5.9892">
        <ele>514.20001220703</ele>
        <time>2020-12-17T10:26:02.000Z</time>
      </trkpt>
      <trkpt lat="44.09346" lon="5.98924">
        <ele>513.59997558594</ele>
        <time>2020-12-17T10:26:04.000Z</time>
      </trkpt>
      <trkpt lat="44.09324" lon="5.98936">
        <ele>513.20001220703</ele>
        <time>2020-12-17T10:26:08.000Z</time>
      </trkpt>
      <trkpt lat="44.09319" lon="5.9894">
        <ele>512.79998779297</ele>
        <time>2020-12-17T10:26:09.000Z</time>
      </trkpt>
      <trkpt lat="44.09315" lon="5.98942">
        <ele>512.59997558594</ele>
        <time>2020-12-17T10:26:10.000Z</time>
      </trkpt>
      <trkpt lat="44.09311" lon="5.98944">
        <ele>512</ele>
        <time>2020-12-17T10:26:11.000Z</time>
      </trkpt>
      <trkpt lat="44.09301" lon="5.98947">
        <ele>511.39999389648</ele>
        <time>2020-12-17T10:26:13.000Z</time>
      </trkpt>
      <trkpt lat="44.09296" lon="5.98947">
        <ele>510.79998779297</ele>
        <time>2020-12-17T10:26:14.000Z</time>
      </trkpt>
      <trkpt lat="44.09293" lon="5.98947">
        <ele>510.39999389648</ele>
        <time>2020-12-17T10:26:15.000Z</time>
      </trkpt>
      <trkpt lat="44.09286" lon="5.98947">
        <ele>509.60000610352</ele>
        <time>2020-12-17T10:26:17.000Z</time>
      </trkpt>
      <trkpt lat="44.09278" lon="5.98946">
        <ele>508.60000610352</ele>
        <time>2020-12-17T10:26:20.000Z</time>
      </trkpt>
      <trkpt lat="44.09275" lon="5.98948">
        <ele>508</ele>
        <time>2020-12-17T10:26:21.000Z</time>
      </trkpt>
      <trkpt lat="44.09272" lon="5.98951">
        <ele>507</ele>
        <time>2020-12-17T10:26:22.000Z</time>
      </trkpt>
      <trkpt lat="44.0927" lon="5.98957">
        <ele>505.60000610352</ele>
        <time>2020-12-17T10:26:24.000Z</time>
      </trkpt>
      <trkpt lat="44.09269" lon="5.9896">
        <ele>505.20001220703</ele>
        <time>2020-12-17T10:26:25.000Z</time>
      </trkpt>
      <trkpt lat="44.09269" lon="5.98963">
        <ele>504.20001220703</ele>
        <time>2020-12-17T10:26:27.000Z</time>
      </trkpt>
      <trkpt lat="44.09269" lon="5.98963">
        <ele>503.20001220703</ele>
        <time>2020-12-17T10:26:30.000Z</time>
      </trkpt>
      <trkpt lat="44.09269" lon="5.98963">
        <ele>503.20001220703</ele>
        <time>2020-12-17T10:26:31.000Z</time>
      </trkpt>
      <trkpt lat="44.09269" lon="5.98968">
        <ele>503.20001220703</ele>
        <time>2020-12-17T10:26:42.000Z</time>
      </trkpt>
      <trkpt lat="44.09268" lon="5.98982">
        <ele>503.20001220703</ele>
        <time>2020-12-17T10:26:51.000Z</time>
      </trkpt>
      <trkpt lat="44.09266" lon="5.98996">
        <ele>503.60000610352</ele>
        <time>2020-12-17T10:26:59.000Z</time>
      </trkpt>
      <trkpt lat="44.09265" lon="5.99011">
        <ele>503.79998779297</ele>
        <time>2020-12-17T10:27:05.000Z</time>
      </trkpt>
      <trkpt lat="44.09266" lon="5.99033">
        <ele>504.20001220703</ele>
        <time>2020-12-17T10:27:12.000Z</time>
      </trkpt>
      <trkpt lat="44.09266" lon="5.9906">
        <ele>504.20001220703</ele>
        <time>2020-12-17T10:27:20.000Z</time>
      </trkpt>
      <trkpt lat="44.09266" lon="5.99088">
        <ele>504.20001220703</ele>
        <time>2020-12-17T10:27:27.000Z</time>
      </trkpt>
      <trkpt lat="44.09265" lon="5.99126">
        <ele>504.20001220703</ele>
        <time>2020-12-17T10:27:35.000Z</time>
      </trkpt>
      <trkpt lat="44.09266" lon="5.99167">
        <ele>503.39999389648</ele>
        <time>2020-12-17T10:27:43.000Z</time>
      </trkpt>
      <trkpt lat="44.09266" lon="5.99173">
        <ele>503.39999389648</ele>
        <time>2020-12-17T10:27:44.000Z</time>
      </trkpt>
      <trkpt lat="44.09265" lon="5.99216">
        <ele>502.39999389648</ele>
        <time>2020-12-17T10:27:52.000Z</time>
      </trkpt>
      <trkpt lat="44.09266" lon="5.99234">
        <ele>501.79998779297</ele>
        <time>2020-12-17T10:27:55.000Z</time>
      </trkpt>
      <trkpt lat="44.09266" lon="5.9925">
        <ele>501.39999389648</ele>
        <time>2020-12-17T10:27:58.000Z</time>
      </trkpt>
      <trkpt lat="44.09269" lon="5.99266">
        <ele>501</ele>
        <time>2020-12-17T10:28:01.000Z</time>
      </trkpt>
      <trkpt lat="44.09267" lon="5.9928">
        <ele>500.60000610352</ele>
        <time>2020-12-17T10:28:04.000Z</time>
      </trkpt>
      <trkpt lat="44.09264" lon="5.99283">
        <ele>500.60000610352</ele>
        <time>2020-12-17T10:28:05.000Z</time>
      </trkpt>
      <trkpt lat="44.09249" lon="5.9929">
        <ele>500.60000610352</ele>
        <time>2020-12-17T10:28:10.000Z</time>
      </trkpt>
      <trkpt lat="44.09231" lon="5.99287">
        <ele>501.20001220703</ele>
        <time>2020-12-17T10:28:16.000Z</time>
      </trkpt>
      <trkpt lat="44.09217" lon="5.99276">
        <ele>502.60000610352</ele>
        <time>2020-12-17T10:28:21.000Z</time>
      </trkpt>
      <trkpt lat="44.09211" lon="5.99271">
        <ele>503.39999389648</ele>
        <time>2020-12-17T10:28:23.000Z</time>
      </trkpt>
      <trkpt lat="44.09209" lon="5.99269">
        <ele>503.79998779297</ele>
        <time>2020-12-17T10:28:24.000Z</time>
      </trkpt>
      <trkpt lat="44.09192" lon="5.99256">
        <ele>504.60000610352</ele>
        <time>2020-12-17T10:28:29.000Z</time>
      </trkpt>
      <trkpt lat="44.09173" lon="5.99246">
        <ele>504.60000610352</ele>
        <time>2020-12-17T10:28:34.000Z</time>
      </trkpt>
      <trkpt lat="44.09163" lon="5.99244">
        <ele>504.60000610352</ele>
        <time>2020-12-17T10:28:36.000Z</time>
      </trkpt>
      <trkpt lat="44.09131" lon="5.99234">
        <ele>503.79998779297</ele>
        <time>2020-12-17T10:28:43.000Z</time>
      </trkpt>
      <trkpt lat="44.09101" lon="5.99232">
        <ele>503.20001220703</ele>
        <time>2020-12-17T10:28:49.000Z</time>
      </trkpt>
      <trkpt lat="44.0908" lon="5.99232">
        <ele>502.79998779297</ele>
        <time>2020-12-17T10:28:53.000Z</time>
      </trkpt>
      <trkpt lat="44.0906" lon="5.99233">
        <ele>501.60000610352</ele>
        <time>2020-12-17T10:28:57.000Z</time>
      </trkpt>
      <trkpt lat="44.09055" lon="5.99233">
        <ele>501.39999389648</ele>
        <time>2020-12-17T10:28:58.000Z</time>
      </trkpt>
      <trkpt lat="44.09016" lon="5.99236">
        <ele>500.79998779297</ele>
        <time>2020-12-17T10:29:05.000Z</time>
      </trkpt>
      <trkpt lat="44.09003" lon="5.99239">
        <ele>500.60000610352</ele>
        <time>2020-12-17T10:29:07.000Z</time>
      </trkpt>
      <trkpt lat="44.08985" lon="5.99245">
        <ele>499.79998779297</ele>
        <time>2020-12-17T10:29:10.000Z</time>
      </trkpt>
      <trkpt lat="44.08979" lon="5.99245">
        <ele>499.39999389648</ele>
        <time>2020-12-17T10:29:11.000Z</time>
      </trkpt>
      <trkpt lat="44.08968" lon="5.99244">
        <ele>498.20001220703</ele>
        <time>2020-12-17T10:29:13.000Z</time>
      </trkpt>
      <trkpt lat="44.08959" lon="5.99244">
        <ele>497.20001220703</ele>
        <time>2020-12-17T10:29:15.000Z</time>
      </trkpt>
      <trkpt lat="44.08949" lon="5.99245">
        <ele>496.79998779297</ele>
        <time>2020-12-17T10:29:17.000Z</time>
      </trkpt>
      <trkpt lat="44.08923" lon="5.99246">
        <ele>496</ele>
        <time>2020-12-17T10:29:22.000Z</time>
      </trkpt>
      <trkpt lat="44.08906" lon="5.99248">
        <ele>495.79998779297</ele>
        <time>2020-12-17T10:29:25.000Z</time>
      </trkpt>
      <trkpt lat="44.08867" lon="5.99259">
        <ele>495</ele>
        <time>2020-12-17T10:29:32.000Z</time>
      </trkpt>
      <trkpt lat="44.08862" lon="5.99262">
        <ele>494.79998779297</ele>
        <time>2020-12-17T10:29:33.000Z</time>
      </trkpt>
      <trkpt lat="44.08833" lon="5.99274">
        <ele>494.39999389648</ele>
        <time>2020-12-17T10:29:39.000Z</time>
      </trkpt>
      <trkpt lat="44.08799" lon="5.99285">
        <ele>494.20001220703</ele>
        <time>2020-12-17T10:29:46.000Z</time>
      </trkpt>
      <trkpt lat="44.08777" lon="5.99294">
        <ele>494.39999389648</ele>
        <time>2020-12-17T10:29:52.000Z</time>
      </trkpt>
      <trkpt lat="44.08771" lon="5.99291">
        <ele>494.39999389648</ele>
        <time>2020-12-17T10:29:54.000Z</time>
      </trkpt>
      <trkpt lat="44.08769" lon="5.99286">
        <ele>494.39999389648</ele>
        <time>2020-12-17T10:29:55.000Z</time>
      </trkpt>
      <trkpt lat="44.08769" lon="5.9927">
        <ele>494.39999389648</ele>
        <time>2020-12-17T10:29:58.000Z</time>
      </trkpt>
      <trkpt lat="44.08768" lon="5.99264">
        <ele>494.39999389648</ele>
        <time>2020-12-17T10:29:59.000Z</time>
      </trkpt>
      <trkpt lat="44.08768" lon="5.99237">
        <ele>494.39999389648</ele>
        <time>2020-12-17T10:30:03.000Z</time>
      </trkpt>
      <trkpt lat="44.08771" lon="5.99231">
        <ele>494.20001220703</ele>
        <time>2020-12-17T10:30:05.000Z</time>
      </trkpt>
      <trkpt lat="44.08773" lon="5.99229">
        <ele>494</ele>
        <time>2020-12-17T10:30:06.000Z</time>
      </trkpt>
      <trkpt lat="44.08783" lon="5.9922">
        <ele>492.39999389648</ele>
        <time>2020-12-17T10:30:09.000Z</time>
      </trkpt>
      <trkpt lat="44.08785" lon="5.99214">
        <ele>491.79998779297</ele>
        <time>2020-12-17T10:30:10.000Z</time>
      </trkpt>
      <trkpt lat="44.08786" lon="5.99207">
        <ele>491</ele>
        <time>2020-12-17T10:30:11.000Z</time>
      </trkpt>
      <trkpt lat="44.08786" lon="5.99197">
        <ele>489.79998779297</ele>
        <time>2020-12-17T10:30:13.000Z</time>
      </trkpt>
      <trkpt lat="44.08786" lon="5.9919">
        <ele>489.39999389648</ele>
        <time>2020-12-17T10:30:14.000Z</time>
      </trkpt>
      <trkpt lat="44.08787" lon="5.99183">
        <ele>488.60000610352</ele>
        <time>2020-12-17T10:30:15.000Z</time>
      </trkpt>
      <trkpt lat="44.08787" lon="5.99175">
        <ele>487.39999389648</ele>
        <time>2020-12-17T10:30:16.000Z</time>
      </trkpt>
      <trkpt lat="44.08786" lon="5.99167">
        <ele>486.20001220703</ele>
        <time>2020-12-17T10:30:17.000Z</time>
      </trkpt>
      <trkpt lat="44.08784" lon="5.99158">
        <ele>485.60000610352</ele>
        <time>2020-12-17T10:30:18.000Z</time>
      </trkpt>
      <trkpt lat="44.08784" lon="5.99151">
        <ele>484.79998779297</ele>
        <time>2020-12-17T10:30:19.000Z</time>
      </trkpt>
      <trkpt lat="44.08785" lon="5.99135">
        <ele>483.79998779297</ele>
        <time>2020-12-17T10:30:21.000Z</time>
      </trkpt>
      <trkpt lat="44.08787" lon="5.99128">
        <ele>483.60000610352</ele>
        <time>2020-12-17T10:30:22.000Z</time>
      </trkpt>
      <trkpt lat="44.08795" lon="5.99119">
        <ele>482.20001220703</ele>
        <time>2020-12-17T10:30:24.000Z</time>
      </trkpt>
      <trkpt lat="44.08802" lon="5.99116">
        <ele>481</ele>
        <time>2020-12-17T10:30:26.000Z</time>
      </trkpt>
      <trkpt lat="44.08805" lon="5.99117">
        <ele>480.20001220703</ele>
        <time>2020-12-17T10:30:27.000Z</time>
      </trkpt>
      <trkpt lat="44.08808" lon="5.99118">
        <ele>479.39999389648</ele>
        <time>2020-12-17T10:30:28.000Z</time>
      </trkpt>
      <trkpt lat="44.08811" lon="5.99119">
        <ele>478.39999389648</ele>
        <time>2020-12-17T10:30:29.000Z</time>
      </trkpt>
      <trkpt lat="44.08819" lon="5.99121">
        <ele>477.20001220703</ele>
        <time>2020-12-17T10:30:31.000Z</time>
      </trkpt>
      <trkpt lat="44.08832" lon="5.99109">
        <ele>476.39999389648</ele>
        <time>2020-12-17T10:30:34.000Z</time>
      </trkpt>
      <trkpt lat="44.08836" lon="5.99105">
        <ele>476.20001220703</ele>
        <time>2020-12-17T10:30:35.000Z</time>
      </trkpt>
      <trkpt lat="44.08841" lon="5.99098">
        <ele>475.79998779297</ele>
        <time>2020-12-17T10:30:37.000Z</time>
      </trkpt>
      <trkpt lat="44.08842" lon="5.99094">
        <ele>475.79998779297</ele>
        <time>2020-12-17T10:30:38.000Z</time>
      </trkpt>
      <trkpt lat="44.08843" lon="5.99087">
        <ele>474.20001220703</ele>
        <time>2020-12-17T10:30:40.000Z</time>
      </trkpt>
      <trkpt lat="44.08842" lon="5.99083">
        <ele>473.20001220703</ele>
        <time>2020-12-17T10:30:41.000Z</time>
      </trkpt>
      <trkpt lat="44.08841" lon="5.99081">
        <ele>471.20001220703</ele>
        <time>2020-12-17T10:30:42.000Z</time>
      </trkpt>
      <trkpt lat="44.08838" lon="5.9908">
        <ele>470</ele>
        <time>2020-12-17T10:30:44.000Z</time>
      </trkpt>
      <trkpt lat="44.08836" lon="5.99079">
        <ele>469.79998779297</ele>
        <time>2020-12-17T10:30:45.000Z</time>
      </trkpt>
      <trkpt lat="44.08834" lon="5.99078">
        <ele>469.39999389648</ele>
        <time>2020-12-17T10:30:46.000Z</time>
      </trkpt>
      <trkpt lat="44.08831" lon="5.99075">
        <ele>468.79998779297</ele>
        <time>2020-12-17T10:30:47.000Z</time>
      </trkpt>
      <trkpt lat="44.08828" lon="5.9907">
        <ele>467.39999389648</ele>
        <time>2020-12-17T10:30:49.000Z</time>
      </trkpt>
      <trkpt lat="44.08826" lon="5.99068">
        <ele>466.79998779297</ele>
        <time>2020-12-17T10:30:50.000Z</time>
      </trkpt>
      <trkpt lat="44.08825" lon="5.99067">
        <ele>466.39999389648</ele>
        <time>2020-12-17T10:30:51.000Z</time>
      </trkpt>
      <trkpt lat="44.08824" lon="5.99066">
        <ele>465.79998779297</ele>
        <time>2020-12-17T10:30:52.000Z</time>
      </trkpt>
      <trkpt lat="44.08821" lon="5.99064">
        <ele>465.39999389648</ele>
        <time>2020-12-17T10:30:54.000Z</time>
      </trkpt>
      <trkpt lat="44.08819" lon="5.99063">
        <ele>465.39999389648</ele>
        <time>2020-12-17T10:30:55.000Z</time>
      </trkpt>
      <trkpt lat="44.08814" lon="5.99061">
        <ele>465.39999389648</ele>
        <time>2020-12-17T10:31:03.000Z</time>
      </trkpt>
      <trkpt lat="44.08807" lon="5.99061">
        <ele>465.39999389648</ele>
        <time>2020-12-17T10:31:08.000Z</time>
      </trkpt>
      <trkpt lat="44.08804" lon="5.99061">
        <ele>465.39999389648</ele>
        <time>2020-12-17T10:31:09.000Z</time>
      </trkpt>
      <trkpt lat="44.08792" lon="5.99066">
        <ele>465.20001220703</ele>
        <time>2020-12-17T10:31:13.000Z</time>
      </trkpt>
      <trkpt lat="44.0879" lon="5.99068">
        <ele>464.79998779297</ele>
        <time>2020-12-17T10:31:15.000Z</time>
      </trkpt>
      <trkpt lat="44.08785" lon="5.99069">
        <ele>463.60000610352</ele>
        <time>2020-12-17T10:31:17.000Z</time>
      </trkpt>
      <trkpt lat="44.08782" lon="5.99069">
        <ele>463.20001220703</ele>
        <time>2020-12-17T10:31:18.000Z</time>
      </trkpt>
      <trkpt lat="44.08778" lon="5.99069">
        <ele>463</ele>
        <time>2020-12-17T10:31:19.000Z</time>
      </trkpt>
      <trkpt lat="44.0877" lon="5.99068">
        <ele>462.39999389648</ele>
        <time>2020-12-17T10:31:21.000Z</time>
      </trkpt>
      <trkpt lat="44.08767" lon="5.99068">
        <ele>462.20001220703</ele>
        <time>2020-12-17T10:31:22.000Z</time>
      </trkpt>
      <trkpt lat="44.08759" lon="5.99068">
        <ele>461.39999389648</ele>
        <time>2020-12-17T10:31:25.000Z</time>
      </trkpt>
      <trkpt lat="44.08753" lon="5.99071">
        <ele>461.20001220703</ele>
        <time>2020-12-17T10:31:27.000Z</time>
      </trkpt>
      <trkpt lat="44.08737" lon="5.99076">
        <ele>461</ele>
        <time>2020-12-17T10:31:31.000Z</time>
      </trkpt>
      <trkpt lat="44.08716" lon="5.99076">
        <ele>460.60000610352</ele>
        <time>2020-12-17T10:31:36.000Z</time>
      </trkpt>
      <trkpt lat="44.08713" lon="5.99076">
        <ele>460.39999389648</ele>
        <time>2020-12-17T10:31:37.000Z</time>
      </trkpt>
      <trkpt lat="44.08707" lon="5.99078">
        <ele>459.79998779297</ele>
        <time>2020-12-17T10:31:40.000Z</time>
      </trkpt>
      <trkpt lat="44.08692" lon="5.99076">
        <ele>459.39999389648</ele>
        <time>2020-12-17T10:31:45.000Z</time>
      </trkpt>
      <trkpt lat="44.08685" lon="5.99074">
        <ele>459.39999389648</ele>
        <time>2020-12-17T10:31:47.000Z</time>
      </trkpt>
      <trkpt lat="44.08679" lon="5.99067">
        <ele>459.20001220703</ele>
        <time>2020-12-17T10:31:49.000Z</time>
      </trkpt>
      <trkpt lat="44.0867" lon="5.99063">
        <ele>459</ele>
        <time>2020-12-17T10:31:52.000Z</time>
      </trkpt>
      <trkpt lat="44.08667" lon="5.99062">
        <ele>459</ele>
        <time>2020-12-17T10:31:53.000Z</time>
      </trkpt>
      <trkpt lat="44.08652" lon="5.99068">
        <ele>459.20001220703</ele>
        <time>2020-12-17T10:31:57.000Z</time>
      </trkpt>
      <trkpt lat="44.08643" lon="5.99076">
        <ele>458.79998779297</ele>
        <time>2020-12-17T10:32:00.000Z</time>
      </trkpt>
      <trkpt lat="44.08641" lon="5.99074">
        <ele>458.79998779297</ele>
        <time>2020-12-17T10:32:01.000Z</time>
      </trkpt>
      <trkpt lat="44.0863" lon="5.99068">
        <ele>458</ele>
        <time>2020-12-17T10:32:05.000Z</time>
      </trkpt>
      <trkpt lat="44.08624" lon="5.99074">
        <ele>457.60000610352</ele>
        <time>2020-12-17T10:32:07.000Z</time>
      </trkpt>
      <trkpt lat="44.0862" lon="5.9908">
        <ele>457.39999389648</ele>
        <time>2020-12-17T10:32:09.000Z</time>
      </trkpt>
      <trkpt lat="44.08613" lon="5.99084">
        <ele>457.39999389648</ele>
        <time>2020-12-17T10:32:11.000Z</time>
      </trkpt>
      <trkpt lat="44.08607" lon="5.99086">
        <ele>457.39999389648</ele>
        <time>2020-12-17T10:32:13.000Z</time>
      </trkpt>
      <trkpt lat="44.08604" lon="5.99089">
        <ele>457.20001220703</ele>
        <time>2020-12-17T10:32:14.000Z</time>
      </trkpt>
      <trkpt lat="44.08598" lon="5.99098">
        <ele>457.20001220703</ele>
        <time>2020-12-17T10:32:17.000Z</time>
      </trkpt>
      <trkpt lat="44.08588" lon="5.99103">
        <ele>457.39999389648</ele>
        <time>2020-12-17T10:32:21.000Z</time>
      </trkpt>
      <trkpt lat="44.08572" lon="5.99105">
        <ele>457.39999389648</ele>
        <time>2020-12-17T10:32:26.000Z</time>
      </trkpt>
      <trkpt lat="44.08557" lon="5.99109">
        <ele>457</ele>
        <time>2020-12-17T10:32:30.000Z</time>
      </trkpt>
      <trkpt lat="44.08543" lon="5.99109">
        <ele>456</ele>
        <time>2020-12-17T10:32:34.000Z</time>
      </trkpt>
      <trkpt lat="44.08534" lon="5.9911">
        <ele>455.79998779297</ele>
        <time>2020-12-17T10:32:36.000Z</time>
      </trkpt>
      <trkpt lat="44.08521" lon="5.99108">
        <ele>455.60000610352</ele>
        <time>2020-12-17T10:32:39.000Z</time>
      </trkpt>
      <trkpt lat="44.0851" lon="5.99105">
        <ele>454.79998779297</ele>
        <time>2020-12-17T10:32:42.000Z</time>
      </trkpt>
      <trkpt lat="44.08499" lon="5.99102">
        <ele>454</ele>
        <time>2020-12-17T10:32:45.000Z</time>
      </trkpt>
      <trkpt lat="44.08487" lon="5.99099">
        <ele>453.60000610352</ele>
        <time>2020-12-17T10:32:48.000Z</time>
      </trkpt>
      <trkpt lat="44.08483" lon="5.99098">
        <ele>453.60000610352</ele>
        <time>2020-12-17T10:32:49.000Z</time>
      </trkpt>
      <trkpt lat="44.08467" lon="5.99097">
        <ele>453.39999389648</ele>
        <time>2020-12-17T10:32:52.000Z</time>
      </trkpt>
      <trkpt lat="44.08462" lon="5.99099">
        <ele>453.20001220703</ele>
        <time>2020-12-17T10:32:53.000Z</time>
      </trkpt>
      <trkpt lat="44.08444" lon="5.99101">
        <ele>452.79998779297</ele>
        <time>2020-12-17T10:32:58.000Z</time>
      </trkpt>
      <trkpt lat="44.08441" lon="5.991">
        <ele>452.39999389648</ele>
        <time>2020-12-17T10:32:59.000Z</time>
      </trkpt>
      <trkpt lat="44.08438" lon="5.99098">
        <ele>452</ele>
        <time>2020-12-17T10:33:00.000Z</time>
      </trkpt>
      <trkpt lat="44.08431" lon="5.99091">
        <ele>451.60000610352</ele>
        <time>2020-12-17T10:33:02.000Z</time>
      </trkpt>
      <trkpt lat="44.08418" lon="5.9908">
        <ele>451.60000610352</ele>
        <time>2020-12-17T10:33:06.000Z</time>
      </trkpt>
      <trkpt lat="44.08399" lon="5.99075">
        <ele>451.60000610352</ele>
        <time>2020-12-17T10:33:11.000Z</time>
      </trkpt>
      <trkpt lat="44.08389" lon="5.99066">
        <ele>453.79998779297</ele>
        <time>2020-12-17T10:33:15.000Z</time>
      </trkpt>
      <trkpt lat="44.08387" lon="5.99063">
        <ele>454.39999389648</ele>
        <time>2020-12-17T10:33:16.000Z</time>
      </trkpt>
      <trkpt lat="44.08385" lon="5.99055">
        <ele>455</ele>
        <time>2020-12-17T10:33:18.000Z</time>
      </trkpt>
      <trkpt lat="44.08382" lon="5.99047">
        <ele>456</ele>
        <time>2020-12-17T10:33:20.000Z</time>
      </trkpt>
      <trkpt lat="44.0838" lon="5.99045">
        <ele>456.39999389648</ele>
        <time>2020-12-17T10:33:21.000Z</time>
      </trkpt>
      <trkpt lat="44.08376" lon="5.99046">
        <ele>457.39999389648</ele>
        <time>2020-12-17T10:33:23.000Z</time>
      </trkpt>
      <trkpt lat="44.08375" lon="5.99047">
        <ele>457.79998779297</ele>
        <time>2020-12-17T10:33:24.000Z</time>
      </trkpt>
      <trkpt lat="44.08369" lon="5.99048">
        <ele>459</ele>
        <time>2020-12-17T10:33:27.000Z</time>
      </trkpt>
      <trkpt lat="44.08366" lon="5.99043">
        <ele>460.39999389648</ele>
        <time>2020-12-17T10:33:30.000Z</time>
      </trkpt>
      <trkpt lat="44.08367" lon="5.99041">
        <ele>460.79998779297</ele>
        <time>2020-12-17T10:33:31.000Z</time>
      </trkpt>
      <trkpt lat="44.08368" lon="5.99037">
        <ele>461.60000610352</ele>
        <time>2020-12-17T10:33:36.000Z</time>
      </trkpt>
      <trkpt lat="44.08368" lon="5.99033">
        <ele>461.79998779297</ele>
        <time>2020-12-17T10:33:38.000Z</time>
      </trkpt>
      <trkpt lat="44.08367" lon="5.99028">
        <ele>462.60000610352</ele>
        <time>2020-12-17T10:33:41.000Z</time>
      </trkpt>
      <trkpt lat="44.08367" lon="5.99021">
        <ele>462.79998779297</ele>
        <time>2020-12-17T10:33:44.000Z</time>
      </trkpt>
      <trkpt lat="44.08365" lon="5.99004">
        <ele>463.39999389648</ele>
        <time>2020-12-17T10:33:50.000Z</time>
      </trkpt>
      <trkpt lat="44.08363" lon="5.98991">
        <ele>463.79998779297</ele>
        <time>2020-12-17T10:33:54.000Z</time>
      </trkpt>
      <trkpt lat="44.08361" lon="5.98988">
        <ele>464</ele>
        <time>2020-12-17T10:33:55.000Z</time>
      </trkpt>
      <trkpt lat="44.08358" lon="5.98979">
        <ele>464.79998779297</ele>
        <time>2020-12-17T10:33:58.000Z</time>
      </trkpt>
      <trkpt lat="44.08356" lon="5.98972">
        <ele>465</ele>
        <time>2020-12-17T10:34:00.000Z</time>
      </trkpt>
      <trkpt lat="44.08354" lon="5.98958">
        <ele>465.60000610352</ele>
        <time>2020-12-17T10:34:04.000Z</time>
      </trkpt>
      <trkpt lat="44.08352" lon="5.98949">
        <ele>466</ele>
        <time>2020-12-17T10:34:07.000Z</time>
      </trkpt>
      <trkpt lat="44.0835" lon="5.98946">
        <ele>466</ele>
        <time>2020-12-17T10:34:08.000Z</time>
      </trkpt>
      <trkpt lat="44.08347" lon="5.98939">
        <ele>466.20001220703</ele>
        <time>2020-12-17T10:34:10.000Z</time>
      </trkpt>
      <trkpt lat="44.08344" lon="5.98925">
        <ele>466.79998779297</ele>
        <time>2020-12-17T10:34:13.000Z</time>
      </trkpt>
      <trkpt lat="44.08344" lon="5.98914">
        <ele>467</ele>
        <time>2020-12-17T10:34:16.000Z</time>
      </trkpt>
      <trkpt lat="44.08344" lon="5.9891">
        <ele>467</ele>
        <time>2020-12-17T10:34:17.000Z</time>
      </trkpt>
      <trkpt lat="44.08341" lon="5.98906">
        <ele>467</ele>
        <time>2020-12-17T10:34:20.000Z</time>
      </trkpt>
      <trkpt lat="44.0834" lon="5.98905">
        <ele>467</ele>
        <time>2020-12-17T10:34:21.000Z</time>
      </trkpt>
      <trkpt lat="44.08336" lon="5.98894">
        <ele>467.20001220703</ele>
        <time>2020-12-17T10:34:25.000Z</time>
      </trkpt>
      <trkpt lat="44.08332" lon="5.98884">
        <ele>467</ele>
        <time>2020-12-17T10:34:28.000Z</time>
      </trkpt>
      <trkpt lat="44.08327" lon="5.98881">
        <ele>467.20001220703</ele>
        <time>2020-12-17T10:34:30.000Z</time>
      </trkpt>
      <trkpt lat="44.08324" lon="5.98872">
        <ele>467.60000610352</ele>
        <time>2020-12-17T10:34:33.000Z</time>
      </trkpt>
      <trkpt lat="44.08322" lon="5.98864">
        <ele>467.79998779297</ele>
        <time>2020-12-17T10:34:35.000Z</time>
      </trkpt>
      <trkpt lat="44.08318" lon="5.98847">
        <ele>468.39999389648</ele>
        <time>2020-12-17T10:34:40.000Z</time>
      </trkpt>
      <trkpt lat="44.08316" lon="5.98838">
        <ele>468.39999389648</ele>
        <time>2020-12-17T10:34:43.000Z</time>
      </trkpt>
      <trkpt lat="44.08317" lon="5.98834">
        <ele>468.79998779297</ele>
        <time>2020-12-17T10:34:45.000Z</time>
      </trkpt>
      <trkpt lat="44.08317" lon="5.9883">
        <ele>469.20001220703</ele>
        <time>2020-12-17T10:34:46.000Z</time>
      </trkpt>
      <trkpt lat="44.08315" lon="5.98824">
        <ele>470.20001220703</ele>
        <time>2020-12-17T10:34:48.000Z</time>
      </trkpt>
      <trkpt lat="44.08313" lon="5.98822">
        <ele>470.60000610352</ele>
        <time>2020-12-17T10:34:49.000Z</time>
      </trkpt>
      <trkpt lat="44.08308" lon="5.98824">
        <ele>471.60000610352</ele>
        <time>2020-12-17T10:34:51.000Z</time>
      </trkpt>
      <trkpt lat="44.08306" lon="5.98823">
        <ele>473</ele>
        <time>2020-12-17T10:34:52.000Z</time>
      </trkpt>
      <trkpt lat="44.083" lon="5.98817">
        <ele>474.39999389648</ele>
        <time>2020-12-17T10:34:55.000Z</time>
      </trkpt>
      <trkpt lat="44.08299" lon="5.98814">
        <ele>474.79998779297</ele>
        <time>2020-12-17T10:34:56.000Z</time>
      </trkpt>
      <trkpt lat="44.08298" lon="5.98811">
        <ele>475.39999389648</ele>
        <time>2020-12-17T10:34:57.000Z</time>
      </trkpt>
      <trkpt lat="44.08297" lon="5.98803">
        <ele>476.60000610352</ele>
        <time>2020-12-17T10:35:00.000Z</time>
      </trkpt>
      <trkpt lat="44.08298" lon="5.988">
        <ele>476.79998779297</ele>
        <time>2020-12-17T10:35:01.000Z</time>
      </trkpt>
      <trkpt lat="44.08302" lon="5.98793">
        <ele>477.79998779297</ele>
        <time>2020-12-17T10:35:04.000Z</time>
      </trkpt>
      <trkpt lat="44.08303" lon="5.98788">
        <ele>478.60000610352</ele>
        <time>2020-12-17T10:35:06.000Z</time>
      </trkpt>
      <trkpt lat="44.08304" lon="5.98786">
        <ele>478.79998779297</ele>
        <time>2020-12-17T10:35:07.000Z</time>
      </trkpt>
      <trkpt lat="44.08299" lon="5.98783">
        <ele>479.79998779297</ele>
        <time>2020-12-17T10:35:11.000Z</time>
      </trkpt>
      <trkpt lat="44.08296" lon="5.98782">
        <ele>480</ele>
        <time>2020-12-17T10:35:12.000Z</time>
      </trkpt>
      <trkpt lat="44.08288" lon="5.98776">
        <ele>481</ele>
        <time>2020-12-17T10:35:15.000Z</time>
      </trkpt>
      <trkpt lat="44.08286" lon="5.98773">
        <ele>481.20001220703</ele>
        <time>2020-12-17T10:35:16.000Z</time>
      </trkpt>
      <trkpt lat="44.0828" lon="5.98758">
        <ele>482.20001220703</ele>
        <time>2020-12-17T10:35:20.000Z</time>
      </trkpt>
      <trkpt lat="44.08282" lon="5.98751">
        <ele>482.39999389648</ele>
        <time>2020-12-17T10:35:23.000Z</time>
      </trkpt>
      <trkpt lat="44.08284" lon="5.9874">
        <ele>482.39999389648</ele>
        <time>2020-12-17T10:35:26.000Z</time>
      </trkpt>
      <trkpt lat="44.08285" lon="5.98732">
        <ele>482.60000610352</ele>
        <time>2020-12-17T10:35:28.000Z</time>
      </trkpt>
      <trkpt lat="44.08285" lon="5.98723">
        <ele>483.39999389648</ele>
        <time>2020-12-17T10:35:31.000Z</time>
      </trkpt>
      <trkpt lat="44.08282" lon="5.98722">
        <ele>483.60000610352</ele>
        <time>2020-12-17T10:35:33.000Z</time>
      </trkpt>
      <trkpt lat="44.08277" lon="5.98719">
        <ele>484.20001220703</ele>
        <time>2020-12-17T10:35:36.000Z</time>
      </trkpt>
      <trkpt lat="44.08274" lon="5.98717">
        <ele>484.39999389648</ele>
        <time>2020-12-17T10:35:37.000Z</time>
      </trkpt>
      <trkpt lat="44.08267" lon="5.98707">
        <ele>485.20001220703</ele>
        <time>2020-12-17T10:35:40.000Z</time>
      </trkpt>
      <trkpt lat="44.08266" lon="5.98703">
        <ele>485.39999389648</ele>
        <time>2020-12-17T10:35:41.000Z</time>
      </trkpt>
      <trkpt lat="44.08265" lon="5.98696">
        <ele>485.60000610352</ele>
        <time>2020-12-17T10:35:43.000Z</time>
      </trkpt>
      <trkpt lat="44.08267" lon="5.98694">
        <ele>485.60000610352</ele>
        <time>2020-12-17T10:35:44.000Z</time>
      </trkpt>
      <trkpt lat="44.08274" lon="5.98686">
        <ele>486</ele>
        <time>2020-12-17T10:35:48.000Z</time>
      </trkpt>
      <trkpt lat="44.08276" lon="5.98676">
        <ele>486.60000610352</ele>
        <time>2020-12-17T10:35:51.000Z</time>
      </trkpt>
      <trkpt lat="44.08275" lon="5.9867">
        <ele>487</ele>
        <time>2020-12-17T10:35:53.000Z</time>
      </trkpt>
      <trkpt lat="44.08275" lon="5.98654">
        <ele>487.79998779297</ele>
        <time>2020-12-17T10:35:58.000Z</time>
      </trkpt>
      <trkpt lat="44.08274" lon="5.98651">
        <ele>488</ele>
        <time>2020-12-17T10:35:59.000Z</time>
      </trkpt>
      <trkpt lat="44.08274" lon="5.98644">
        <ele>488.39999389648</ele>
        <time>2020-12-17T10:36:01.000Z</time>
      </trkpt>
      <trkpt lat="44.08275" lon="5.9864">
        <ele>488.79998779297</ele>
        <time>2020-12-17T10:36:02.000Z</time>
      </trkpt>
      <trkpt lat="44.08276" lon="5.98637">
        <ele>489</ele>
        <time>2020-12-17T10:36:03.000Z</time>
      </trkpt>
      <trkpt lat="44.0828" lon="5.98623">
        <ele>490</ele>
        <time>2020-12-17T10:36:07.000Z</time>
      </trkpt>
      <trkpt lat="44.08288" lon="5.98615">
        <ele>491</ele>
        <time>2020-12-17T10:36:11.000Z</time>
      </trkpt>
      <trkpt lat="44.0829" lon="5.98615">
        <ele>491.20001220703</ele>
        <time>2020-12-17T10:36:12.000Z</time>
      </trkpt>
      <trkpt lat="44.08296" lon="5.9862">
        <ele>491.60000610352</ele>
        <time>2020-12-17T10:36:15.000Z</time>
      </trkpt>
      <trkpt lat="44.08303" lon="5.98618">
        <ele>491.79998779297</ele>
        <time>2020-12-17T10:36:19.000Z</time>
      </trkpt>
      <trkpt lat="44.08301" lon="5.98613">
        <ele>492</ele>
        <time>2020-12-17T10:36:22.000Z</time>
      </trkpt>
      <trkpt lat="44.08293" lon="5.98607">
        <ele>492.39999389648</ele>
        <time>2020-12-17T10:36:25.000Z</time>
      </trkpt>
      <trkpt lat="44.08292" lon="5.98605">
        <ele>492.39999389648</ele>
        <time>2020-12-17T10:36:26.000Z</time>
      </trkpt>
      <trkpt lat="44.08294" lon="5.98594">
        <ele>492.79998779297</ele>
        <time>2020-12-17T10:36:30.000Z</time>
      </trkpt>
      <trkpt lat="44.08299" lon="5.98583">
        <ele>493.20001220703</ele>
        <time>2020-12-17T10:36:34.000Z</time>
      </trkpt>
      <trkpt lat="44.083" lon="5.9858">
        <ele>493.20001220703</ele>
        <time>2020-12-17T10:36:35.000Z</time>
      </trkpt>
      <trkpt lat="44.083" lon="5.98577">
        <ele>493.39999389648</ele>
        <time>2020-12-17T10:36:36.000Z</time>
      </trkpt>
      <trkpt lat="44.08298" lon="5.98569">
        <ele>494</ele>
        <time>2020-12-17T10:36:39.000Z</time>
      </trkpt>
      <trkpt lat="44.08295" lon="5.98559">
        <ele>494.39999389648</ele>
        <time>2020-12-17T10:36:42.000Z</time>
      </trkpt>
      <trkpt lat="44.08292" lon="5.98555">
        <ele>495.39999389648</ele>
        <time>2020-12-17T10:36:44.000Z</time>
      </trkpt>
      <trkpt lat="44.08288" lon="5.98554">
        <ele>495.79998779297</ele>
        <time>2020-12-17T10:36:45.000Z</time>
      </trkpt>
      <trkpt lat="44.08285" lon="5.98557">
        <ele>496.60000610352</ele>
        <time>2020-12-17T10:36:47.000Z</time>
      </trkpt>
      <trkpt lat="44.08285" lon="5.98559">
        <ele>497</ele>
        <time>2020-12-17T10:36:48.000Z</time>
      </trkpt>
      <trkpt lat="44.08283" lon="5.98565">
        <ele>497.20001220703</ele>
        <time>2020-12-17T10:36:51.000Z</time>
      </trkpt>
      <trkpt lat="44.08275" lon="5.9857">
        <ele>497.20001220703</ele>
        <time>2020-12-17T10:36:54.000Z</time>
      </trkpt>
      <trkpt lat="44.08265" lon="5.98565">
        <ele>497.20001220703</ele>
        <time>2020-12-17T10:36:58.000Z</time>
      </trkpt>
      <trkpt lat="44.08262" lon="5.98563">
        <ele>497</ele>
        <time>2020-12-17T10:36:59.000Z</time>
      </trkpt>
      <trkpt lat="44.08261" lon="5.9856">
        <ele>497</ele>
        <time>2020-12-17T10:37:00.000Z</time>
      </trkpt>
      <trkpt lat="44.08259" lon="5.98551">
        <ele>497</ele>
        <time>2020-12-17T10:37:03.000Z</time>
      </trkpt>
      <trkpt lat="44.08254" lon="5.98544">
        <ele>497</ele>
        <time>2020-12-17T10:37:06.000Z</time>
      </trkpt>
      <trkpt lat="44.0825" lon="5.98542">
        <ele>497</ele>
        <time>2020-12-17T10:37:07.000Z</time>
      </trkpt>
      <trkpt lat="44.08242" lon="5.98541">
        <ele>497</ele>
        <time>2020-12-17T10:37:09.000Z</time>
      </trkpt>
      <trkpt lat="44.08226" lon="5.98539">
        <ele>498</ele>
        <time>2020-12-17T10:37:13.000Z</time>
      </trkpt>
      <trkpt lat="44.08215" lon="5.98525">
        <ele>498.20001220703</ele>
        <time>2020-12-17T10:37:17.000Z</time>
      </trkpt>
      <trkpt lat="44.08215" lon="5.98515">
        <ele>498.20001220703</ele>
        <time>2020-12-17T10:37:20.000Z</time>
      </trkpt>
      <trkpt lat="44.08214" lon="5.98506">
        <ele>498.60000610352</ele>
        <time>2020-12-17T10:37:23.000Z</time>
      </trkpt>
      <trkpt lat="44.08206" lon="5.98508">
        <ele>498.60000610352</ele>
        <time>2020-12-17T10:37:26.000Z</time>
      </trkpt>
      <trkpt lat="44.082" lon="5.985">
        <ele>498.20001220703</ele>
        <time>2020-12-17T10:37:29.000Z</time>
      </trkpt>
      <trkpt lat="44.08196" lon="5.98483">
        <ele>498.20001220703</ele>
        <time>2020-12-17T10:37:34.000Z</time>
      </trkpt>
      <trkpt lat="44.08192" lon="5.98481">
        <ele>498.20001220703</ele>
        <time>2020-12-17T10:37:37.000Z</time>
      </trkpt>
      <trkpt lat="44.08186" lon="5.98491">
        <ele>498.20001220703</ele>
        <time>2020-12-17T10:37:41.000Z</time>
      </trkpt>
      <trkpt lat="44.08177" lon="5.98497">
        <ele>497.79998779297</ele>
        <time>2020-12-17T10:37:45.000Z</time>
      </trkpt>
      <trkpt lat="44.08172" lon="5.98496">
        <ele>497</ele>
        <time>2020-12-17T10:37:47.000Z</time>
      </trkpt>
      <trkpt lat="44.08167" lon="5.98495">
        <ele>495.79998779297</ele>
        <time>2020-12-17T10:37:49.000Z</time>
      </trkpt>
      <trkpt lat="44.08164" lon="5.98494">
        <ele>495.39999389648</ele>
        <time>2020-12-17T10:37:50.000Z</time>
      </trkpt>
      <trkpt lat="44.08161" lon="5.98492">
        <ele>494.60000610352</ele>
        <time>2020-12-17T10:37:51.000Z</time>
      </trkpt>
      <trkpt lat="44.08153" lon="5.98488">
        <ele>493.79998779297</ele>
        <time>2020-12-17T10:37:54.000Z</time>
      </trkpt>
      <trkpt lat="44.08149" lon="5.98486">
        <ele>493.60000610352</ele>
        <time>2020-12-17T10:37:55.000Z</time>
      </trkpt>
      <trkpt lat="44.08139" lon="5.98484">
        <ele>493.60000610352</ele>
        <time>2020-12-17T10:37:58.000Z</time>
      </trkpt>
      <trkpt lat="44.08126" lon="5.98475">
        <ele>493.79998779297</ele>
        <time>2020-12-17T10:38:03.000Z</time>
      </trkpt>
      <trkpt lat="44.08113" lon="5.98471">
        <ele>494.79998779297</ele>
        <time>2020-12-17T10:38:08.000Z</time>
      </trkpt>
      <trkpt lat="44.0811" lon="5.98473">
        <ele>495.20001220703</ele>
        <time>2020-12-17T10:38:09.000Z</time>
      </trkpt>
      <trkpt lat="44.08106" lon="5.98476">
        <ele>495.79998779297</ele>
        <time>2020-12-17T10:38:12.000Z</time>
      </trkpt>
      <trkpt lat="44.08106" lon="5.98476">
        <ele>496</ele>
        <time>2020-12-17T10:38:13.000Z</time>
      </trkpt>
      <trkpt lat="44.08106" lon="5.98475">
        <ele>497.20001220703</ele>
        <time>2020-12-17T10:38:16.000Z</time>
      </trkpt>
      <trkpt lat="44.08105" lon="5.98474">
        <ele>497.60000610352</ele>
        <time>2020-12-17T10:38:17.000Z</time>
      </trkpt>
      <trkpt lat="44.08103" lon="5.98475">
        <ele>498.39999389648</ele>
        <time>2020-12-17T10:38:19.000Z</time>
      </trkpt>
      <trkpt lat="44.08101" lon="5.98475">
        <ele>499.60000610352</ele>
        <time>2020-12-17T10:38:21.000Z</time>
      </trkpt>
      <trkpt lat="44.081" lon="5.98475">
        <ele>499.79998779297</ele>
        <time>2020-12-17T10:38:22.000Z</time>
      </trkpt>
      <trkpt lat="44.08097" lon="5.98474">
        <ele>500.20001220703</ele>
        <time>2020-12-17T10:38:25.000Z</time>
      </trkpt>
      <trkpt lat="44.08093" lon="5.98476">
        <ele>500.60000610352</ele>
        <time>2020-12-17T10:38:27.000Z</time>
      </trkpt>
      <trkpt lat="44.08091" lon="5.98478">
        <ele>500.60000610352</ele>
        <time>2020-12-17T10:38:28.000Z</time>
      </trkpt>
      <trkpt lat="44.08082" lon="5.98477">
        <ele>500.79998779297</ele>
        <time>2020-12-17T10:38:31.000Z</time>
      </trkpt>
      <trkpt lat="44.08079" lon="5.98477">
        <ele>501</ele>
        <time>2020-12-17T10:38:32.000Z</time>
      </trkpt>
      <trkpt lat="44.0807" lon="5.98478">
        <ele>501.20001220703</ele>
        <time>2020-12-17T10:38:35.000Z</time>
      </trkpt>
      <trkpt lat="44.08062" lon="5.98474">
        <ele>501.60000610352</ele>
        <time>2020-12-17T10:38:37.000Z</time>
      </trkpt>
      <trkpt lat="44.08056" lon="5.98469">
        <ele>502.39999389648</ele>
        <time>2020-12-17T10:38:39.000Z</time>
      </trkpt>
      <trkpt lat="44.08049" lon="5.98467">
        <ele>502.79998779297</ele>
        <time>2020-12-17T10:38:41.000Z</time>
      </trkpt>
      <trkpt lat="44.08042" lon="5.98468">
        <ele>503.20001220703</ele>
        <time>2020-12-17T10:38:43.000Z</time>
      </trkpt>
      <trkpt lat="44.08039" lon="5.98468">
        <ele>503.60000610352</ele>
        <time>2020-12-17T10:38:44.000Z</time>
      </trkpt>
      <trkpt lat="44.08033" lon="5.98468">
        <ele>503.79998779297</ele>
        <time>2020-12-17T10:38:46.000Z</time>
      </trkpt>
      <trkpt lat="44.08025" lon="5.98468">
        <ele>504.79998779297</ele>
        <time>2020-12-17T10:38:49.000Z</time>
      </trkpt>
      <trkpt lat="44.08022" lon="5.98467">
        <ele>505</ele>
        <time>2020-12-17T10:38:50.000Z</time>
      </trkpt>
      <trkpt lat="44.08014" lon="5.98468">
        <ele>506.20001220703</ele>
        <time>2020-12-17T10:38:53.000Z</time>
      </trkpt>
      <trkpt lat="44.08009" lon="5.98469">
        <ele>507</ele>
        <time>2020-12-17T10:38:55.000Z</time>
      </trkpt>
      <trkpt lat="44.08007" lon="5.9847">
        <ele>507.39999389648</ele>
        <time>2020-12-17T10:38:56.000Z</time>
      </trkpt>
      <trkpt lat="44.08003" lon="5.98472">
        <ele>508.20001220703</ele>
        <time>2020-12-17T10:38:58.000Z</time>
      </trkpt>
      <trkpt lat="44.08002" lon="5.98474">
        <ele>508.60000610352</ele>
        <time>2020-12-17T10:39:00.000Z</time>
      </trkpt>
      <trkpt lat="44.08001" lon="5.98474">
        <ele>509</ele>
        <time>2020-12-17T10:39:01.000Z</time>
      </trkpt>
      <trkpt lat="44.08001" lon="5.98475">
        <ele>510.20001220703</ele>
        <time>2020-12-17T10:39:03.000Z</time>
      </trkpt>
      <trkpt lat="44.08001" lon="5.98475">
        <ele>511.20001220703</ele>
        <time>2020-12-17T10:39:08.000Z</time>
      </trkpt>
      <trkpt lat="44.08001" lon="5.98475">
        <ele>511.39999389648</ele>
        <time>2020-12-17T10:39:10.000Z</time>
      </trkpt>
      <trkpt lat="44.08" lon="5.98476">
        <ele>511.79998779297</ele>
        <time>2020-12-17T10:39:17.000Z</time>
      </trkpt>
      <trkpt lat="44.07999" lon="5.98476">
        <ele>511.79998779297</ele>
        <time>2020-12-17T10:39:34.000Z</time>
      </trkpt>
      <trkpt lat="44.07999" lon="5.98476">
        <ele>511.79998779297</ele>
        <time>2020-12-17T10:39:42.000Z</time>
      </trkpt>
      <trkpt lat="44.07999" lon="5.98478">
        <ele>512</ele>
        <time>2020-12-17T10:39:50.000Z</time>
      </trkpt>
      <trkpt lat="44.07998" lon="5.98478">
        <ele>512</ele>
        <time>2020-12-17T10:40:02.000Z</time>
      </trkpt>
      <trkpt lat="44.07998" lon="5.98478">
        <ele>511.79998779297</ele>
        <time>2020-12-17T10:40:13.000Z</time>
      </trkpt>
      <trkpt lat="44.07998" lon="5.9848">
        <ele>511.79998779297</ele>
        <time>2020-12-17T10:40:14.000Z</time>
      </trkpt>
      <trkpt lat="44.07998" lon="5.98488">
        <ele>511.79998779297</ele>
        <time>2020-12-17T10:40:18.000Z</time>
      </trkpt>
      <trkpt lat="44.07999" lon="5.985">
        <ele>511.60000610352</ele>
        <time>2020-12-17T10:40:24.000Z</time>
      </trkpt>
      <trkpt lat="44.07999" lon="5.98505">
        <ele>511.60000610352</ele>
        <time>2020-12-17T10:40:25.000Z</time>
      </trkpt>
      <trkpt lat="44.08001" lon="5.98515">
        <ele>511.60000610352</ele>
        <time>2020-12-17T10:40:27.000Z</time>
      </trkpt>
      <trkpt lat="44.08003" lon="5.98528">
        <ele>511.39999389648</ele>
        <time>2020-12-17T10:40:31.000Z</time>
      </trkpt>
      <trkpt lat="44.08003" lon="5.9854">
        <ele>510.60000610352</ele>
        <time>2020-12-17T10:40:34.000Z</time>
      </trkpt>
      <trkpt lat="44.08004" lon="5.98543">
        <ele>510.39999389648</ele>
        <time>2020-12-17T10:40:35.000Z</time>
      </trkpt>
      <trkpt lat="44.0801" lon="5.98551">
        <ele>509.39999389648</ele>
        <time>2020-12-17T10:40:40.000Z</time>
      </trkpt>
      <trkpt lat="44.0802" lon="5.9856">
        <ele>509</ele>
        <time>2020-12-17T10:40:44.000Z</time>
      </trkpt>
      <trkpt lat="44.08032" lon="5.98572">
        <ele>508.60000610352</ele>
        <time>2020-12-17T10:40:48.000Z</time>
      </trkpt>
      <trkpt lat="44.08035" lon="5.98575">
        <ele>508</ele>
        <time>2020-12-17T10:40:50.000Z</time>
      </trkpt>
      <trkpt lat="44.08038" lon="5.98576">
        <ele>506.79998779297</ele>
        <time>2020-12-17T10:40:52.000Z</time>
      </trkpt>
      <trkpt lat="44.0804" lon="5.9858">
        <ele>504.20001220703</ele>
        <time>2020-12-17T10:40:54.000Z</time>
      </trkpt>
      <trkpt lat="44.08044" lon="5.98584">
        <ele>503.20001220703</ele>
        <time>2020-12-17T10:40:57.000Z</time>
      </trkpt>
      <trkpt lat="44.08044" lon="5.98584">
        <ele>503</ele>
        <time>2020-12-17T10:40:58.000Z</time>
      </trkpt>
      <trkpt lat="44.08046" lon="5.98587">
        <ele>501.79998779297</ele>
        <time>2020-12-17T10:41:02.000Z</time>
      </trkpt>
      <trkpt lat="44.08047" lon="5.98592">
        <ele>500.79998779297</ele>
        <time>2020-12-17T10:41:07.000Z</time>
      </trkpt>
      <trkpt lat="44.08047" lon="5.98593">
        <ele>500.60000610352</ele>
        <time>2020-12-17T10:41:08.000Z</time>
      </trkpt>
      <trkpt lat="44.0805" lon="5.98596">
        <ele>500.60000610352</ele>
        <time>2020-12-17T10:41:14.000Z</time>
      </trkpt>
      <trkpt lat="44.08053" lon="5.98597">
        <ele>500.60000610352</ele>
        <time>2020-12-17T10:41:21.000Z</time>
      </trkpt>
      <trkpt lat="44.08053" lon="5.98597">
        <ele>500.39999389648</ele>
        <time>2020-12-17T10:41:33.000Z</time>
      </trkpt>
      <trkpt lat="44.08058" lon="5.986">
        <ele>500.39999389648</ele>
        <time>2020-12-17T10:41:40.000Z</time>
      </trkpt>
      <trkpt lat="44.08067" lon="5.98603">
        <ele>500.20001220703</ele>
        <time>2020-12-17T10:41:46.000Z</time>
      </trkpt>
      <trkpt lat="44.08079" lon="5.98604">
        <ele>499.79998779297</ele>
        <time>2020-12-17T10:41:51.000Z</time>
      </trkpt>
      <trkpt lat="44.08085" lon="5.98602">
        <ele>499.60000610352</ele>
        <time>2020-12-17T10:41:53.000Z</time>
      </trkpt>
      <trkpt lat="44.08088" lon="5.98602">
        <ele>499.60000610352</ele>
        <time>2020-12-17T10:41:54.000Z</time>
      </trkpt>
      <trkpt lat="44.0809" lon="5.98603">
        <ele>499.60000610352</ele>
        <time>2020-12-17T10:41:55.000Z</time>
      </trkpt>
      <trkpt lat="44.08099" lon="5.98615">
        <ele>498.79998779297</ele>
        <time>2020-12-17T10:41:59.000Z</time>
      </trkpt>
      <trkpt lat="44.08105" lon="5.9862">
        <ele>498.20001220703</ele>
        <time>2020-12-17T10:42:01.000Z</time>
      </trkpt>
      <trkpt lat="44.08108" lon="5.98622">
        <ele>497.39999389648</ele>
        <time>2020-12-17T10:42:02.000Z</time>
      </trkpt>
      <trkpt lat="44.0811" lon="5.98624">
        <ele>497</ele>
        <time>2020-12-17T10:42:03.000Z</time>
      </trkpt>
      <trkpt lat="44.08116" lon="5.98632">
        <ele>495.60000610352</ele>
        <time>2020-12-17T10:42:06.000Z</time>
      </trkpt>
      <trkpt lat="44.08119" lon="5.98635">
        <ele>495.20001220703</ele>
        <time>2020-12-17T10:42:07.000Z</time>
      </trkpt>
      <trkpt lat="44.0812" lon="5.98639">
        <ele>494.39999389648</ele>
        <time>2020-12-17T10:42:08.000Z</time>
      </trkpt>
      <trkpt lat="44.08122" lon="5.98643">
        <ele>493.79998779297</ele>
        <time>2020-12-17T10:42:09.000Z</time>
      </trkpt>
      <trkpt lat="44.08124" lon="5.98647">
        <ele>493.39999389648</ele>
        <time>2020-12-17T10:42:10.000Z</time>
      </trkpt>
      <trkpt lat="44.08126" lon="5.98649">
        <ele>493</ele>
        <time>2020-12-17T10:42:11.000Z</time>
      </trkpt>
      <trkpt lat="44.08128" lon="5.98649">
        <ele>492.60000610352</ele>
        <time>2020-12-17T10:42:12.000Z</time>
      </trkpt>
      <trkpt lat="44.08129" lon="5.98647">
        <ele>491.79998779297</ele>
        <time>2020-12-17T10:42:13.000Z</time>
      </trkpt>
      <trkpt lat="44.08134" lon="5.98643">
        <ele>489.79998779297</ele>
        <time>2020-12-17T10:42:15.000Z</time>
      </trkpt>
      <trkpt lat="44.08138" lon="5.98648">
        <ele>488.39999389648</ele>
        <time>2020-12-17T10:42:17.000Z</time>
      </trkpt>
      <trkpt lat="44.0814" lon="5.9865">
        <ele>488</ele>
        <time>2020-12-17T10:42:18.000Z</time>
      </trkpt>
      <trkpt lat="44.08147" lon="5.98652">
        <ele>487.60000610352</ele>
        <time>2020-12-17T10:42:21.000Z</time>
      </trkpt>
      <trkpt lat="44.0815" lon="5.98653">
        <ele>487.39999389648</ele>
        <time>2020-12-17T10:42:22.000Z</time>
      </trkpt>
      <trkpt lat="44.08158" lon="5.98661">
        <ele>486.20001220703</ele>
        <time>2020-12-17T10:42:26.000Z</time>
      </trkpt>
      <trkpt lat="44.0816" lon="5.98662">
        <ele>485.60000610352</ele>
        <time>2020-12-17T10:42:27.000Z</time>
      </trkpt>
      <trkpt lat="44.08161" lon="5.98664">
        <ele>485.20001220703</ele>
        <time>2020-12-17T10:42:28.000Z</time>
      </trkpt>
      <trkpt lat="44.08161" lon="5.98668">
        <ele>485</ele>
        <time>2020-12-17T10:42:29.000Z</time>
      </trkpt>
      <trkpt lat="44.08162" lon="5.98675">
        <ele>484.39999389648</ele>
        <time>2020-12-17T10:42:31.000Z</time>
      </trkpt>
      <trkpt lat="44.08166" lon="5.98678">
        <ele>484</ele>
        <time>2020-12-17T10:42:35.000Z</time>
      </trkpt>
      <trkpt lat="44.08173" lon="5.98686">
        <ele>484.79998779297</ele>
        <time>2020-12-17T10:42:45.000Z</time>
      </trkpt>
      <trkpt lat="44.08175" lon="5.98689">
        <ele>485</ele>
        <time>2020-12-17T10:42:47.000Z</time>
      </trkpt>
      <trkpt lat="44.08174" lon="5.98694">
        <ele>485.20001220703</ele>
        <time>2020-12-17T10:42:50.000Z</time>
      </trkpt>
      <trkpt lat="44.08161" lon="5.98697">
        <ele>485.60000610352</ele>
        <time>2020-12-17T10:42:54.000Z</time>
      </trkpt>
      <trkpt lat="44.08158" lon="5.98706">
        <ele>485.60000610352</ele>
        <time>2020-12-17T10:42:57.000Z</time>
      </trkpt>
      <trkpt lat="44.08161" lon="5.98721">
        <ele>486</ele>
        <time>2020-12-17T10:43:02.000Z</time>
      </trkpt>
      <trkpt lat="44.08164" lon="5.98725">
        <ele>486.60000610352</ele>
        <time>2020-12-17T10:43:04.000Z</time>
      </trkpt>
      <trkpt lat="44.08164" lon="5.98726">
        <ele>487</ele>
        <time>2020-12-17T10:43:05.000Z</time>
      </trkpt>
      <trkpt lat="44.08165" lon="5.98728">
        <ele>487.20001220703</ele>
        <time>2020-12-17T10:43:06.000Z</time>
      </trkpt>
      <trkpt lat="44.08165" lon="5.9873">
        <ele>487.20001220703</ele>
        <time>2020-12-17T10:43:07.000Z</time>
      </trkpt>
      <trkpt lat="44.08163" lon="5.98738">
        <ele>488.20001220703</ele>
        <time>2020-12-17T10:43:10.000Z</time>
      </trkpt>
      <trkpt lat="44.08162" lon="5.98739">
        <ele>488.60000610352</ele>
        <time>2020-12-17T10:43:11.000Z</time>
      </trkpt>
      <trkpt lat="44.08159" lon="5.98737">
        <ele>489.79998779297</ele>
        <time>2020-12-17T10:43:14.000Z</time>
      </trkpt>
      <trkpt lat="44.08158" lon="5.98737">
        <ele>490</ele>
        <time>2020-12-17T10:43:15.000Z</time>
      </trkpt>
      <trkpt lat="44.08158" lon="5.98738">
        <ele>490.39999389648</ele>
        <time>2020-12-17T10:43:16.000Z</time>
      </trkpt>
      <trkpt lat="44.08158" lon="5.98741">
        <ele>491</ele>
        <time>2020-12-17T10:43:18.000Z</time>
      </trkpt>
      <trkpt lat="44.08159" lon="5.98746">
        <ele>492.20001220703</ele>
        <time>2020-12-17T10:43:20.000Z</time>
      </trkpt>
      <trkpt lat="44.08162" lon="5.98755">
        <ele>493.60000610352</ele>
        <time>2020-12-17T10:43:23.000Z</time>
      </trkpt>
      <trkpt lat="44.08163" lon="5.98759">
        <ele>493.79998779297</ele>
        <time>2020-12-17T10:43:24.000Z</time>
      </trkpt>
      <trkpt lat="44.08162" lon="5.98764">
        <ele>494.60000610352</ele>
        <time>2020-12-17T10:43:26.000Z</time>
      </trkpt>
      <trkpt lat="44.08164" lon="5.98768">
        <ele>495</ele>
        <time>2020-12-17T10:43:28.000Z</time>
      </trkpt>
      <trkpt lat="44.08168" lon="5.98784">
        <ele>495.39999389648</ele>
        <time>2020-12-17T10:43:33.000Z</time>
      </trkpt>
      <trkpt lat="44.08168" lon="5.98785">
        <ele>495.79998779297</ele>
        <time>2020-12-17T10:43:34.000Z</time>
      </trkpt>
      <trkpt lat="44.08165" lon="5.98784">
        <ele>496.79998779297</ele>
        <time>2020-12-17T10:43:37.000Z</time>
      </trkpt>
      <trkpt lat="44.08163" lon="5.98783">
        <ele>497</ele>
        <time>2020-12-17T10:43:38.000Z</time>
      </trkpt>
      <trkpt lat="44.08162" lon="5.98781">
        <ele>497</ele>
        <time>2020-12-17T10:43:39.000Z</time>
      </trkpt>
      <trkpt lat="44.08157" lon="5.98779">
        <ele>497.79998779297</ele>
        <time>2020-12-17T10:43:42.000Z</time>
      </trkpt>
      <trkpt lat="44.08155" lon="5.9878">
        <ele>498.20001220703</ele>
        <time>2020-12-17T10:43:43.000Z</time>
      </trkpt>
      <trkpt lat="44.08154" lon="5.98785">
        <ele>498.79998779297</ele>
        <time>2020-12-17T10:43:46.000Z</time>
      </trkpt>
      <trkpt lat="44.08154" lon="5.9879">
        <ele>499.20001220703</ele>
        <time>2020-12-17T10:43:48.000Z</time>
      </trkpt>
      <trkpt lat="44.08154" lon="5.98794">
        <ele>499.79998779297</ele>
        <time>2020-12-17T10:43:50.000Z</time>
      </trkpt>
      <trkpt lat="44.08154" lon="5.98795">
        <ele>500.20001220703</ele>
        <time>2020-12-17T10:43:51.000Z</time>
      </trkpt>
      <trkpt lat="44.08155" lon="5.98797">
        <ele>500.39999389648</ele>
        <time>2020-12-17T10:43:52.000Z</time>
      </trkpt>
      <trkpt lat="44.08155" lon="5.98801">
        <ele>501.60000610352</ele>
        <time>2020-12-17T10:43:54.000Z</time>
      </trkpt>
      <trkpt lat="44.08154" lon="5.98803">
        <ele>502</ele>
        <time>2020-12-17T10:43:55.000Z</time>
      </trkpt>
      <trkpt lat="44.0815" lon="5.98803">
        <ele>502.79998779297</ele>
        <time>2020-12-17T10:43:58.000Z</time>
      </trkpt>
      <trkpt lat="44.08148" lon="5.98802">
        <ele>503</ele>
        <time>2020-12-17T10:43:59.000Z</time>
      </trkpt>
      <trkpt lat="44.08139" lon="5.98793">
        <ele>503.79998779297</ele>
        <time>2020-12-17T10:44:04.000Z</time>
      </trkpt>
      <trkpt lat="44.08137" lon="5.98791">
        <ele>504.20001220703</ele>
        <time>2020-12-17T10:44:05.000Z</time>
      </trkpt>
      <trkpt lat="44.08133" lon="5.98786">
        <ele>505</ele>
        <time>2020-12-17T10:44:08.000Z</time>
      </trkpt>
      <trkpt lat="44.08129" lon="5.98783">
        <ele>505.60000610352</ele>
        <time>2020-12-17T10:44:10.000Z</time>
      </trkpt>
      <trkpt lat="44.08124" lon="5.98774">
        <ele>506</ele>
        <time>2020-12-17T10:44:15.000Z</time>
      </trkpt>
      <trkpt lat="44.08122" lon="5.98772">
        <ele>506</ele>
        <time>2020-12-17T10:44:16.000Z</time>
      </trkpt>
      <trkpt lat="44.08108" lon="5.98759">
        <ele>506.79998779297</ele>
        <time>2020-12-17T10:44:23.000Z</time>
      </trkpt>
      <trkpt lat="44.08102" lon="5.98754">
        <ele>507.20001220703</ele>
        <time>2020-12-17T10:44:26.000Z</time>
      </trkpt>
      <trkpt lat="44.08097" lon="5.98747">
        <ele>507.79998779297</ele>
        <time>2020-12-17T10:44:29.000Z</time>
      </trkpt>
      <trkpt lat="44.08093" lon="5.98737">
        <ele>508.39999389648</ele>
        <time>2020-12-17T10:44:32.000Z</time>
      </trkpt>
      <trkpt lat="44.0809" lon="5.98729">
        <ele>508.79998779297</ele>
        <time>2020-12-17T10:44:34.000Z</time>
      </trkpt>
      <trkpt lat="44.0809" lon="5.98724">
        <ele>508.79998779297</ele>
        <time>2020-12-17T10:44:35.000Z</time>
      </trkpt>
      <trkpt lat="44.08088" lon="5.98716">
        <ele>508.79998779297</ele>
        <time>2020-12-17T10:44:37.000Z</time>
      </trkpt>
      <trkpt lat="44.08082" lon="5.98713">
        <ele>508.79998779297</ele>
        <time>2020-12-17T10:44:40.000Z</time>
      </trkpt>
      <trkpt lat="44.08078" lon="5.98708">
        <ele>507.60000610352</ele>
        <time>2020-12-17T10:44:42.000Z</time>
      </trkpt>
      <trkpt lat="44.08075" lon="5.98706">
        <ele>507.39999389648</ele>
        <time>2020-12-17T10:44:43.000Z</time>
      </trkpt>
      <trkpt lat="44.08072" lon="5.98701">
        <ele>507.20001220703</ele>
        <time>2020-12-17T10:44:45.000Z</time>
      </trkpt>
      <trkpt lat="44.08068" lon="5.98692">
        <ele>507</ele>
        <time>2020-12-17T10:44:49.000Z</time>
      </trkpt>
      <trkpt lat="44.08068" lon="5.9869">
        <ele>507</ele>
        <time>2020-12-17T10:44:50.000Z</time>
      </trkpt>
      <trkpt lat="44.08066" lon="5.98682">
        <ele>508</ele>
        <time>2020-12-17T10:44:54.000Z</time>
      </trkpt>
      <trkpt lat="44.08063" lon="5.98677">
        <ele>508.20001220703</ele>
        <time>2020-12-17T10:44:56.000Z</time>
      </trkpt>
      <trkpt lat="44.08062" lon="5.98674">
        <ele>508.39999389648</ele>
        <time>2020-12-17T10:44:57.000Z</time>
      </trkpt>
      <trkpt lat="44.08059" lon="5.98667">
        <ele>508.60000610352</ele>
        <time>2020-12-17T10:45:00.000Z</time>
      </trkpt>
      <trkpt lat="44.08057" lon="5.98655">
        <ele>509</ele>
        <time>2020-12-17T10:45:04.000Z</time>
      </trkpt>
      <trkpt lat="44.08053" lon="5.98642">
        <ele>509</ele>
        <time>2020-12-17T10:45:09.000Z</time>
      </trkpt>
      <trkpt lat="44.08047" lon="5.98634">
        <ele>509.60000610352</ele>
        <time>2020-12-17T10:45:13.000Z</time>
      </trkpt>
      <trkpt lat="44.08043" lon="5.9863">
        <ele>510</ele>
        <time>2020-12-17T10:45:15.000Z</time>
      </trkpt>
      <trkpt lat="44.08035" lon="5.98629">
        <ele>510.39999389648</ele>
        <time>2020-12-17T10:45:19.000Z</time>
      </trkpt>
      <trkpt lat="44.08034" lon="5.9863">
        <ele>510.60000610352</ele>
        <time>2020-12-17T10:45:20.000Z</time>
      </trkpt>
      <trkpt lat="44.08034" lon="5.98633">
        <ele>511.39999389648</ele>
        <time>2020-12-17T10:45:22.000Z</time>
      </trkpt>
      <trkpt lat="44.08034" lon="5.98636">
        <ele>512</ele>
        <time>2020-12-17T10:45:24.000Z</time>
      </trkpt>
      <trkpt lat="44.08033" lon="5.98635">
        <ele>513.20001220703</ele>
        <time>2020-12-17T10:45:28.000Z</time>
      </trkpt>
      <trkpt lat="44.08033" lon="5.98635">
        <ele>514.20001220703</ele>
        <time>2020-12-17T10:45:32.000Z</time>
      </trkpt>
      <trkpt lat="44.08033" lon="5.98635">
        <ele>514.20001220703</ele>
        <time>2020-12-17T10:45:33.000Z</time>
      </trkpt>
      <trkpt lat="44.08033" lon="5.98636">
        <ele>514.40002441406</ele>
        <time>2020-12-17T10:45:42.000Z</time>
      </trkpt>
      <trkpt lat="44.08034" lon="5.98641">
        <ele>514.40002441406</ele>
        <time>2020-12-17T10:45:50.000Z</time>
      </trkpt>
      <trkpt lat="44.08033" lon="5.98641">
        <ele>514.40002441406</ele>
        <time>2020-12-17T10:45:56.000Z</time>
      </trkpt>
      <trkpt lat="44.08033" lon="5.98642">
        <ele>514.40002441406</ele>
        <time>2020-12-17T10:46:06.000Z</time>
      </trkpt>
      <trkpt lat="44.08033" lon="5.98642">
        <ele>514.40002441406</ele>
        <time>2020-12-17T10:46:07.000Z</time>
      </trkpt>
      <trkpt lat="44.08033" lon="5.98642">
        <ele>514.20001220703</ele>
        <time>2020-12-17T10:46:28.000Z</time>
      </trkpt>
      <trkpt lat="44.08033" lon="5.98642">
        <ele>514.40002441406</ele>
        <time>2020-12-17T10:46:45.000Z</time>
      </trkpt>
      <trkpt lat="44.08034" lon="5.98645">
        <ele>514.20001220703</ele>
        <time>2020-12-17T10:46:57.000Z</time>
      </trkpt>
      <trkpt lat="44.08034" lon="5.98652">
        <ele>514.20001220703</ele>
        <time>2020-12-17T10:47:03.000Z</time>
      </trkpt>
      <trkpt lat="44.08034" lon="5.98652">
        <ele>515.40002441406</ele>
        <time>2020-12-17T10:47:19.000Z</time>
      </trkpt>
      <trkpt lat="44.08034" lon="5.98655">
        <ele>515.40002441406</ele>
        <time>2020-12-17T10:47:37.000Z</time>
      </trkpt>
      <trkpt lat="44.08034" lon="5.98671">
        <ele>515.59997558594</ele>
        <time>2020-12-17T10:47:44.000Z</time>
      </trkpt>
      <trkpt lat="44.08034" lon="5.98679">
        <ele>515.79998779297</ele>
        <time>2020-12-17T10:47:47.000Z</time>
      </trkpt>
      <trkpt lat="44.08035" lon="5.98686">
        <ele>516.40002441406</ele>
        <time>2020-12-17T10:47:51.000Z</time>
      </trkpt>
      <trkpt lat="44.08034" lon="5.98686">
        <ele>516.79998779297</ele>
        <time>2020-12-17T10:47:53.000Z</time>
      </trkpt>
      <trkpt lat="44.08034" lon="5.98686">
        <ele>517.79998779297</ele>
        <time>2020-12-17T10:48:00.000Z</time>
      </trkpt>
      <trkpt lat="44.08034" lon="5.98686">
        <ele>518</ele>
        <time>2020-12-17T10:48:01.000Z</time>
      </trkpt>
      <trkpt lat="44.08034" lon="5.98686">
        <ele>518</ele>
        <time>2020-12-17T10:48:20.000Z</time>
      </trkpt>
      <trkpt lat="44.08034" lon="5.98688">
        <ele>518</ele>
        <time>2020-12-17T10:48:38.000Z</time>
      </trkpt>
      <trkpt lat="44.08034" lon="5.98701">
        <ele>518</ele>
        <time>2020-12-17T10:48:44.000Z</time>
      </trkpt>
      <trkpt lat="44.08034" lon="5.98703">
        <ele>518.40002441406</ele>
        <time>2020-12-17T10:48:51.000Z</time>
      </trkpt>
      <trkpt lat="44.08034" lon="5.98702">
        <ele>518.79998779297</ele>
        <time>2020-12-17T10:48:57.000Z</time>
      </trkpt>
      <trkpt lat="44.08033" lon="5.987">
        <ele>518.79998779297</ele>
        <time>2020-12-17T10:49:00.000Z</time>
      </trkpt>
      <trkpt lat="44.08033" lon="5.98694">
        <ele>518.79998779297</ele>
        <time>2020-12-17T10:49:02.000Z</time>
      </trkpt>
      <trkpt lat="44.08033" lon="5.98673">
        <ele>518.79998779297</ele>
        <time>2020-12-17T10:49:06.000Z</time>
      </trkpt>
      <trkpt lat="44.08033" lon="5.9865">
        <ele>518.59997558594</ele>
        <time>2020-12-17T10:49:11.000Z</time>
      </trkpt>
      <trkpt lat="44.08032" lon="5.98641">
        <ele>517.20001220703</ele>
        <time>2020-12-17T10:49:14.000Z</time>
      </trkpt>
      <trkpt lat="44.08032" lon="5.98639">
        <ele>516.40002441406</ele>
        <time>2020-12-17T10:49:16.000Z</time>
      </trkpt>
      <trkpt lat="44.08032" lon="5.98639">
        <ele>516</ele>
        <time>2020-12-17T10:49:17.000Z</time>
      </trkpt>
      <trkpt lat="44.08032" lon="5.98638">
        <ele>515</ele>
        <time>2020-12-17T10:49:20.000Z</time>
      </trkpt>
      <trkpt lat="44.08032" lon="5.98638">
        <ele>514.40002441406</ele>
        <time>2020-12-17T10:49:24.000Z</time>
      </trkpt>
      <trkpt lat="44.08032" lon="5.98639">
        <ele>514.40002441406</ele>
        <time>2020-12-17T10:49:28.000Z</time>
      </trkpt>
      <trkpt lat="44.08032" lon="5.98642">
        <ele>514.40002441406</ele>
        <time>2020-12-17T10:49:29.000Z</time>
      </trkpt>
      <trkpt lat="44.08033" lon="5.9866">
        <ele>514.40002441406</ele>
        <time>2020-12-17T10:49:34.000Z</time>
      </trkpt>
      <trkpt lat="44.08034" lon="5.98682">
        <ele>514.59997558594</ele>
        <time>2020-12-17T10:49:40.000Z</time>
      </trkpt>
      <trkpt lat="44.08033" lon="5.98701">
        <ele>515.79998779297</ele>
        <time>2020-12-17T10:49:45.000Z</time>
      </trkpt>
      <trkpt lat="44.08033" lon="5.98704">
        <ele>516</ele>
        <time>2020-12-17T10:49:46.000Z</time>
      </trkpt>
      <trkpt lat="44.08029" lon="5.98717">
        <ele>517.20001220703</ele>
        <time>2020-12-17T10:49:50.000Z</time>
      </trkpt>
      <trkpt lat="44.08028" lon="5.98722">
        <ele>518.20001220703</ele>
        <time>2020-12-17T10:49:52.000Z</time>
      </trkpt>
      <trkpt lat="44.08026" lon="5.98723">
        <ele>518.40002441406</ele>
        <time>2020-12-17T10:49:53.000Z</time>
      </trkpt>
      <trkpt lat="44.08024" lon="5.98723">
        <ele>518.79998779297</ele>
        <time>2020-12-17T10:49:54.000Z</time>
      </trkpt>
      <trkpt lat="44.08018" lon="5.98723">
        <ele>519.59997558594</ele>
        <time>2020-12-17T10:49:57.000Z</time>
      </trkpt>
      <trkpt lat="44.08014" lon="5.98723">
        <ele>520.20001220703</ele>
        <time>2020-12-17T10:49:59.000Z</time>
      </trkpt>
      <trkpt lat="44.08013" lon="5.98723">
        <ele>520.59997558594</ele>
        <time>2020-12-17T10:50:00.000Z</time>
      </trkpt>
      <trkpt lat="44.08012" lon="5.98723">
        <ele>520.79998779297</ele>
        <time>2020-12-17T10:50:01.000Z</time>
      </trkpt>
      <trkpt lat="44.0801" lon="5.98723">
        <ele>521.40002441406</ele>
        <time>2020-12-17T10:50:04.000Z</time>
      </trkpt>
      <trkpt lat="44.08009" lon="5.98723">
        <ele>522</ele>
        <time>2020-12-17T10:50:07.000Z</time>
      </trkpt>
      <trkpt lat="44.08009" lon="5.98724">
        <ele>522.59997558594</ele>
        <time>2020-12-17T10:50:10.000Z</time>
      </trkpt>
      <trkpt lat="44.08009" lon="5.98723">
        <ele>523.20001220703</ele>
        <time>2020-12-17T10:50:14.000Z</time>
      </trkpt>
      <trkpt lat="44.08009" lon="5.98723">
        <ele>523.20001220703</ele>
        <time>2020-12-17T10:50:24.000Z</time>
      </trkpt>
      <trkpt lat="44.08008" lon="5.98725">
        <ele>523.59997558594</ele>
        <time>2020-12-17T10:50:38.000Z</time>
      </trkpt>
      <trkpt lat="44.08006" lon="5.98727">
        <ele>523.59997558594</ele>
        <time>2020-12-17T10:50:41.000Z</time>
      </trkpt>
      <trkpt lat="44.08001" lon="5.98726">
        <ele>523.59997558594</ele>
        <time>2020-12-17T10:50:44.000Z</time>
      </trkpt>
      <trkpt lat="44.07989" lon="5.98722">
        <ele>523.20001220703</ele>
        <time>2020-12-17T10:50:49.000Z</time>
      </trkpt>
      <trkpt lat="44.07981" lon="5.98717">
        <ele>522.40002441406</ele>
        <time>2020-12-17T10:50:53.000Z</time>
      </trkpt>
      <trkpt lat="44.0798" lon="5.98717">
        <ele>522.40002441406</ele>
        <time>2020-12-17T10:50:54.000Z</time>
      </trkpt>
      <trkpt lat="44.07978" lon="5.98716">
        <ele>522.40002441406</ele>
        <time>2020-12-17T10:50:55.000Z</time>
      </trkpt>
      <trkpt lat="44.07972" lon="5.98713">
        <ele>522.20001220703</ele>
        <time>2020-12-17T10:50:58.000Z</time>
      </trkpt>
      <trkpt lat="44.07959" lon="5.9871">
        <ele>522.20001220703</ele>
        <time>2020-12-17T10:51:03.000Z</time>
      </trkpt>
      <trkpt lat="44.07945" lon="5.98707">
        <ele>522</ele>
        <time>2020-12-17T10:51:09.000Z</time>
      </trkpt>
      <trkpt lat="44.07944" lon="5.98709">
        <ele>522</ele>
        <time>2020-12-17T10:51:11.000Z</time>
      </trkpt>
      <trkpt lat="44.07944" lon="5.9871">
        <ele>522</ele>
        <time>2020-12-17T10:51:12.000Z</time>
      </trkpt>
      <trkpt lat="44.07953" lon="5.98717">
        <ele>521.59997558594</ele>
        <time>2020-12-17T10:51:16.000Z</time>
      </trkpt>
      <trkpt lat="44.07965" lon="5.98726">
        <ele>520.79998779297</ele>
        <time>2020-12-17T10:51:20.000Z</time>
      </trkpt>
      <trkpt lat="44.07971" lon="5.98731">
        <ele>520</ele>
        <time>2020-12-17T10:51:22.000Z</time>
      </trkpt>
      <trkpt lat="44.07974" lon="5.98734">
        <ele>519.59997558594</ele>
        <time>2020-12-17T10:51:23.000Z</time>
      </trkpt>
      <trkpt lat="44.07982" lon="5.98742">
        <ele>518.79998779297</ele>
        <time>2020-12-17T10:51:26.000Z</time>
      </trkpt>
      <trkpt lat="44.07986" lon="5.98745">
        <ele>518.40002441406</ele>
        <time>2020-12-17T10:51:27.000Z</time>
      </trkpt>
      <trkpt lat="44.07995" lon="5.98751">
        <ele>517.59997558594</ele>
        <time>2020-12-17T10:51:29.000Z</time>
      </trkpt>
      <trkpt lat="44.07999" lon="5.98755">
        <ele>517.20001220703</ele>
        <time>2020-12-17T10:51:30.000Z</time>
      </trkpt>
      <trkpt lat="44.08008" lon="5.98766">
        <ele>516.20001220703</ele>
        <time>2020-12-17T10:51:32.000Z</time>
      </trkpt>
      <trkpt lat="44.08016" lon="5.98776">
        <ele>515</ele>
        <time>2020-12-17T10:51:34.000Z</time>
      </trkpt>
      <trkpt lat="44.0802" lon="5.98779">
        <ele>514.20001220703</ele>
        <time>2020-12-17T10:51:35.000Z</time>
      </trkpt>
      <trkpt lat="44.08022" lon="5.98782">
        <ele>513.40002441406</ele>
        <time>2020-12-17T10:51:36.000Z</time>
      </trkpt>
      <trkpt lat="44.08023" lon="5.98785">
        <ele>512.79998779297</ele>
        <time>2020-12-17T10:51:37.000Z</time>
      </trkpt>
      <trkpt lat="44.08021" lon="5.98786">
        <ele>512.40002441406</ele>
        <time>2020-12-17T10:51:38.000Z</time>
      </trkpt>
      <trkpt lat="44.08016" lon="5.98787">
        <ele>511.39999389648</ele>
        <time>2020-12-17T10:51:40.000Z</time>
      </trkpt>
      <trkpt lat="44.08012" lon="5.98787">
        <ele>510.60000610352</ele>
        <time>2020-12-17T10:51:41.000Z</time>
      </trkpt>
      <trkpt lat="44.08008" lon="5.98786">
        <ele>510</ele>
        <time>2020-12-17T10:51:42.000Z</time>
      </trkpt>
      <trkpt lat="44.07999" lon="5.98785">
        <ele>509.39999389648</ele>
        <time>2020-12-17T10:51:44.000Z</time>
      </trkpt>
      <trkpt lat="44.07989" lon="5.98783">
        <ele>509</ele>
        <time>2020-12-17T10:51:46.000Z</time>
      </trkpt>
      <trkpt lat="44.07985" lon="5.98783">
        <ele>509</ele>
        <time>2020-12-17T10:51:47.000Z</time>
      </trkpt>
      <trkpt lat="44.07981" lon="5.98787">
        <ele>508</ele>
        <time>2020-12-17T10:51:49.000Z</time>
      </trkpt>
      <trkpt lat="44.07983" lon="5.98793">
        <ele>507</ele>
        <time>2020-12-17T10:51:51.000Z</time>
      </trkpt>
      <trkpt lat="44.07986" lon="5.98798">
        <ele>506.60000610352</ele>
        <time>2020-12-17T10:51:52.000Z</time>
      </trkpt>
      <trkpt lat="44.07991" lon="5.98808">
        <ele>505.79998779297</ele>
        <time>2020-12-17T10:51:54.000Z</time>
      </trkpt>
      <trkpt lat="44.07992" lon="5.98813">
        <ele>505.39999389648</ele>
        <time>2020-12-17T10:51:55.000Z</time>
      </trkpt>
      <trkpt lat="44.07992" lon="5.98816">
        <ele>505.20001220703</ele>
        <time>2020-12-17T10:51:56.000Z</time>
      </trkpt>
      <trkpt lat="44.07998" lon="5.98826">
        <ele>504.60000610352</ele>
        <time>2020-12-17T10:51:59.000Z</time>
      </trkpt>
      <trkpt lat="44.08001" lon="5.98831">
        <ele>503.60000610352</ele>
        <time>2020-12-17T10:52:00.000Z</time>
      </trkpt>
      <trkpt lat="44.08004" lon="5.98836">
        <ele>503</ele>
        <time>2020-12-17T10:52:01.000Z</time>
      </trkpt>
      <trkpt lat="44.08012" lon="5.9885">
        <ele>501.60000610352</ele>
        <time>2020-12-17T10:52:03.000Z</time>
      </trkpt>
      <trkpt lat="44.08019" lon="5.98862">
        <ele>500.39999389648</ele>
        <time>2020-12-17T10:52:05.000Z</time>
      </trkpt>
      <trkpt lat="44.08025" lon="5.98871">
        <ele>499</ele>
        <time>2020-12-17T10:52:07.000Z</time>
      </trkpt>
      <trkpt lat="44.08028" lon="5.98873">
        <ele>498.20001220703</ele>
        <time>2020-12-17T10:52:08.000Z</time>
      </trkpt>
      <trkpt lat="44.08033" lon="5.98874">
        <ele>497.79998779297</ele>
        <time>2020-12-17T10:52:09.000Z</time>
      </trkpt>
      <trkpt lat="44.08037" lon="5.98873">
        <ele>497.20001220703</ele>
        <time>2020-12-17T10:52:10.000Z</time>
      </trkpt>
      <trkpt lat="44.0804" lon="5.98874">
        <ele>496.39999389648</ele>
        <time>2020-12-17T10:52:11.000Z</time>
      </trkpt>
      <trkpt lat="44.08042" lon="5.98876">
        <ele>495.39999389648</ele>
        <time>2020-12-17T10:52:12.000Z</time>
      </trkpt>
      <trkpt lat="44.08045" lon="5.98878">
        <ele>494.39999389648</ele>
        <time>2020-12-17T10:52:13.000Z</time>
      </trkpt>
      <trkpt lat="44.08048" lon="5.98881">
        <ele>493.79998779297</ele>
        <time>2020-12-17T10:52:14.000Z</time>
      </trkpt>
      <trkpt lat="44.08051" lon="5.98885">
        <ele>493.60000610352</ele>
        <time>2020-12-17T10:52:15.000Z</time>
      </trkpt>
      <trkpt lat="44.08057" lon="5.98896">
        <ele>493</ele>
        <time>2020-12-17T10:52:17.000Z</time>
      </trkpt>
      <trkpt lat="44.08061" lon="5.98902">
        <ele>492.79998779297</ele>
        <time>2020-12-17T10:52:18.000Z</time>
      </trkpt>
      <trkpt lat="44.08064" lon="5.98907">
        <ele>492.60000610352</ele>
        <time>2020-12-17T10:52:19.000Z</time>
      </trkpt>
      <trkpt lat="44.08073" lon="5.98915">
        <ele>492.39999389648</ele>
        <time>2020-12-17T10:52:21.000Z</time>
      </trkpt>
      <trkpt lat="44.08078" lon="5.98919">
        <ele>491.79998779297</ele>
        <time>2020-12-17T10:52:23.000Z</time>
      </trkpt>
      <trkpt lat="44.08077" lon="5.98921">
        <ele>491.39999389648</ele>
        <time>2020-12-17T10:52:24.000Z</time>
      </trkpt>
      <trkpt lat="44.08072" lon="5.98925">
        <ele>489.79998779297</ele>
        <time>2020-12-17T10:52:26.000Z</time>
      </trkpt>
      <trkpt lat="44.08066" lon="5.98927">
        <ele>488.60000610352</ele>
        <time>2020-12-17T10:52:28.000Z</time>
      </trkpt>
      <trkpt lat="44.08063" lon="5.98929">
        <ele>488.20001220703</ele>
        <time>2020-12-17T10:52:29.000Z</time>
      </trkpt>
      <trkpt lat="44.08052" lon="5.98928">
        <ele>487.60000610352</ele>
        <time>2020-12-17T10:52:32.000Z</time>
      </trkpt>
      <trkpt lat="44.08048" lon="5.9893">
        <ele>487.39999389648</ele>
        <time>2020-12-17T10:52:33.000Z</time>
      </trkpt>
      <trkpt lat="44.08042" lon="5.98938">
        <ele>487.20001220703</ele>
        <time>2020-12-17T10:52:35.000Z</time>
      </trkpt>
      <trkpt lat="44.08042" lon="5.98946">
        <ele>486.79998779297</ele>
        <time>2020-12-17T10:52:37.000Z</time>
      </trkpt>
      <trkpt lat="44.08044" lon="5.98949">
        <ele>486.39999389648</ele>
        <time>2020-12-17T10:52:38.000Z</time>
      </trkpt>
      <trkpt lat="44.08046" lon="5.98953">
        <ele>485.60000610352</ele>
        <time>2020-12-17T10:52:39.000Z</time>
      </trkpt>
      <trkpt lat="44.08048" lon="5.98958">
        <ele>485</ele>
        <time>2020-12-17T10:52:40.000Z</time>
      </trkpt>
      <trkpt lat="44.08054" lon="5.98965">
        <ele>483.79998779297</ele>
        <time>2020-12-17T10:52:42.000Z</time>
      </trkpt>
      <trkpt lat="44.08057" lon="5.98968">
        <ele>482.60000610352</ele>
        <time>2020-12-17T10:52:43.000Z</time>
      </trkpt>
      <trkpt lat="44.08059" lon="5.98973">
        <ele>481.39999389648</ele>
        <time>2020-12-17T10:52:44.000Z</time>
      </trkpt>
      <trkpt lat="44.08061" lon="5.98987">
        <ele>480.20001220703</ele>
        <time>2020-12-17T10:52:46.000Z</time>
      </trkpt>
      <trkpt lat="44.08067" lon="5.99">
        <ele>478.79998779297</ele>
        <time>2020-12-17T10:52:48.000Z</time>
      </trkpt>
      <trkpt lat="44.0807" lon="5.99005">
        <ele>478.20001220703</ele>
        <time>2020-12-17T10:52:49.000Z</time>
      </trkpt>
      <trkpt lat="44.08078" lon="5.99013">
        <ele>477.60000610352</ele>
        <time>2020-12-17T10:52:51.000Z</time>
      </trkpt>
      <trkpt lat="44.08083" lon="5.99021">
        <ele>476.60000610352</ele>
        <time>2020-12-17T10:52:53.000Z</time>
      </trkpt>
      <trkpt lat="44.08084" lon="5.99026">
        <ele>475.60000610352</ele>
        <time>2020-12-17T10:52:54.000Z</time>
      </trkpt>
      <trkpt lat="44.08086" lon="5.9903">
        <ele>474.60000610352</ele>
        <time>2020-12-17T10:52:55.000Z</time>
      </trkpt>
      <trkpt lat="44.08089" lon="5.99032">
        <ele>473.39999389648</ele>
        <time>2020-12-17T10:52:57.000Z</time>
      </trkpt>
      <trkpt lat="44.08095" lon="5.99022">
        <ele>472.79998779297</ele>
        <time>2020-12-17T10:53:01.000Z</time>
      </trkpt>
      <trkpt lat="44.08096" lon="5.9902">
        <ele>472.79998779297</ele>
        <time>2020-12-17T10:53:02.000Z</time>
      </trkpt>
      <trkpt lat="44.081" lon="5.99021">
        <ele>472.79998779297</ele>
        <time>2020-12-17T10:53:04.000Z</time>
      </trkpt>
      <trkpt lat="44.08107" lon="5.99028">
        <ele>472.79998779297</ele>
        <time>2020-12-17T10:53:07.000Z</time>
      </trkpt>
      <trkpt lat="44.08114" lon="5.99032">
        <ele>472.79998779297</ele>
        <time>2020-12-17T10:53:09.000Z</time>
      </trkpt>
      <trkpt lat="44.08124" lon="5.99038">
        <ele>472.79998779297</ele>
        <time>2020-12-17T10:53:13.000Z</time>
      </trkpt>
      <trkpt lat="44.08141" lon="5.99053">
        <ele>472.60000610352</ele>
        <time>2020-12-17T10:53:19.000Z</time>
      </trkpt>
      <trkpt lat="44.08146" lon="5.99059">
        <ele>472.60000610352</ele>
        <time>2020-12-17T10:53:20.000Z</time>
      </trkpt>
      <trkpt lat="44.08159" lon="5.99078">
        <ele>472.60000610352</ele>
        <time>2020-12-17T10:53:23.000Z</time>
      </trkpt>
      <trkpt lat="44.08168" lon="5.99095">
        <ele>472</ele>
        <time>2020-12-17T10:53:26.000Z</time>
      </trkpt>
      <trkpt lat="44.0817" lon="5.991">
        <ele>471.39999389648</ele>
        <time>2020-12-17T10:53:27.000Z</time>
      </trkpt>
      <trkpt lat="44.08173" lon="5.99107">
        <ele>470.79998779297</ele>
        <time>2020-12-17T10:53:28.000Z</time>
      </trkpt>
      <trkpt lat="44.08177" lon="5.99116">
        <ele>469.60000610352</ele>
        <time>2020-12-17T10:53:30.000Z</time>
      </trkpt>
      <trkpt lat="44.08181" lon="5.9912">
        <ele>468.79998779297</ele>
        <time>2020-12-17T10:53:31.000Z</time>
      </trkpt>
      <trkpt lat="44.08185" lon="5.99124">
        <ele>468.39999389648</ele>
        <time>2020-12-17T10:53:32.000Z</time>
      </trkpt>
      <trkpt lat="44.08188" lon="5.99133">
        <ele>467.79998779297</ele>
        <time>2020-12-17T10:53:34.000Z</time>
      </trkpt>
      <trkpt lat="44.08193" lon="5.99138">
        <ele>467.20001220703</ele>
        <time>2020-12-17T10:53:36.000Z</time>
      </trkpt>
      <trkpt lat="44.08196" lon="5.9914">
        <ele>466.60000610352</ele>
        <time>2020-12-17T10:53:37.000Z</time>
      </trkpt>
      <trkpt lat="44.08199" lon="5.99142">
        <ele>465.79998779297</ele>
        <time>2020-12-17T10:53:38.000Z</time>
      </trkpt>
      <trkpt lat="44.08204" lon="5.99146">
        <ele>464.79998779297</ele>
        <time>2020-12-17T10:53:40.000Z</time>
      </trkpt>
      <trkpt lat="44.08203" lon="5.99149">
        <ele>464.39999389648</ele>
        <time>2020-12-17T10:53:41.000Z</time>
      </trkpt>
      <trkpt lat="44.08191" lon="5.99161">
        <ele>463.20001220703</ele>
        <time>2020-12-17T10:53:45.000Z</time>
      </trkpt>
      <trkpt lat="44.08187" lon="5.99164">
        <ele>462.60000610352</ele>
        <time>2020-12-17T10:53:46.000Z</time>
      </trkpt>
      <trkpt lat="44.08184" lon="5.99168">
        <ele>461.79998779297</ele>
        <time>2020-12-17T10:53:47.000Z</time>
      </trkpt>
      <trkpt lat="44.08178" lon="5.99175">
        <ele>460.79998779297</ele>
        <time>2020-12-17T10:53:49.000Z</time>
      </trkpt>
      <trkpt lat="44.08177" lon="5.99177">
        <ele>460.20001220703</ele>
        <time>2020-12-17T10:53:50.000Z</time>
      </trkpt>
      <trkpt lat="44.08175" lon="5.99177">
        <ele>459.39999389648</ele>
        <time>2020-12-17T10:53:51.000Z</time>
      </trkpt>
      <trkpt lat="44.08173" lon="5.99177">
        <ele>458.20001220703</ele>
        <time>2020-12-17T10:53:52.000Z</time>
      </trkpt>
      <trkpt lat="44.08169" lon="5.99179">
        <ele>456.79998779297</ele>
        <time>2020-12-17T10:53:53.000Z</time>
      </trkpt>
      <trkpt lat="44.0816" lon="5.99188">
        <ele>454.79998779297</ele>
        <time>2020-12-17T10:53:55.000Z</time>
      </trkpt>
      <trkpt lat="44.08156" lon="5.99192">
        <ele>453.79998779297</ele>
        <time>2020-12-17T10:53:56.000Z</time>
      </trkpt>
      <trkpt lat="44.0815" lon="5.99194">
        <ele>452</ele>
        <time>2020-12-17T10:53:58.000Z</time>
      </trkpt>
      <trkpt lat="44.08147" lon="5.99193">
        <ele>451.60000610352</ele>
        <time>2020-12-17T10:53:59.000Z</time>
      </trkpt>
      <trkpt lat="44.08141" lon="5.99191">
        <ele>450.20001220703</ele>
        <time>2020-12-17T10:54:01.000Z</time>
      </trkpt>
      <trkpt lat="44.08134" lon="5.99189">
        <ele>449</ele>
        <time>2020-12-17T10:54:03.000Z</time>
      </trkpt>
      <trkpt lat="44.08132" lon="5.99188">
        <ele>448.79998779297</ele>
        <time>2020-12-17T10:54:04.000Z</time>
      </trkpt>
      <trkpt lat="44.0813" lon="5.99189">
        <ele>448.60000610352</ele>
        <time>2020-12-17T10:54:05.000Z</time>
      </trkpt>
      <trkpt lat="44.08124" lon="5.99196">
        <ele>448.60000610352</ele>
        <time>2020-12-17T10:54:08.000Z</time>
      </trkpt>
      <trkpt lat="44.08114" lon="5.99209">
        <ele>448.20001220703</ele>
        <time>2020-12-17T10:54:12.000Z</time>
      </trkpt>
      <trkpt lat="44.08111" lon="5.99221">
        <ele>448</ele>
        <time>2020-12-17T10:54:15.000Z</time>
      </trkpt>
      <trkpt lat="44.08111" lon="5.99223">
        <ele>448</ele>
        <time>2020-12-17T10:54:16.000Z</time>
      </trkpt>
      <trkpt lat="44.08112" lon="5.99224">
        <ele>447.79998779297</ele>
        <time>2020-12-17T10:54:18.000Z</time>
      </trkpt>
      <trkpt lat="44.08112" lon="5.99225">
        <ele>446.60000610352</ele>
        <time>2020-12-17T10:54:20.000Z</time>
      </trkpt>
      <trkpt lat="44.08112" lon="5.99225">
        <ele>445.20001220703</ele>
        <time>2020-12-17T10:54:22.000Z</time>
      </trkpt>
      <trkpt lat="44.08112" lon="5.99225">
        <ele>444.20001220703</ele>
        <time>2020-12-17T10:54:25.000Z</time>
      </trkpt>
      <trkpt lat="44.08112" lon="5.99225">
        <ele>443.79998779297</ele>
        <time>2020-12-17T10:54:30.000Z</time>
      </trkpt>
      <trkpt lat="44.08112" lon="5.99225">
        <ele>443.60000610352</ele>
        <time>2020-12-17T10:54:41.000Z</time>
      </trkpt>
      <trkpt lat="44.08111" lon="5.99228">
        <ele>443.39999389648</ele>
        <time>2020-12-17T10:54:43.000Z</time>
      </trkpt>
      <trkpt lat="44.08103" lon="5.9923">
        <ele>443.39999389648</ele>
        <time>2020-12-17T10:54:46.000Z</time>
      </trkpt>
      <trkpt lat="44.08101" lon="5.99231">
        <ele>443.39999389648</ele>
        <time>2020-12-17T10:54:47.000Z</time>
      </trkpt>
      <trkpt lat="44.08084" lon="5.99235">
        <ele>443</ele>
        <time>2020-12-17T10:54:53.000Z</time>
      </trkpt>
      <trkpt lat="44.08078" lon="5.99239">
        <ele>442.79998779297</ele>
        <time>2020-12-17T10:54:55.000Z</time>
      </trkpt>
      <trkpt lat="44.08074" lon="5.99247">
        <ele>442.60000610352</ele>
        <time>2020-12-17T10:54:57.000Z</time>
      </trkpt>
      <trkpt lat="44.08072" lon="5.99257">
        <ele>442.20001220703</ele>
        <time>2020-12-17T10:55:01.000Z</time>
      </trkpt>
      <trkpt lat="44.08063" lon="5.99267">
        <ele>442</ele>
        <time>2020-12-17T10:55:06.000Z</time>
      </trkpt>
      <trkpt lat="44.0805" lon="5.9928">
        <ele>442.20001220703</ele>
        <time>2020-12-17T10:55:12.000Z</time>
      </trkpt>
      <trkpt lat="44.08048" lon="5.993">
        <ele>443.79998779297</ele>
        <time>2020-12-17T10:55:17.000Z</time>
      </trkpt>
      <trkpt lat="44.08048" lon="5.99303">
        <ele>444</ele>
        <time>2020-12-17T10:55:18.000Z</time>
      </trkpt>
      <trkpt lat="44.08043" lon="5.99321">
        <ele>444.79998779297</ele>
        <time>2020-12-17T10:55:23.000Z</time>
      </trkpt>
      <trkpt lat="44.08041" lon="5.99328">
        <ele>445</ele>
        <time>2020-12-17T10:55:25.000Z</time>
      </trkpt>
      <trkpt lat="44.08031" lon="5.99344">
        <ele>445.39999389648</ele>
        <time>2020-12-17T10:55:31.000Z</time>
      </trkpt>
      <trkpt lat="44.08027" lon="5.99352">
        <ele>445.79998779297</ele>
        <time>2020-12-17T10:55:34.000Z</time>
      </trkpt>
      <trkpt lat="44.08024" lon="5.99357">
        <ele>446.20001220703</ele>
        <time>2020-12-17T10:55:36.000Z</time>
      </trkpt>
      <trkpt lat="44.0802" lon="5.99369">
        <ele>446.79998779297</ele>
        <time>2020-12-17T10:55:40.000Z</time>
      </trkpt>
      <trkpt lat="44.08017" lon="5.99379">
        <ele>447.79998779297</ele>
        <time>2020-12-17T10:55:43.000Z</time>
      </trkpt>
      <trkpt lat="44.08016" lon="5.99382">
        <ele>448</ele>
        <time>2020-12-17T10:55:44.000Z</time>
      </trkpt>
      <trkpt lat="44.08013" lon="5.99392">
        <ele>449</ele>
        <time>2020-12-17T10:55:47.000Z</time>
      </trkpt>
      <trkpt lat="44.08012" lon="5.99403">
        <ele>450</ele>
        <time>2020-12-17T10:55:50.000Z</time>
      </trkpt>
      <trkpt lat="44.08014" lon="5.99421">
        <ele>451.20001220703</ele>
        <time>2020-12-17T10:55:55.000Z</time>
      </trkpt>
      <trkpt lat="44.08016" lon="5.99431">
        <ele>452</ele>
        <time>2020-12-17T10:55:58.000Z</time>
      </trkpt>
      <trkpt lat="44.08018" lon="5.99438">
        <ele>452.39999389648</ele>
        <time>2020-12-17T10:56:00.000Z</time>
      </trkpt>
      <trkpt lat="44.08017" lon="5.99457">
        <ele>453.39999389648</ele>
        <time>2020-12-17T10:56:05.000Z</time>
      </trkpt>
      <trkpt lat="44.0802" lon="5.99472">
        <ele>454.60000610352</ele>
        <time>2020-12-17T10:56:09.000Z</time>
      </trkpt>
      <trkpt lat="44.08022" lon="5.99475">
        <ele>455</ele>
        <time>2020-12-17T10:56:10.000Z</time>
      </trkpt>
      <trkpt lat="44.08027" lon="5.99484">
        <ele>456</ele>
        <time>2020-12-17T10:56:13.000Z</time>
      </trkpt>
      <trkpt lat="44.08036" lon="5.99497">
        <ele>456.79998779297</ele>
        <time>2020-12-17T10:56:18.000Z</time>
      </trkpt>
      <trkpt lat="44.08037" lon="5.995">
        <ele>457</ele>
        <time>2020-12-17T10:56:19.000Z</time>
      </trkpt>
      <trkpt lat="44.08049" lon="5.99518">
        <ele>458</ele>
        <time>2020-12-17T10:56:26.000Z</time>
      </trkpt>
      <trkpt lat="44.08053" lon="5.99524">
        <ele>458</ele>
        <time>2020-12-17T10:56:28.000Z</time>
      </trkpt>
      <trkpt lat="44.08058" lon="5.99537">
        <ele>458.39999389648</ele>
        <time>2020-12-17T10:56:32.000Z</time>
      </trkpt>
      <trkpt lat="44.08063" lon="5.99549">
        <ele>458.39999389648</ele>
        <time>2020-12-17T10:56:36.000Z</time>
      </trkpt>
      <trkpt lat="44.08071" lon="5.9956">
        <ele>458.60000610352</ele>
        <time>2020-12-17T10:56:41.000Z</time>
      </trkpt>
      <trkpt lat="44.08087" lon="5.99564">
        <ele>459</ele>
        <time>2020-12-17T10:56:48.000Z</time>
      </trkpt>
      <trkpt lat="44.08089" lon="5.99565">
        <ele>459.20001220703</ele>
        <time>2020-12-17T10:56:49.000Z</time>
      </trkpt>
      <trkpt lat="44.08095" lon="5.99568">
        <ele>460.20001220703</ele>
        <time>2020-12-17T10:56:52.000Z</time>
      </trkpt>
      <trkpt lat="44.08102" lon="5.99572">
        <ele>461.39999389648</ele>
        <time>2020-12-17T10:56:55.000Z</time>
      </trkpt>
      <trkpt lat="44.08108" lon="5.99574">
        <ele>462.39999389648</ele>
        <time>2020-12-17T10:56:58.000Z</time>
      </trkpt>
      <trkpt lat="44.08118" lon="5.99579">
        <ele>463.60000610352</ele>
        <time>2020-12-17T10:57:02.000Z</time>
      </trkpt>
      <trkpt lat="44.0812" lon="5.9958">
        <ele>463.79998779297</ele>
        <time>2020-12-17T10:57:03.000Z</time>
      </trkpt>
      <trkpt lat="44.0813" lon="5.99584">
        <ele>464.60000610352</ele>
        <time>2020-12-17T10:57:07.000Z</time>
      </trkpt>
      <trkpt lat="44.08143" lon="5.99592">
        <ele>465.60000610352</ele>
        <time>2020-12-17T10:57:12.000Z</time>
      </trkpt>
      <trkpt lat="44.08145" lon="5.99594">
        <ele>465.79998779297</ele>
        <time>2020-12-17T10:57:13.000Z</time>
      </trkpt>
      <trkpt lat="44.08158" lon="5.99602">
        <ele>466.60000610352</ele>
        <time>2020-12-17T10:57:18.000Z</time>
      </trkpt>
      <trkpt lat="44.08161" lon="5.99603">
        <ele>466.79998779297</ele>
        <time>2020-12-17T10:57:19.000Z</time>
      </trkpt>
      <trkpt lat="44.08175" lon="5.99608">
        <ele>467.79998779297</ele>
        <time>2020-12-17T10:57:24.000Z</time>
      </trkpt>
      <trkpt lat="44.0818" lon="5.99609">
        <ele>468</ele>
        <time>2020-12-17T10:57:26.000Z</time>
      </trkpt>
      <trkpt lat="44.08191" lon="5.99617">
        <ele>469</ele>
        <time>2020-12-17T10:57:31.000Z</time>
      </trkpt>
      <trkpt lat="44.08193" lon="5.99618">
        <ele>469.20001220703</ele>
        <time>2020-12-17T10:57:32.000Z</time>
      </trkpt>
      <trkpt lat="44.082" lon="5.99623">
        <ele>470.20001220703</ele>
        <time>2020-12-17T10:57:35.000Z</time>
      </trkpt>
      <trkpt lat="44.08209" lon="5.99628">
        <ele>471.39999389648</ele>
        <time>2020-12-17T10:57:39.000Z</time>
      </trkpt>
      <trkpt lat="44.08211" lon="5.99628">
        <ele>471.79998779297</ele>
        <time>2020-12-17T10:57:40.000Z</time>
      </trkpt>
      <trkpt lat="44.08221" lon="5.99622">
        <ele>472.60000610352</ele>
        <time>2020-12-17T10:57:46.000Z</time>
      </trkpt>
      <trkpt lat="44.08223" lon="5.99622">
        <ele>472.79998779297</ele>
        <time>2020-12-17T10:57:47.000Z</time>
      </trkpt>
      <trkpt lat="44.08224" lon="5.99626">
        <ele>473.20001220703</ele>
        <time>2020-12-17T10:57:49.000Z</time>
      </trkpt>
      <trkpt lat="44.08226" lon="5.99633">
        <ele>474</ele>
        <time>2020-12-17T10:57:51.000Z</time>
      </trkpt>
      <trkpt lat="44.08225" lon="5.99646">
        <ele>474.60000610352</ele>
        <time>2020-12-17T10:57:55.000Z</time>
      </trkpt>
      <trkpt lat="44.08227" lon="5.99661">
        <ele>474.60000610352</ele>
        <time>2020-12-17T10:57:59.000Z</time>
      </trkpt>
      <trkpt lat="44.08229" lon="5.99665">
        <ele>474.60000610352</ele>
        <time>2020-12-17T10:58:00.000Z</time>
      </trkpt>
      <trkpt lat="44.08241" lon="5.99675">
        <ele>473.60000610352</ele>
        <time>2020-12-17T10:58:04.000Z</time>
      </trkpt>
      <trkpt lat="44.08245" lon="5.99678">
        <ele>472.79998779297</ele>
        <time>2020-12-17T10:58:06.000Z</time>
      </trkpt>
      <trkpt lat="44.0825" lon="5.99681">
        <ele>471.39999389648</ele>
        <time>2020-12-17T10:58:08.000Z</time>
      </trkpt>
      <trkpt lat="44.08255" lon="5.99685">
        <ele>471</ele>
        <time>2020-12-17T10:58:10.000Z</time>
      </trkpt>
      <trkpt lat="44.08271" lon="5.99688">
        <ele>471</ele>
        <time>2020-12-17T10:58:16.000Z</time>
      </trkpt>
      <trkpt lat="44.08284" lon="5.99697">
        <ele>472.39999389648</ele>
        <time>2020-12-17T10:58:21.000Z</time>
      </trkpt>
      <trkpt lat="44.08286" lon="5.99699">
        <ele>472.60000610352</ele>
        <time>2020-12-17T10:58:22.000Z</time>
      </trkpt>
      <trkpt lat="44.08293" lon="5.99703">
        <ele>473.39999389648</ele>
        <time>2020-12-17T10:58:25.000Z</time>
      </trkpt>
      <trkpt lat="44.08296" lon="5.99702">
        <ele>473.60000610352</ele>
        <time>2020-12-17T10:58:26.000Z</time>
      </trkpt>
      <trkpt lat="44.08298" lon="5.99701">
        <ele>473.79998779297</ele>
        <time>2020-12-17T10:58:27.000Z</time>
      </trkpt>
      <trkpt lat="44.08304" lon="5.99701">
        <ele>474.20001220703</ele>
        <time>2020-12-17T10:58:29.000Z</time>
      </trkpt>
      <trkpt lat="44.08312" lon="5.997">
        <ele>475</ele>
        <time>2020-12-17T10:58:32.000Z</time>
      </trkpt>
      <trkpt lat="44.08323" lon="5.99701">
        <ele>476</ele>
        <time>2020-12-17T10:58:36.000Z</time>
      </trkpt>
      <trkpt lat="44.08327" lon="5.99702">
        <ele>476.39999389648</ele>
        <time>2020-12-17T10:58:37.000Z</time>
      </trkpt>
      <trkpt lat="44.0833" lon="5.99703">
        <ele>477</ele>
        <time>2020-12-17T10:58:38.000Z</time>
      </trkpt>
      <trkpt lat="44.08338" lon="5.99704">
        <ele>478</ele>
        <time>2020-12-17T10:58:41.000Z</time>
      </trkpt>
      <trkpt lat="44.0834" lon="5.99704">
        <ele>478.60000610352</ele>
        <time>2020-12-17T10:58:42.000Z</time>
      </trkpt>
      <trkpt lat="44.08349" lon="5.99702">
        <ele>479.20001220703</ele>
        <time>2020-12-17T10:58:46.000Z</time>
      </trkpt>
      <trkpt lat="44.08354" lon="5.997">
        <ele>479.20001220703</ele>
        <time>2020-12-17T10:58:48.000Z</time>
      </trkpt>
      <trkpt lat="44.08361" lon="5.99701">
        <ele>479.79998779297</ele>
        <time>2020-12-17T10:58:53.000Z</time>
      </trkpt>
      <trkpt lat="44.08368" lon="5.99702">
        <ele>480.20001220703</ele>
        <time>2020-12-17T10:58:55.000Z</time>
      </trkpt>
      <trkpt lat="44.08371" lon="5.99704">
        <ele>480.60000610352</ele>
        <time>2020-12-17T10:58:56.000Z</time>
      </trkpt>
      <trkpt lat="44.08373" lon="5.99707">
        <ele>481</ele>
        <time>2020-12-17T10:58:57.000Z</time>
      </trkpt>
      <trkpt lat="44.08375" lon="5.99708">
        <ele>481.39999389648</ele>
        <time>2020-12-17T10:58:58.000Z</time>
      </trkpt>
      <trkpt lat="44.08382" lon="5.99708">
        <ele>482</ele>
        <time>2020-12-17T10:59:01.000Z</time>
      </trkpt>
      <trkpt lat="44.08384" lon="5.99708">
        <ele>482.39999389648</ele>
        <time>2020-12-17T10:59:02.000Z</time>
      </trkpt>
      <trkpt lat="44.08388" lon="5.99705">
        <ele>483</ele>
        <time>2020-12-17T10:59:04.000Z</time>
      </trkpt>
      <trkpt lat="44.08395" lon="5.99701">
        <ele>483.79998779297</ele>
        <time>2020-12-17T10:59:08.000Z</time>
      </trkpt>
      <trkpt lat="44.08401" lon="5.99697">
        <ele>485</ele>
        <time>2020-12-17T10:59:13.000Z</time>
      </trkpt>
      <trkpt lat="44.08403" lon="5.99696">
        <ele>485.39999389648</ele>
        <time>2020-12-17T10:59:14.000Z</time>
      </trkpt>
      <trkpt lat="44.08407" lon="5.99692">
        <ele>486.39999389648</ele>
        <time>2020-12-17T10:59:17.000Z</time>
      </trkpt>
      <trkpt lat="44.08409" lon="5.9969">
        <ele>486.79998779297</ele>
        <time>2020-12-17T10:59:18.000Z</time>
      </trkpt>
      <trkpt lat="44.08411" lon="5.99687">
        <ele>487.60000610352</ele>
        <time>2020-12-17T10:59:20.000Z</time>
      </trkpt>
      <trkpt lat="44.08414" lon="5.99682">
        <ele>488.60000610352</ele>
        <time>2020-12-17T10:59:23.000Z</time>
      </trkpt>
      <trkpt lat="44.08416" lon="5.99681">
        <ele>489</ele>
        <time>2020-12-17T10:59:24.000Z</time>
      </trkpt>
      <trkpt lat="44.08423" lon="5.99681">
        <ele>489.79998779297</ele>
        <time>2020-12-17T10:59:28.000Z</time>
      </trkpt>
      <trkpt lat="44.08428" lon="5.99679">
        <ele>490.79998779297</ele>
        <time>2020-12-17T10:59:31.000Z</time>
      </trkpt>
      <trkpt lat="44.08433" lon="5.99678">
        <ele>492</ele>
        <time>2020-12-17T10:59:34.000Z</time>
      </trkpt>
      <trkpt lat="44.08435" lon="5.99677">
        <ele>492.39999389648</ele>
        <time>2020-12-17T10:59:35.000Z</time>
      </trkpt>
      <trkpt lat="44.08439" lon="5.99676">
        <ele>493.20001220703</ele>
        <time>2020-12-17T10:59:37.000Z</time>
      </trkpt>
      <trkpt lat="44.08443" lon="5.99674">
        <ele>493.79998779297</ele>
        <time>2020-12-17T10:59:40.000Z</time>
      </trkpt>
      <trkpt lat="44.08445" lon="5.99672">
        <ele>494.60000610352</ele>
        <time>2020-12-17T10:59:42.000Z</time>
      </trkpt>
      <trkpt lat="44.08444" lon="5.99666">
        <ele>496</ele>
        <time>2020-12-17T10:59:46.000Z</time>
      </trkpt>
      <trkpt lat="44.08442" lon="5.99663">
        <ele>497</ele>
        <time>2020-12-17T10:59:48.000Z</time>
      </trkpt>
      <trkpt lat="44.08441" lon="5.99653">
        <ele>498</ele>
        <time>2020-12-17T10:59:53.000Z</time>
      </trkpt>
      <trkpt lat="44.08441" lon="5.99651">
        <ele>498</ele>
        <time>2020-12-17T10:59:54.000Z</time>
      </trkpt>
      <trkpt lat="44.08444" lon="5.99649">
        <ele>498.39999389648</ele>
        <time>2020-12-17T10:59:56.000Z</time>
      </trkpt>
      <trkpt lat="44.08446" lon="5.99648">
        <ele>498.60000610352</ele>
        <time>2020-12-17T10:59:57.000Z</time>
      </trkpt>
      <trkpt lat="44.0845" lon="5.99646">
        <ele>499.20001220703</ele>
        <time>2020-12-17T10:59:59.000Z</time>
      </trkpt>
      <trkpt lat="44.08458" lon="5.9964">
        <ele>500.20001220703</ele>
        <time>2020-12-17T11:00:03.000Z</time>
      </trkpt>
      <trkpt lat="44.08462" lon="5.99634">
        <ele>501.39999389648</ele>
        <time>2020-12-17T11:00:06.000Z</time>
      </trkpt>
      <trkpt lat="44.08468" lon="5.99626">
        <ele>502.20001220703</ele>
        <time>2020-12-17T11:00:10.000Z</time>
      </trkpt>
      <trkpt lat="44.0847" lon="5.99625">
        <ele>502.60000610352</ele>
        <time>2020-12-17T11:00:11.000Z</time>
      </trkpt>
      <trkpt lat="44.08482" lon="5.99621">
        <ele>503.60000610352</ele>
        <time>2020-12-17T11:00:17.000Z</time>
      </trkpt>
      <trkpt lat="44.08484" lon="5.9962">
        <ele>504</ele>
        <time>2020-12-17T11:00:18.000Z</time>
      </trkpt>
      <trkpt lat="44.08492" lon="5.99615">
        <ele>504.60000610352</ele>
        <time>2020-12-17T11:00:22.000Z</time>
      </trkpt>
      <trkpt lat="44.08494" lon="5.99614">
        <ele>504.79998779297</ele>
        <time>2020-12-17T11:00:23.000Z</time>
      </trkpt>
      <trkpt lat="44.0851" lon="5.99613">
        <ele>506</ele>
        <time>2020-12-17T11:00:30.000Z</time>
      </trkpt>
      <trkpt lat="44.08521" lon="5.99612">
        <ele>507.39999389648</ele>
        <time>2020-12-17T11:00:35.000Z</time>
      </trkpt>
      <trkpt lat="44.08527" lon="5.99613">
        <ele>508.20001220703</ele>
        <time>2020-12-17T11:00:38.000Z</time>
      </trkpt>
      <trkpt lat="44.08529" lon="5.99613">
        <ele>508.60000610352</ele>
        <time>2020-12-17T11:00:39.000Z</time>
      </trkpt>
      <trkpt lat="44.08537" lon="5.99612">
        <ele>510</ele>
        <time>2020-12-17T11:00:43.000Z</time>
      </trkpt>
      <trkpt lat="44.08541" lon="5.99612">
        <ele>511</ele>
        <time>2020-12-17T11:00:46.000Z</time>
      </trkpt>
      <trkpt lat="44.08543" lon="5.99613">
        <ele>512.20001220703</ele>
        <time>2020-12-17T11:00:49.000Z</time>
      </trkpt>
      <trkpt lat="44.08543" lon="5.99613">
        <ele>513.20001220703</ele>
        <time>2020-12-17T11:00:54.000Z</time>
      </trkpt>
      <trkpt lat="44.08547" lon="5.99615">
        <ele>513.40002441406</ele>
        <time>2020-12-17T11:00:57.000Z</time>
      </trkpt>
      <trkpt lat="44.08548" lon="5.99616">
        <ele>513.40002441406</ele>
        <time>2020-12-17T11:00:58.000Z</time>
      </trkpt>
      <trkpt lat="44.08549" lon="5.99623">
        <ele>513.59997558594</ele>
        <time>2020-12-17T11:01:02.000Z</time>
      </trkpt>
      <trkpt lat="44.08555" lon="5.99633">
        <ele>514.20001220703</ele>
        <time>2020-12-17T11:01:07.000Z</time>
      </trkpt>
      <trkpt lat="44.08558" lon="5.99636">
        <ele>515.20001220703</ele>
        <time>2020-12-17T11:01:09.000Z</time>
      </trkpt>
      <trkpt lat="44.08559" lon="5.99638">
        <ele>515.59997558594</ele>
        <time>2020-12-17T11:01:10.000Z</time>
      </trkpt>
      <trkpt lat="44.08562" lon="5.99645">
        <ele>516.20001220703</ele>
        <time>2020-12-17T11:01:13.000Z</time>
      </trkpt>
      <trkpt lat="44.08563" lon="5.99651">
        <ele>516.79998779297</ele>
        <time>2020-12-17T11:01:16.000Z</time>
      </trkpt>
      <trkpt lat="44.08567" lon="5.9966">
        <ele>517.40002441406</ele>
        <time>2020-12-17T11:01:19.000Z</time>
      </trkpt>
      <trkpt lat="44.08572" lon="5.99666">
        <ele>517.79998779297</ele>
        <time>2020-12-17T11:01:22.000Z</time>
      </trkpt>
      <trkpt lat="44.08575" lon="5.99666">
        <ele>518</ele>
        <time>2020-12-17T11:01:23.000Z</time>
      </trkpt>
      <trkpt lat="44.08581" lon="5.99661">
        <ele>519</ele>
        <time>2020-12-17T11:01:26.000Z</time>
      </trkpt>
      <trkpt lat="44.08583" lon="5.99659">
        <ele>519.40002441406</ele>
        <time>2020-12-17T11:01:27.000Z</time>
      </trkpt>
      <trkpt lat="44.08589" lon="5.99654">
        <ele>520</ele>
        <time>2020-12-17T11:01:30.000Z</time>
      </trkpt>
      <trkpt lat="44.08597" lon="5.99647">
        <ele>521</ele>
        <time>2020-12-17T11:01:35.000Z</time>
      </trkpt>
      <trkpt lat="44.08599" lon="5.99646">
        <ele>521.20001220703</ele>
        <time>2020-12-17T11:01:36.000Z</time>
      </trkpt>
      <trkpt lat="44.08612" lon="5.9964">
        <ele>522.20001220703</ele>
        <time>2020-12-17T11:01:42.000Z</time>
      </trkpt>
      <trkpt lat="44.08614" lon="5.99639">
        <ele>522.40002441406</ele>
        <time>2020-12-17T11:01:43.000Z</time>
      </trkpt>
      <trkpt lat="44.08625" lon="5.99636">
        <ele>523.40002441406</ele>
        <time>2020-12-17T11:01:48.000Z</time>
      </trkpt>
      <trkpt lat="44.0863" lon="5.99634">
        <ele>523.59997558594</ele>
        <time>2020-12-17T11:01:50.000Z</time>
      </trkpt>
      <trkpt lat="44.08644" lon="5.99631">
        <ele>524.59997558594</ele>
        <time>2020-12-17T11:01:56.000Z</time>
      </trkpt>
      <trkpt lat="44.08646" lon="5.99631">
        <ele>524.79998779297</ele>
        <time>2020-12-17T11:01:57.000Z</time>
      </trkpt>
      <trkpt lat="44.08658" lon="5.9963">
        <ele>525.79998779297</ele>
        <time>2020-12-17T11:02:02.000Z</time>
      </trkpt>
      <trkpt lat="44.08662" lon="5.9963">
        <ele>526.40002441406</ele>
        <time>2020-12-17T11:02:04.000Z</time>
      </trkpt>
      <trkpt lat="44.08667" lon="5.99629">
        <ele>526.79998779297</ele>
        <time>2020-12-17T11:02:06.000Z</time>
      </trkpt>
      <trkpt lat="44.08675" lon="5.99627">
        <ele>528</ele>
        <time>2020-12-17T11:02:10.000Z</time>
      </trkpt>
      <trkpt lat="44.0868" lon="5.99627">
        <ele>528.40002441406</ele>
        <time>2020-12-17T11:02:12.000Z</time>
      </trkpt>
      <trkpt lat="44.08686" lon="5.99625">
        <ele>529</ele>
        <time>2020-12-17T11:02:15.000Z</time>
      </trkpt>
      <trkpt lat="44.08692" lon="5.99624">
        <ele>530</ele>
        <time>2020-12-17T11:02:18.000Z</time>
      </trkpt>
      <trkpt lat="44.087" lon="5.99623">
        <ele>530.59997558594</ele>
        <time>2020-12-17T11:02:21.000Z</time>
      </trkpt>
      <trkpt lat="44.08707" lon="5.99622">
        <ele>531</ele>
        <time>2020-12-17T11:02:24.000Z</time>
      </trkpt>
      <trkpt lat="44.08717" lon="5.9962">
        <ele>532.20001220703</ele>
        <time>2020-12-17T11:02:28.000Z</time>
      </trkpt>
      <trkpt lat="44.08726" lon="5.99619">
        <ele>533.20001220703</ele>
        <time>2020-12-17T11:02:32.000Z</time>
      </trkpt>
      <trkpt lat="44.08736" lon="5.9962">
        <ele>534</ele>
        <time>2020-12-17T11:02:36.000Z</time>
      </trkpt>
      <trkpt lat="44.0874" lon="5.9962">
        <ele>534.40002441406</ele>
        <time>2020-12-17T11:02:38.000Z</time>
      </trkpt>
      <trkpt lat="44.0875" lon="5.9962">
        <ele>535.59997558594</ele>
        <time>2020-12-17T11:02:42.000Z</time>
      </trkpt>
      <trkpt lat="44.08752" lon="5.9962">
        <ele>536</ele>
        <time>2020-12-17T11:02:43.000Z</time>
      </trkpt>
      <trkpt lat="44.08757" lon="5.9962">
        <ele>536.79998779297</ele>
        <time>2020-12-17T11:02:45.000Z</time>
      </trkpt>
      <trkpt lat="44.08765" lon="5.9962">
        <ele>537.79998779297</ele>
        <time>2020-12-17T11:02:49.000Z</time>
      </trkpt>
      <trkpt lat="44.08773" lon="5.99611">
        <ele>539</ele>
        <time>2020-12-17T11:02:54.000Z</time>
      </trkpt>
      <trkpt lat="44.0878" lon="5.99604">
        <ele>539.59997558594</ele>
        <time>2020-12-17T11:02:59.000Z</time>
      </trkpt>
      <trkpt lat="44.08781" lon="5.99603">
        <ele>539.79998779297</ele>
        <time>2020-12-17T11:03:00.000Z</time>
      </trkpt>
      <trkpt lat="44.08781" lon="5.99597">
        <ele>540</ele>
        <time>2020-12-17T11:03:02.000Z</time>
      </trkpt>
      <trkpt lat="44.08781" lon="5.99592">
        <ele>540.20001220703</ele>
        <time>2020-12-17T11:03:03.000Z</time>
      </trkpt>
      <trkpt lat="44.08782" lon="5.99577">
        <ele>540.20001220703</ele>
        <time>2020-12-17T11:03:07.000Z</time>
      </trkpt>
      <trkpt lat="44.0878" lon="5.99567">
        <ele>539.79998779297</ele>
        <time>2020-12-17T11:03:12.000Z</time>
      </trkpt>
      <trkpt lat="44.08778" lon="5.99564">
        <ele>539.59997558594</ele>
        <time>2020-12-17T11:03:13.000Z</time>
      </trkpt>
      <trkpt lat="44.08764" lon="5.99554">
        <ele>539</ele>
        <time>2020-12-17T11:03:17.000Z</time>
      </trkpt>
      <trkpt lat="44.08755" lon="5.99549">
        <ele>538.59997558594</ele>
        <time>2020-12-17T11:03:21.000Z</time>
      </trkpt>
      <trkpt lat="44.08751" lon="5.99552">
        <ele>537.59997558594</ele>
        <time>2020-12-17T11:03:24.000Z</time>
      </trkpt>
      <trkpt lat="44.08748" lon="5.99556">
        <ele>536.40002441406</ele>
        <time>2020-12-17T11:03:26.000Z</time>
      </trkpt>
      <trkpt lat="44.08742" lon="5.99559">
        <ele>535.59997558594</ele>
        <time>2020-12-17T11:03:29.000Z</time>
      </trkpt>
      <trkpt lat="44.0874" lon="5.99562">
        <ele>535.40002441406</ele>
        <time>2020-12-17T11:03:30.000Z</time>
      </trkpt>
      <trkpt lat="44.08737" lon="5.99564">
        <ele>535.40002441406</ele>
        <time>2020-12-17T11:03:31.000Z</time>
      </trkpt>
      <trkpt lat="44.08733" lon="5.99565">
        <ele>535.40002441406</ele>
        <time>2020-12-17T11:03:32.000Z</time>
      </trkpt>
      <trkpt lat="44.08725" lon="5.99565">
        <ele>535.20001220703</ele>
        <time>2020-12-17T11:03:34.000Z</time>
      </trkpt>
      <trkpt lat="44.0872" lon="5.99563">
        <ele>534.79998779297</ele>
        <time>2020-12-17T11:03:35.000Z</time>
      </trkpt>
      <trkpt lat="44.08711" lon="5.99557">
        <ele>533.79998779297</ele>
        <time>2020-12-17T11:03:37.000Z</time>
      </trkpt>
      <trkpt lat="44.08707" lon="5.99556">
        <ele>533</ele>
        <time>2020-12-17T11:03:38.000Z</time>
      </trkpt>
      <trkpt lat="44.08705" lon="5.99557">
        <ele>532.20001220703</ele>
        <time>2020-12-17T11:03:39.000Z</time>
      </trkpt>
      <trkpt lat="44.08697" lon="5.99558">
        <ele>530.40002441406</ele>
        <time>2020-12-17T11:03:41.000Z</time>
      </trkpt>
      <trkpt lat="44.08693" lon="5.99558">
        <ele>529.40002441406</ele>
        <time>2020-12-17T11:03:42.000Z</time>
      </trkpt>
      <trkpt lat="44.08689" lon="5.99557">
        <ele>528.40002441406</ele>
        <time>2020-12-17T11:03:43.000Z</time>
      </trkpt>
      <trkpt lat="44.08684" lon="5.99558">
        <ele>527.40002441406</ele>
        <time>2020-12-17T11:03:44.000Z</time>
      </trkpt>
      <trkpt lat="44.08679" lon="5.99559">
        <ele>527</ele>
        <time>2020-12-17T11:03:45.000Z</time>
      </trkpt>
      <trkpt lat="44.0867" lon="5.99559">
        <ele>526.40002441406</ele>
        <time>2020-12-17T11:03:47.000Z</time>
      </trkpt>
      <trkpt lat="44.08664" lon="5.99558">
        <ele>525.79998779297</ele>
        <time>2020-12-17T11:03:48.000Z</time>
      </trkpt>
      <trkpt lat="44.08658" lon="5.99559">
        <ele>525.20001220703</ele>
        <time>2020-12-17T11:03:49.000Z</time>
      </trkpt>
      <trkpt lat="44.08652" lon="5.99562">
        <ele>524.40002441406</ele>
        <time>2020-12-17T11:03:50.000Z</time>
      </trkpt>
      <trkpt lat="44.08646" lon="5.99565">
        <ele>523.40002441406</ele>
        <time>2020-12-17T11:03:51.000Z</time>
      </trkpt>
      <trkpt lat="44.0864" lon="5.99568">
        <ele>522.59997558594</ele>
        <time>2020-12-17T11:03:52.000Z</time>
      </trkpt>
      <trkpt lat="44.08633" lon="5.99572">
        <ele>522</ele>
        <time>2020-12-17T11:03:53.000Z</time>
      </trkpt>
      <trkpt lat="44.08627" lon="5.99576">
        <ele>521.59997558594</ele>
        <time>2020-12-17T11:03:54.000Z</time>
      </trkpt>
      <trkpt lat="44.08615" lon="5.99589">
        <ele>519.79998779297</ele>
        <time>2020-12-17T11:03:57.000Z</time>
      </trkpt>
      <trkpt lat="44.08612" lon="5.99594">
        <ele>519</ele>
        <time>2020-12-17T11:03:58.000Z</time>
      </trkpt>
      <trkpt lat="44.0861" lon="5.99598">
        <ele>518.59997558594</ele>
        <time>2020-12-17T11:03:59.000Z</time>
      </trkpt>
      <trkpt lat="44.08606" lon="5.99602">
        <ele>518.40002441406</ele>
        <time>2020-12-17T11:04:01.000Z</time>
      </trkpt>
      <trkpt lat="44.08603" lon="5.99601">
        <ele>518.40002441406</ele>
        <time>2020-12-17T11:04:02.000Z</time>
      </trkpt>
      <trkpt lat="44.08594" lon="5.99589">
        <ele>517.79998779297</ele>
        <time>2020-12-17T11:04:05.000Z</time>
      </trkpt>
      <trkpt lat="44.08589" lon="5.99585">
        <ele>517.40002441406</ele>
        <time>2020-12-17T11:04:06.000Z</time>
      </trkpt>
      <trkpt lat="44.08578" lon="5.99578">
        <ele>517</ele>
        <time>2020-12-17T11:04:08.000Z</time>
      </trkpt>
      <trkpt lat="44.08574" lon="5.99575">
        <ele>517</ele>
        <time>2020-12-17T11:04:09.000Z</time>
      </trkpt>
      <trkpt lat="44.08565" lon="5.9956">
        <ele>516.79998779297</ele>
        <time>2020-12-17T11:04:12.000Z</time>
      </trkpt>
      <trkpt lat="44.08564" lon="5.99555">
        <ele>516.20001220703</ele>
        <time>2020-12-17T11:04:13.000Z</time>
      </trkpt>
      <trkpt lat="44.08562" lon="5.99548">
        <ele>514</ele>
        <time>2020-12-17T11:04:15.000Z</time>
      </trkpt>
      <trkpt lat="44.0856" lon="5.99546">
        <ele>513</ele>
        <time>2020-12-17T11:04:16.000Z</time>
      </trkpt>
      <trkpt lat="44.08557" lon="5.99546">
        <ele>512</ele>
        <time>2020-12-17T11:04:17.000Z</time>
      </trkpt>
      <trkpt lat="44.08552" lon="5.99546">
        <ele>511</ele>
        <time>2020-12-17T11:04:19.000Z</time>
      </trkpt>
      <trkpt lat="44.08549" lon="5.99541">
        <ele>509.79998779297</ele>
        <time>2020-12-17T11:04:21.000Z</time>
      </trkpt>
      <trkpt lat="44.0855" lon="5.99537">
        <ele>509.39999389648</ele>
        <time>2020-12-17T11:04:22.000Z</time>
      </trkpt>
      <trkpt lat="44.08548" lon="5.99527">
        <ele>508.79998779297</ele>
        <time>2020-12-17T11:04:24.000Z</time>
      </trkpt>
      <trkpt lat="44.08545" lon="5.99523">
        <ele>508.39999389648</ele>
        <time>2020-12-17T11:04:25.000Z</time>
      </trkpt>
      <trkpt lat="44.08537" lon="5.99522">
        <ele>507.79998779297</ele>
        <time>2020-12-17T11:04:27.000Z</time>
      </trkpt>
      <trkpt lat="44.08531" lon="5.99522">
        <ele>507.60000610352</ele>
        <time>2020-12-17T11:04:28.000Z</time>
      </trkpt>
      <trkpt lat="44.08515" lon="5.9952">
        <ele>506.20001220703</ele>
        <time>2020-12-17T11:04:31.000Z</time>
      </trkpt>
      <trkpt lat="44.08511" lon="5.99522">
        <ele>505</ele>
        <time>2020-12-17T11:04:32.000Z</time>
      </trkpt>
      <trkpt lat="44.08504" lon="5.99528">
        <ele>503.60000610352</ele>
        <time>2020-12-17T11:04:34.000Z</time>
      </trkpt>
      <trkpt lat="44.08499" lon="5.99528">
        <ele>502.79998779297</ele>
        <time>2020-12-17T11:04:35.000Z</time>
      </trkpt>
      <trkpt lat="44.08496" lon="5.99525">
        <ele>501.79998779297</ele>
        <time>2020-12-17T11:04:36.000Z</time>
      </trkpt>
      <trkpt lat="44.08487" lon="5.99522">
        <ele>500.60000610352</ele>
        <time>2020-12-17T11:04:38.000Z</time>
      </trkpt>
      <trkpt lat="44.0847" lon="5.99516">
        <ele>499.39999389648</ele>
        <time>2020-12-17T11:04:41.000Z</time>
      </trkpt>
      <trkpt lat="44.08464" lon="5.99512">
        <ele>498.79998779297</ele>
        <time>2020-12-17T11:04:42.000Z</time>
      </trkpt>
      <trkpt lat="44.08458" lon="5.99508">
        <ele>497.60000610352</ele>
        <time>2020-12-17T11:04:43.000Z</time>
      </trkpt>
      <trkpt lat="44.08449" lon="5.99505">
        <ele>496.20001220703</ele>
        <time>2020-12-17T11:04:45.000Z</time>
      </trkpt>
      <trkpt lat="44.08441" lon="5.995">
        <ele>495</ele>
        <time>2020-12-17T11:04:47.000Z</time>
      </trkpt>
      <trkpt lat="44.08434" lon="5.99492">
        <ele>493.39999389648</ele>
        <time>2020-12-17T11:04:49.000Z</time>
      </trkpt>
      <trkpt lat="44.08431" lon="5.99491">
        <ele>492.20001220703</ele>
        <time>2020-12-17T11:04:50.000Z</time>
      </trkpt>
      <trkpt lat="44.08429" lon="5.99491">
        <ele>491</ele>
        <time>2020-12-17T11:04:51.000Z</time>
      </trkpt>
      <trkpt lat="44.08425" lon="5.99491">
        <ele>490.20001220703</ele>
        <time>2020-12-17T11:04:52.000Z</time>
      </trkpt>
      <trkpt lat="44.08422" lon="5.99491">
        <ele>489.79998779297</ele>
        <time>2020-12-17T11:04:53.000Z</time>
      </trkpt>
      <trkpt lat="44.08414" lon="5.99489">
        <ele>488.60000610352</ele>
        <time>2020-12-17T11:04:55.000Z</time>
      </trkpt>
      <trkpt lat="44.0841" lon="5.99488">
        <ele>488.20001220703</ele>
        <time>2020-12-17T11:04:56.000Z</time>
      </trkpt>
      <trkpt lat="44.08402" lon="5.99485">
        <ele>487.39999389648</ele>
        <time>2020-12-17T11:04:58.000Z</time>
      </trkpt>
      <trkpt lat="44.08395" lon="5.99483">
        <ele>486.79998779297</ele>
        <time>2020-12-17T11:05:00.000Z</time>
      </trkpt>
      <trkpt lat="44.08391" lon="5.99484">
        <ele>486.39999389648</ele>
        <time>2020-12-17T11:05:01.000Z</time>
      </trkpt>
      <trkpt lat="44.08389" lon="5.99484">
        <ele>485</ele>
        <time>2020-12-17T11:05:02.000Z</time>
      </trkpt>
      <trkpt lat="44.08382" lon="5.99488">
        <ele>484.20001220703</ele>
        <time>2020-12-17T11:05:05.000Z</time>
      </trkpt>
      <trkpt lat="44.08381" lon="5.99491">
        <ele>484</ele>
        <time>2020-12-17T11:05:06.000Z</time>
      </trkpt>
      <trkpt lat="44.08375" lon="5.99494">
        <ele>483.20001220703</ele>
        <time>2020-12-17T11:05:09.000Z</time>
      </trkpt>
      <trkpt lat="44.08374" lon="5.99492">
        <ele>482.79998779297</ele>
        <time>2020-12-17T11:05:10.000Z</time>
      </trkpt>
      <trkpt lat="44.0837" lon="5.99483">
        <ele>481.79998779297</ele>
        <time>2020-12-17T11:05:12.000Z</time>
      </trkpt>
      <trkpt lat="44.08365" lon="5.99476">
        <ele>480.60000610352</ele>
        <time>2020-12-17T11:05:14.000Z</time>
      </trkpt>
      <trkpt lat="44.08362" lon="5.99474">
        <ele>479.79998779297</ele>
        <time>2020-12-17T11:05:15.000Z</time>
      </trkpt>
      <trkpt lat="44.08358" lon="5.99472">
        <ele>479.39999389648</ele>
        <time>2020-12-17T11:05:16.000Z</time>
      </trkpt>
      <trkpt lat="44.08354" lon="5.99471">
        <ele>478.79998779297</ele>
        <time>2020-12-17T11:05:17.000Z</time>
      </trkpt>
      <trkpt lat="44.08347" lon="5.99471">
        <ele>478.20001220703</ele>
        <time>2020-12-17T11:05:19.000Z</time>
      </trkpt>
      <trkpt lat="44.08344" lon="5.99468">
        <ele>477.60000610352</ele>
        <time>2020-12-17T11:05:20.000Z</time>
      </trkpt>
      <trkpt lat="44.08339" lon="5.99459">
        <ele>477</ele>
        <time>2020-12-17T11:05:22.000Z</time>
      </trkpt>
      <trkpt lat="44.08336" lon="5.99454">
        <ele>476.79998779297</ele>
        <time>2020-12-17T11:05:23.000Z</time>
      </trkpt>
      <trkpt lat="44.08332" lon="5.99448">
        <ele>476.39999389648</ele>
        <time>2020-12-17T11:05:24.000Z</time>
      </trkpt>
      <trkpt lat="44.08329" lon="5.99443">
        <ele>476</ele>
        <time>2020-12-17T11:05:25.000Z</time>
      </trkpt>
      <trkpt lat="44.08318" lon="5.99435">
        <ele>474.79998779297</ele>
        <time>2020-12-17T11:05:27.000Z</time>
      </trkpt>
      <trkpt lat="44.08312" lon="5.99427">
        <ele>473.79998779297</ele>
        <time>2020-12-17T11:05:29.000Z</time>
      </trkpt>
      <trkpt lat="44.08312" lon="5.99424">
        <ele>473</ele>
        <time>2020-12-17T11:05:30.000Z</time>
      </trkpt>
      <trkpt lat="44.08312" lon="5.99421">
        <ele>472.39999389648</ele>
        <time>2020-12-17T11:05:31.000Z</time>
      </trkpt>
      <trkpt lat="44.08309" lon="5.99416">
        <ele>471</ele>
        <time>2020-12-17T11:05:33.000Z</time>
      </trkpt>
      <trkpt lat="44.08304" lon="5.99408">
        <ele>470.20001220703</ele>
        <time>2020-12-17T11:05:35.000Z</time>
      </trkpt>
      <trkpt lat="44.083" lon="5.99404">
        <ele>470</ele>
        <time>2020-12-17T11:05:36.000Z</time>
      </trkpt>
      <trkpt lat="44.08295" lon="5.994">
        <ele>469.79998779297</ele>
        <time>2020-12-17T11:05:37.000Z</time>
      </trkpt>
      <trkpt lat="44.08285" lon="5.99393">
        <ele>469.60000610352</ele>
        <time>2020-12-17T11:05:39.000Z</time>
      </trkpt>
      <trkpt lat="44.08281" lon="5.99389">
        <ele>469.39999389648</ele>
        <time>2020-12-17T11:05:40.000Z</time>
      </trkpt>
      <trkpt lat="44.08276" lon="5.99378">
        <ele>469.20001220703</ele>
        <time>2020-12-17T11:05:42.000Z</time>
      </trkpt>
      <trkpt lat="44.08273" lon="5.99371">
        <ele>468.79998779297</ele>
        <time>2020-12-17T11:05:43.000Z</time>
      </trkpt>
      <trkpt lat="44.0827" lon="5.99359">
        <ele>467.20001220703</ele>
        <time>2020-12-17T11:05:45.000Z</time>
      </trkpt>
      <trkpt lat="44.08269" lon="5.99355">
        <ele>466</ele>
        <time>2020-12-17T11:05:46.000Z</time>
      </trkpt>
      <trkpt lat="44.08269" lon="5.9935">
        <ele>464.79998779297</ele>
        <time>2020-12-17T11:05:47.000Z</time>
      </trkpt>
      <trkpt lat="44.08267" lon="5.99338">
        <ele>463.39999389648</ele>
        <time>2020-12-17T11:05:49.000Z</time>
      </trkpt>
      <trkpt lat="44.08266" lon="5.99325">
        <ele>461.60000610352</ele>
        <time>2020-12-17T11:05:51.000Z</time>
      </trkpt>
      <trkpt lat="44.08266" lon="5.99319">
        <ele>461</ele>
        <time>2020-12-17T11:05:52.000Z</time>
      </trkpt>
      <trkpt lat="44.08266" lon="5.9931">
        <ele>460.39999389648</ele>
        <time>2020-12-17T11:05:54.000Z</time>
      </trkpt>
      <trkpt lat="44.08265" lon="5.99307">
        <ele>460.39999389648</ele>
        <time>2020-12-17T11:05:55.000Z</time>
      </trkpt>
      <trkpt lat="44.08264" lon="5.99304">
        <ele>460.39999389648</ele>
        <time>2020-12-17T11:05:56.000Z</time>
      </trkpt>
      <trkpt lat="44.08262" lon="5.99295">
        <ele>460.20001220703</ele>
        <time>2020-12-17T11:06:01.000Z</time>
      </trkpt>
      <trkpt lat="44.08266" lon="5.99298">
        <ele>461.39999389648</ele>
        <time>2020-12-17T11:06:05.000Z</time>
      </trkpt>
      <trkpt lat="44.08267" lon="5.99298">
        <ele>461.60000610352</ele>
        <time>2020-12-17T11:06:06.000Z</time>
      </trkpt>
      <trkpt lat="44.08267" lon="5.99298">
        <ele>461.79998779297</ele>
        <time>2020-12-17T11:06:07.000Z</time>
      </trkpt>
      <trkpt lat="44.0827" lon="5.99299">
        <ele>462.60000610352</ele>
        <time>2020-12-17T11:06:09.000Z</time>
      </trkpt>
      <trkpt lat="44.08271" lon="5.993">
        <ele>463</ele>
        <time>2020-12-17T11:06:11.000Z</time>
      </trkpt>
      <trkpt lat="44.08275" lon="5.99304">
        <ele>463.79998779297</ele>
        <time>2020-12-17T11:06:14.000Z</time>
      </trkpt>
      <trkpt lat="44.08278" lon="5.99308">
        <ele>464.60000610352</ele>
        <time>2020-12-17T11:06:16.000Z</time>
      </trkpt>
      <trkpt lat="44.08278" lon="5.9931">
        <ele>465</ele>
        <time>2020-12-17T11:06:17.000Z</time>
      </trkpt>
      <trkpt lat="44.08279" lon="5.99312">
        <ele>465.60000610352</ele>
        <time>2020-12-17T11:06:18.000Z</time>
      </trkpt>
      <trkpt lat="44.08281" lon="5.99312">
        <ele>466.20001220703</ele>
        <time>2020-12-17T11:06:19.000Z</time>
      </trkpt>
      <trkpt lat="44.08282" lon="5.99312">
        <ele>466.60000610352</ele>
        <time>2020-12-17T11:06:20.000Z</time>
      </trkpt>
      <trkpt lat="44.08283" lon="5.99308">
        <ele>467.39999389648</ele>
        <time>2020-12-17T11:06:22.000Z</time>
      </trkpt>
      <trkpt lat="44.08283" lon="5.99303">
        <ele>468.60000610352</ele>
        <time>2020-12-17T11:06:24.000Z</time>
      </trkpt>
      <trkpt lat="44.08285" lon="5.99303">
        <ele>469.79998779297</ele>
        <time>2020-12-17T11:06:27.000Z</time>
      </trkpt>
      <trkpt lat="44.08286" lon="5.99305">
        <ele>470.20001220703</ele>
        <time>2020-12-17T11:06:28.000Z</time>
      </trkpt>
      <trkpt lat="44.0829" lon="5.99315">
        <ele>471.20001220703</ele>
        <time>2020-12-17T11:06:32.000Z</time>
      </trkpt>
      <trkpt lat="44.08291" lon="5.9932">
        <ele>471.79998779297</ele>
        <time>2020-12-17T11:06:34.000Z</time>
      </trkpt>
      <trkpt lat="44.083" lon="5.99333">
        <ele>472.39999389648</ele>
        <time>2020-12-17T11:06:39.000Z</time>
      </trkpt>
      <trkpt lat="44.08301" lon="5.99335">
        <ele>472.79998779297</ele>
        <time>2020-12-17T11:06:40.000Z</time>
      </trkpt>
      <trkpt lat="44.08303" lon="5.9934">
        <ele>473.39999389648</ele>
        <time>2020-12-17T11:06:42.000Z</time>
      </trkpt>
      <trkpt lat="44.08309" lon="5.99347">
        <ele>474.20001220703</ele>
        <time>2020-12-17T11:06:45.000Z</time>
      </trkpt>
      <trkpt lat="44.08311" lon="5.99348">
        <ele>474.60000610352</ele>
        <time>2020-12-17T11:06:46.000Z</time>
      </trkpt>
      <trkpt lat="44.08317" lon="5.99353">
        <ele>475.39999389648</ele>
        <time>2020-12-17T11:06:49.000Z</time>
      </trkpt>
      <trkpt lat="44.08321" lon="5.99357">
        <ele>475.79998779297</ele>
        <time>2020-12-17T11:06:51.000Z</time>
      </trkpt>
      <trkpt lat="44.08323" lon="5.99364">
        <ele>476.60000610352</ele>
        <time>2020-12-17T11:06:54.000Z</time>
      </trkpt>
      <trkpt lat="44.08323" lon="5.99366">
        <ele>476.79998779297</ele>
        <time>2020-12-17T11:06:55.000Z</time>
      </trkpt>
      <trkpt lat="44.08322" lon="5.99369">
        <ele>477</ele>
        <time>2020-12-17T11:06:56.000Z</time>
      </trkpt>
      <trkpt lat="44.08323" lon="5.99377">
        <ele>478</ele>
        <time>2020-12-17T11:06:59.000Z</time>
      </trkpt>
      <trkpt lat="44.08324" lon="5.9938">
        <ele>478.20001220703</ele>
        <time>2020-12-17T11:07:00.000Z</time>
      </trkpt>
      <trkpt lat="44.08327" lon="5.99383">
        <ele>479.20001220703</ele>
        <time>2020-12-17T11:07:02.000Z</time>
      </trkpt>
      <trkpt lat="44.08333" lon="5.99388">
        <ele>479.60000610352</ele>
        <time>2020-12-17T11:07:04.000Z</time>
      </trkpt>
      <trkpt lat="44.08343" lon="5.99395">
        <ele>479.79998779297</ele>
        <time>2020-12-17T11:07:08.000Z</time>
      </trkpt>
      <trkpt lat="44.08346" lon="5.99395">
        <ele>480</ele>
        <time>2020-12-17T11:07:09.000Z</time>
      </trkpt>
      <trkpt lat="44.08352" lon="5.99394">
        <ele>480.39999389648</ele>
        <time>2020-12-17T11:07:11.000Z</time>
      </trkpt>
      <trkpt lat="44.08355" lon="5.99393">
        <ele>480.60000610352</ele>
        <time>2020-12-17T11:07:12.000Z</time>
      </trkpt>
      <trkpt lat="44.0836" lon="5.99392">
        <ele>481.20001220703</ele>
        <time>2020-12-17T11:07:14.000Z</time>
      </trkpt>
      <trkpt lat="44.08363" lon="5.99391">
        <ele>481.39999389648</ele>
        <time>2020-12-17T11:07:15.000Z</time>
      </trkpt>
      <trkpt lat="44.08379" lon="5.99388">
        <ele>482</ele>
        <time>2020-12-17T11:07:20.000Z</time>
      </trkpt>
      <trkpt lat="44.08392" lon="5.99384">
        <ele>482.79998779297</ele>
        <time>2020-12-17T11:07:24.000Z</time>
      </trkpt>
      <trkpt lat="44.084" lon="5.99381">
        <ele>484</ele>
        <time>2020-12-17T11:07:27.000Z</time>
      </trkpt>
      <trkpt lat="44.08407" lon="5.99378">
        <ele>485</ele>
        <time>2020-12-17T11:07:30.000Z</time>
      </trkpt>
      <trkpt lat="44.0841" lon="5.99378">
        <ele>485.20001220703</ele>
        <time>2020-12-17T11:07:31.000Z</time>
      </trkpt>
      <trkpt lat="44.08417" lon="5.99379">
        <ele>486.20001220703</ele>
        <time>2020-12-17T11:07:34.000Z</time>
      </trkpt>
      <trkpt lat="44.08427" lon="5.99381">
        <ele>487.20001220703</ele>
        <time>2020-12-17T11:07:38.000Z</time>
      </trkpt>
      <trkpt lat="44.08429" lon="5.99381">
        <ele>487.79998779297</ele>
        <time>2020-12-17T11:07:39.000Z</time>
      </trkpt>
      <trkpt lat="44.08433" lon="5.99383">
        <ele>488.20001220703</ele>
        <time>2020-12-17T11:07:41.000Z</time>
      </trkpt>
      <trkpt lat="44.08437" lon="5.99388">
        <ele>489.39999389648</ele>
        <time>2020-12-17T11:07:44.000Z</time>
      </trkpt>
      <trkpt lat="44.08444" lon="5.99393">
        <ele>490.39999389648</ele>
        <time>2020-12-17T11:07:48.000Z</time>
      </trkpt>
      <trkpt lat="44.08446" lon="5.99395">
        <ele>490.79998779297</ele>
        <time>2020-12-17T11:07:49.000Z</time>
      </trkpt>
      <trkpt lat="44.08449" lon="5.99399">
        <ele>491.60000610352</ele>
        <time>2020-12-17T11:07:51.000Z</time>
      </trkpt>
      <trkpt lat="44.08454" lon="5.99405">
        <ele>492.79998779297</ele>
        <time>2020-12-17T11:07:54.000Z</time>
      </trkpt>
      <trkpt lat="44.08458" lon="5.99415">
        <ele>493.79998779297</ele>
        <time>2020-12-17T11:07:58.000Z</time>
      </trkpt>
      <trkpt lat="44.08458" lon="5.99417">
        <ele>494.20001220703</ele>
        <time>2020-12-17T11:07:59.000Z</time>
      </trkpt>
      <trkpt lat="44.0846" lon="5.99422">
        <ele>495.20001220703</ele>
        <time>2020-12-17T11:08:01.000Z</time>
      </trkpt>
      <trkpt lat="44.08466" lon="5.99426">
        <ele>496</ele>
        <time>2020-12-17T11:08:04.000Z</time>
      </trkpt>
      <trkpt lat="44.08468" lon="5.99426">
        <ele>496.20001220703</ele>
        <time>2020-12-17T11:08:05.000Z</time>
      </trkpt>
      <trkpt lat="44.08474" lon="5.9943">
        <ele>497.60000610352</ele>
        <time>2020-12-17T11:08:08.000Z</time>
      </trkpt>
      <trkpt lat="44.08476" lon="5.99432">
        <ele>497.79998779297</ele>
        <time>2020-12-17T11:08:09.000Z</time>
      </trkpt>
      <trkpt lat="44.08483" lon="5.99434">
        <ele>498.60000610352</ele>
        <time>2020-12-17T11:08:12.000Z</time>
      </trkpt>
      <trkpt lat="44.0849" lon="5.99437">
        <ele>499.60000610352</ele>
        <time>2020-12-17T11:08:15.000Z</time>
      </trkpt>
      <trkpt lat="44.08492" lon="5.99438">
        <ele>499.79998779297</ele>
        <time>2020-12-17T11:08:16.000Z</time>
      </trkpt>
      <trkpt lat="44.08502" lon="5.99437">
        <ele>500.60000610352</ele>
        <time>2020-12-17T11:08:20.000Z</time>
      </trkpt>
      <trkpt lat="44.08507" lon="5.99436">
        <ele>501.20001220703</ele>
        <time>2020-12-17T11:08:22.000Z</time>
      </trkpt>
      <trkpt lat="44.08514" lon="5.99434">
        <ele>502.39999389648</ele>
        <time>2020-12-17T11:08:25.000Z</time>
      </trkpt>
      <trkpt lat="44.08517" lon="5.99433">
        <ele>502.79998779297</ele>
        <time>2020-12-17T11:08:27.000Z</time>
      </trkpt>
      <trkpt lat="44.0852" lon="5.99432">
        <ele>503.39999389648</ele>
        <time>2020-12-17T11:08:30.000Z</time>
      </trkpt>
      <trkpt lat="44.0852" lon="5.99432">
        <ele>503.79998779297</ele>
        <time>2020-12-17T11:08:33.000Z</time>
      </trkpt>
      <trkpt lat="44.0852" lon="5.99432">
        <ele>504.39999389648</ele>
        <time>2020-12-17T11:08:36.000Z</time>
      </trkpt>
      <trkpt lat="44.0852" lon="5.99432">
        <ele>505</ele>
        <time>2020-12-17T11:08:53.000Z</time>
      </trkpt>
      <trkpt lat="44.0852" lon="5.99432">
        <ele>505</ele>
        <time>2020-12-17T11:08:54.000Z</time>
      </trkpt>
      <trkpt lat="44.08521" lon="5.99432">
        <ele>505</ele>
        <time>2020-12-17T11:09:17.000Z</time>
      </trkpt>
      <trkpt lat="44.08522" lon="5.9943">
        <ele>505</ele>
        <time>2020-12-17T11:09:35.000Z</time>
      </trkpt>
      <trkpt lat="44.08523" lon="5.9943">
        <ele>505</ele>
        <time>2020-12-17T11:09:36.000Z</time>
      </trkpt>
      <trkpt lat="44.08535" lon="5.99425">
        <ele>505</ele>
        <time>2020-12-17T11:09:41.000Z</time>
      </trkpt>
      <trkpt lat="44.08543" lon="5.99422">
        <ele>504.79998779297</ele>
        <time>2020-12-17T11:09:45.000Z</time>
      </trkpt>
      <trkpt lat="44.08546" lon="5.99421">
        <ele>504.79998779297</ele>
        <time>2020-12-17T11:09:46.000Z</time>
      </trkpt>
      <trkpt lat="44.08555" lon="5.99416">
        <ele>504.60000610352</ele>
        <time>2020-12-17T11:09:49.000Z</time>
      </trkpt>
      <trkpt lat="44.08559" lon="5.99414">
        <ele>504.60000610352</ele>
        <time>2020-12-17T11:09:50.000Z</time>
      </trkpt>
      <trkpt lat="44.08576" lon="5.99413">
        <ele>504.39999389648</ele>
        <time>2020-12-17T11:09:54.000Z</time>
      </trkpt>
      <trkpt lat="44.08579" lon="5.99413">
        <ele>504.20001220703</ele>
        <time>2020-12-17T11:09:55.000Z</time>
      </trkpt>
      <trkpt lat="44.08601" lon="5.99419">
        <ele>503.79998779297</ele>
        <time>2020-12-17T11:10:01.000Z</time>
      </trkpt>
      <trkpt lat="44.08614" lon="5.9942">
        <ele>503.79998779297</ele>
        <time>2020-12-17T11:10:05.000Z</time>
      </trkpt>
      <trkpt lat="44.08635" lon="5.99419">
        <ele>504.79998779297</ele>
        <time>2020-12-17T11:10:11.000Z</time>
      </trkpt>
      <trkpt lat="44.08649" lon="5.99424">
        <ele>505.39999389648</ele>
        <time>2020-12-17T11:10:16.000Z</time>
      </trkpt>
      <trkpt lat="44.08666" lon="5.99423">
        <ele>505.60000610352</ele>
        <time>2020-12-17T11:10:21.000Z</time>
      </trkpt>
      <trkpt lat="44.08674" lon="5.99419">
        <ele>505.60000610352</ele>
        <time>2020-12-17T11:10:23.000Z</time>
      </trkpt>
      <trkpt lat="44.08679" lon="5.99421">
        <ele>505.79998779297</ele>
        <time>2020-12-17T11:10:25.000Z</time>
      </trkpt>
      <trkpt lat="44.08692" lon="5.99429">
        <ele>506.39999389648</ele>
        <time>2020-12-17T11:10:30.000Z</time>
      </trkpt>
      <trkpt lat="44.08697" lon="5.99429">
        <ele>506.60000610352</ele>
        <time>2020-12-17T11:10:32.000Z</time>
      </trkpt>
      <trkpt lat="44.08699" lon="5.99429">
        <ele>506.60000610352</ele>
        <time>2020-12-17T11:10:33.000Z</time>
      </trkpt>
      <trkpt lat="44.08702" lon="5.99429">
        <ele>506.79998779297</ele>
        <time>2020-12-17T11:10:34.000Z</time>
      </trkpt>
      <trkpt lat="44.08709" lon="5.99427">
        <ele>506.79998779297</ele>
        <time>2020-12-17T11:10:36.000Z</time>
      </trkpt>
      <trkpt lat="44.08718" lon="5.99423">
        <ele>506.79998779297</ele>
        <time>2020-12-17T11:10:38.000Z</time>
      </trkpt>
      <trkpt lat="44.08728" lon="5.99427">
        <ele>507</ele>
        <time>2020-12-17T11:10:41.000Z</time>
      </trkpt>
      <trkpt lat="44.08735" lon="5.9943">
        <ele>507.39999389648</ele>
        <time>2020-12-17T11:10:44.000Z</time>
      </trkpt>
      <trkpt lat="44.08737" lon="5.99431">
        <ele>507.39999389648</ele>
        <time>2020-12-17T11:10:45.000Z</time>
      </trkpt>
      <trkpt lat="44.08743" lon="5.99433">
        <ele>507.60000610352</ele>
        <time>2020-12-17T11:10:47.000Z</time>
      </trkpt>
      <trkpt lat="44.0875" lon="5.99432">
        <ele>508</ele>
        <time>2020-12-17T11:10:49.000Z</time>
      </trkpt>
      <trkpt lat="44.08761" lon="5.99429">
        <ele>508.39999389648</ele>
        <time>2020-12-17T11:10:52.000Z</time>
      </trkpt>
      <trkpt lat="44.08764" lon="5.99428">
        <ele>508.60000610352</ele>
        <time>2020-12-17T11:10:53.000Z</time>
      </trkpt>
      <trkpt lat="44.08767" lon="5.99428">
        <ele>509</ele>
        <time>2020-12-17T11:10:54.000Z</time>
      </trkpt>
      <trkpt lat="44.08779" lon="5.99425">
        <ele>509.39999389648</ele>
        <time>2020-12-17T11:10:57.000Z</time>
      </trkpt>
      <trkpt lat="44.08798" lon="5.99417">
        <ele>509.60000610352</ele>
        <time>2020-12-17T11:11:02.000Z</time>
      </trkpt>
      <trkpt lat="44.0881" lon="5.99416">
        <ele>509.60000610352</ele>
        <time>2020-12-17T11:11:06.000Z</time>
      </trkpt>
      <trkpt lat="44.08829" lon="5.99412">
        <ele>510</ele>
        <time>2020-12-17T11:11:12.000Z</time>
      </trkpt>
      <trkpt lat="44.08832" lon="5.99412">
        <ele>510</ele>
        <time>2020-12-17T11:11:13.000Z</time>
      </trkpt>
      <trkpt lat="44.08837" lon="5.99409">
        <ele>510.60000610352</ele>
        <time>2020-12-17T11:11:16.000Z</time>
      </trkpt>
      <trkpt lat="44.08838" lon="5.99406">
        <ele>511</ele>
        <time>2020-12-17T11:11:17.000Z</time>
      </trkpt>
      <trkpt lat="44.08839" lon="5.99403">
        <ele>511.20001220703</ele>
        <time>2020-12-17T11:11:18.000Z</time>
      </trkpt>
      <trkpt lat="44.08837" lon="5.99397">
        <ele>511.60000610352</ele>
        <time>2020-12-17T11:11:20.000Z</time>
      </trkpt>
      <trkpt lat="44.08831" lon="5.99392">
        <ele>512.40002441406</ele>
        <time>2020-12-17T11:11:23.000Z</time>
      </trkpt>
      <trkpt lat="44.0883" lon="5.99382">
        <ele>513.79998779297</ele>
        <time>2020-12-17T11:11:26.000Z</time>
      </trkpt>
      <trkpt lat="44.08831" lon="5.99379">
        <ele>514.20001220703</ele>
        <time>2020-12-17T11:11:27.000Z</time>
      </trkpt>
      <trkpt lat="44.08834" lon="5.99372">
        <ele>514.40002441406</ele>
        <time>2020-12-17T11:11:29.000Z</time>
      </trkpt>
      <trkpt lat="44.0884" lon="5.99368">
        <ele>514.40002441406</ele>
        <time>2020-12-17T11:11:31.000Z</time>
      </trkpt>
      <trkpt lat="44.08848" lon="5.99366">
        <ele>514.40002441406</ele>
        <time>2020-12-17T11:11:33.000Z</time>
      </trkpt>
      <trkpt lat="44.0886" lon="5.99358">
        <ele>513.79998779297</ele>
        <time>2020-12-17T11:11:36.000Z</time>
      </trkpt>
      <trkpt lat="44.08869" lon="5.99354">
        <ele>512.59997558594</ele>
        <time>2020-12-17T11:11:38.000Z</time>
      </trkpt>
      <trkpt lat="44.08872" lon="5.99354">
        <ele>512</ele>
        <time>2020-12-17T11:11:39.000Z</time>
      </trkpt>
      <trkpt lat="44.08875" lon="5.99355">
        <ele>511.39999389648</ele>
        <time>2020-12-17T11:11:40.000Z</time>
      </trkpt>
      <trkpt lat="44.08891" lon="5.99359">
        <ele>509.79998779297</ele>
        <time>2020-12-17T11:11:44.000Z</time>
      </trkpt>
      <trkpt lat="44.08896" lon="5.9936">
        <ele>509.20001220703</ele>
        <time>2020-12-17T11:11:45.000Z</time>
      </trkpt>
      <trkpt lat="44.089" lon="5.9936">
        <ele>509</ele>
        <time>2020-12-17T11:11:46.000Z</time>
      </trkpt>
      <trkpt lat="44.08908" lon="5.99359">
        <ele>508.60000610352</ele>
        <time>2020-12-17T11:11:48.000Z</time>
      </trkpt>
      <trkpt lat="44.08922" lon="5.9936">
        <ele>508.60000610352</ele>
        <time>2020-12-17T11:11:51.000Z</time>
      </trkpt>
      <trkpt lat="44.08936" lon="5.99364">
        <ele>508.79998779297</ele>
        <time>2020-12-17T11:11:54.000Z</time>
      </trkpt>
      <trkpt lat="44.08944" lon="5.99366">
        <ele>509.20001220703</ele>
        <time>2020-12-17T11:11:56.000Z</time>
      </trkpt>
      <trkpt lat="44.08955" lon="5.9937">
        <ele>510</ele>
        <time>2020-12-17T11:12:00.000Z</time>
      </trkpt>
      <trkpt lat="44.08958" lon="5.99372">
        <ele>510.20001220703</ele>
        <time>2020-12-17T11:12:01.000Z</time>
      </trkpt>
      <trkpt lat="44.0897" lon="5.9937">
        <ele>511.39999389648</ele>
        <time>2020-12-17T11:12:04.000Z</time>
      </trkpt>
      <trkpt lat="44.08975" lon="5.99368">
        <ele>511.79998779297</ele>
        <time>2020-12-17T11:12:05.000Z</time>
      </trkpt>
      <trkpt lat="44.0898" lon="5.99367">
        <ele>512</ele>
        <time>2020-12-17T11:12:06.000Z</time>
      </trkpt>
      <trkpt lat="44.08989" lon="5.9937">
        <ele>512.20001220703</ele>
        <time>2020-12-17T11:12:08.000Z</time>
      </trkpt>
      <trkpt lat="44.08996" lon="5.99372">
        <ele>512.59997558594</ele>
        <time>2020-12-17T11:12:10.000Z</time>
      </trkpt>
      <trkpt lat="44.09007" lon="5.99375">
        <ele>512.79998779297</ele>
        <time>2020-12-17T11:12:13.000Z</time>
      </trkpt>
      <trkpt lat="44.09014" lon="5.99364">
        <ele>513.20001220703</ele>
        <time>2020-12-17T11:12:16.000Z</time>
      </trkpt>
      <trkpt lat="44.09025" lon="5.99358">
        <ele>513.20001220703</ele>
        <time>2020-12-17T11:12:19.000Z</time>
      </trkpt>
      <trkpt lat="44.09037" lon="5.99363">
        <ele>512.79998779297</ele>
        <time>2020-12-17T11:12:22.000Z</time>
      </trkpt>
      <trkpt lat="44.09044" lon="5.99366">
        <ele>512.79998779297</ele>
        <time>2020-12-17T11:12:24.000Z</time>
      </trkpt>
      <trkpt lat="44.09048" lon="5.9937">
        <ele>513</ele>
        <time>2020-12-17T11:12:26.000Z</time>
      </trkpt>
      <trkpt lat="44.0905" lon="5.99376">
        <ele>513.40002441406</ele>
        <time>2020-12-17T11:12:28.000Z</time>
      </trkpt>
      <trkpt lat="44.09051" lon="5.99384">
        <ele>513.79998779297</ele>
        <time>2020-12-17T11:12:31.000Z</time>
      </trkpt>
      <trkpt lat="44.09051" lon="5.99389">
        <ele>514.20001220703</ele>
        <time>2020-12-17T11:12:33.000Z</time>
      </trkpt>
      <trkpt lat="44.0905" lon="5.9939">
        <ele>514.79998779297</ele>
        <time>2020-12-17T11:12:34.000Z</time>
      </trkpt>
      <trkpt lat="44.09049" lon="5.99392">
        <ele>515.20001220703</ele>
        <time>2020-12-17T11:12:35.000Z</time>
      </trkpt>
      <trkpt lat="44.09048" lon="5.99392">
        <ele>516.40002441406</ele>
        <time>2020-12-17T11:12:37.000Z</time>
      </trkpt>
      <trkpt lat="44.09048" lon="5.99393">
        <ele>517.59997558594</ele>
        <time>2020-12-17T11:12:39.000Z</time>
      </trkpt>
      <trkpt lat="44.09048" lon="5.99393">
        <ele>518.79998779297</ele>
        <time>2020-12-17T11:12:41.000Z</time>
      </trkpt>
      <trkpt lat="44.09048" lon="5.99393">
        <ele>520</ele>
        <time>2020-12-17T11:12:44.000Z</time>
      </trkpt>
      <trkpt lat="44.09045" lon="5.99397">
        <ele>520.79998779297</ele>
        <time>2020-12-17T11:12:49.000Z</time>
      </trkpt>
      <trkpt lat="44.09034" lon="5.99399">
        <ele>521</ele>
        <time>2020-12-17T11:12:53.000Z</time>
      </trkpt>
      <trkpt lat="44.09023" lon="5.99401">
        <ele>521.20001220703</ele>
        <time>2020-12-17T11:12:57.000Z</time>
      </trkpt>
      <trkpt lat="44.0902" lon="5.99402">
        <ele>521.40002441406</ele>
        <time>2020-12-17T11:12:58.000Z</time>
      </trkpt>
      <trkpt lat="44.09002" lon="5.99403">
        <ele>521.59997558594</ele>
        <time>2020-12-17T11:13:05.000Z</time>
      </trkpt>
      <trkpt lat="44.08987" lon="5.99407">
        <ele>522.20001220703</ele>
        <time>2020-12-17T11:13:11.000Z</time>
      </trkpt>
      <trkpt lat="44.08985" lon="5.99407">
        <ele>522.20001220703</ele>
        <time>2020-12-17T11:13:12.000Z</time>
      </trkpt>
      <trkpt lat="44.08973" lon="5.99409">
        <ele>523.20001220703</ele>
        <time>2020-12-17T11:13:16.000Z</time>
      </trkpt>
      <trkpt lat="44.08959" lon="5.99409">
        <ele>524.59997558594</ele>
        <time>2020-12-17T11:13:20.000Z</time>
      </trkpt>
      <trkpt lat="44.08954" lon="5.99408">
        <ele>525.20001220703</ele>
        <time>2020-12-17T11:13:22.000Z</time>
      </trkpt>
      <trkpt lat="44.08938" lon="5.99406">
        <ele>525.59997558594</ele>
        <time>2020-12-17T11:13:26.000Z</time>
      </trkpt>
      <trkpt lat="44.08933" lon="5.99405">
        <ele>525.59997558594</ele>
        <time>2020-12-17T11:13:27.000Z</time>
      </trkpt>
      <trkpt lat="44.08911" lon="5.99406">
        <ele>525.59997558594</ele>
        <time>2020-12-17T11:13:32.000Z</time>
      </trkpt>
      <trkpt lat="44.0891" lon="5.99409">
        <ele>525.40002441406</ele>
        <time>2020-12-17T11:13:33.000Z</time>
      </trkpt>
      <trkpt lat="44.0891" lon="5.99418">
        <ele>524.79998779297</ele>
        <time>2020-12-17T11:13:35.000Z</time>
      </trkpt>
      <trkpt lat="44.08914" lon="5.99422">
        <ele>524.40002441406</ele>
        <time>2020-12-17T11:13:37.000Z</time>
      </trkpt>
      <trkpt lat="44.08916" lon="5.99423">
        <ele>524.20001220703</ele>
        <time>2020-12-17T11:13:38.000Z</time>
      </trkpt>
      <trkpt lat="44.08928" lon="5.99423">
        <ele>523.79998779297</ele>
        <time>2020-12-17T11:13:42.000Z</time>
      </trkpt>
      <trkpt lat="44.08938" lon="5.99423">
        <ele>523.79998779297</ele>
        <time>2020-12-17T11:13:46.000Z</time>
      </trkpt>
      <trkpt lat="44.08952" lon="5.99423">
        <ele>524.59997558594</ele>
        <time>2020-12-17T11:13:51.000Z</time>
      </trkpt>
      <trkpt lat="44.08961" lon="5.99427">
        <ele>525.79998779297</ele>
        <time>2020-12-17T11:13:54.000Z</time>
      </trkpt>
      <trkpt lat="44.08966" lon="5.99429">
        <ele>527.59997558594</ele>
        <time>2020-12-17T11:13:56.000Z</time>
      </trkpt>
      <trkpt lat="44.08972" lon="5.9943">
        <ele>528.40002441406</ele>
        <time>2020-12-17T11:13:58.000Z</time>
      </trkpt>
      <trkpt lat="44.08974" lon="5.9943">
        <ele>528.59997558594</ele>
        <time>2020-12-17T11:13:59.000Z</time>
      </trkpt>
      <trkpt lat="44.08983" lon="5.99435">
        <ele>529.79998779297</ele>
        <time>2020-12-17T11:14:03.000Z</time>
      </trkpt>
      <trkpt lat="44.08989" lon="5.9944">
        <ele>530.79998779297</ele>
        <time>2020-12-17T11:14:06.000Z</time>
      </trkpt>
      <trkpt lat="44.08995" lon="5.99447">
        <ele>531.59997558594</ele>
        <time>2020-12-17T11:14:09.000Z</time>
      </trkpt>
      <trkpt lat="44.08997" lon="5.99449">
        <ele>532</ele>
        <time>2020-12-17T11:14:10.000Z</time>
      </trkpt>
      <trkpt lat="44.0901" lon="5.99458">
        <ele>533.40002441406</ele>
        <time>2020-12-17T11:14:14.000Z</time>
      </trkpt>
      <trkpt lat="44.09017" lon="5.9946">
        <ele>534</ele>
        <time>2020-12-17T11:14:16.000Z</time>
      </trkpt>
      <trkpt lat="44.0902" lon="5.9946">
        <ele>534.59997558594</ele>
        <time>2020-12-17T11:14:17.000Z</time>
      </trkpt>
      <trkpt lat="44.09032" lon="5.99457">
        <ele>535.79998779297</ele>
        <time>2020-12-17T11:14:20.000Z</time>
      </trkpt>
      <trkpt lat="44.09046" lon="5.99458">
        <ele>536.79998779297</ele>
        <time>2020-12-17T11:14:24.000Z</time>
      </trkpt>
      <trkpt lat="44.0906" lon="5.99463">
        <ele>537.79998779297</ele>
        <time>2020-12-17T11:14:29.000Z</time>
      </trkpt>
      <trkpt lat="44.09064" lon="5.99466">
        <ele>537.79998779297</ele>
        <time>2020-12-17T11:14:31.000Z</time>
      </trkpt>
      <trkpt lat="44.09071" lon="5.99471">
        <ele>538.40002441406</ele>
        <time>2020-12-17T11:14:34.000Z</time>
      </trkpt>
      <trkpt lat="44.09082" lon="5.99475">
        <ele>539.20001220703</ele>
        <time>2020-12-17T11:14:38.000Z</time>
      </trkpt>
      <trkpt lat="44.09085" lon="5.99478">
        <ele>539.79998779297</ele>
        <time>2020-12-17T11:14:39.000Z</time>
      </trkpt>
      <trkpt lat="44.09087" lon="5.99481">
        <ele>540.40002441406</ele>
        <time>2020-12-17T11:14:40.000Z</time>
      </trkpt>
      <trkpt lat="44.09089" lon="5.9949">
        <ele>541</ele>
        <time>2020-12-17T11:14:42.000Z</time>
      </trkpt>
      <trkpt lat="44.09089" lon="5.99494">
        <ele>541.40002441406</ele>
        <time>2020-12-17T11:14:43.000Z</time>
      </trkpt>
      <trkpt lat="44.09091" lon="5.99511">
        <ele>542.40002441406</ele>
        <time>2020-12-17T11:14:47.000Z</time>
      </trkpt>
      <trkpt lat="44.09093" lon="5.99515">
        <ele>542.59997558594</ele>
        <time>2020-12-17T11:14:48.000Z</time>
      </trkpt>
      <trkpt lat="44.09099" lon="5.99531">
        <ele>543</ele>
        <time>2020-12-17T11:14:51.000Z</time>
      </trkpt>
      <trkpt lat="44.091" lon="5.99537">
        <ele>543</ele>
        <time>2020-12-17T11:14:52.000Z</time>
      </trkpt>
      <trkpt lat="44.09108" lon="5.99554">
        <ele>543.20001220703</ele>
        <time>2020-12-17T11:14:56.000Z</time>
      </trkpt>
      <trkpt lat="44.09118" lon="5.99561">
        <ele>542.79998779297</ele>
        <time>2020-12-17T11:15:00.000Z</time>
      </trkpt>
      <trkpt lat="44.09121" lon="5.99563">
        <ele>542.20001220703</ele>
        <time>2020-12-17T11:15:04.000Z</time>
      </trkpt>
      <trkpt lat="44.09122" lon="5.99564">
        <ele>541.79998779297</ele>
        <time>2020-12-17T11:15:06.000Z</time>
      </trkpt>
      <trkpt lat="44.09122" lon="5.99565">
        <ele>540.79998779297</ele>
        <time>2020-12-17T11:15:28.000Z</time>
      </trkpt>
      <trkpt lat="44.09128" lon="5.99567">
        <ele>541</ele>
        <time>2020-12-17T11:15:35.000Z</time>
      </trkpt>
      <trkpt lat="44.0914" lon="5.99578">
        <ele>541</ele>
        <time>2020-12-17T11:15:39.000Z</time>
      </trkpt>
      <trkpt lat="44.09161" lon="5.99588">
        <ele>540.40002441406</ele>
        <time>2020-12-17T11:15:44.000Z</time>
      </trkpt>
      <trkpt lat="44.09172" lon="5.99588">
        <ele>539</ele>
        <time>2020-12-17T11:15:47.000Z</time>
      </trkpt>
      <trkpt lat="44.09175" lon="5.99585">
        <ele>538.40002441406</ele>
        <time>2020-12-17T11:15:48.000Z</time>
      </trkpt>
      <trkpt lat="44.09177" lon="5.99583">
        <ele>537.79998779297</ele>
        <time>2020-12-17T11:15:49.000Z</time>
      </trkpt>
      <trkpt lat="44.09183" lon="5.99582">
        <ele>536.79998779297</ele>
        <time>2020-12-17T11:15:51.000Z</time>
      </trkpt>
      <trkpt lat="44.09185" lon="5.99583">
        <ele>536.20001220703</ele>
        <time>2020-12-17T11:15:52.000Z</time>
      </trkpt>
      <trkpt lat="44.09189" lon="5.99584">
        <ele>535.20001220703</ele>
        <time>2020-12-17T11:15:54.000Z</time>
      </trkpt>
      <trkpt lat="44.09192" lon="5.99586">
        <ele>534.40002441406</ele>
        <time>2020-12-17T11:15:57.000Z</time>
      </trkpt>
      <trkpt lat="44.09194" lon="5.99586">
        <ele>534.20001220703</ele>
        <time>2020-12-17T11:16:06.000Z</time>
      </trkpt>
      <trkpt lat="44.09194" lon="5.99586">
        <ele>534.20001220703</ele>
        <time>2020-12-17T11:16:11.000Z</time>
      </trkpt>
      <trkpt lat="44.09196" lon="5.99588">
        <ele>534.20001220703</ele>
        <time>2020-12-17T11:16:26.000Z</time>
      </trkpt>
      <trkpt lat="44.09198" lon="5.99587">
        <ele>534.20001220703</ele>
        <time>2020-12-17T11:16:28.000Z</time>
      </trkpt>
      <trkpt lat="44.09204" lon="5.99585">
        <ele>534.20001220703</ele>
        <time>2020-12-17T11:16:31.000Z</time>
      </trkpt>
      <trkpt lat="44.09209" lon="5.99592">
        <ele>534</ele>
        <time>2020-12-17T11:16:35.000Z</time>
      </trkpt>
      <trkpt lat="44.09211" lon="5.996">
        <ele>532.59997558594</ele>
        <time>2020-12-17T11:16:38.000Z</time>
      </trkpt>
      <trkpt lat="44.09213" lon="5.99601">
        <ele>531.40002441406</ele>
        <time>2020-12-17T11:16:39.000Z</time>
      </trkpt>
      <trkpt lat="44.09216" lon="5.99605">
        <ele>530.20001220703</ele>
        <time>2020-12-17T11:16:41.000Z</time>
      </trkpt>
      <trkpt lat="44.09217" lon="5.99609">
        <ele>529.59997558594</ele>
        <time>2020-12-17T11:16:42.000Z</time>
      </trkpt>
      <trkpt lat="44.09218" lon="5.99612">
        <ele>528.79998779297</ele>
        <time>2020-12-17T11:16:43.000Z</time>
      </trkpt>
      <trkpt lat="44.09219" lon="5.99614">
        <ele>528.20001220703</ele>
        <time>2020-12-17T11:16:44.000Z</time>
      </trkpt>
      <trkpt lat="44.0922" lon="5.99616">
        <ele>527.59997558594</ele>
        <time>2020-12-17T11:16:45.000Z</time>
      </trkpt>
      <trkpt lat="44.09227" lon="5.99617">
        <ele>526.59997558594</ele>
        <time>2020-12-17T11:16:48.000Z</time>
      </trkpt>
      <trkpt lat="44.09228" lon="5.99621">
        <ele>525.59997558594</ele>
        <time>2020-12-17T11:16:49.000Z</time>
      </trkpt>
      <trkpt lat="44.09229" lon="5.99627">
        <ele>525</ele>
        <time>2020-12-17T11:16:50.000Z</time>
      </trkpt>
      <trkpt lat="44.09229" lon="5.99631">
        <ele>524.20001220703</ele>
        <time>2020-12-17T11:16:51.000Z</time>
      </trkpt>
      <trkpt lat="44.0923" lon="5.99634">
        <ele>523.59997558594</ele>
        <time>2020-12-17T11:16:52.000Z</time>
      </trkpt>
      <trkpt lat="44.09235" lon="5.99636">
        <ele>522.20001220703</ele>
        <time>2020-12-17T11:16:54.000Z</time>
      </trkpt>
      <trkpt lat="44.09237" lon="5.99638">
        <ele>520.79998779297</ele>
        <time>2020-12-17T11:16:56.000Z</time>
      </trkpt>
      <trkpt lat="44.09238" lon="5.99639">
        <ele>519.79998779297</ele>
        <time>2020-12-17T11:16:59.000Z</time>
      </trkpt>
      <trkpt lat="44.09238" lon="5.99639">
        <ele>519</ele>
        <time>2020-12-17T11:17:01.000Z</time>
      </trkpt>
      <trkpt lat="44.09238" lon="5.9964">
        <ele>518.40002441406</ele>
        <time>2020-12-17T11:17:02.000Z</time>
      </trkpt>
      <trkpt lat="44.09242" lon="5.99644">
        <ele>517.40002441406</ele>
        <time>2020-12-17T11:17:04.000Z</time>
      </trkpt>
      <trkpt lat="44.09245" lon="5.99649">
        <ele>517.20001220703</ele>
        <time>2020-12-17T11:17:06.000Z</time>
      </trkpt>
      <trkpt lat="44.09258" lon="5.9966">
        <ele>517</ele>
        <time>2020-12-17T11:17:10.000Z</time>
      </trkpt>
      <trkpt lat="44.09273" lon="5.99659">
        <ele>516.79998779297</ele>
        <time>2020-12-17T11:17:13.000Z</time>
      </trkpt>
      <trkpt lat="44.09277" lon="5.99662">
        <ele>516.79998779297</ele>
        <time>2020-12-17T11:17:15.000Z</time>
      </trkpt>
      <trkpt lat="44.09277" lon="5.99671">
        <ele>516.40002441406</ele>
        <time>2020-12-17T11:17:17.000Z</time>
      </trkpt>
      <trkpt lat="44.09279" lon="5.99676">
        <ele>516</ele>
        <time>2020-12-17T11:17:18.000Z</time>
      </trkpt>
      <trkpt lat="44.09287" lon="5.99688">
        <ele>515.20001220703</ele>
        <time>2020-12-17T11:17:20.000Z</time>
      </trkpt>
      <trkpt lat="44.09291" lon="5.99692">
        <ele>514.59997558594</ele>
        <time>2020-12-17T11:17:21.000Z</time>
      </trkpt>
      <trkpt lat="44.09294" lon="5.99695">
        <ele>513.59997558594</ele>
        <time>2020-12-17T11:17:22.000Z</time>
      </trkpt>
      <trkpt lat="44.093" lon="5.99698">
        <ele>512.79998779297</ele>
        <time>2020-12-17T11:17:24.000Z</time>
      </trkpt>
      <trkpt lat="44.09305" lon="5.997">
        <ele>512</ele>
        <time>2020-12-17T11:17:25.000Z</time>
      </trkpt>
      <trkpt lat="44.09308" lon="5.99702">
        <ele>511.79998779297</ele>
        <time>2020-12-17T11:17:26.000Z</time>
      </trkpt>
      <trkpt lat="44.09315" lon="5.99703">
        <ele>510.60000610352</ele>
        <time>2020-12-17T11:17:28.000Z</time>
      </trkpt>
      <trkpt lat="44.09319" lon="5.99705">
        <ele>510.39999389648</ele>
        <time>2020-12-17T11:17:29.000Z</time>
      </trkpt>
      <trkpt lat="44.09322" lon="5.9971">
        <ele>509.60000610352</ele>
        <time>2020-12-17T11:17:31.000Z</time>
      </trkpt>
      <trkpt lat="44.09324" lon="5.99715">
        <ele>509.39999389648</ele>
        <time>2020-12-17T11:17:32.000Z</time>
      </trkpt>
      <trkpt lat="44.09326" lon="5.99732">
        <ele>508.39999389648</ele>
        <time>2020-12-17T11:17:35.000Z</time>
      </trkpt>
      <trkpt lat="44.09329" lon="5.99733">
        <ele>508.20001220703</ele>
        <time>2020-12-17T11:17:36.000Z</time>
      </trkpt>
      <trkpt lat="44.09334" lon="5.99732">
        <ele>507.60000610352</ele>
        <time>2020-12-17T11:17:39.000Z</time>
      </trkpt>
      <trkpt lat="44.0934" lon="5.99726">
        <ele>507</ele>
        <time>2020-12-17T11:17:41.000Z</time>
      </trkpt>
      <trkpt lat="44.09342" lon="5.99726">
        <ele>506.79998779297</ele>
        <time>2020-12-17T11:17:42.000Z</time>
      </trkpt>
      <trkpt lat="44.09342" lon="5.99735">
        <ele>505.60000610352</ele>
        <time>2020-12-17T11:17:45.000Z</time>
      </trkpt>
      <trkpt lat="44.09347" lon="5.99747">
        <ele>504.79998779297</ele>
        <time>2020-12-17T11:17:47.000Z</time>
      </trkpt>
      <trkpt lat="44.09349" lon="5.99749">
        <ele>504.60000610352</ele>
        <time>2020-12-17T11:17:48.000Z</time>
      </trkpt>
      <trkpt lat="44.09355" lon="5.99751">
        <ele>503.39999389648</ele>
        <time>2020-12-17T11:17:51.000Z</time>
      </trkpt>
      <trkpt lat="44.09359" lon="5.99756">
        <ele>502.79998779297</ele>
        <time>2020-12-17T11:17:53.000Z</time>
      </trkpt>
      <trkpt lat="44.09361" lon="5.9976">
        <ele>502.60000610352</ele>
        <time>2020-12-17T11:17:54.000Z</time>
      </trkpt>
      <trkpt lat="44.09363" lon="5.99764">
        <ele>502.20001220703</ele>
        <time>2020-12-17T11:17:55.000Z</time>
      </trkpt>
      <trkpt lat="44.09368" lon="5.99773">
        <ele>501.20001220703</ele>
        <time>2020-12-17T11:17:58.000Z</time>
      </trkpt>
      <trkpt lat="44.09372" lon="5.99774">
        <ele>501</ele>
        <time>2020-12-17T11:17:59.000Z</time>
      </trkpt>
      <trkpt lat="44.09381" lon="5.99775">
        <ele>500.60000610352</ele>
        <time>2020-12-17T11:18:01.000Z</time>
      </trkpt>
      <trkpt lat="44.09387" lon="5.99782">
        <ele>500.20001220703</ele>
        <time>2020-12-17T11:18:04.000Z</time>
      </trkpt>
      <trkpt lat="44.09388" lon="5.99784">
        <ele>499.79998779297</ele>
        <time>2020-12-17T11:18:06.000Z</time>
      </trkpt>
      <trkpt lat="44.09388" lon="5.99784">
        <ele>498.60000610352</ele>
        <time>2020-12-17T11:18:09.000Z</time>
      </trkpt>
      <trkpt lat="44.09388" lon="5.99784">
        <ele>497.60000610352</ele>
        <time>2020-12-17T11:18:27.000Z</time>
      </trkpt>
      <trkpt lat="44.09389" lon="5.99784">
        <ele>497.60000610352</ele>
        <time>2020-12-17T11:18:37.000Z</time>
      </trkpt>
      <trkpt lat="44.09387" lon="5.99793">
        <ele>497.39999389648</ele>
        <time>2020-12-17T11:18:44.000Z</time>
      </trkpt>
      <trkpt lat="44.09387" lon="5.99804">
        <ele>497.39999389648</ele>
        <time>2020-12-17T11:18:48.000Z</time>
      </trkpt>
      <trkpt lat="44.09387" lon="5.99807">
        <ele>497.39999389648</ele>
        <time>2020-12-17T11:18:49.000Z</time>
      </trkpt>
      <trkpt lat="44.09388" lon="5.9981">
        <ele>497.39999389648</ele>
        <time>2020-12-17T11:18:53.000Z</time>
      </trkpt>
      <trkpt lat="44.09388" lon="5.99813">
        <ele>497.60000610352</ele>
        <time>2020-12-17T11:18:58.000Z</time>
      </trkpt>
      <trkpt lat="44.09391" lon="5.99817">
        <ele>497.60000610352</ele>
        <time>2020-12-17T11:19:00.000Z</time>
      </trkpt>
      <trkpt lat="44.09399" lon="5.99826">
        <ele>497.60000610352</ele>
        <time>2020-12-17T11:19:03.000Z</time>
      </trkpt>
      <trkpt lat="44.09402" lon="5.99829">
        <ele>497.60000610352</ele>
        <time>2020-12-17T11:19:04.000Z</time>
      </trkpt>
      <trkpt lat="44.09407" lon="5.99841">
        <ele>497.60000610352</ele>
        <time>2020-12-17T11:19:07.000Z</time>
      </trkpt>
      <trkpt lat="44.09409" lon="5.99847">
        <ele>497.39999389648</ele>
        <time>2020-12-17T11:19:08.000Z</time>
      </trkpt>
      <trkpt lat="44.09411" lon="5.99855">
        <ele>497.20001220703</ele>
        <time>2020-12-17T11:19:09.000Z</time>
      </trkpt>
      <trkpt lat="44.09412" lon="5.99863">
        <ele>496.79998779297</ele>
        <time>2020-12-17T11:19:10.000Z</time>
      </trkpt>
      <trkpt lat="44.09412" lon="5.99878">
        <ele>496.20001220703</ele>
        <time>2020-12-17T11:19:12.000Z</time>
      </trkpt>
      <trkpt lat="44.09414" lon="5.99885">
        <ele>495.79998779297</ele>
        <time>2020-12-17T11:19:13.000Z</time>
      </trkpt>
      <trkpt lat="44.09416" lon="5.999">
        <ele>495</ele>
        <time>2020-12-17T11:19:15.000Z</time>
      </trkpt>
      <trkpt lat="44.09417" lon="5.99907">
        <ele>494.39999389648</ele>
        <time>2020-12-17T11:19:16.000Z</time>
      </trkpt>
      <trkpt lat="44.09421" lon="5.99917">
        <ele>492.60000610352</ele>
        <time>2020-12-17T11:19:18.000Z</time>
      </trkpt>
      <trkpt lat="44.09426" lon="5.99923">
        <ele>491.39999389648</ele>
        <time>2020-12-17T11:19:20.000Z</time>
      </trkpt>
      <trkpt lat="44.09436" lon="5.99925">
        <ele>490.20001220703</ele>
        <time>2020-12-17T11:19:22.000Z</time>
      </trkpt>
      <trkpt lat="44.09443" lon="5.99927">
        <ele>489.39999389648</ele>
        <time>2020-12-17T11:19:23.000Z</time>
      </trkpt>
      <trkpt lat="44.09451" lon="5.99929">
        <ele>488.60000610352</ele>
        <time>2020-12-17T11:19:24.000Z</time>
      </trkpt>
      <trkpt lat="44.0947" lon="5.99935">
        <ele>487.79998779297</ele>
        <time>2020-12-17T11:19:26.000Z</time>
      </trkpt>
      <trkpt lat="44.09479" lon="5.9994">
        <ele>487</ele>
        <time>2020-12-17T11:19:27.000Z</time>
      </trkpt>
      <trkpt lat="44.09493" lon="5.9995">
        <ele>485.39999389648</ele>
        <time>2020-12-17T11:19:29.000Z</time>
      </trkpt>
      <trkpt lat="44.09499" lon="5.99953">
        <ele>484.60000610352</ele>
        <time>2020-12-17T11:19:30.000Z</time>
      </trkpt>
      <trkpt lat="44.09504" lon="5.99955">
        <ele>484</ele>
        <time>2020-12-17T11:19:31.000Z</time>
      </trkpt>
      <trkpt lat="44.09509" lon="5.99955">
        <ele>483.60000610352</ele>
        <time>2020-12-17T11:19:32.000Z</time>
      </trkpt>
      <trkpt lat="44.09514" lon="5.99952">
        <ele>482</ele>
        <time>2020-12-17T11:19:33.000Z</time>
      </trkpt>
      <trkpt lat="44.09517" lon="5.99947">
        <ele>480.60000610352</ele>
        <time>2020-12-17T11:19:34.000Z</time>
      </trkpt>
      <trkpt lat="44.09518" lon="5.99943">
        <ele>479.39999389648</ele>
        <time>2020-12-17T11:19:35.000Z</time>
      </trkpt>
      <trkpt lat="44.09518" lon="5.99938">
        <ele>478.20001220703</ele>
        <time>2020-12-17T11:19:36.000Z</time>
      </trkpt>
      <trkpt lat="44.09517" lon="5.99934">
        <ele>477</ele>
        <time>2020-12-17T11:19:37.000Z</time>
      </trkpt>
      <trkpt lat="44.09516" lon="5.9993">
        <ele>475.79998779297</ele>
        <time>2020-12-17T11:19:38.000Z</time>
      </trkpt>
      <trkpt lat="44.09512" lon="5.99923">
        <ele>474.60000610352</ele>
        <time>2020-12-17T11:19:40.000Z</time>
      </trkpt>
      <trkpt lat="44.09509" lon="5.99916">
        <ele>474.20001220703</ele>
        <time>2020-12-17T11:19:42.000Z</time>
      </trkpt>
      <trkpt lat="44.09507" lon="5.99913">
        <ele>474</ele>
        <time>2020-12-17T11:19:43.000Z</time>
      </trkpt>
      <trkpt lat="44.09495" lon="5.99888">
        <ele>474.39999389648</ele>
        <time>2020-12-17T11:19:51.000Z</time>
      </trkpt>
      <trkpt lat="44.09489" lon="5.99872">
        <ele>475.79998779297</ele>
        <time>2020-12-17T11:19:56.000Z</time>
      </trkpt>
      <trkpt lat="44.09488" lon="5.99868">
        <ele>476.39999389648</ele>
        <time>2020-12-17T11:19:57.000Z</time>
      </trkpt>
      <trkpt lat="44.09487" lon="5.9986">
        <ele>476.79998779297</ele>
        <time>2020-12-17T11:19:59.000Z</time>
      </trkpt>
      <trkpt lat="44.09487" lon="5.99843">
        <ele>478</ele>
        <time>2020-12-17T11:20:03.000Z</time>
      </trkpt>
      <trkpt lat="44.09487" lon="5.99826">
        <ele>479.20001220703</ele>
        <time>2020-12-17T11:20:07.000Z</time>
      </trkpt>
      <trkpt lat="44.09487" lon="5.99817">
        <ele>479.60000610352</ele>
        <time>2020-12-17T11:20:09.000Z</time>
      </trkpt>
      <trkpt lat="44.09486" lon="5.99808">
        <ele>480.20001220703</ele>
        <time>2020-12-17T11:20:11.000Z</time>
      </trkpt>
      <trkpt lat="44.09485" lon="5.9979">
        <ele>481.39999389648</ele>
        <time>2020-12-17T11:20:15.000Z</time>
      </trkpt>
      <trkpt lat="44.09484" lon="5.99781">
        <ele>482</ele>
        <time>2020-12-17T11:20:17.000Z</time>
      </trkpt>
      <trkpt lat="44.09484" lon="5.99773">
        <ele>482.39999389648</ele>
        <time>2020-12-17T11:20:19.000Z</time>
      </trkpt>
      <trkpt lat="44.09482" lon="5.99755">
        <ele>483.60000610352</ele>
        <time>2020-12-17T11:20:23.000Z</time>
      </trkpt>
      <trkpt lat="44.0948" lon="5.99733">
        <ele>484.79998779297</ele>
        <time>2020-12-17T11:20:28.000Z</time>
      </trkpt>
      <trkpt lat="44.09478" lon="5.9972">
        <ele>485.20001220703</ele>
        <time>2020-12-17T11:20:31.000Z</time>
      </trkpt>
      <trkpt lat="44.09477" lon="5.99712">
        <ele>485.79998779297</ele>
        <time>2020-12-17T11:20:33.000Z</time>
      </trkpt>
      <trkpt lat="44.09474" lon="5.99691">
        <ele>487</ele>
        <time>2020-12-17T11:20:38.000Z</time>
      </trkpt>
      <trkpt lat="44.09472" lon="5.99682">
        <ele>487.39999389648</ele>
        <time>2020-12-17T11:20:40.000Z</time>
      </trkpt>
      <trkpt lat="44.0947" lon="5.99674">
        <ele>488</ele>
        <time>2020-12-17T11:20:42.000Z</time>
      </trkpt>
      <trkpt lat="44.09466" lon="5.99656">
        <ele>489</ele>
        <time>2020-12-17T11:20:46.000Z</time>
      </trkpt>
      <trkpt lat="44.09463" lon="5.99644">
        <ele>490.20001220703</ele>
        <time>2020-12-17T11:20:49.000Z</time>
      </trkpt>
      <trkpt lat="44.09458" lon="5.99628">
        <ele>491.60000610352</ele>
        <time>2020-12-17T11:20:53.000Z</time>
      </trkpt>
      <trkpt lat="44.09453" lon="5.99617">
        <ele>492.39999389648</ele>
        <time>2020-12-17T11:20:56.000Z</time>
      </trkpt>
      <trkpt lat="44.09451" lon="5.99613">
        <ele>492.79998779297</ele>
        <time>2020-12-17T11:20:57.000Z</time>
      </trkpt>
      <trkpt lat="44.09442" lon="5.99601">
        <ele>494</ele>
        <time>2020-12-17T11:21:01.000Z</time>
      </trkpt>
      <trkpt lat="44.09436" lon="5.99591">
        <ele>495</ele>
        <time>2020-12-17T11:21:04.000Z</time>
      </trkpt>
      <trkpt lat="44.09434" lon="5.99587">
        <ele>495.20001220703</ele>
        <time>2020-12-17T11:21:05.000Z</time>
      </trkpt>
      <trkpt lat="44.09429" lon="5.99579">
        <ele>496.20001220703</ele>
        <time>2020-12-17T11:21:08.000Z</time>
      </trkpt>
      <trkpt lat="44.09427" lon="5.99573">
        <ele>497</ele>
        <time>2020-12-17T11:21:10.000Z</time>
      </trkpt>
      <trkpt lat="44.09425" lon="5.99569">
        <ele>497.39999389648</ele>
        <time>2020-12-17T11:21:11.000Z</time>
      </trkpt>
      <trkpt lat="44.09421" lon="5.99557">
        <ele>498.60000610352</ele>
        <time>2020-12-17T11:21:14.000Z</time>
      </trkpt>
      <trkpt lat="44.09416" lon="5.99543">
        <ele>499.20001220703</ele>
        <time>2020-12-17T11:21:17.000Z</time>
      </trkpt>
      <trkpt lat="44.09415" lon="5.99538">
        <ele>499.60000610352</ele>
        <time>2020-12-17T11:21:18.000Z</time>
      </trkpt>
      <trkpt lat="44.09405" lon="5.99512">
        <ele>500.20001220703</ele>
        <time>2020-12-17T11:21:23.000Z</time>
      </trkpt>
      <trkpt lat="44.09387" lon="5.99478">
        <ele>500.39999389648</ele>
        <time>2020-12-17T11:21:30.000Z</time>
      </trkpt>
      <trkpt lat="44.09361" lon="5.99443">
        <ele>500.39999389648</ele>
        <time>2020-12-17T11:21:38.000Z</time>
      </trkpt>
      <trkpt lat="44.09334" lon="5.99408">
        <ele>500.60000610352</ele>
        <time>2020-12-17T11:21:46.000Z</time>
      </trkpt>
      <trkpt lat="44.09332" lon="5.99404">
        <ele>500.79998779297</ele>
        <time>2020-12-17T11:21:47.000Z</time>
      </trkpt>
      <trkpt lat="44.09308" lon="5.99357">
        <ele>501.20001220703</ele>
        <time>2020-12-17T11:21:56.000Z</time>
      </trkpt>
      <trkpt lat="44.09288" lon="5.99322">
        <ele>501.60000610352</ele>
        <time>2020-12-17T11:22:03.000Z</time>
      </trkpt>
      <trkpt lat="44.09286" lon="5.99316">
        <ele>501.60000610352</ele>
        <time>2020-12-17T11:22:04.000Z</time>
      </trkpt>
      <trkpt lat="44.09271" lon="5.99281">
        <ele>501.60000610352</ele>
        <time>2020-12-17T11:22:10.000Z</time>
      </trkpt>
      <trkpt lat="44.09265" lon="5.99242">
        <ele>501.79998779297</ele>
        <time>2020-12-17T11:22:16.000Z</time>
      </trkpt>
      <trkpt lat="44.09267" lon="5.99194">
        <ele>502</ele>
        <time>2020-12-17T11:22:24.000Z</time>
      </trkpt>
      <trkpt lat="44.09267" lon="5.99172">
        <ele>502.79998779297</ele>
        <time>2020-12-17T11:22:28.000Z</time>
      </trkpt>
      <trkpt lat="44.09267" lon="5.99166">
        <ele>503</ele>
        <time>2020-12-17T11:22:29.000Z</time>
      </trkpt>
      <trkpt lat="44.09269" lon="5.99113">
        <ele>503.79998779297</ele>
        <time>2020-12-17T11:22:37.000Z</time>
      </trkpt>
      <trkpt lat="44.09268" lon="5.99079">
        <ele>504.20001220703</ele>
        <time>2020-12-17T11:22:43.000Z</time>
      </trkpt>
      <trkpt lat="44.09268" lon="5.99056">
        <ele>505.20001220703</ele>
        <time>2020-12-17T11:22:47.000Z</time>
      </trkpt>
      <trkpt lat="44.09268" lon="5.99034">
        <ele>505.60000610352</ele>
        <time>2020-12-17T11:22:51.000Z</time>
      </trkpt>
      <trkpt lat="44.09271" lon="5.98988">
        <ele>506.20001220703</ele>
        <time>2020-12-17T11:22:59.000Z</time>
      </trkpt>
      <trkpt lat="44.0928" lon="5.98931">
        <ele>505.79998779297</ele>
        <time>2020-12-17T11:23:08.000Z</time>
      </trkpt>
      <trkpt lat="44.09282" lon="5.98914">
        <ele>505.20001220703</ele>
        <time>2020-12-17T11:23:12.000Z</time>
      </trkpt>
      <trkpt lat="44.09283" lon="5.98911">
        <ele>505</ele>
        <time>2020-12-17T11:23:16.000Z</time>
      </trkpt>
      <trkpt lat="44.09282" lon="5.98909">
        <ele>505.20001220703</ele>
        <time>2020-12-17T11:23:24.000Z</time>
      </trkpt>
      <trkpt lat="44.09282" lon="5.9891">
        <ele>505.20001220703</ele>
        <time>2020-12-17T11:23:37.000Z</time>
      </trkpt>
      <trkpt lat="44.09282" lon="5.9891">
        <ele>505.20001220703</ele>
        <time>2020-12-17T11:24:03.000Z</time>
      </trkpt>
      <trkpt lat="44.09281" lon="5.9891">
        <ele>505</ele>
        <time>2020-12-17T11:25:15.000Z</time>
      </trkpt>
      <trkpt lat="44.0928" lon="5.9891">
        <ele>505.20001220703</ele>
        <time>2020-12-17T11:26:52.000Z</time>
      </trkpt>
      <trkpt lat="44.0928" lon="5.9891">
        <ele>505.60000610352</ele>
        <time>2020-12-17T11:28:59.000Z</time>
      </trkpt>
      <trkpt lat="44.09279" lon="5.9891">
        <ele>505.79998779297</ele>
        <time>2020-12-17T11:32:05.000Z</time>
      </trkpt>
      <trkpt lat="44.09279" lon="5.9891">
        <ele>505.79998779297</ele>
        <time>2020-12-17T11:34:38.000Z</time>
      </trkpt>
      <trkpt lat="44.0928" lon="5.9891">
        <ele>506.20001220703</ele>
        <time>2020-12-17T11:36:51.000Z</time>
      </trkpt>
      <trkpt lat="44.09279" lon="5.9891">
        <ele>506.39999389648</ele>
        <time>2020-12-17T11:37:49.000Z</time>
      </trkpt>
      <trkpt lat="44.09279" lon="5.9891">
        <ele>506.39999389648</ele>
        <time>2020-12-17T11:39:31.000Z</time>
      </trkpt>
      <trkpt lat="44.09279" lon="5.9891">
        <ele>506.20001220703</ele>
        <time>2020-12-17T11:42:50.000Z</time>
      </trkpt>
      <trkpt lat="44.09279" lon="5.9891">
        <ele>506.39999389648</ele>
        <time>2020-12-17T11:43:19.000Z</time>
      </trkpt>
      <trkpt lat="44.09279" lon="5.9891">
        <ele>506.39999389648</ele>
        <time>2020-12-17T11:43:44.000Z</time>
      </trkpt>
      <trkpt lat="44.09279" lon="5.9891">
        <ele>506.60000610352</ele>
        <time>2020-12-17T11:44:29.000Z</time>
      </trkpt>
      <trkpt lat="44.09279" lon="5.9891">
        <ele>506.79998779297</ele>
        <time>2020-12-17T11:45:09.000Z</time>
      </trkpt>
      <trkpt lat="44.09279" lon="5.98911">
        <ele>507</ele>
        <time>2020-12-17T11:45:33.000Z</time>
      </trkpt>
      <trkpt lat="44.0928" lon="5.9891">
        <ele>507.20001220703</ele>
        <time>2020-12-17T11:45:55.000Z</time>
      </trkpt>
      <trkpt lat="44.09285" lon="5.98903">
        <ele>507.20001220703</ele>
        <time>2020-12-17T11:46:03.000Z</time>
      </trkpt>
      <trkpt lat="44.09289" lon="5.98902">
        <ele>507.20001220703</ele>
        <time>2020-12-17T11:46:08.000Z</time>
      </trkpt>
      <trkpt lat="44.09289" lon="5.98905">
        <ele>507.79998779297</ele>
        <time>2020-12-17T11:46:14.000Z</time>
      </trkpt>
      <trkpt lat="44.09289" lon="5.98906">
        <ele>507.79998779297</ele>
        <time>2020-12-17T11:46:16.000Z</time>
      </trkpt>
      <trkpt lat="44.0929" lon="5.98906">
        <ele>508</ele>
        <time>2020-12-17T11:46:22.000Z</time>
      </trkpt>
      <trkpt lat="44.09291" lon="5.98906">
        <ele>507.79998779297</ele>
        <time>2020-12-17T11:46:30.000Z</time>
      </trkpt>
      <trkpt lat="44.09291" lon="5.98906">
        <ele>507.79998779297</ele>
        <time>2020-12-17T11:46:52.000Z</time>
      </trkpt>
      <trkpt lat="44.0929" lon="5.98903">
        <ele>508</ele>
        <time>2020-12-17T11:47:03.000Z</time>
      </trkpt>
      <trkpt lat="44.0929" lon="5.98903">
        <ele>508</ele>
        <time>2020-12-17T11:47:09.000Z</time>
      </trkpt>
      <trkpt lat="44.09287" lon="5.98903">
        <ele>508</ele>
        <time>2020-12-17T11:47:15.000Z</time>
      </trkpt>
      <trkpt lat="44.09286" lon="5.98903">
        <ele>508</ele>
        <time>2020-12-17T11:47:16.000Z</time>
      </trkpt>
      <trkpt lat="44.09286" lon="5.98904">
        <ele>508</ele>
        <time>2020-12-17T11:47:22.000Z</time>
      </trkpt>
      <trkpt lat="44.09286" lon="5.98904">
        <ele>507.60000610352</ele>
        <time>2020-12-17T11:47:29.000Z</time>
      </trkpt>
      <trkpt lat="44.09286" lon="5.98904">
        <ele>507.60000610352</ele>
        <time>2020-12-17T11:47:42.000Z</time>
      </trkpt>
      <trkpt lat="44.09286" lon="5.98904">
        <ele>507.60000610352</ele>
        <time>2020-12-17T11:47:50.000Z</time>
      </trkpt>
      <trkpt lat="44.09287" lon="5.98904">
        <ele>507.39999389648</ele>
        <time>2020-12-17T11:48:01.000Z</time>
      </trkpt>
      <trkpt lat="44.09287" lon="5.98904">
        <ele>507.39999389648</ele>
        <time>2020-12-17T11:48:07.000Z</time>
      </trkpt>
      <trkpt lat="44.09287" lon="5.98905">
        <ele>507.39999389648</ele>
        <time>2020-12-17T11:48:18.000Z</time>
      </trkpt>
      <trkpt lat="44.09287" lon="5.98905">
        <ele>507.39999389648</ele>
        <time>2020-12-17T11:48:31.000Z</time>
      </trkpt>
      <trkpt lat="44.09285" lon="5.98906">
        <ele>507.39999389648</ele>
        <time>2020-12-17T11:48:37.000Z</time>
      </trkpt>
      <trkpt lat="44.09285" lon="5.98907">
        <ele>507.39999389648</ele>
        <time>2020-12-17T11:48:40.000Z</time>
      </trkpt>
      <trkpt lat="44.09286" lon="5.98907">
        <ele>507.39999389648</ele>
        <time>2020-12-17T11:48:43.000Z</time>
      </trkpt>
      <trkpt lat="44.09286" lon="5.98907">
        <ele>507.20001220703</ele>
        <time>2020-12-17T11:48:53.000Z</time>
      </trkpt>
      <trkpt lat="44.09286" lon="5.98908">
        <ele>507.20001220703</ele>
        <time>2020-12-17T11:49:00.000Z</time>
      </trkpt>
      <trkpt lat="44.09285" lon="5.98907">
        <ele>507.20001220703</ele>
        <time>2020-12-17T11:49:09.000Z</time>
      </trkpt>
      <trkpt lat="44.09285" lon="5.98907">
        <ele>507.39999389648</ele>
        <time>2020-12-17T11:49:20.000Z</time>
      </trkpt>
      <trkpt lat="44.09286" lon="5.98907">
        <ele>507.39999389648</ele>
        <time>2020-12-17T11:49:33.000Z</time>
      </trkpt>
      <trkpt lat="44.09285" lon="5.98904">
        <ele>507.39999389648</ele>
        <time>2020-12-17T11:49:38.000Z</time>
      </trkpt>
      <trkpt lat="44.09284" lon="5.98905">
        <ele>507.39999389648</ele>
        <time>2020-12-17T11:49:45.000Z</time>
      </trkpt>
      <trkpt lat="44.09284" lon="5.98904">
        <ele>507.39999389648</ele>
        <time>2020-12-17T11:49:52.000Z</time>
      </trkpt>
      <trkpt lat="44.09284" lon="5.98905">
        <ele>507.39999389648</ele>
        <time>2020-12-17T11:50:01.000Z</time>
      </trkpt>
      <trkpt lat="44.09284" lon="5.98904">
        <ele>507</ele>
        <time>2020-12-17T11:50:16.000Z</time>
      </trkpt>
      <trkpt lat="44.09284" lon="5.98904">
        <ele>507.20001220703</ele>
        <time>2020-12-17T11:50:36.000Z</time>
      </trkpt>
      <trkpt lat="44.09281" lon="5.98902">
        <ele>507.20001220703</ele>
        <time>2020-12-17T11:50:48.000Z</time>
      </trkpt>
      <trkpt lat="44.0928" lon="5.989">
        <ele>507.20001220703</ele>
        <time>2020-12-17T11:50:49.000Z</time>
      </trkpt>
      <trkpt lat="44.09278" lon="5.98883">
        <ele>507.20001220703</ele>
        <time>2020-12-17T11:50:54.000Z</time>
      </trkpt>
      <trkpt lat="44.09281" lon="5.98861">
        <ele>507.20001220703</ele>
        <time>2020-12-17T11:51:01.000Z</time>
      </trkpt>
      <trkpt lat="44.09286" lon="5.98834">
        <ele>507.60000610352</ele>
        <time>2020-12-17T11:51:09.000Z</time>
      </trkpt>
      <trkpt lat="44.09286" lon="5.9881">
        <ele>508.20001220703</ele>
        <time>2020-12-17T11:51:16.000Z</time>
      </trkpt>
      <trkpt lat="44.09287" lon="5.98795">
        <ele>509</ele>
        <time>2020-12-17T11:51:20.000Z</time>
      </trkpt>
      <trkpt lat="44.09288" lon="5.98792">
        <ele>509.20001220703</ele>
        <time>2020-12-17T11:51:21.000Z</time>
      </trkpt>
      <trkpt lat="44.09289" lon="5.98786">
        <ele>509.79998779297</ele>
        <time>2020-12-17T11:51:23.000Z</time>
      </trkpt>
      <trkpt lat="44.09289" lon="5.98784">
        <ele>510</ele>
        <time>2020-12-17T11:51:24.000Z</time>
      </trkpt>
      <trkpt lat="44.09291" lon="5.98777">
        <ele>510.79998779297</ele>
        <time>2020-12-17T11:51:27.000Z</time>
      </trkpt>
      <trkpt lat="44.09294" lon="5.98771">
        <ele>511.20001220703</ele>
        <time>2020-12-17T11:51:30.000Z</time>
      </trkpt>
      <trkpt lat="44.09295" lon="5.9877">
        <ele>511.39999389648</ele>
        <time>2020-12-17T11:51:31.000Z</time>
      </trkpt>
      <trkpt lat="44.09297" lon="5.98768">
        <ele>511.60000610352</ele>
        <time>2020-12-17T11:51:32.000Z</time>
      </trkpt>
      <trkpt lat="44.09302" lon="5.98763">
        <ele>512.20001220703</ele>
        <time>2020-12-17T11:51:35.000Z</time>
      </trkpt>
      <trkpt lat="44.09303" lon="5.9876">
        <ele>512.79998779297</ele>
        <time>2020-12-17T11:51:37.000Z</time>
      </trkpt>
      <trkpt lat="44.09304" lon="5.98759">
        <ele>513.20001220703</ele>
        <time>2020-12-17T11:51:38.000Z</time>
      </trkpt>
      <trkpt lat="44.0931" lon="5.98751">
        <ele>514.59997558594</ele>
        <time>2020-12-17T11:51:42.000Z</time>
      </trkpt>
      <trkpt lat="44.09311" lon="5.98748">
        <ele>514.79998779297</ele>
        <time>2020-12-17T11:51:43.000Z</time>
      </trkpt>
      <trkpt lat="44.09313" lon="5.98744">
        <ele>515.79998779297</ele>
        <time>2020-12-17T11:51:45.000Z</time>
      </trkpt>
      <trkpt lat="44.09314" lon="5.98742">
        <ele>516.40002441406</ele>
        <time>2020-12-17T11:51:47.000Z</time>
      </trkpt>
      <trkpt lat="44.09314" lon="5.98742">
        <ele>516.79998779297</ele>
        <time>2020-12-17T11:51:48.000Z</time>
      </trkpt>
      <trkpt lat="44.09314" lon="5.98741">
        <ele>517.79998779297</ele>
        <time>2020-12-17T11:51:51.000Z</time>
      </trkpt>
      <trkpt lat="44.09314" lon="5.98739">
        <ele>518.79998779297</ele>
        <time>2020-12-17T11:51:55.000Z</time>
      </trkpt>
      <trkpt lat="44.09315" lon="5.98738">
        <ele>519</ele>
        <time>2020-12-17T11:51:56.000Z</time>
      </trkpt>
      <trkpt lat="44.09319" lon="5.98726">
        <ele>519.20001220703</ele>
        <time>2020-12-17T11:52:01.000Z</time>
      </trkpt>
      <trkpt lat="44.09322" lon="5.98716">
        <ele>519.20001220703</ele>
        <time>2020-12-17T11:52:04.000Z</time>
      </trkpt>
      <trkpt lat="44.09324" lon="5.9871">
        <ele>519.59997558594</ele>
        <time>2020-12-17T11:52:06.000Z</time>
      </trkpt>
      <trkpt lat="44.09325" lon="5.98704">
        <ele>520</ele>
        <time>2020-12-17T11:52:08.000Z</time>
      </trkpt>
      <trkpt lat="44.09327" lon="5.98694">
        <ele>521</ele>
        <time>2020-12-17T11:52:11.000Z</time>
      </trkpt>
      <trkpt lat="44.09328" lon="5.98691">
        <ele>521.20001220703</ele>
        <time>2020-12-17T11:52:12.000Z</time>
      </trkpt>
      <trkpt lat="44.09332" lon="5.98677">
        <ele>522.20001220703</ele>
        <time>2020-12-17T11:52:17.000Z</time>
      </trkpt>
      <trkpt lat="44.09334" lon="5.98672">
        <ele>522.59997558594</ele>
        <time>2020-12-17T11:52:19.000Z</time>
      </trkpt>
      <trkpt lat="44.09337" lon="5.98662">
        <ele>523.40002441406</ele>
        <time>2020-12-17T11:52:23.000Z</time>
      </trkpt>
      <trkpt lat="44.0934" lon="5.98656">
        <ele>523.59997558594</ele>
        <time>2020-12-17T11:52:25.000Z</time>
      </trkpt>
      <trkpt lat="44.09347" lon="5.9864">
        <ele>524.40002441406</ele>
        <time>2020-12-17T11:52:30.000Z</time>
      </trkpt>
      <trkpt lat="44.09354" lon="5.98634">
        <ele>525</ele>
        <time>2020-12-17T11:52:33.000Z</time>
      </trkpt>
      <trkpt lat="44.0936" lon="5.98628">
        <ele>525.59997558594</ele>
        <time>2020-12-17T11:52:36.000Z</time>
      </trkpt>
      <trkpt lat="44.09365" lon="5.98621">
        <ele>526.20001220703</ele>
        <time>2020-12-17T11:52:39.000Z</time>
      </trkpt>
      <trkpt lat="44.0937" lon="5.9861">
        <ele>526.79998779297</ele>
        <time>2020-12-17T11:52:43.000Z</time>
      </trkpt>
      <trkpt lat="44.09375" lon="5.986">
        <ele>528</ele>
        <time>2020-12-17T11:52:47.000Z</time>
      </trkpt>
      <trkpt lat="44.09381" lon="5.98586">
        <ele>529</ele>
        <time>2020-12-17T11:52:53.000Z</time>
      </trkpt>
      <trkpt lat="44.09382" lon="5.98584">
        <ele>529.20001220703</ele>
        <time>2020-12-17T11:52:54.000Z</time>
      </trkpt>
      <trkpt lat="44.09389" lon="5.9857">
        <ele>530</ele>
        <time>2020-12-17T11:52:59.000Z</time>
      </trkpt>
      <trkpt lat="44.09393" lon="5.98565">
        <ele>530.79998779297</ele>
        <time>2020-12-17T11:53:01.000Z</time>
      </trkpt>
      <trkpt lat="44.09394" lon="5.98562">
        <ele>531.20001220703</ele>
        <time>2020-12-17T11:53:02.000Z</time>
      </trkpt>
      <trkpt lat="44.09398" lon="5.98547">
        <ele>532.20001220703</ele>
        <time>2020-12-17T11:53:07.000Z</time>
      </trkpt>
      <trkpt lat="44.09402" lon="5.9854">
        <ele>533.40002441406</ele>
        <time>2020-12-17T11:53:10.000Z</time>
      </trkpt>
      <trkpt lat="44.09407" lon="5.9853">
        <ele>534.20001220703</ele>
        <time>2020-12-17T11:53:14.000Z</time>
      </trkpt>
      <trkpt lat="44.09408" lon="5.98527">
        <ele>534.40002441406</ele>
        <time>2020-12-17T11:53:15.000Z</time>
      </trkpt>
      <trkpt lat="44.0941" lon="5.98516">
        <ele>535.40002441406</ele>
        <time>2020-12-17T11:53:19.000Z</time>
      </trkpt>
      <trkpt lat="44.0941" lon="5.98513">
        <ele>535.59997558594</ele>
        <time>2020-12-17T11:53:20.000Z</time>
      </trkpt>
      <trkpt lat="44.09413" lon="5.98499">
        <ele>536.40002441406</ele>
        <time>2020-12-17T11:53:25.000Z</time>
      </trkpt>
      <trkpt lat="44.09414" lon="5.98494">
        <ele>536.59997558594</ele>
        <time>2020-12-17T11:53:27.000Z</time>
      </trkpt>
      <trkpt lat="44.09415" lon="5.9848">
        <ele>537.40002441406</ele>
        <time>2020-12-17T11:53:32.000Z</time>
      </trkpt>
      <trkpt lat="44.09415" lon="5.98472">
        <ele>537.79998779297</ele>
        <time>2020-12-17T11:53:35.000Z</time>
      </trkpt>
      <trkpt lat="44.09416" lon="5.98465">
        <ele>538.20001220703</ele>
        <time>2020-12-17T11:53:38.000Z</time>
      </trkpt>
      <trkpt lat="44.09416" lon="5.98457">
        <ele>538.79998779297</ele>
        <time>2020-12-17T11:53:41.000Z</time>
      </trkpt>
      <trkpt lat="44.09415" lon="5.9845">
        <ele>539.40002441406</ele>
        <time>2020-12-17T11:53:43.000Z</time>
      </trkpt>
      <trkpt lat="44.09413" lon="5.98443">
        <ele>540</ele>
        <time>2020-12-17T11:53:45.000Z</time>
      </trkpt>
      <trkpt lat="44.09413" lon="5.98439">
        <ele>540.20001220703</ele>
        <time>2020-12-17T11:53:47.000Z</time>
      </trkpt>
      <trkpt lat="44.09413" lon="5.98423">
        <ele>540.59997558594</ele>
        <time>2020-12-17T11:53:52.000Z</time>
      </trkpt>
      <trkpt lat="44.0941" lon="5.98409">
        <ele>541</ele>
        <time>2020-12-17T11:53:56.000Z</time>
      </trkpt>
      <trkpt lat="44.09409" lon="5.98403">
        <ele>541.20001220703</ele>
        <time>2020-12-17T11:53:58.000Z</time>
      </trkpt>
      <trkpt lat="44.09408" lon="5.98389">
        <ele>542</ele>
        <time>2020-12-17T11:54:03.000Z</time>
      </trkpt>
      <trkpt lat="44.09412" lon="5.98374">
        <ele>542.79998779297</ele>
        <time>2020-12-17T11:54:10.000Z</time>
      </trkpt>
      <trkpt lat="44.09413" lon="5.9837">
        <ele>543.20001220703</ele>
        <time>2020-12-17T11:54:12.000Z</time>
      </trkpt>
      <trkpt lat="44.09415" lon="5.98356">
        <ele>543.59997558594</ele>
        <time>2020-12-17T11:54:17.000Z</time>
      </trkpt>
      <trkpt lat="44.09416" lon="5.98345">
        <ele>544</ele>
        <time>2020-12-17T11:54:22.000Z</time>
      </trkpt>
      <trkpt lat="44.09417" lon="5.98338">
        <ele>544.20001220703</ele>
        <time>2020-12-17T11:54:26.000Z</time>
      </trkpt>
      <trkpt lat="44.09417" lon="5.98334">
        <ele>544.40002441406</ele>
        <time>2020-12-17T11:54:29.000Z</time>
      </trkpt>
      <trkpt lat="44.09417" lon="5.98331">
        <ele>544.40002441406</ele>
        <time>2020-12-17T11:54:31.000Z</time>
      </trkpt>
      <trkpt lat="44.0942" lon="5.98325">
        <ele>544.79998779297</ele>
        <time>2020-12-17T11:54:35.000Z</time>
      </trkpt>
      <trkpt lat="44.09421" lon="5.98323">
        <ele>544.79998779297</ele>
        <time>2020-12-17T11:54:36.000Z</time>
      </trkpt>
      <trkpt lat="44.09423" lon="5.98313">
        <ele>545</ele>
        <time>2020-12-17T11:54:40.000Z</time>
      </trkpt>
      <trkpt lat="44.09424" lon="5.98305">
        <ele>545.40002441406</ele>
        <time>2020-12-17T11:54:43.000Z</time>
      </trkpt>
      <trkpt lat="44.09423" lon="5.98294">
        <ele>546.40002441406</ele>
        <time>2020-12-17T11:54:47.000Z</time>
      </trkpt>
      <trkpt lat="44.09423" lon="5.98291">
        <ele>546.59997558594</ele>
        <time>2020-12-17T11:54:48.000Z</time>
      </trkpt>
      <trkpt lat="44.09426" lon="5.98281">
        <ele>547.59997558594</ele>
        <time>2020-12-17T11:54:52.000Z</time>
      </trkpt>
      <trkpt lat="44.09423" lon="5.98268">
        <ele>548.59997558594</ele>
        <time>2020-12-17T11:54:57.000Z</time>
      </trkpt>
      <trkpt lat="44.09426" lon="5.98255">
        <ele>549.40002441406</ele>
        <time>2020-12-17T11:55:01.000Z</time>
      </trkpt>
      <trkpt lat="44.09428" lon="5.9825">
        <ele>549.79998779297</ele>
        <time>2020-12-17T11:55:03.000Z</time>
      </trkpt>
      <trkpt lat="44.09431" lon="5.98241">
        <ele>550.59997558594</ele>
        <time>2020-12-17T11:55:07.000Z</time>
      </trkpt>
      <trkpt lat="44.09431" lon="5.98238">
        <ele>550.79998779297</ele>
        <time>2020-12-17T11:55:08.000Z</time>
      </trkpt>
      <trkpt lat="44.0943" lon="5.98225">
        <ele>551.79998779297</ele>
        <time>2020-12-17T11:55:13.000Z</time>
      </trkpt>
      <trkpt lat="44.09429" lon="5.98224">
        <ele>552</ele>
        <time>2020-12-17T11:55:14.000Z</time>
      </trkpt>
      <trkpt lat="44.09428" lon="5.98218">
        <ele>552.40002441406</ele>
        <time>2020-12-17T11:55:16.000Z</time>
      </trkpt>
      <trkpt lat="44.09427" lon="5.98214">
        <ele>552.40002441406</ele>
        <time>2020-12-17T11:55:17.000Z</time>
      </trkpt>
      <trkpt lat="44.09429" lon="5.98206">
        <ele>552.59997558594</ele>
        <time>2020-12-17T11:55:20.000Z</time>
      </trkpt>
      <trkpt lat="44.0943" lon="5.98203">
        <ele>552.79998779297</ele>
        <time>2020-12-17T11:55:21.000Z</time>
      </trkpt>
      <trkpt lat="44.09431" lon="5.982">
        <ele>553</ele>
        <time>2020-12-17T11:55:22.000Z</time>
      </trkpt>
      <trkpt lat="44.09432" lon="5.98183">
        <ele>553.40002441406</ele>
        <time>2020-12-17T11:55:27.000Z</time>
      </trkpt>
      <trkpt lat="44.09431" lon="5.98175">
        <ele>554</ele>
        <time>2020-12-17T11:55:29.000Z</time>
      </trkpt>
      <trkpt lat="44.09432" lon="5.98166">
        <ele>555.40002441406</ele>
        <time>2020-12-17T11:55:32.000Z</time>
      </trkpt>
      <trkpt lat="44.09435" lon="5.98145">
        <ele>556.59997558594</ele>
        <time>2020-12-17T11:55:38.000Z</time>
      </trkpt>
      <trkpt lat="44.09436" lon="5.98142">
        <ele>557</ele>
        <time>2020-12-17T11:55:39.000Z</time>
      </trkpt>
      <trkpt lat="44.09437" lon="5.98134">
        <ele>557.59997558594</ele>
        <time>2020-12-17T11:55:41.000Z</time>
      </trkpt>
      <trkpt lat="44.09436" lon="5.98131">
        <ele>557.79998779297</ele>
        <time>2020-12-17T11:55:42.000Z</time>
      </trkpt>
      <trkpt lat="44.09435" lon="5.98127">
        <ele>557.79998779297</ele>
        <time>2020-12-17T11:55:43.000Z</time>
      </trkpt>
      <trkpt lat="44.09434" lon="5.98112">
        <ele>558.59997558594</ele>
        <time>2020-12-17T11:55:47.000Z</time>
      </trkpt>
      <trkpt lat="44.09434" lon="5.98108">
        <ele>558.59997558594</ele>
        <time>2020-12-17T11:55:48.000Z</time>
      </trkpt>
      <trkpt lat="44.09433" lon="5.98084">
        <ele>559</ele>
        <time>2020-12-17T11:55:54.000Z</time>
      </trkpt>
      <trkpt lat="44.09432" lon="5.98057">
        <ele>560.20001220703</ele>
        <time>2020-12-17T11:56:01.000Z</time>
      </trkpt>
      <trkpt lat="44.09431" lon="5.98043">
        <ele>560.79998779297</ele>
        <time>2020-12-17T11:56:05.000Z</time>
      </trkpt>
      <trkpt lat="44.09432" lon="5.9804">
        <ele>560.79998779297</ele>
        <time>2020-12-17T11:56:06.000Z</time>
      </trkpt>
      <trkpt lat="44.09431" lon="5.98029">
        <ele>561</ele>
        <time>2020-12-17T11:56:10.000Z</time>
      </trkpt>
      <trkpt lat="44.09429" lon="5.98026">
        <ele>561.20001220703</ele>
        <time>2020-12-17T11:56:11.000Z</time>
      </trkpt>
      <trkpt lat="44.09424" lon="5.9802">
        <ele>561.20001220703</ele>
        <time>2020-12-17T11:56:13.000Z</time>
      </trkpt>
      <trkpt lat="44.09422" lon="5.98016">
        <ele>561.40002441406</ele>
        <time>2020-12-17T11:56:14.000Z</time>
      </trkpt>
      <trkpt lat="44.09421" lon="5.98014">
        <ele>561.59997558594</ele>
        <time>2020-12-17T11:56:15.000Z</time>
      </trkpt>
      <trkpt lat="44.09418" lon="5.98011">
        <ele>562</ele>
        <time>2020-12-17T11:56:17.000Z</time>
      </trkpt>
      <trkpt lat="44.09418" lon="5.98008">
        <ele>562</ele>
        <time>2020-12-17T11:56:18.000Z</time>
      </trkpt>
      <trkpt lat="44.09417" lon="5.98004">
        <ele>562.20001220703</ele>
        <time>2020-12-17T11:56:20.000Z</time>
      </trkpt>
      <trkpt lat="44.09417" lon="5.98002">
        <ele>562.20001220703</ele>
        <time>2020-12-17T11:56:21.000Z</time>
      </trkpt>
      <trkpt lat="44.09417" lon="5.97996">
        <ele>562.40002441406</ele>
        <time>2020-12-17T11:56:23.000Z</time>
      </trkpt>
      <trkpt lat="44.09417" lon="5.97988">
        <ele>562.40002441406</ele>
        <time>2020-12-17T11:56:25.000Z</time>
      </trkpt>
      <trkpt lat="44.09414" lon="5.97982">
        <ele>562.40002441406</ele>
        <time>2020-12-17T11:56:27.000Z</time>
      </trkpt>
      <trkpt lat="44.09409" lon="5.97975">
        <ele>563.40002441406</ele>
        <time>2020-12-17T11:56:30.000Z</time>
      </trkpt>
      <trkpt lat="44.09401" lon="5.97968">
        <ele>564</ele>
        <time>2020-12-17T11:56:33.000Z</time>
      </trkpt>
      <trkpt lat="44.0939" lon="5.97958">
        <ele>564.59997558594</ele>
        <time>2020-12-17T11:56:37.000Z</time>
      </trkpt>
      <trkpt lat="44.09387" lon="5.97957">
        <ele>565</ele>
        <time>2020-12-17T11:56:38.000Z</time>
      </trkpt>
      <trkpt lat="44.09373" lon="5.97954">
        <ele>565.59997558594</ele>
        <time>2020-12-17T11:56:44.000Z</time>
      </trkpt>
      <trkpt lat="44.09373" lon="5.97953">
        <ele>566.79998779297</ele>
        <time>2020-12-17T11:56:51.000Z</time>
      </trkpt>
      <trkpt lat="44.09373" lon="5.97954">
        <ele>566.79998779297</ele>
        <time>2020-12-17T11:56:57.000Z</time>
      </trkpt>
      <trkpt lat="44.09374" lon="5.97953">
        <ele>566.79998779297</ele>
        <time>2020-12-17T11:57:03.000Z</time>
      </trkpt>
      <trkpt lat="44.09374" lon="5.97953">
        <ele>566.79998779297</ele>
        <time>2020-12-17T11:57:09.000Z</time>
      </trkpt>
      <trkpt lat="44.09371" lon="5.97954">
        <ele>566.79998779297</ele>
        <time>2020-12-17T11:57:12.000Z</time>
      </trkpt>
      <trkpt lat="44.09366" lon="5.97955">
        <ele>567</ele>
        <time>2020-12-17T11:57:15.000Z</time>
      </trkpt>
      <trkpt lat="44.09363" lon="5.97955">
        <ele>567</ele>
        <time>2020-12-17T11:57:16.000Z</time>
      </trkpt>
      <trkpt lat="44.09354" lon="5.97952">
        <ele>567</ele>
        <time>2020-12-17T11:57:19.000Z</time>
      </trkpt>
      <trkpt lat="44.09338" lon="5.97946">
        <ele>567</ele>
        <time>2020-12-17T11:57:24.000Z</time>
      </trkpt>
      <trkpt lat="44.09326" lon="5.97936">
        <ele>567</ele>
        <time>2020-12-17T11:57:30.000Z</time>
      </trkpt>
      <trkpt lat="44.09317" lon="5.97932">
        <ele>568</ele>
        <time>2020-12-17T11:57:34.000Z</time>
      </trkpt>
      <trkpt lat="44.0931" lon="5.97929">
        <ele>568.79998779297</ele>
        <time>2020-12-17T11:57:37.000Z</time>
      </trkpt>
      <trkpt lat="44.09308" lon="5.97927">
        <ele>569.20001220703</ele>
        <time>2020-12-17T11:57:38.000Z</time>
      </trkpt>
      <trkpt lat="44.09306" lon="5.97925">
        <ele>569.40002441406</ele>
        <time>2020-12-17T11:57:39.000Z</time>
      </trkpt>
      <trkpt lat="44.09297" lon="5.97921">
        <ele>570.20001220703</ele>
        <time>2020-12-17T11:57:42.000Z</time>
      </trkpt>
      <trkpt lat="44.09296" lon="5.97919">
        <ele>570.20001220703</ele>
        <time>2020-12-17T11:57:43.000Z</time>
      </trkpt>
      <trkpt lat="44.09296" lon="5.97917">
        <ele>570.40002441406</ele>
        <time>2020-12-17T11:57:44.000Z</time>
      </trkpt>
      <trkpt lat="44.09299" lon="5.97908">
        <ele>570.59997558594</ele>
        <time>2020-12-17T11:57:48.000Z</time>
      </trkpt>
      <trkpt lat="44.09303" lon="5.97907">
        <ele>570.79998779297</ele>
        <time>2020-12-17T11:57:50.000Z</time>
      </trkpt>
      <trkpt lat="44.09307" lon="5.97905">
        <ele>571.40002441406</ele>
        <time>2020-12-17T11:57:52.000Z</time>
      </trkpt>
      <trkpt lat="44.09317" lon="5.97901">
        <ele>572.59997558594</ele>
        <time>2020-12-17T11:57:57.000Z</time>
      </trkpt>
      <trkpt lat="44.09323" lon="5.97898">
        <ele>573.59997558594</ele>
        <time>2020-12-17T11:58:00.000Z</time>
      </trkpt>
      <trkpt lat="44.09324" lon="5.97896">
        <ele>573.79998779297</ele>
        <time>2020-12-17T11:58:01.000Z</time>
      </trkpt>
      <trkpt lat="44.09326" lon="5.97893">
        <ele>574</ele>
        <time>2020-12-17T11:58:02.000Z</time>
      </trkpt>
      <trkpt lat="44.09332" lon="5.9789">
        <ele>574.79998779297</ele>
        <time>2020-12-17T11:58:05.000Z</time>
      </trkpt>
      <trkpt lat="44.09334" lon="5.9789">
        <ele>575.20001220703</ele>
        <time>2020-12-17T11:58:06.000Z</time>
      </trkpt>
      <trkpt lat="44.09338" lon="5.97886">
        <ele>576</ele>
        <time>2020-12-17T11:58:08.000Z</time>
      </trkpt>
      <trkpt lat="44.09342" lon="5.97879">
        <ele>576.79998779297</ele>
        <time>2020-12-17T11:58:10.000Z</time>
      </trkpt>
      <trkpt lat="44.09345" lon="5.97871">
        <ele>577</ele>
        <time>2020-12-17T11:58:12.000Z</time>
      </trkpt>
      <trkpt lat="44.09346" lon="5.97868">
        <ele>577.20001220703</ele>
        <time>2020-12-17T11:58:13.000Z</time>
      </trkpt>
      <trkpt lat="44.09348" lon="5.97863">
        <ele>577.79998779297</ele>
        <time>2020-12-17T11:58:15.000Z</time>
      </trkpt>
      <trkpt lat="44.09355" lon="5.97846">
        <ele>578.40002441406</ele>
        <time>2020-12-17T11:58:20.000Z</time>
      </trkpt>
      <trkpt lat="44.09362" lon="5.97833">
        <ele>578.59997558594</ele>
        <time>2020-12-17T11:58:24.000Z</time>
      </trkpt>
      <trkpt lat="44.09375" lon="5.97815">
        <ele>578.59997558594</ele>
        <time>2020-12-17T11:58:28.000Z</time>
      </trkpt>
      <trkpt lat="44.09381" lon="5.97805">
        <ele>578.59997558594</ele>
        <time>2020-12-17T11:58:30.000Z</time>
      </trkpt>
      <trkpt lat="44.09402" lon="5.9778">
        <ele>578.20001220703</ele>
        <time>2020-12-17T11:58:36.000Z</time>
      </trkpt>
      <trkpt lat="44.09414" lon="5.97762">
        <ele>578.20001220703</ele>
        <time>2020-12-17T11:58:41.000Z</time>
      </trkpt>
      <trkpt lat="44.09426" lon="5.9775">
        <ele>578.79998779297</ele>
        <time>2020-12-17T11:58:46.000Z</time>
      </trkpt>
      <trkpt lat="44.09431" lon="5.97737">
        <ele>579.59997558594</ele>
        <time>2020-12-17T11:58:51.000Z</time>
      </trkpt>
      <trkpt lat="44.0943" lon="5.97734">
        <ele>579.59997558594</ele>
        <time>2020-12-17T11:58:52.000Z</time>
      </trkpt>
      <trkpt lat="44.09424" lon="5.97733">
        <ele>580</ele>
        <time>2020-12-17T11:58:55.000Z</time>
      </trkpt>
      <trkpt lat="44.09418" lon="5.97731">
        <ele>580</ele>
        <time>2020-12-17T11:58:57.000Z</time>
      </trkpt>
      <trkpt lat="44.0941" lon="5.97728">
        <ele>580.20001220703</ele>
        <time>2020-12-17T11:59:01.000Z</time>
      </trkpt>
      <trkpt lat="44.09396" lon="5.97728">
        <ele>580.59997558594</ele>
        <time>2020-12-17T11:59:07.000Z</time>
      </trkpt>
      <trkpt lat="44.09381" lon="5.97729">
        <ele>581</ele>
        <time>2020-12-17T11:59:12.000Z</time>
      </trkpt>
      <trkpt lat="44.09372" lon="5.97739">
        <ele>581.20001220703</ele>
        <time>2020-12-17T11:59:15.000Z</time>
      </trkpt>
      <trkpt lat="44.09369" lon="5.97744">
        <ele>581.20001220703</ele>
        <time>2020-12-17T11:59:16.000Z</time>
      </trkpt>
      <trkpt lat="44.09351" lon="5.97761">
        <ele>581.20001220703</ele>
        <time>2020-12-17T11:59:21.000Z</time>
      </trkpt>
      <trkpt lat="44.09338" lon="5.97769">
        <ele>580.40002441406</ele>
        <time>2020-12-17T11:59:24.000Z</time>
      </trkpt>
      <trkpt lat="44.09329" lon="5.9777">
        <ele>579.79998779297</ele>
        <time>2020-12-17T11:59:26.000Z</time>
      </trkpt>
      <trkpt lat="44.09325" lon="5.97769">
        <ele>579.20001220703</ele>
        <time>2020-12-17T11:59:27.000Z</time>
      </trkpt>
      <trkpt lat="44.09317" lon="5.97763">
        <ele>578.40002441406</ele>
        <time>2020-12-17T11:59:30.000Z</time>
      </trkpt>
      <trkpt lat="44.09314" lon="5.97762">
        <ele>578.20001220703</ele>
        <time>2020-12-17T11:59:34.000Z</time>
      </trkpt>
      <trkpt lat="44.09314" lon="5.97762">
        <ele>578</ele>
        <time>2020-12-17T11:59:35.000Z</time>
      </trkpt>
      <trkpt lat="44.09313" lon="5.97763">
        <ele>577.40002441406</ele>
        <time>2020-12-17T11:59:39.000Z</time>
      </trkpt>
      <trkpt lat="44.09312" lon="5.97766">
        <ele>577</ele>
        <time>2020-12-17T11:59:41.000Z</time>
      </trkpt>
      <trkpt lat="44.09311" lon="5.97767">
        <ele>576.79998779297</ele>
        <time>2020-12-17T11:59:42.000Z</time>
      </trkpt>
      <trkpt lat="44.09306" lon="5.9777">
        <ele>576.40002441406</ele>
        <time>2020-12-17T11:59:48.000Z</time>
      </trkpt>
      <trkpt lat="44.09298" lon="5.9777">
        <ele>576</ele>
        <time>2020-12-17T11:59:51.000Z</time>
      </trkpt>
      <trkpt lat="44.09295" lon="5.97771">
        <ele>575.40002441406</ele>
        <time>2020-12-17T11:59:53.000Z</time>
      </trkpt>
      <trkpt lat="44.09293" lon="5.97772">
        <ele>574.79998779297</ele>
        <time>2020-12-17T11:59:55.000Z</time>
      </trkpt>
      <trkpt lat="44.09293" lon="5.97773">
        <ele>573.20001220703</ele>
        <time>2020-12-17T11:59:57.000Z</time>
      </trkpt>
      <trkpt lat="44.09293" lon="5.97773">
        <ele>572.79998779297</ele>
        <time>2020-12-17T11:59:59.000Z</time>
      </trkpt>
      <trkpt lat="44.0929" lon="5.97774">
        <ele>572.59997558594</ele>
        <time>2020-12-17T12:00:05.000Z</time>
      </trkpt>
      <trkpt lat="44.09289" lon="5.97776">
        <ele>572.59997558594</ele>
        <time>2020-12-17T12:00:06.000Z</time>
      </trkpt>
      <trkpt lat="44.09281" lon="5.97783">
        <ele>572.59997558594</ele>
        <time>2020-12-17T12:00:10.000Z</time>
      </trkpt>
      <trkpt lat="44.09271" lon="5.97798">
        <ele>572.20001220703</ele>
        <time>2020-12-17T12:00:15.000Z</time>
      </trkpt>
      <trkpt lat="44.0927" lon="5.97802">
        <ele>572.20001220703</ele>
        <time>2020-12-17T12:00:16.000Z</time>
      </trkpt>
      <trkpt lat="44.09264" lon="5.97811">
        <ele>571.79998779297</ele>
        <time>2020-12-17T12:00:19.000Z</time>
      </trkpt>
      <trkpt lat="44.09258" lon="5.97819">
        <ele>571</ele>
        <time>2020-12-17T12:00:22.000Z</time>
      </trkpt>
      <trkpt lat="44.09252" lon="5.97825">
        <ele>569.79998779297</ele>
        <time>2020-12-17T12:00:24.000Z</time>
      </trkpt>
      <trkpt lat="44.09245" lon="5.97835">
        <ele>567.59997558594</ele>
        <time>2020-12-17T12:00:26.000Z</time>
      </trkpt>
      <trkpt lat="44.09241" lon="5.97839">
        <ele>567.20001220703</ele>
        <time>2020-12-17T12:00:27.000Z</time>
      </trkpt>
      <trkpt lat="44.09238" lon="5.97843">
        <ele>566.40002441406</ele>
        <time>2020-12-17T12:00:28.000Z</time>
      </trkpt>
      <trkpt lat="44.09235" lon="5.97845">
        <ele>565.79998779297</ele>
        <time>2020-12-17T12:00:29.000Z</time>
      </trkpt>
      <trkpt lat="44.09231" lon="5.97848">
        <ele>565.40002441406</ele>
        <time>2020-12-17T12:00:30.000Z</time>
      </trkpt>
      <trkpt lat="44.09219" lon="5.9785">
        <ele>563.79998779297</ele>
        <time>2020-12-17T12:00:33.000Z</time>
      </trkpt>
      <trkpt lat="44.09215" lon="5.9785">
        <ele>563.20001220703</ele>
        <time>2020-12-17T12:00:34.000Z</time>
      </trkpt>
      <trkpt lat="44.09211" lon="5.9785">
        <ele>562.59997558594</ele>
        <time>2020-12-17T12:00:35.000Z</time>
      </trkpt>
      <trkpt lat="44.09206" lon="5.97852">
        <ele>562</ele>
        <time>2020-12-17T12:00:36.000Z</time>
      </trkpt>
      <trkpt lat="44.09203" lon="5.97856">
        <ele>561.40002441406</ele>
        <time>2020-12-17T12:00:37.000Z</time>
      </trkpt>
      <trkpt lat="44.09196" lon="5.97864">
        <ele>560.40002441406</ele>
        <time>2020-12-17T12:00:39.000Z</time>
      </trkpt>
      <trkpt lat="44.0919" lon="5.97871">
        <ele>559.20001220703</ele>
        <time>2020-12-17T12:00:41.000Z</time>
      </trkpt>
      <trkpt lat="44.09183" lon="5.97882">
        <ele>557.40002441406</ele>
        <time>2020-12-17T12:00:43.000Z</time>
      </trkpt>
      <trkpt lat="44.09179" lon="5.97888">
        <ele>556.40002441406</ele>
        <time>2020-12-17T12:00:44.000Z</time>
      </trkpt>
      <trkpt lat="44.09175" lon="5.97893">
        <ele>555.79998779297</ele>
        <time>2020-12-17T12:00:45.000Z</time>
      </trkpt>
      <trkpt lat="44.09167" lon="5.97901">
        <ele>554.59997558594</ele>
        <time>2020-12-17T12:00:47.000Z</time>
      </trkpt>
      <trkpt lat="44.09151" lon="5.97916">
        <ele>553.40002441406</ele>
        <time>2020-12-17T12:00:51.000Z</time>
      </trkpt>
      <trkpt lat="44.09147" lon="5.97921">
        <ele>553</ele>
        <time>2020-12-17T12:00:52.000Z</time>
      </trkpt>
      <trkpt lat="44.09138" lon="5.97933">
        <ele>552.40002441406</ele>
        <time>2020-12-17T12:00:54.000Z</time>
      </trkpt>
      <trkpt lat="44.09134" lon="5.97939">
        <ele>552.20001220703</ele>
        <time>2020-12-17T12:00:55.000Z</time>
      </trkpt>
      <trkpt lat="44.09127" lon="5.97951">
        <ele>551.79998779297</ele>
        <time>2020-12-17T12:00:57.000Z</time>
      </trkpt>
      <trkpt lat="44.09115" lon="5.9796">
        <ele>551.40002441406</ele>
        <time>2020-12-17T12:00:59.000Z</time>
      </trkpt>
      <trkpt lat="44.0911" lon="5.97964">
        <ele>550.79998779297</ele>
        <time>2020-12-17T12:01:00.000Z</time>
      </trkpt>
      <trkpt lat="44.091" lon="5.97972">
        <ele>549.79998779297</ele>
        <time>2020-12-17T12:01:02.000Z</time>
      </trkpt>
      <trkpt lat="44.09097" lon="5.97977">
        <ele>549.59997558594</ele>
        <time>2020-12-17T12:01:03.000Z</time>
      </trkpt>
      <trkpt lat="44.09094" lon="5.97981">
        <ele>548.79998779297</ele>
        <time>2020-12-17T12:01:04.000Z</time>
      </trkpt>
      <trkpt lat="44.09091" lon="5.97985">
        <ele>548.40002441406</ele>
        <time>2020-12-17T12:01:05.000Z</time>
      </trkpt>
      <trkpt lat="44.09083" lon="5.97992">
        <ele>547.79998779297</ele>
        <time>2020-12-17T12:01:07.000Z</time>
      </trkpt>
      <trkpt lat="44.09073" lon="5.98">
        <ele>547.20001220703</ele>
        <time>2020-12-17T12:01:10.000Z</time>
      </trkpt>
      <trkpt lat="44.09068" lon="5.98003">
        <ele>546.59997558594</ele>
        <time>2020-12-17T12:01:12.000Z</time>
      </trkpt>
      <trkpt lat="44.09066" lon="5.98003">
        <ele>546.20001220703</ele>
        <time>2020-12-17T12:01:15.000Z</time>
      </trkpt>
      <trkpt lat="44.09066" lon="5.98004">
        <ele>545.59997558594</ele>
        <time>2020-12-17T12:01:17.000Z</time>
      </trkpt>
      <trkpt lat="44.09065" lon="5.98005">
        <ele>545.20001220703</ele>
        <time>2020-12-17T12:01:31.000Z</time>
      </trkpt>
      <trkpt lat="44.09061" lon="5.98007">
        <ele>545.20001220703</ele>
        <time>2020-12-17T12:01:43.000Z</time>
      </trkpt>
      <trkpt lat="44.0906" lon="5.98009">
        <ele>545.20001220703</ele>
        <time>2020-12-17T12:01:44.000Z</time>
      </trkpt>
      <trkpt lat="44.09057" lon="5.98019">
        <ele>545.20001220703</ele>
        <time>2020-12-17T12:01:47.000Z</time>
      </trkpt>
      <trkpt lat="44.09053" lon="5.98034">
        <ele>545.20001220703</ele>
        <time>2020-12-17T12:01:50.000Z</time>
      </trkpt>
      <trkpt lat="44.09051" lon="5.98043">
        <ele>545</ele>
        <time>2020-12-17T12:01:52.000Z</time>
      </trkpt>
      <trkpt lat="44.09045" lon="5.98058">
        <ele>544</ele>
        <time>2020-12-17T12:01:55.000Z</time>
      </trkpt>
      <trkpt lat="44.09043" lon="5.98062">
        <ele>543.40002441406</ele>
        <time>2020-12-17T12:01:56.000Z</time>
      </trkpt>
      <trkpt lat="44.09042" lon="5.98067">
        <ele>542.79998779297</ele>
        <time>2020-12-17T12:01:57.000Z</time>
      </trkpt>
      <trkpt lat="44.09037" lon="5.9808">
        <ele>541.79998779297</ele>
        <time>2020-12-17T12:02:00.000Z</time>
      </trkpt>
      <trkpt lat="44.09035" lon="5.98085">
        <ele>541.20001220703</ele>
        <time>2020-12-17T12:02:01.000Z</time>
      </trkpt>
      <trkpt lat="44.09033" lon="5.98092">
        <ele>540.79998779297</ele>
        <time>2020-12-17T12:02:02.000Z</time>
      </trkpt>
      <trkpt lat="44.09031" lon="5.98098">
        <ele>540.40002441406</ele>
        <time>2020-12-17T12:02:03.000Z</time>
      </trkpt>
      <trkpt lat="44.0903" lon="5.98104">
        <ele>540</ele>
        <time>2020-12-17T12:02:04.000Z</time>
      </trkpt>
      <trkpt lat="44.09027" lon="5.98115">
        <ele>539.40002441406</ele>
        <time>2020-12-17T12:02:06.000Z</time>
      </trkpt>
      <trkpt lat="44.09019" lon="5.98133">
        <ele>538</ele>
        <time>2020-12-17T12:02:10.000Z</time>
      </trkpt>
      <trkpt lat="44.09017" lon="5.98136">
        <ele>537.59997558594</ele>
        <time>2020-12-17T12:02:11.000Z</time>
      </trkpt>
      <trkpt lat="44.09015" lon="5.98138">
        <ele>537.40002441406</ele>
        <time>2020-12-17T12:02:12.000Z</time>
      </trkpt>
      <trkpt lat="44.09012" lon="5.98139">
        <ele>537</ele>
        <time>2020-12-17T12:02:13.000Z</time>
      </trkpt>
      <trkpt lat="44.09009" lon="5.98139">
        <ele>536.59997558594</ele>
        <time>2020-12-17T12:02:14.000Z</time>
      </trkpt>
      <trkpt lat="44.09003" lon="5.98143">
        <ele>536.40002441406</ele>
        <time>2020-12-17T12:02:16.000Z</time>
      </trkpt>
      <trkpt lat="44.09001" lon="5.98145">
        <ele>535.79998779297</ele>
        <time>2020-12-17T12:02:18.000Z</time>
      </trkpt>
      <trkpt lat="44.09" lon="5.98145">
        <ele>535.59997558594</ele>
        <time>2020-12-17T12:02:19.000Z</time>
      </trkpt>
      <trkpt lat="44.08996" lon="5.98144">
        <ele>534.59997558594</ele>
        <time>2020-12-17T12:02:22.000Z</time>
      </trkpt>
      <trkpt lat="44.08994" lon="5.98146">
        <ele>534.20001220703</ele>
        <time>2020-12-17T12:02:23.000Z</time>
      </trkpt>
      <trkpt lat="44.08991" lon="5.98149">
        <ele>534</ele>
        <time>2020-12-17T12:02:24.000Z</time>
      </trkpt>
      <trkpt lat="44.08986" lon="5.98153">
        <ele>533.59997558594</ele>
        <time>2020-12-17T12:02:26.000Z</time>
      </trkpt>
      <trkpt lat="44.08982" lon="5.98157">
        <ele>533.59997558594</ele>
        <time>2020-12-17T12:02:28.000Z</time>
      </trkpt>
      <trkpt lat="44.08976" lon="5.98164">
        <ele>532.20001220703</ele>
        <time>2020-12-17T12:02:33.000Z</time>
      </trkpt>
      <trkpt lat="44.08976" lon="5.98166">
        <ele>531.20001220703</ele>
        <time>2020-12-17T12:02:35.000Z</time>
      </trkpt>
      <trkpt lat="44.08976" lon="5.98167">
        <ele>529.40002441406</ele>
        <time>2020-12-17T12:02:38.000Z</time>
      </trkpt>
      <trkpt lat="44.08975" lon="5.98169">
        <ele>528.40002441406</ele>
        <time>2020-12-17T12:02:41.000Z</time>
      </trkpt>
      <trkpt lat="44.08973" lon="5.98173">
        <ele>528.20001220703</ele>
        <time>2020-12-17T12:02:43.000Z</time>
      </trkpt>
      <trkpt lat="44.08969" lon="5.98186">
        <ele>528.20001220703</ele>
        <time>2020-12-17T12:02:46.000Z</time>
      </trkpt>
      <trkpt lat="44.08968" lon="5.98188">
        <ele>528.20001220703</ele>
        <time>2020-12-17T12:02:47.000Z</time>
      </trkpt>
      <trkpt lat="44.08958" lon="5.98195">
        <ele>527.79998779297</ele>
        <time>2020-12-17T12:02:50.000Z</time>
      </trkpt>
      <trkpt lat="44.08954" lon="5.98195">
        <ele>527.59997558594</ele>
        <time>2020-12-17T12:02:51.000Z</time>
      </trkpt>
      <trkpt lat="44.0895" lon="5.98194">
        <ele>527.59997558594</ele>
        <time>2020-12-17T12:02:52.000Z</time>
      </trkpt>
      <trkpt lat="44.08943" lon="5.98194">
        <ele>527.20001220703</ele>
        <time>2020-12-17T12:02:54.000Z</time>
      </trkpt>
      <trkpt lat="44.08933" lon="5.98204">
        <ele>526.40002441406</ele>
        <time>2020-12-17T12:02:57.000Z</time>
      </trkpt>
      <trkpt lat="44.08931" lon="5.98208">
        <ele>526</ele>
        <time>2020-12-17T12:02:58.000Z</time>
      </trkpt>
      <trkpt lat="44.08929" lon="5.98216">
        <ele>525</ele>
        <time>2020-12-17T12:03:00.000Z</time>
      </trkpt>
      <trkpt lat="44.08925" lon="5.98223">
        <ele>523.59997558594</ele>
        <time>2020-12-17T12:03:02.000Z</time>
      </trkpt>
      <trkpt lat="44.08923" lon="5.98227">
        <ele>523</ele>
        <time>2020-12-17T12:03:03.000Z</time>
      </trkpt>
      <trkpt lat="44.0892" lon="5.9823">
        <ele>522.40002441406</ele>
        <time>2020-12-17T12:03:04.000Z</time>
      </trkpt>
      <trkpt lat="44.08917" lon="5.98234">
        <ele>521.40002441406</ele>
        <time>2020-12-17T12:03:05.000Z</time>
      </trkpt>
      <trkpt lat="44.0891" lon="5.98239">
        <ele>519.40002441406</ele>
        <time>2020-12-17T12:03:07.000Z</time>
      </trkpt>
      <trkpt lat="44.08906" lon="5.98241">
        <ele>518.59997558594</ele>
        <time>2020-12-17T12:03:08.000Z</time>
      </trkpt>
      <trkpt lat="44.08902" lon="5.98242">
        <ele>518</ele>
        <time>2020-12-17T12:03:09.000Z</time>
      </trkpt>
      <trkpt lat="44.08899" lon="5.98244">
        <ele>516.59997558594</ele>
        <time>2020-12-17T12:03:11.000Z</time>
      </trkpt>
      <trkpt lat="44.08895" lon="5.98245">
        <ele>514.79998779297</ele>
        <time>2020-12-17T12:03:13.000Z</time>
      </trkpt>
      <trkpt lat="44.08892" lon="5.98244">
        <ele>513.59997558594</ele>
        <time>2020-12-17T12:03:14.000Z</time>
      </trkpt>
      <trkpt lat="44.0889" lon="5.98241">
        <ele>512.40002441406</ele>
        <time>2020-12-17T12:03:15.000Z</time>
      </trkpt>
      <trkpt lat="44.08889" lon="5.98238">
        <ele>511.39999389648</ele>
        <time>2020-12-17T12:03:16.000Z</time>
      </trkpt>
      <trkpt lat="44.08889" lon="5.9823">
        <ele>510.39999389648</ele>
        <time>2020-12-17T12:03:18.000Z</time>
      </trkpt>
      <trkpt lat="44.08889" lon="5.98226">
        <ele>510.20001220703</ele>
        <time>2020-12-17T12:03:19.000Z</time>
      </trkpt>
      <trkpt lat="44.08888" lon="5.98218">
        <ele>509.79998779297</ele>
        <time>2020-12-17T12:03:23.000Z</time>
      </trkpt>
      <trkpt lat="44.08888" lon="5.98216">
        <ele>510.39999389648</ele>
        <time>2020-12-17T12:03:32.000Z</time>
      </trkpt>
      <trkpt lat="44.08889" lon="5.98214">
        <ele>510.60000610352</ele>
        <time>2020-12-17T12:03:33.000Z</time>
      </trkpt>
      <trkpt lat="44.08889" lon="5.98203">
        <ele>510.79998779297</ele>
        <time>2020-12-17T12:03:36.000Z</time>
      </trkpt>
      <trkpt lat="44.08885" lon="5.98174">
        <ele>511.20001220703</ele>
        <time>2020-12-17T12:03:42.000Z</time>
      </trkpt>
      <trkpt lat="44.08884" lon="5.98164">
        <ele>511.39999389648</ele>
        <time>2020-12-17T12:03:44.000Z</time>
      </trkpt>
      <trkpt lat="44.08878" lon="5.98147">
        <ele>512.20001220703</ele>
        <time>2020-12-17T12:03:49.000Z</time>
      </trkpt>
      <trkpt lat="44.08876" lon="5.98144">
        <ele>512.20001220703</ele>
        <time>2020-12-17T12:03:50.000Z</time>
      </trkpt>
      <trkpt lat="44.0887" lon="5.98133">
        <ele>513.40002441406</ele>
        <time>2020-12-17T12:03:54.000Z</time>
      </trkpt>
      <trkpt lat="44.08863" lon="5.98111">
        <ele>514.20001220703</ele>
        <time>2020-12-17T12:04:02.000Z</time>
      </trkpt>
      <trkpt lat="44.08863" lon="5.98108">
        <ele>514.40002441406</ele>
        <time>2020-12-17T12:04:03.000Z</time>
      </trkpt>
      <trkpt lat="44.0886" lon="5.98093">
        <ele>515</ele>
        <time>2020-12-17T12:04:08.000Z</time>
      </trkpt>
      <trkpt lat="44.0886" lon="5.9809">
        <ele>515.59997558594</ele>
        <time>2020-12-17T12:04:09.000Z</time>
      </trkpt>
      <trkpt lat="44.08859" lon="5.98083">
        <ele>516.79998779297</ele>
        <time>2020-12-17T12:04:12.000Z</time>
      </trkpt>
      <trkpt lat="44.08858" lon="5.98079">
        <ele>517.59997558594</ele>
        <time>2020-12-17T12:04:14.000Z</time>
      </trkpt>
      <trkpt lat="44.08857" lon="5.98077">
        <ele>518</ele>
        <time>2020-12-17T12:04:15.000Z</time>
      </trkpt>
      <trkpt lat="44.08856" lon="5.98075">
        <ele>519.59997558594</ele>
        <time>2020-12-17T12:04:18.000Z</time>
      </trkpt>
      <trkpt lat="44.08856" lon="5.98075">
        <ele>520.20001220703</ele>
        <time>2020-12-17T12:04:19.000Z</time>
      </trkpt>
      <trkpt lat="44.08855" lon="5.98074">
        <ele>520.79998779297</ele>
        <time>2020-12-17T12:04:20.000Z</time>
      </trkpt>
      <trkpt lat="44.08853" lon="5.98071">
        <ele>522</ele>
        <time>2020-12-17T12:04:23.000Z</time>
      </trkpt>
      <trkpt lat="44.08853" lon="5.98071">
        <ele>522.40002441406</ele>
        <time>2020-12-17T12:04:24.000Z</time>
      </trkpt>
      <trkpt lat="44.08853" lon="5.98071">
        <ele>523.20001220703</ele>
        <time>2020-12-17T12:04:26.000Z</time>
      </trkpt>
      <trkpt lat="44.08853" lon="5.9807">
        <ele>523.59997558594</ele>
        <time>2020-12-17T12:04:30.000Z</time>
      </trkpt>
      <trkpt lat="44.08851" lon="5.98068">
        <ele>524</ele>
        <time>2020-12-17T12:04:33.000Z</time>
      </trkpt>
      <trkpt lat="44.08849" lon="5.98066">
        <ele>524.20001220703</ele>
        <time>2020-12-17T12:04:34.000Z</time>
      </trkpt>
      <trkpt lat="44.08838" lon="5.98051">
        <ele>524.20001220703</ele>
        <time>2020-12-17T12:04:39.000Z</time>
      </trkpt>
      <trkpt lat="44.08828" lon="5.98027">
        <ele>525</ele>
        <time>2020-12-17T12:04:46.000Z</time>
      </trkpt>
      <trkpt lat="44.08826" lon="5.98024">
        <ele>525</ele>
        <time>2020-12-17T12:04:47.000Z</time>
      </trkpt>
      <trkpt lat="44.08819" lon="5.98012">
        <ele>526.20001220703</ele>
        <time>2020-12-17T12:04:51.000Z</time>
      </trkpt>
      <trkpt lat="44.08816" lon="5.9801">
        <ele>526.59997558594</ele>
        <time>2020-12-17T12:04:52.000Z</time>
      </trkpt>
      <trkpt lat="44.08814" lon="5.98007">
        <ele>527.59997558594</ele>
        <time>2020-12-17T12:04:53.000Z</time>
      </trkpt>
      <trkpt lat="44.0881" lon="5.98003">
        <ele>528.59997558594</ele>
        <time>2020-12-17T12:04:55.000Z</time>
      </trkpt>
      <trkpt lat="44.08806" lon="5.97999">
        <ele>529.59997558594</ele>
        <time>2020-12-17T12:04:57.000Z</time>
      </trkpt>
      <trkpt lat="44.08804" lon="5.97997">
        <ele>530.20001220703</ele>
        <time>2020-12-17T12:04:58.000Z</time>
      </trkpt>
      <trkpt lat="44.08797" lon="5.97991">
        <ele>530.79998779297</ele>
        <time>2020-12-17T12:05:01.000Z</time>
      </trkpt>
      <trkpt lat="44.0879" lon="5.97985">
        <ele>531.79998779297</ele>
        <time>2020-12-17T12:05:04.000Z</time>
      </trkpt>
      <trkpt lat="44.08789" lon="5.97984">
        <ele>532</ele>
        <time>2020-12-17T12:05:05.000Z</time>
      </trkpt>
      <trkpt lat="44.08782" lon="5.97975">
        <ele>532.59997558594</ele>
        <time>2020-12-17T12:05:09.000Z</time>
      </trkpt>
      <trkpt lat="44.08778" lon="5.97971">
        <ele>533.40002441406</ele>
        <time>2020-12-17T12:05:11.000Z</time>
      </trkpt>
      <trkpt lat="44.08768" lon="5.97969">
        <ele>534.20001220703</ele>
        <time>2020-12-17T12:05:14.000Z</time>
      </trkpt>
      <trkpt lat="44.08764" lon="5.97969">
        <ele>534.40002441406</ele>
        <time>2020-12-17T12:05:15.000Z</time>
      </trkpt>
      <trkpt lat="44.08751" lon="5.97969">
        <ele>535.59997558594</ele>
        <time>2020-12-17T12:05:18.000Z</time>
      </trkpt>
      <trkpt lat="44.08747" lon="5.97967">
        <ele>536.79998779297</ele>
        <time>2020-12-17T12:05:20.000Z</time>
      </trkpt>
      <trkpt lat="44.08722" lon="5.97953">
        <ele>537.79998779297</ele>
        <time>2020-12-17T12:05:26.000Z</time>
      </trkpt>
      <trkpt lat="44.08712" lon="5.97944">
        <ele>538.79998779297</ele>
        <time>2020-12-17T12:05:29.000Z</time>
      </trkpt>
      <trkpt lat="44.08703" lon="5.97935">
        <ele>540.20001220703</ele>
        <time>2020-12-17T12:05:32.000Z</time>
      </trkpt>
      <trkpt lat="44.08693" lon="5.97927">
        <ele>541.59997558594</ele>
        <time>2020-12-17T12:05:35.000Z</time>
      </trkpt>
      <trkpt lat="44.08684" lon="5.97922">
        <ele>542.79998779297</ele>
        <time>2020-12-17T12:05:38.000Z</time>
      </trkpt>
      <trkpt lat="44.08679" lon="5.97918">
        <ele>544</ele>
        <time>2020-12-17T12:05:41.000Z</time>
      </trkpt>
      <trkpt lat="44.08666" lon="5.97909">
        <ele>545.20001220703</ele>
        <time>2020-12-17T12:05:45.000Z</time>
      </trkpt>
      <trkpt lat="44.0866" lon="5.97905">
        <ele>545.79998779297</ele>
        <time>2020-12-17T12:05:47.000Z</time>
      </trkpt>
      <trkpt lat="44.08657" lon="5.97903">
        <ele>546.40002441406</ele>
        <time>2020-12-17T12:05:48.000Z</time>
      </trkpt>
      <trkpt lat="44.0865" lon="5.97895">
        <ele>547.79998779297</ele>
        <time>2020-12-17T12:05:52.000Z</time>
      </trkpt>
      <trkpt lat="44.08644" lon="5.97886">
        <ele>548.79998779297</ele>
        <time>2020-12-17T12:05:56.000Z</time>
      </trkpt>
      <trkpt lat="44.0864" lon="5.97878">
        <ele>549.79998779297</ele>
        <time>2020-12-17T12:05:59.000Z</time>
      </trkpt>
      <trkpt lat="44.08635" lon="5.97869">
        <ele>550</ele>
        <time>2020-12-17T12:06:02.000Z</time>
      </trkpt>
      <trkpt lat="44.08632" lon="5.97862">
        <ele>550.59997558594</ele>
        <time>2020-12-17T12:06:05.000Z</time>
      </trkpt>
      <trkpt lat="44.08626" lon="5.97844">
        <ele>551</ele>
        <time>2020-12-17T12:06:10.000Z</time>
      </trkpt>
      <trkpt lat="44.08625" lon="5.97841">
        <ele>551.20001220703</ele>
        <time>2020-12-17T12:06:11.000Z</time>
      </trkpt>
      <trkpt lat="44.08618" lon="5.9782">
        <ele>551.79998779297</ele>
        <time>2020-12-17T12:06:17.000Z</time>
      </trkpt>
      <trkpt lat="44.08613" lon="5.97809">
        <ele>552</ele>
        <time>2020-12-17T12:06:21.000Z</time>
      </trkpt>
      <trkpt lat="44.08609" lon="5.978">
        <ele>552.40002441406</ele>
        <time>2020-12-17T12:06:24.000Z</time>
      </trkpt>
      <trkpt lat="44.08599" lon="5.97783">
        <ele>552.59997558594</ele>
        <time>2020-12-17T12:06:30.000Z</time>
      </trkpt>
      <trkpt lat="44.08589" lon="5.97768">
        <ele>553</ele>
        <time>2020-12-17T12:06:36.000Z</time>
      </trkpt>
      <trkpt lat="44.08587" lon="5.97765">
        <ele>553.20001220703</ele>
        <time>2020-12-17T12:06:38.000Z</time>
      </trkpt>
      <trkpt lat="44.08582" lon="5.97757">
        <ele>553.40002441406</ele>
        <time>2020-12-17T12:06:41.000Z</time>
      </trkpt>
      <trkpt lat="44.08577" lon="5.97746">
        <ele>554</ele>
        <time>2020-12-17T12:06:46.000Z</time>
      </trkpt>
      <trkpt lat="44.08577" lon="5.97746">
        <ele>554.20001220703</ele>
        <time>2020-12-17T12:06:48.000Z</time>
      </trkpt>
      <trkpt lat="44.08576" lon="5.97743">
        <ele>555.20001220703</ele>
        <time>2020-12-17T12:06:53.000Z</time>
      </trkpt>
      <trkpt lat="44.08573" lon="5.97736">
        <ele>556</ele>
        <time>2020-12-17T12:06:58.000Z</time>
      </trkpt>
      <trkpt lat="44.08568" lon="5.97723">
        <ele>556.40002441406</ele>
        <time>2020-12-17T12:07:04.000Z</time>
      </trkpt>
      <trkpt lat="44.08566" lon="5.9772">
        <ele>556.59997558594</ele>
        <time>2020-12-17T12:07:05.000Z</time>
      </trkpt>
      <trkpt lat="44.08564" lon="5.97712">
        <ele>556.79998779297</ele>
        <time>2020-12-17T12:07:09.000Z</time>
      </trkpt>
      <trkpt lat="44.08557" lon="5.97698">
        <ele>557.59997558594</ele>
        <time>2020-12-17T12:07:15.000Z</time>
      </trkpt>
      <trkpt lat="44.08556" lon="5.97696">
        <ele>558.40002441406</ele>
        <time>2020-12-17T12:07:19.000Z</time>
      </trkpt>
      <trkpt lat="44.08556" lon="5.97696">
        <ele>558.79998779297</ele>
        <time>2020-12-17T12:07:21.000Z</time>
      </trkpt>
      <trkpt lat="44.08554" lon="5.97691">
        <ele>559.59997558594</ele>
        <time>2020-12-17T12:07:26.000Z</time>
      </trkpt>
      <trkpt lat="44.08549" lon="5.9768">
        <ele>559.59997558594</ele>
        <time>2020-12-17T12:07:32.000Z</time>
      </trkpt>
      <trkpt lat="44.08544" lon="5.97671">
        <ele>559.79998779297</ele>
        <time>2020-12-17T12:07:35.000Z</time>
      </trkpt>
      <trkpt lat="44.08541" lon="5.97666">
        <ele>560.40002441406</ele>
        <time>2020-12-17T12:07:37.000Z</time>
      </trkpt>
      <trkpt lat="44.08534" lon="5.97658">
        <ele>561</ele>
        <time>2020-12-17T12:07:40.000Z</time>
      </trkpt>
      <trkpt lat="44.08529" lon="5.97648">
        <ele>561.59997558594</ele>
        <time>2020-12-17T12:07:43.000Z</time>
      </trkpt>
      <trkpt lat="44.08526" lon="5.97641">
        <ele>562.40002441406</ele>
        <time>2020-12-17T12:07:45.000Z</time>
      </trkpt>
      <trkpt lat="44.08521" lon="5.97625">
        <ele>563.40002441406</ele>
        <time>2020-12-17T12:07:49.000Z</time>
      </trkpt>
      <trkpt lat="44.08519" lon="5.97615">
        <ele>564.59997558594</ele>
        <time>2020-12-17T12:07:51.000Z</time>
      </trkpt>
      <trkpt lat="44.08515" lon="5.97597">
        <ele>565.59997558594</ele>
        <time>2020-12-17T12:07:55.000Z</time>
      </trkpt>
      <trkpt lat="44.08515" lon="5.97593">
        <ele>566</ele>
        <time>2020-12-17T12:07:56.000Z</time>
      </trkpt>
      <trkpt lat="44.08514" lon="5.97582">
        <ele>566.79998779297</ele>
        <time>2020-12-17T12:08:00.000Z</time>
      </trkpt>
      <trkpt lat="44.08514" lon="5.97558">
        <ele>567.79998779297</ele>
        <time>2020-12-17T12:08:05.000Z</time>
      </trkpt>
      <trkpt lat="44.08514" lon="5.97553">
        <ele>568</ele>
        <time>2020-12-17T12:08:06.000Z</time>
      </trkpt>
      <trkpt lat="44.08515" lon="5.97547">
        <ele>568.20001220703</ele>
        <time>2020-12-17T12:08:07.000Z</time>
      </trkpt>
      <trkpt lat="44.0852" lon="5.97525">
        <ele>568.40002441406</ele>
        <time>2020-12-17T12:08:10.000Z</time>
      </trkpt>
      <trkpt lat="44.08526" lon="5.97508">
        <ele>568.59997558594</ele>
        <time>2020-12-17T12:08:12.000Z</time>
      </trkpt>
      <trkpt lat="44.08536" lon="5.97483">
        <ele>568.59997558594</ele>
        <time>2020-12-17T12:08:15.000Z</time>
      </trkpt>
      <trkpt lat="44.08547" lon="5.97446">
        <ele>567</ele>
        <time>2020-12-17T12:08:20.000Z</time>
      </trkpt>
      <trkpt lat="44.08549" lon="5.9744">
        <ele>566.20001220703</ele>
        <time>2020-12-17T12:08:21.000Z</time>
      </trkpt>
      <trkpt lat="44.0856" lon="5.97412">
        <ele>565.79998779297</ele>
        <time>2020-12-17T12:08:26.000Z</time>
      </trkpt>
      <trkpt lat="44.08567" lon="5.97397">
        <ele>565.79998779297</ele>
        <time>2020-12-17T12:08:29.000Z</time>
      </trkpt>
      <trkpt lat="44.08575" lon="5.97377">
        <ele>565.79998779297</ele>
        <time>2020-12-17T12:08:32.000Z</time>
      </trkpt>
      <trkpt lat="44.08576" lon="5.9735">
        <ele>565.79998779297</ele>
        <time>2020-12-17T12:08:36.000Z</time>
      </trkpt>
      <trkpt lat="44.08575" lon="5.97344">
        <ele>565.79998779297</ele>
        <time>2020-12-17T12:08:37.000Z</time>
      </trkpt>
      <trkpt lat="44.08573" lon="5.97338">
        <ele>565.79998779297</ele>
        <time>2020-12-17T12:08:38.000Z</time>
      </trkpt>
      <trkpt lat="44.08568" lon="5.97318">
        <ele>566</ele>
        <time>2020-12-17T12:08:41.000Z</time>
      </trkpt>
      <trkpt lat="44.08565" lon="5.97277">
        <ele>565.59997558594</ele>
        <time>2020-12-17T12:08:46.000Z</time>
      </trkpt>
      <trkpt lat="44.08568" lon="5.97249">
        <ele>565.40002441406</ele>
        <time>2020-12-17T12:08:49.000Z</time>
      </trkpt>
      <trkpt lat="44.08572" lon="5.97231">
        <ele>565.20001220703</ele>
        <time>2020-12-17T12:08:51.000Z</time>
      </trkpt>
      <trkpt lat="44.0858" lon="5.97207">
        <ele>563.79998779297</ele>
        <time>2020-12-17T12:08:54.000Z</time>
      </trkpt>
      <trkpt lat="44.08582" lon="5.97199">
        <ele>563.40002441406</ele>
        <time>2020-12-17T12:08:55.000Z</time>
      </trkpt>
      <trkpt lat="44.08585" lon="5.97181">
        <ele>562.79998779297</ele>
        <time>2020-12-17T12:08:57.000Z</time>
      </trkpt>
      <trkpt lat="44.08586" lon="5.97171">
        <ele>562.40002441406</ele>
        <time>2020-12-17T12:08:58.000Z</time>
      </trkpt>
      <trkpt lat="44.08592" lon="5.9714">
        <ele>561.59997558594</ele>
        <time>2020-12-17T12:09:02.000Z</time>
      </trkpt>
      <trkpt lat="44.08599" lon="5.9711">
        <ele>561</ele>
        <time>2020-12-17T12:09:05.000Z</time>
      </trkpt>
      <trkpt lat="44.08603" lon="5.971">
        <ele>560.59997558594</ele>
        <time>2020-12-17T12:09:06.000Z</time>
      </trkpt>
      <trkpt lat="44.08607" lon="5.97091">
        <ele>560.20001220703</ele>
        <time>2020-12-17T12:09:07.000Z</time>
      </trkpt>
      <trkpt lat="44.08611" lon="5.97082">
        <ele>559.40002441406</ele>
        <time>2020-12-17T12:09:08.000Z</time>
      </trkpt>
      <trkpt lat="44.08627" lon="5.97061">
        <ele>558.20001220703</ele>
        <time>2020-12-17T12:09:11.000Z</time>
      </trkpt>
      <trkpt lat="44.08643" lon="5.97043">
        <ele>557</ele>
        <time>2020-12-17T12:09:14.000Z</time>
      </trkpt>
      <trkpt lat="44.08667" lon="5.97021">
        <ele>555.79998779297</ele>
        <time>2020-12-17T12:09:17.000Z</time>
      </trkpt>
      <trkpt lat="44.08683" lon="5.97008">
        <ele>554.40002441406</ele>
        <time>2020-12-17T12:09:21.000Z</time>
      </trkpt>
      <trkpt lat="44.08693" lon="5.97001">
        <ele>554</ele>
        <time>2020-12-17T12:09:23.000Z</time>
      </trkpt>
      <trkpt lat="44.08707" lon="5.96989">
        <ele>553.40002441406</ele>
        <time>2020-12-17T12:09:26.000Z</time>
      </trkpt>
      <trkpt lat="44.08729" lon="5.96971">
        <ele>552.59997558594</ele>
        <time>2020-12-17T12:09:31.000Z</time>
      </trkpt>
      <trkpt lat="44.08746" lon="5.96955">
        <ele>552.40002441406</ele>
        <time>2020-12-17T12:09:34.000Z</time>
      </trkpt>
      <trkpt lat="44.08757" lon="5.96938">
        <ele>552.20001220703</ele>
        <time>2020-12-17T12:09:37.000Z</time>
      </trkpt>
      <trkpt lat="44.08765" lon="5.96924">
        <ele>552</ele>
        <time>2020-12-17T12:09:39.000Z</time>
      </trkpt>
      <trkpt lat="44.08777" lon="5.96912">
        <ele>551.59997558594</ele>
        <time>2020-12-17T12:09:41.000Z</time>
      </trkpt>
      <trkpt lat="44.08787" lon="5.96896">
        <ele>551.20001220703</ele>
        <time>2020-12-17T12:09:43.000Z</time>
      </trkpt>
      <trkpt lat="44.08791" lon="5.96888">
        <ele>551</ele>
        <time>2020-12-17T12:09:44.000Z</time>
      </trkpt>
      <trkpt lat="44.08808" lon="5.96876">
        <ele>549.59997558594</ele>
        <time>2020-12-17T12:09:47.000Z</time>
      </trkpt>
      <trkpt lat="44.08821" lon="5.96877">
        <ele>547.79998779297</ele>
        <time>2020-12-17T12:09:49.000Z</time>
      </trkpt>
      <trkpt lat="44.08828" lon="5.96876">
        <ele>546.59997558594</ele>
        <time>2020-12-17T12:09:50.000Z</time>
      </trkpt>
      <trkpt lat="44.08834" lon="5.96872">
        <ele>545.79998779297</ele>
        <time>2020-12-17T12:09:51.000Z</time>
      </trkpt>
      <trkpt lat="44.08839" lon="5.96865">
        <ele>545.20001220703</ele>
        <time>2020-12-17T12:09:52.000Z</time>
      </trkpt>
      <trkpt lat="44.08851" lon="5.96852">
        <ele>543.79998779297</ele>
        <time>2020-12-17T12:09:54.000Z</time>
      </trkpt>
      <trkpt lat="44.08858" lon="5.96849">
        <ele>543</ele>
        <time>2020-12-17T12:09:55.000Z</time>
      </trkpt>
      <trkpt lat="44.08866" lon="5.96848">
        <ele>542.40002441406</ele>
        <time>2020-12-17T12:09:56.000Z</time>
      </trkpt>
      <trkpt lat="44.08881" lon="5.96852">
        <ele>541.79998779297</ele>
        <time>2020-12-17T12:09:58.000Z</time>
      </trkpt>
      <trkpt lat="44.08893" lon="5.96846">
        <ele>541.40002441406</ele>
        <time>2020-12-17T12:10:00.000Z</time>
      </trkpt>
      <trkpt lat="44.08896" lon="5.96839">
        <ele>540.79998779297</ele>
        <time>2020-12-17T12:10:01.000Z</time>
      </trkpt>
      <trkpt lat="44.08897" lon="5.96831">
        <ele>540.20001220703</ele>
        <time>2020-12-17T12:10:02.000Z</time>
      </trkpt>
      <trkpt lat="44.08896" lon="5.96825">
        <ele>539.20001220703</ele>
        <time>2020-12-17T12:10:03.000Z</time>
      </trkpt>
      <trkpt lat="44.08894" lon="5.96819">
        <ele>537.59997558594</ele>
        <time>2020-12-17T12:10:04.000Z</time>
      </trkpt>
      <trkpt lat="44.08891" lon="5.96813">
        <ele>536.59997558594</ele>
        <time>2020-12-17T12:10:05.000Z</time>
      </trkpt>
      <trkpt lat="44.08889" lon="5.96808">
        <ele>536.20001220703</ele>
        <time>2020-12-17T12:10:06.000Z</time>
      </trkpt>
      <trkpt lat="44.08883" lon="5.96794">
        <ele>535.79998779297</ele>
        <time>2020-12-17T12:10:10.000Z</time>
      </trkpt>
      <trkpt lat="44.08882" lon="5.96794">
        <ele>536.20001220703</ele>
        <time>2020-12-17T12:10:16.000Z</time>
      </trkpt>
      <trkpt lat="44.08882" lon="5.96794">
        <ele>537.40002441406</ele>
        <time>2020-12-17T12:10:19.000Z</time>
      </trkpt>
      <trkpt lat="44.08882" lon="5.96793">
        <ele>538</ele>
        <time>2020-12-17T12:10:27.000Z</time>
      </trkpt>
      <trkpt lat="44.08882" lon="5.96779">
        <ele>538</ele>
        <time>2020-12-17T12:10:33.000Z</time>
      </trkpt>
      <trkpt lat="44.08883" lon="5.96776">
        <ele>538</ele>
        <time>2020-12-17T12:10:34.000Z</time>
      </trkpt>
      <trkpt lat="44.08887" lon="5.9677">
        <ele>538.20001220703</ele>
        <time>2020-12-17T12:10:38.000Z</time>
      </trkpt>
      <trkpt lat="44.08896" lon="5.96761">
        <ele>538.59997558594</ele>
        <time>2020-12-17T12:10:44.000Z</time>
      </trkpt>
      <trkpt lat="44.08898" lon="5.9676">
        <ele>538.79998779297</ele>
        <time>2020-12-17T12:10:45.000Z</time>
      </trkpt>
      <trkpt lat="44.08909" lon="5.96753">
        <ele>539.79998779297</ele>
        <time>2020-12-17T12:10:50.000Z</time>
      </trkpt>
      <trkpt lat="44.08912" lon="5.96752">
        <ele>539.79998779297</ele>
        <time>2020-12-17T12:10:51.000Z</time>
      </trkpt>
      <trkpt lat="44.0892" lon="5.96748">
        <ele>540.59997558594</ele>
        <time>2020-12-17T12:10:56.000Z</time>
      </trkpt>
      <trkpt lat="44.0892" lon="5.96748">
        <ele>541.20001220703</ele>
        <time>2020-12-17T12:10:59.000Z</time>
      </trkpt>
      <trkpt lat="44.08923" lon="5.96747">
        <ele>542.20001220703</ele>
        <time>2020-12-17T12:11:04.000Z</time>
      </trkpt>
      <trkpt lat="44.0894" lon="5.96744">
        <ele>542.59997558594</ele>
        <time>2020-12-17T12:11:10.000Z</time>
      </trkpt>
      <trkpt lat="44.0896" lon="5.96742">
        <ele>543</ele>
        <time>2020-12-17T12:11:17.000Z</time>
      </trkpt>
      <trkpt lat="44.08965" lon="5.96741">
        <ele>543.59997558594</ele>
        <time>2020-12-17T12:11:19.000Z</time>
      </trkpt>
      <trkpt lat="44.08979" lon="5.96733">
        <ele>544.79998779297</ele>
        <time>2020-12-17T12:11:24.000Z</time>
      </trkpt>
      <trkpt lat="44.08991" lon="5.96726">
        <ele>545.79998779297</ele>
        <time>2020-12-17T12:11:28.000Z</time>
      </trkpt>
      <trkpt lat="44.09" lon="5.96722">
        <ele>546.59997558594</ele>
        <time>2020-12-17T12:11:31.000Z</time>
      </trkpt>
      <trkpt lat="44.09003" lon="5.9672">
        <ele>547</ele>
        <time>2020-12-17T12:11:32.000Z</time>
      </trkpt>
      <trkpt lat="44.09017" lon="5.96712">
        <ele>547.79998779297</ele>
        <time>2020-12-17T12:11:37.000Z</time>
      </trkpt>
      <trkpt lat="44.09029" lon="5.96696">
        <ele>548</ele>
        <time>2020-12-17T12:11:43.000Z</time>
      </trkpt>
      <trkpt lat="44.09038" lon="5.96685">
        <ele>548.20001220703</ele>
        <time>2020-12-17T12:11:48.000Z</time>
      </trkpt>
      <trkpt lat="44.09045" lon="5.96675">
        <ele>548.40002441406</ele>
        <time>2020-12-17T12:11:52.000Z</time>
      </trkpt>
      <trkpt lat="44.09051" lon="5.96657">
        <ele>549.20001220703</ele>
        <time>2020-12-17T12:11:58.000Z</time>
      </trkpt>
      <trkpt lat="44.09056" lon="5.96648">
        <ele>550.20001220703</ele>
        <time>2020-12-17T12:12:02.000Z</time>
      </trkpt>
      <trkpt lat="44.09058" lon="5.96646">
        <ele>550.59997558594</ele>
        <time>2020-12-17T12:12:03.000Z</time>
      </trkpt>
      <trkpt lat="44.09064" lon="5.96643">
        <ele>551.40002441406</ele>
        <time>2020-12-17T12:12:06.000Z</time>
      </trkpt>
      <trkpt lat="44.09068" lon="5.96642">
        <ele>552.20001220703</ele>
        <time>2020-12-17T12:12:08.000Z</time>
      </trkpt>
      <trkpt lat="44.09073" lon="5.96641">
        <ele>553</ele>
        <time>2020-12-17T12:12:10.000Z</time>
      </trkpt>
      <trkpt lat="44.09083" lon="5.96638">
        <ele>553.59997558594</ele>
        <time>2020-12-17T12:12:13.000Z</time>
      </trkpt>
      <trkpt lat="44.0909" lon="5.96637">
        <ele>554</ele>
        <time>2020-12-17T12:12:15.000Z</time>
      </trkpt>
      <trkpt lat="44.09103" lon="5.96638">
        <ele>554.20001220703</ele>
        <time>2020-12-17T12:12:19.000Z</time>
      </trkpt>
      <trkpt lat="44.09123" lon="5.96642">
        <ele>554.59997558594</ele>
        <time>2020-12-17T12:12:25.000Z</time>
      </trkpt>
      <trkpt lat="44.09141" lon="5.96634">
        <ele>555</ele>
        <time>2020-12-17T12:12:31.000Z</time>
      </trkpt>
      <trkpt lat="44.09154" lon="5.9662">
        <ele>555.20001220703</ele>
        <time>2020-12-17T12:12:36.000Z</time>
      </trkpt>
      <trkpt lat="44.09159" lon="5.96596">
        <ele>555.20001220703</ele>
        <time>2020-12-17T12:12:40.000Z</time>
      </trkpt>
      <trkpt lat="44.09153" lon="5.96578">
        <ele>555.20001220703</ele>
        <time>2020-12-17T12:12:43.000Z</time>
      </trkpt>
      <trkpt lat="44.09144" lon="5.96572">
        <ele>554.79998779297</ele>
        <time>2020-12-17T12:12:45.000Z</time>
      </trkpt>
      <trkpt lat="44.09135" lon="5.96569">
        <ele>554</ele>
        <time>2020-12-17T12:12:47.000Z</time>
      </trkpt>
      <trkpt lat="44.09114" lon="5.96561">
        <ele>553.59997558594</ele>
        <time>2020-12-17T12:12:53.000Z</time>
      </trkpt>
      <trkpt lat="44.09102" lon="5.9656">
        <ele>553.79998779297</ele>
        <time>2020-12-17T12:12:58.000Z</time>
      </trkpt>
      <trkpt lat="44.09088" lon="5.96557">
        <ele>555</ele>
        <time>2020-12-17T12:13:02.000Z</time>
      </trkpt>
      <trkpt lat="44.0908" lon="5.96554">
        <ele>555.59997558594</ele>
        <time>2020-12-17T12:13:04.000Z</time>
      </trkpt>
      <trkpt lat="44.09058" lon="5.96548">
        <ele>556</ele>
        <time>2020-12-17T12:13:09.000Z</time>
      </trkpt>
      <trkpt lat="44.0905" lon="5.96545">
        <ele>556</ele>
        <time>2020-12-17T12:13:11.000Z</time>
      </trkpt>
      <trkpt lat="44.09046" lon="5.96543">
        <ele>556.20001220703</ele>
        <time>2020-12-17T12:13:12.000Z</time>
      </trkpt>
      <trkpt lat="44.09028" lon="5.96537">
        <ele>556.79998779297</ele>
        <time>2020-12-17T12:13:17.000Z</time>
      </trkpt>
      <trkpt lat="44.09017" lon="5.96535">
        <ele>557.20001220703</ele>
        <time>2020-12-17T12:13:20.000Z</time>
      </trkpt>
      <trkpt lat="44.0901" lon="5.96533">
        <ele>557.40002441406</ele>
        <time>2020-12-17T12:13:22.000Z</time>
      </trkpt>
      <trkpt lat="44.09008" lon="5.96531">
        <ele>557.59997558594</ele>
        <time>2020-12-17T12:13:23.000Z</time>
      </trkpt>
      <trkpt lat="44.0901" lon="5.96516">
        <ele>558</ele>
        <time>2020-12-17T12:13:27.000Z</time>
      </trkpt>
      <trkpt lat="44.09012" lon="5.96507">
        <ele>558.40002441406</ele>
        <time>2020-12-17T12:13:30.000Z</time>
      </trkpt>
      <trkpt lat="44.09012" lon="5.96505">
        <ele>558.59997558594</ele>
        <time>2020-12-17T12:13:31.000Z</time>
      </trkpt>
      <trkpt lat="44.09012" lon="5.96505">
        <ele>559.40002441406</ele>
        <time>2020-12-17T12:13:35.000Z</time>
      </trkpt>
      <trkpt lat="44.09013" lon="5.96505">
        <ele>560.20001220703</ele>
        <time>2020-12-17T12:13:38.000Z</time>
      </trkpt>
      <trkpt lat="44.09013" lon="5.96505">
        <ele>560.59997558594</ele>
        <time>2020-12-17T12:13:39.000Z</time>
      </trkpt>
      <trkpt lat="44.09013" lon="5.96497">
        <ele>561.20001220703</ele>
        <time>2020-12-17T12:13:44.000Z</time>
      </trkpt>
      <trkpt lat="44.09015" lon="5.96481">
        <ele>561.40002441406</ele>
        <time>2020-12-17T12:13:51.000Z</time>
      </trkpt>
      <trkpt lat="44.09015" lon="5.96477">
        <ele>561.59997558594</ele>
        <time>2020-12-17T12:13:53.000Z</time>
      </trkpt>
      <trkpt lat="44.09016" lon="5.96473">
        <ele>562.79998779297</ele>
        <time>2020-12-17T12:13:57.000Z</time>
      </trkpt>
      <trkpt lat="44.09016" lon="5.96473">
        <ele>564</ele>
        <time>2020-12-17T12:14:02.000Z</time>
      </trkpt>
      <trkpt lat="44.09015" lon="5.96473">
        <ele>564.20001220703</ele>
        <time>2020-12-17T12:14:03.000Z</time>
      </trkpt>
      <trkpt lat="44.09015" lon="5.96474">
        <ele>564.59997558594</ele>
        <time>2020-12-17T12:14:11.000Z</time>
      </trkpt>
      <trkpt lat="44.09015" lon="5.96474">
        <ele>563.79998779297</ele>
        <time>2020-12-17T12:14:32.000Z</time>
      </trkpt>
      <trkpt lat="44.09015" lon="5.96474">
        <ele>563.79998779297</ele>
        <time>2020-12-17T12:15:10.000Z</time>
      </trkpt>
      <trkpt lat="44.09015" lon="5.96474">
        <ele>563.79998779297</ele>
        <time>2020-12-17T12:15:44.000Z</time>
      </trkpt>
      <trkpt lat="44.09015" lon="5.96474">
        <ele>564</ele>
        <time>2020-12-17T12:16:35.000Z</time>
      </trkpt>
      <trkpt lat="44.09015" lon="5.96474">
        <ele>564</ele>
        <time>2020-12-17T12:17:23.000Z</time>
      </trkpt>
      <trkpt lat="44.09015" lon="5.96474">
        <ele>564</ele>
        <time>2020-12-17T12:17:54.000Z</time>
      </trkpt>
      <trkpt lat="44.09015" lon="5.96474">
        <ele>564</ele>
        <time>2020-12-17T12:18:10.000Z</time>
      </trkpt>
      <trkpt lat="44.09014" lon="5.96474">
        <ele>564</ele>
        <time>2020-12-17T12:18:17.000Z</time>
      </trkpt>
      <trkpt lat="44.09013" lon="5.96472">
        <ele>564.20001220703</ele>
        <time>2020-12-17T12:18:19.000Z</time>
      </trkpt>
      <trkpt lat="44.09011" lon="5.96467">
        <ele>564.59997558594</ele>
        <time>2020-12-17T12:18:21.000Z</time>
      </trkpt>
      <trkpt lat="44.09015" lon="5.96456">
        <ele>564.79998779297</ele>
        <time>2020-12-17T12:18:25.000Z</time>
      </trkpt>
      <trkpt lat="44.09016" lon="5.96453">
        <ele>564.79998779297</ele>
        <time>2020-12-17T12:18:26.000Z</time>
      </trkpt>
      <trkpt lat="44.09019" lon="5.96442">
        <ele>565</ele>
        <time>2020-12-17T12:18:30.000Z</time>
      </trkpt>
      <trkpt lat="44.09019" lon="5.96438">
        <ele>565.20001220703</ele>
        <time>2020-12-17T12:18:31.000Z</time>
      </trkpt>
      <trkpt lat="44.09016" lon="5.96422">
        <ele>566.20001220703</ele>
        <time>2020-12-17T12:18:36.000Z</time>
      </trkpt>
      <trkpt lat="44.09016" lon="5.96418">
        <ele>566.59997558594</ele>
        <time>2020-12-17T12:18:37.000Z</time>
      </trkpt>
      <trkpt lat="44.09014" lon="5.96412">
        <ele>567.40002441406</ele>
        <time>2020-12-17T12:18:39.000Z</time>
      </trkpt>
      <trkpt lat="44.0901" lon="5.96402">
        <ele>568.59997558594</ele>
        <time>2020-12-17T12:18:42.000Z</time>
      </trkpt>
      <trkpt lat="44.09008" lon="5.96396">
        <ele>569.40002441406</ele>
        <time>2020-12-17T12:18:44.000Z</time>
      </trkpt>
      <trkpt lat="44.09007" lon="5.96393">
        <ele>570</ele>
        <time>2020-12-17T12:18:45.000Z</time>
      </trkpt>
      <trkpt lat="44.09006" lon="5.96383">
        <ele>571</ele>
        <time>2020-12-17T12:18:48.000Z</time>
      </trkpt>
      <trkpt lat="44.09007" lon="5.96377">
        <ele>571.59997558594</ele>
        <time>2020-12-17T12:18:50.000Z</time>
      </trkpt>
      <trkpt lat="44.09008" lon="5.96371">
        <ele>572.20001220703</ele>
        <time>2020-12-17T12:18:52.000Z</time>
      </trkpt>
      <trkpt lat="44.09011" lon="5.96361">
        <ele>573.20001220703</ele>
        <time>2020-12-17T12:18:55.000Z</time>
      </trkpt>
      <trkpt lat="44.09013" lon="5.96355">
        <ele>573.79998779297</ele>
        <time>2020-12-17T12:18:57.000Z</time>
      </trkpt>
      <trkpt lat="44.09016" lon="5.9635">
        <ele>574.40002441406</ele>
        <time>2020-12-17T12:18:59.000Z</time>
      </trkpt>
      <trkpt lat="44.09021" lon="5.96345">
        <ele>575.40002441406</ele>
        <time>2020-12-17T12:19:02.000Z</time>
      </trkpt>
      <trkpt lat="44.09022" lon="5.96344">
        <ele>575.79998779297</ele>
        <time>2020-12-17T12:19:03.000Z</time>
      </trkpt>
      <trkpt lat="44.09026" lon="5.96342">
        <ele>576.40002441406</ele>
        <time>2020-12-17T12:19:05.000Z</time>
      </trkpt>
      <trkpt lat="44.0903" lon="5.96341">
        <ele>577.79998779297</ele>
        <time>2020-12-17T12:19:08.000Z</time>
      </trkpt>
      <trkpt lat="44.09033" lon="5.96341">
        <ele>578.40002441406</ele>
        <time>2020-12-17T12:19:10.000Z</time>
      </trkpt>
      <trkpt lat="44.09034" lon="5.9634">
        <ele>579.20001220703</ele>
        <time>2020-12-17T12:19:12.000Z</time>
      </trkpt>
      <trkpt lat="44.09034" lon="5.9634">
        <ele>580.59997558594</ele>
        <time>2020-12-17T12:19:15.000Z</time>
      </trkpt>
      <trkpt lat="44.09034" lon="5.9634">
        <ele>581.79998779297</ele>
        <time>2020-12-17T12:19:19.000Z</time>
      </trkpt>
      <trkpt lat="44.09034" lon="5.9634">
        <ele>582.20001220703</ele>
        <time>2020-12-17T12:19:24.000Z</time>
      </trkpt>
      <trkpt lat="44.09034" lon="5.9634">
        <ele>582.40002441406</ele>
        <time>2020-12-17T12:19:51.000Z</time>
      </trkpt>
      <trkpt lat="44.09034" lon="5.96341">
        <ele>582.40002441406</ele>
        <time>2020-12-17T12:20:03.000Z</time>
      </trkpt>
      <trkpt lat="44.09034" lon="5.96341">
        <ele>582.40002441406</ele>
        <time>2020-12-17T12:20:11.000Z</time>
      </trkpt>
      <trkpt lat="44.09034" lon="5.9634">
        <ele>582.40002441406</ele>
        <time>2020-12-17T12:20:16.000Z</time>
      </trkpt>
      <trkpt lat="44.09034" lon="5.9634">
        <ele>582.40002441406</ele>
        <time>2020-12-17T12:20:23.000Z</time>
      </trkpt>
      <trkpt lat="44.09034" lon="5.96339">
        <ele>582.40002441406</ele>
        <time>2020-12-17T12:20:28.000Z</time>
      </trkpt>
      <trkpt lat="44.09033" lon="5.96337">
        <ele>582.40002441406</ele>
        <time>2020-12-17T12:20:30.000Z</time>
      </trkpt>
      <trkpt lat="44.09035" lon="5.96326">
        <ele>582.40002441406</ele>
        <time>2020-12-17T12:20:36.000Z</time>
      </trkpt>
      <trkpt lat="44.09042" lon="5.96312">
        <ele>582.59997558594</ele>
        <time>2020-12-17T12:20:41.000Z</time>
      </trkpt>
      <trkpt lat="44.09046" lon="5.96301">
        <ele>583.20001220703</ele>
        <time>2020-12-17T12:20:45.000Z</time>
      </trkpt>
      <trkpt lat="44.09047" lon="5.96299">
        <ele>583.79998779297</ele>
        <time>2020-12-17T12:20:49.000Z</time>
      </trkpt>
      <trkpt lat="44.09047" lon="5.963">
        <ele>584.40002441406</ele>
        <time>2020-12-17T12:20:51.000Z</time>
      </trkpt>
      <trkpt lat="44.09047" lon="5.96298">
        <ele>585.20001220703</ele>
        <time>2020-12-17T12:20:53.000Z</time>
      </trkpt>
      <trkpt lat="44.09048" lon="5.96296">
        <ele>585.59997558594</ele>
        <time>2020-12-17T12:20:54.000Z</time>
      </trkpt>
      <trkpt lat="44.0905" lon="5.96294">
        <ele>586</ele>
        <time>2020-12-17T12:20:55.000Z</time>
      </trkpt>
      <trkpt lat="44.09059" lon="5.96287">
        <ele>586.40002441406</ele>
        <time>2020-12-17T12:21:00.000Z</time>
      </trkpt>
      <trkpt lat="44.09071" lon="5.9628">
        <ele>586.79998779297</ele>
        <time>2020-12-17T12:21:07.000Z</time>
      </trkpt>
      <trkpt lat="44.09078" lon="5.96278">
        <ele>588</ele>
        <time>2020-12-17T12:21:10.000Z</time>
      </trkpt>
      <trkpt lat="44.09084" lon="5.96277">
        <ele>589.40002441406</ele>
        <time>2020-12-17T12:21:13.000Z</time>
      </trkpt>
      <trkpt lat="44.09086" lon="5.96277">
        <ele>589.59997558594</ele>
        <time>2020-12-17T12:21:14.000Z</time>
      </trkpt>
      <trkpt lat="44.09089" lon="5.96275">
        <ele>590.40002441406</ele>
        <time>2020-12-17T12:21:16.000Z</time>
      </trkpt>
      <trkpt lat="44.09095" lon="5.96273">
        <ele>591.59997558594</ele>
        <time>2020-12-17T12:21:19.000Z</time>
      </trkpt>
      <trkpt lat="44.09097" lon="5.96274">
        <ele>592</ele>
        <time>2020-12-17T12:21:20.000Z</time>
      </trkpt>
      <trkpt lat="44.09101" lon="5.96275">
        <ele>592.79998779297</ele>
        <time>2020-12-17T12:21:22.000Z</time>
      </trkpt>
      <trkpt lat="44.09106" lon="5.96274">
        <ele>594</ele>
        <time>2020-12-17T12:21:25.000Z</time>
      </trkpt>
      <trkpt lat="44.09114" lon="5.96273">
        <ele>595.20001220703</ele>
        <time>2020-12-17T12:21:29.000Z</time>
      </trkpt>
      <trkpt lat="44.09118" lon="5.96273">
        <ele>595.79998779297</ele>
        <time>2020-12-17T12:21:31.000Z</time>
      </trkpt>
      <trkpt lat="44.09122" lon="5.96273">
        <ele>596.59997558594</ele>
        <time>2020-12-17T12:21:33.000Z</time>
      </trkpt>
      <trkpt lat="44.09131" lon="5.9627">
        <ele>597.79998779297</ele>
        <time>2020-12-17T12:21:37.000Z</time>
      </trkpt>
      <trkpt lat="44.09139" lon="5.96269">
        <ele>599.20001220703</ele>
        <time>2020-12-17T12:21:40.000Z</time>
      </trkpt>
      <trkpt lat="44.09145" lon="5.96268">
        <ele>599.79998779297</ele>
        <time>2020-12-17T12:21:42.000Z</time>
      </trkpt>
      <trkpt lat="44.09155" lon="5.96264">
        <ele>600.20001220703</ele>
        <time>2020-12-17T12:21:45.000Z</time>
      </trkpt>
      <trkpt lat="44.09161" lon="5.96263">
        <ele>600.40002441406</ele>
        <time>2020-12-17T12:21:47.000Z</time>
      </trkpt>
      <trkpt lat="44.09174" lon="5.9626">
        <ele>601.40002441406</ele>
        <time>2020-12-17T12:21:51.000Z</time>
      </trkpt>
      <trkpt lat="44.09183" lon="5.96257">
        <ele>601.59997558594</ele>
        <time>2020-12-17T12:21:54.000Z</time>
      </trkpt>
      <trkpt lat="44.09198" lon="5.96259">
        <ele>602.20001220703</ele>
        <time>2020-12-17T12:21:59.000Z</time>
      </trkpt>
      <trkpt lat="44.09208" lon="5.96259">
        <ele>602.40002441406</ele>
        <time>2020-12-17T12:22:02.000Z</time>
      </trkpt>
      <trkpt lat="44.09219" lon="5.96257">
        <ele>603.40002441406</ele>
        <time>2020-12-17T12:22:05.000Z</time>
      </trkpt>
      <trkpt lat="44.09221" lon="5.96255">
        <ele>603.59997558594</ele>
        <time>2020-12-17T12:22:06.000Z</time>
      </trkpt>
      <trkpt lat="44.09232" lon="5.96251">
        <ele>604.79998779297</ele>
        <time>2020-12-17T12:22:10.000Z</time>
      </trkpt>
      <trkpt lat="44.09241" lon="5.96251">
        <ele>605.79998779297</ele>
        <time>2020-12-17T12:22:13.000Z</time>
      </trkpt>
      <trkpt lat="44.09252" lon="5.9625">
        <ele>606.40002441406</ele>
        <time>2020-12-17T12:22:17.000Z</time>
      </trkpt>
      <trkpt lat="44.09265" lon="5.96245">
        <ele>607.20001220703</ele>
        <time>2020-12-17T12:22:22.000Z</time>
      </trkpt>
      <trkpt lat="44.09271" lon="5.96243">
        <ele>607.59997558594</ele>
        <time>2020-12-17T12:22:24.000Z</time>
      </trkpt>
      <trkpt lat="44.09288" lon="5.96239">
        <ele>608.20001220703</ele>
        <time>2020-12-17T12:22:30.000Z</time>
      </trkpt>
      <trkpt lat="44.09291" lon="5.96239">
        <ele>608.40002441406</ele>
        <time>2020-12-17T12:22:31.000Z</time>
      </trkpt>
      <trkpt lat="44.09308" lon="5.96235">
        <ele>609</ele>
        <time>2020-12-17T12:22:37.000Z</time>
      </trkpt>
      <trkpt lat="44.0931" lon="5.96234">
        <ele>609.40002441406</ele>
        <time>2020-12-17T12:22:38.000Z</time>
      </trkpt>
      <trkpt lat="44.09317" lon="5.96228">
        <ele>610.40002441406</ele>
        <time>2020-12-17T12:22:41.000Z</time>
      </trkpt>
      <trkpt lat="44.09319" lon="5.96227">
        <ele>610.79998779297</ele>
        <time>2020-12-17T12:22:42.000Z</time>
      </trkpt>
      <trkpt lat="44.09323" lon="5.96224">
        <ele>611.40002441406</ele>
        <time>2020-12-17T12:22:44.000Z</time>
      </trkpt>
      <trkpt lat="44.0933" lon="5.9622">
        <ele>612.59997558594</ele>
        <time>2020-12-17T12:22:47.000Z</time>
      </trkpt>
      <trkpt lat="44.09333" lon="5.96218">
        <ele>613</ele>
        <time>2020-12-17T12:22:48.000Z</time>
      </trkpt>
      <trkpt lat="44.09338" lon="5.96217">
        <ele>613.79998779297</ele>
        <time>2020-12-17T12:22:50.000Z</time>
      </trkpt>
      <trkpt lat="44.09344" lon="5.96218">
        <ele>614.40002441406</ele>
        <time>2020-12-17T12:22:52.000Z</time>
      </trkpt>
      <trkpt lat="44.0935" lon="5.96221">
        <ele>615</ele>
        <time>2020-12-17T12:22:54.000Z</time>
      </trkpt>
      <trkpt lat="44.09355" lon="5.96224">
        <ele>615.59997558594</ele>
        <time>2020-12-17T12:22:56.000Z</time>
      </trkpt>
      <trkpt lat="44.0936" lon="5.96226">
        <ele>616.20001220703</ele>
        <time>2020-12-17T12:22:58.000Z</time>
      </trkpt>
      <trkpt lat="44.09367" lon="5.96226">
        <ele>617.20001220703</ele>
        <time>2020-12-17T12:23:01.000Z</time>
      </trkpt>
      <trkpt lat="44.0938" lon="5.96225">
        <ele>617.79998779297</ele>
        <time>2020-12-17T12:23:06.000Z</time>
      </trkpt>
      <trkpt lat="44.09389" lon="5.96222">
        <ele>618.20001220703</ele>
        <time>2020-12-17T12:23:09.000Z</time>
      </trkpt>
      <trkpt lat="44.09398" lon="5.96216">
        <ele>618.40002441406</ele>
        <time>2020-12-17T12:23:12.000Z</time>
      </trkpt>
      <trkpt lat="44.0942" lon="5.962">
        <ele>619</ele>
        <time>2020-12-17T12:23:19.000Z</time>
      </trkpt>
      <trkpt lat="44.09432" lon="5.9619">
        <ele>619.20001220703</ele>
        <time>2020-12-17T12:23:22.000Z</time>
      </trkpt>
      <trkpt lat="44.09437" lon="5.96187">
        <ele>619.20001220703</ele>
        <time>2020-12-17T12:23:23.000Z</time>
      </trkpt>
      <trkpt lat="44.09465" lon="5.96164">
        <ele>619.20001220703</ele>
        <time>2020-12-17T12:23:28.000Z</time>
      </trkpt>
      <trkpt lat="44.0949" lon="5.96154">
        <ele>617.59997558594</ele>
        <time>2020-12-17T12:23:32.000Z</time>
      </trkpt>
      <trkpt lat="44.09494" lon="5.9615">
        <ele>617</ele>
        <time>2020-12-17T12:23:33.000Z</time>
      </trkpt>
      <trkpt lat="44.09501" lon="5.9614">
        <ele>615.59997558594</ele>
        <time>2020-12-17T12:23:35.000Z</time>
      </trkpt>
      <trkpt lat="44.09502" lon="5.96136">
        <ele>614.79998779297</ele>
        <time>2020-12-17T12:23:36.000Z</time>
      </trkpt>
      <trkpt lat="44.09504" lon="5.96134">
        <ele>614.40002441406</ele>
        <time>2020-12-17T12:23:37.000Z</time>
      </trkpt>
      <trkpt lat="44.09504" lon="5.96133">
        <ele>614.20001220703</ele>
        <time>2020-12-17T12:23:38.000Z</time>
      </trkpt>
      <trkpt lat="44.09507" lon="5.96129">
        <ele>614</ele>
        <time>2020-12-17T12:23:42.000Z</time>
      </trkpt>
      <trkpt lat="44.09506" lon="5.96121">
        <ele>615.20001220703</ele>
        <time>2020-12-17T12:23:46.000Z</time>
      </trkpt>
      <trkpt lat="44.09507" lon="5.96118">
        <ele>615.79998779297</ele>
        <time>2020-12-17T12:23:47.000Z</time>
      </trkpt>
      <trkpt lat="44.09509" lon="5.96107">
        <ele>616.79998779297</ele>
        <time>2020-12-17T12:23:51.000Z</time>
      </trkpt>
      <trkpt lat="44.0951" lon="5.96105">
        <ele>617.20001220703</ele>
        <time>2020-12-17T12:23:52.000Z</time>
      </trkpt>
      <trkpt lat="44.09512" lon="5.96093">
        <ele>618</ele>
        <time>2020-12-17T12:23:56.000Z</time>
      </trkpt>
      <trkpt lat="44.09513" lon="5.9609">
        <ele>618.40002441406</ele>
        <time>2020-12-17T12:23:57.000Z</time>
      </trkpt>
      <trkpt lat="44.09515" lon="5.96088">
        <ele>618.59997558594</ele>
        <time>2020-12-17T12:23:58.000Z</time>
      </trkpt>
      <trkpt lat="44.09518" lon="5.96084">
        <ele>619.40002441406</ele>
        <time>2020-12-17T12:24:00.000Z</time>
      </trkpt>
      <trkpt lat="44.09523" lon="5.96079">
        <ele>620.79998779297</ele>
        <time>2020-12-17T12:24:03.000Z</time>
      </trkpt>
      <trkpt lat="44.09526" lon="5.96077">
        <ele>621</ele>
        <time>2020-12-17T12:24:04.000Z</time>
      </trkpt>
      <trkpt lat="44.09528" lon="5.96075">
        <ele>621.20001220703</ele>
        <time>2020-12-17T12:24:05.000Z</time>
      </trkpt>
      <trkpt lat="44.09529" lon="5.9607">
        <ele>622</ele>
        <time>2020-12-17T12:24:07.000Z</time>
      </trkpt>
      <trkpt lat="44.09534" lon="5.96065">
        <ele>623.40002441406</ele>
        <time>2020-12-17T12:24:10.000Z</time>
      </trkpt>
      <trkpt lat="44.09536" lon="5.96064">
        <ele>623.59997558594</ele>
        <time>2020-12-17T12:24:11.000Z</time>
      </trkpt>
      <trkpt lat="44.0954" lon="5.9606">
        <ele>624.59997558594</ele>
        <time>2020-12-17T12:24:13.000Z</time>
      </trkpt>
      <trkpt lat="44.09542" lon="5.96059">
        <ele>624.79998779297</ele>
        <time>2020-12-17T12:24:14.000Z</time>
      </trkpt>
      <trkpt lat="44.09546" lon="5.96054">
        <ele>625.40002441406</ele>
        <time>2020-12-17T12:24:16.000Z</time>
      </trkpt>
      <trkpt lat="44.09549" lon="5.96051">
        <ele>625.59997558594</ele>
        <time>2020-12-17T12:24:17.000Z</time>
      </trkpt>
      <trkpt lat="44.09551" lon="5.9605">
        <ele>626</ele>
        <time>2020-12-17T12:24:18.000Z</time>
      </trkpt>
      <trkpt lat="44.09557" lon="5.96049">
        <ele>626.20001220703</ele>
        <time>2020-12-17T12:24:20.000Z</time>
      </trkpt>
      <trkpt lat="44.09566" lon="5.96041">
        <ele>626.59997558594</ele>
        <time>2020-12-17T12:24:23.000Z</time>
      </trkpt>
      <trkpt lat="44.09574" lon="5.96033">
        <ele>626.79998779297</ele>
        <time>2020-12-17T12:24:27.000Z</time>
      </trkpt>
      <trkpt lat="44.09578" lon="5.96028">
        <ele>627</ele>
        <time>2020-12-17T12:24:29.000Z</time>
      </trkpt>
      <trkpt lat="44.09591" lon="5.96012">
        <ele>627.59997558594</ele>
        <time>2020-12-17T12:24:36.000Z</time>
      </trkpt>
      <trkpt lat="44.09595" lon="5.96005">
        <ele>628</ele>
        <time>2020-12-17T12:24:39.000Z</time>
      </trkpt>
      <trkpt lat="44.09604" lon="5.95993">
        <ele>628.79998779297</ele>
        <time>2020-12-17T12:24:44.000Z</time>
      </trkpt>
      <trkpt lat="44.09606" lon="5.95991">
        <ele>629.20001220703</ele>
        <time>2020-12-17T12:24:45.000Z</time>
      </trkpt>
      <trkpt lat="44.09612" lon="5.95986">
        <ele>630.40002441406</ele>
        <time>2020-12-17T12:24:48.000Z</time>
      </trkpt>
      <trkpt lat="44.09616" lon="5.95984">
        <ele>631.20001220703</ele>
        <time>2020-12-17T12:24:50.000Z</time>
      </trkpt>
      <trkpt lat="44.09622" lon="5.95983">
        <ele>631.59997558594</ele>
        <time>2020-12-17T12:24:52.000Z</time>
      </trkpt>
      <trkpt lat="44.09633" lon="5.95981">
        <ele>632</ele>
        <time>2020-12-17T12:24:55.000Z</time>
      </trkpt>
      <trkpt lat="44.0965" lon="5.95976">
        <ele>632.20001220703</ele>
        <time>2020-12-17T12:24:59.000Z</time>
      </trkpt>
      <trkpt lat="44.09676" lon="5.95978">
        <ele>631.40002441406</ele>
        <time>2020-12-17T12:25:06.000Z</time>
      </trkpt>
      <trkpt lat="44.09686" lon="5.95978">
        <ele>630.79998779297</ele>
        <time>2020-12-17T12:25:09.000Z</time>
      </trkpt>
      <trkpt lat="44.09695" lon="5.95977">
        <ele>630.59997558594</ele>
        <time>2020-12-17T12:25:12.000Z</time>
      </trkpt>
      <trkpt lat="44.09712" lon="5.95976">
        <ele>630.40002441406</ele>
        <time>2020-12-17T12:25:18.000Z</time>
      </trkpt>
      <trkpt lat="44.09729" lon="5.95972">
        <ele>630.79998779297</ele>
        <time>2020-12-17T12:25:24.000Z</time>
      </trkpt>
      <trkpt lat="44.09747" lon="5.95965">
        <ele>631.59997558594</ele>
        <time>2020-12-17T12:25:30.000Z</time>
      </trkpt>
      <trkpt lat="44.0976" lon="5.95959">
        <ele>632</ele>
        <time>2020-12-17T12:25:34.000Z</time>
      </trkpt>
      <trkpt lat="44.09762" lon="5.95956">
        <ele>632.20001220703</ele>
        <time>2020-12-17T12:25:35.000Z</time>
      </trkpt>
      <trkpt lat="44.09769" lon="5.95948">
        <ele>632.20001220703</ele>
        <time>2020-12-17T12:25:37.000Z</time>
      </trkpt>
      <trkpt lat="44.09773" lon="5.95946">
        <ele>632.20001220703</ele>
        <time>2020-12-17T12:25:38.000Z</time>
      </trkpt>
      <trkpt lat="44.09782" lon="5.95944">
        <ele>632.20001220703</ele>
        <time>2020-12-17T12:25:40.000Z</time>
      </trkpt>
      <trkpt lat="44.09796" lon="5.95945">
        <ele>632.20001220703</ele>
        <time>2020-12-17T12:25:43.000Z</time>
      </trkpt>
      <trkpt lat="44.09818" lon="5.95948">
        <ele>631.79998779297</ele>
        <time>2020-12-17T12:25:49.000Z</time>
      </trkpt>
      <trkpt lat="44.09822" lon="5.95947">
        <ele>631.79998779297</ele>
        <time>2020-12-17T12:25:50.000Z</time>
      </trkpt>
      <trkpt lat="44.09828" lon="5.95942">
        <ele>631.59997558594</ele>
        <time>2020-12-17T12:25:52.000Z</time>
      </trkpt>
      <trkpt lat="44.09836" lon="5.95942">
        <ele>631.59997558594</ele>
        <time>2020-12-17T12:25:55.000Z</time>
      </trkpt>
      <trkpt lat="44.09845" lon="5.9594">
        <ele>631.59997558594</ele>
        <time>2020-12-17T12:25:58.000Z</time>
      </trkpt>
      <trkpt lat="44.09848" lon="5.95938">
        <ele>631.59997558594</ele>
        <time>2020-12-17T12:25:59.000Z</time>
      </trkpt>
      <trkpt lat="44.09871" lon="5.95921">
        <ele>632</ele>
        <time>2020-12-17T12:26:07.000Z</time>
      </trkpt>
      <trkpt lat="44.09886" lon="5.95906">
        <ele>633.20001220703</ele>
        <time>2020-12-17T12:26:13.000Z</time>
      </trkpt>
      <trkpt lat="44.09895" lon="5.95903">
        <ele>633.59997558594</ele>
        <time>2020-12-17T12:26:16.000Z</time>
      </trkpt>
      <trkpt lat="44.09902" lon="5.95902">
        <ele>634.20001220703</ele>
        <time>2020-12-17T12:26:18.000Z</time>
      </trkpt>
      <trkpt lat="44.09909" lon="5.959">
        <ele>634.59997558594</ele>
        <time>2020-12-17T12:26:20.000Z</time>
      </trkpt>
      <trkpt lat="44.09917" lon="5.95897">
        <ele>635.20001220703</ele>
        <time>2020-12-17T12:26:23.000Z</time>
      </trkpt>
      <trkpt lat="44.09926" lon="5.95889">
        <ele>635.59997558594</ele>
        <time>2020-12-17T12:26:27.000Z</time>
      </trkpt>
      <trkpt lat="44.0993" lon="5.95884">
        <ele>636</ele>
        <time>2020-12-17T12:26:29.000Z</time>
      </trkpt>
      <trkpt lat="44.09936" lon="5.95879">
        <ele>636.79998779297</ele>
        <time>2020-12-17T12:26:32.000Z</time>
      </trkpt>
      <trkpt lat="44.09941" lon="5.95875">
        <ele>637.40002441406</ele>
        <time>2020-12-17T12:26:34.000Z</time>
      </trkpt>
      <trkpt lat="44.09943" lon="5.95873">
        <ele>637.79998779297</ele>
        <time>2020-12-17T12:26:35.000Z</time>
      </trkpt>
      <trkpt lat="44.09957" lon="5.95868">
        <ele>638.40002441406</ele>
        <time>2020-12-17T12:26:41.000Z</time>
      </trkpt>
      <trkpt lat="44.09964" lon="5.95866">
        <ele>639</ele>
        <time>2020-12-17T12:26:44.000Z</time>
      </trkpt>
      <trkpt lat="44.09973" lon="5.95863">
        <ele>639.79998779297</ele>
        <time>2020-12-17T12:26:48.000Z</time>
      </trkpt>
      <trkpt lat="44.09975" lon="5.95862">
        <ele>640.40002441406</ele>
        <time>2020-12-17T12:26:49.000Z</time>
      </trkpt>
      <trkpt lat="44.09979" lon="5.95859">
        <ele>641.40002441406</ele>
        <time>2020-12-17T12:26:51.000Z</time>
      </trkpt>
      <trkpt lat="44.09983" lon="5.95851">
        <ele>642.40002441406</ele>
        <time>2020-12-17T12:26:54.000Z</time>
      </trkpt>
      <trkpt lat="44.09984" lon="5.95849">
        <ele>642.79998779297</ele>
        <time>2020-12-17T12:26:55.000Z</time>
      </trkpt>
      <trkpt lat="44.09988" lon="5.95846">
        <ele>643.59997558594</ele>
        <time>2020-12-17T12:26:57.000Z</time>
      </trkpt>
      <trkpt lat="44.09992" lon="5.95843">
        <ele>644.40002441406</ele>
        <time>2020-12-17T12:26:59.000Z</time>
      </trkpt>
      <trkpt lat="44.09993" lon="5.95841">
        <ele>644.79998779297</ele>
        <time>2020-12-17T12:27:00.000Z</time>
      </trkpt>
      <trkpt lat="44.09999" lon="5.95836">
        <ele>645.79998779297</ele>
        <time>2020-12-17T12:27:03.000Z</time>
      </trkpt>
      <trkpt lat="44.10007" lon="5.95829">
        <ele>647</ele>
        <time>2020-12-17T12:27:07.000Z</time>
      </trkpt>
      <trkpt lat="44.10011" lon="5.95826">
        <ele>647.40002441406</ele>
        <time>2020-12-17T12:27:09.000Z</time>
      </trkpt>
      <trkpt lat="44.10017" lon="5.9582">
        <ele>648</ele>
        <time>2020-12-17T12:27:12.000Z</time>
      </trkpt>
      <trkpt lat="44.10023" lon="5.9581">
        <ele>648.59997558594</ele>
        <time>2020-12-17T12:27:16.000Z</time>
      </trkpt>
      <trkpt lat="44.10026" lon="5.95806">
        <ele>649</ele>
        <time>2020-12-17T12:27:18.000Z</time>
      </trkpt>
      <trkpt lat="44.10032" lon="5.95792">
        <ele>650</ele>
        <time>2020-12-17T12:27:22.000Z</time>
      </trkpt>
      <trkpt lat="44.10033" lon="5.95788">
        <ele>650.40002441406</ele>
        <time>2020-12-17T12:27:23.000Z</time>
      </trkpt>
      <trkpt lat="44.10034" lon="5.95769">
        <ele>651</ele>
        <time>2020-12-17T12:27:27.000Z</time>
      </trkpt>
      <trkpt lat="44.10035" lon="5.95747">
        <ele>651.20001220703</ele>
        <time>2020-12-17T12:27:32.000Z</time>
      </trkpt>
      <trkpt lat="44.10036" lon="5.95739">
        <ele>651.40002441406</ele>
        <time>2020-12-17T12:27:34.000Z</time>
      </trkpt>
      <trkpt lat="44.10039" lon="5.95722">
        <ele>651.40002441406</ele>
        <time>2020-12-17T12:27:39.000Z</time>
      </trkpt>
      <trkpt lat="44.1004" lon="5.95704">
        <ele>652.40002441406</ele>
        <time>2020-12-17T12:27:44.000Z</time>
      </trkpt>
      <trkpt lat="44.1004" lon="5.95698">
        <ele>653</ele>
        <time>2020-12-17T12:27:46.000Z</time>
      </trkpt>
      <trkpt lat="44.10039" lon="5.95694">
        <ele>653.40002441406</ele>
        <time>2020-12-17T12:27:47.000Z</time>
      </trkpt>
      <trkpt lat="44.10036" lon="5.95684">
        <ele>654.79998779297</ele>
        <time>2020-12-17T12:27:50.000Z</time>
      </trkpt>
      <trkpt lat="44.10033" lon="5.95676">
        <ele>655.59997558594</ele>
        <time>2020-12-17T12:27:52.000Z</time>
      </trkpt>
      <trkpt lat="44.10031" lon="5.95672">
        <ele>656</ele>
        <time>2020-12-17T12:27:53.000Z</time>
      </trkpt>
      <trkpt lat="44.10026" lon="5.95663">
        <ele>657</ele>
        <time>2020-12-17T12:27:56.000Z</time>
      </trkpt>
      <trkpt lat="44.10019" lon="5.95656">
        <ele>658</ele>
        <time>2020-12-17T12:27:59.000Z</time>
      </trkpt>
      <trkpt lat="44.10017" lon="5.95649">
        <ele>658.20001220703</ele>
        <time>2020-12-17T12:28:01.000Z</time>
      </trkpt>
      <trkpt lat="44.10017" lon="5.95646">
        <ele>658.40002441406</ele>
        <time>2020-12-17T12:28:02.000Z</time>
      </trkpt>
      <trkpt lat="44.10018" lon="5.95643">
        <ele>659</ele>
        <time>2020-12-17T12:28:03.000Z</time>
      </trkpt>
      <trkpt lat="44.10023" lon="5.95628">
        <ele>660</ele>
        <time>2020-12-17T12:28:08.000Z</time>
      </trkpt>
      <trkpt lat="44.10023" lon="5.95624">
        <ele>660</ele>
        <time>2020-12-17T12:28:09.000Z</time>
      </trkpt>
      <trkpt lat="44.10027" lon="5.95617">
        <ele>660.79998779297</ele>
        <time>2020-12-17T12:28:12.000Z</time>
      </trkpt>
      <trkpt lat="44.1003" lon="5.95612">
        <ele>661.79998779297</ele>
        <time>2020-12-17T12:28:14.000Z</time>
      </trkpt>
      <trkpt lat="44.10033" lon="5.95606">
        <ele>662.79998779297</ele>
        <time>2020-12-17T12:28:16.000Z</time>
      </trkpt>
      <trkpt lat="44.10035" lon="5.95603">
        <ele>663</ele>
        <time>2020-12-17T12:28:17.000Z</time>
      </trkpt>
      <trkpt lat="44.1004" lon="5.95595">
        <ele>663.79998779297</ele>
        <time>2020-12-17T12:28:20.000Z</time>
      </trkpt>
      <trkpt lat="44.10045" lon="5.95586">
        <ele>665.20001220703</ele>
        <time>2020-12-17T12:28:23.000Z</time>
      </trkpt>
      <trkpt lat="44.10053" lon="5.95584">
        <ele>666.40002441406</ele>
        <time>2020-12-17T12:28:26.000Z</time>
      </trkpt>
      <trkpt lat="44.10058" lon="5.95582">
        <ele>666.79998779297</ele>
        <time>2020-12-17T12:28:28.000Z</time>
      </trkpt>
      <trkpt lat="44.10067" lon="5.95579">
        <ele>667.59997558594</ele>
        <time>2020-12-17T12:28:31.000Z</time>
      </trkpt>
      <trkpt lat="44.10078" lon="5.95574">
        <ele>668.40002441406</ele>
        <time>2020-12-17T12:28:35.000Z</time>
      </trkpt>
      <trkpt lat="44.10083" lon="5.95571">
        <ele>668.59997558594</ele>
        <time>2020-12-17T12:28:37.000Z</time>
      </trkpt>
      <trkpt lat="44.101" lon="5.95562">
        <ele>669.79998779297</ele>
        <time>2020-12-17T12:28:43.000Z</time>
      </trkpt>
      <trkpt lat="44.10114" lon="5.9555">
        <ele>670.79998779297</ele>
        <time>2020-12-17T12:28:48.000Z</time>
      </trkpt>
      <trkpt lat="44.10117" lon="5.95548">
        <ele>671</ele>
        <time>2020-12-17T12:28:49.000Z</time>
      </trkpt>
      <trkpt lat="44.10127" lon="5.95543">
        <ele>671.79998779297</ele>
        <time>2020-12-17T12:28:52.000Z</time>
      </trkpt>
      <trkpt lat="44.1013" lon="5.95539">
        <ele>671.79998779297</ele>
        <time>2020-12-17T12:28:53.000Z</time>
      </trkpt>
      <trkpt lat="44.10133" lon="5.95536">
        <ele>671.79998779297</ele>
        <time>2020-12-17T12:28:54.000Z</time>
      </trkpt>
      <trkpt lat="44.1014" lon="5.9553">
        <ele>672</ele>
        <time>2020-12-17T12:28:57.000Z</time>
      </trkpt>
      <trkpt lat="44.1015" lon="5.9552">
        <ele>672.20001220703</ele>
        <time>2020-12-17T12:29:02.000Z</time>
      </trkpt>
      <trkpt lat="44.10153" lon="5.95518">
        <ele>672.40002441406</ele>
        <time>2020-12-17T12:29:04.000Z</time>
      </trkpt>
      <trkpt lat="44.10155" lon="5.95519">
        <ele>672.40002441406</ele>
        <time>2020-12-17T12:29:06.000Z</time>
      </trkpt>
      <trkpt lat="44.10155" lon="5.95519">
        <ele>672.59997558594</ele>
        <time>2020-12-17T12:29:13.000Z</time>
      </trkpt>
      <trkpt lat="44.1095" lon="5.96012">
        <ele>618</ele>
        <time>2020-12-17T12:45:14.000Z</time>
      </trkpt>
      <trkpt lat="44.10959" lon="5.96006">
        <ele>618</ele>
        <time>2020-12-17T12:45:19.000Z</time>
      </trkpt>
      <trkpt lat="44.10971" lon="5.96013">
        <ele>617.40002441406</ele>
        <time>2020-12-17T12:45:24.000Z</time>
      </trkpt>
      <trkpt lat="44.10974" lon="5.96018">
        <ele>616.59997558594</ele>
        <time>2020-12-17T12:45:26.000Z</time>
      </trkpt>
      <trkpt lat="44.10981" lon="5.96028">
        <ele>617.59997558594</ele>
        <time>2020-12-17T12:45:29.000Z</time>
      </trkpt>
      <trkpt lat="44.10998" lon="5.96034">
        <ele>617.59997558594</ele>
        <time>2020-12-17T12:45:32.000Z</time>
      </trkpt>
      <trkpt lat="44.1101" lon="5.9604">
        <ele>617</ele>
        <time>2020-12-17T12:45:34.000Z</time>
      </trkpt>
      <trkpt lat="44.11016" lon="5.96044">
        <ele>616</ele>
        <time>2020-12-17T12:45:35.000Z</time>
      </trkpt>
      <trkpt lat="44.11022" lon="5.96046">
        <ele>615.40002441406</ele>
        <time>2020-12-17T12:45:36.000Z</time>
      </trkpt>
      <trkpt lat="44.11029" lon="5.96047">
        <ele>614.40002441406</ele>
        <time>2020-12-17T12:45:37.000Z</time>
      </trkpt>
      <trkpt lat="44.11035" lon="5.96048">
        <ele>613.40002441406</ele>
        <time>2020-12-17T12:45:38.000Z</time>
      </trkpt>
      <trkpt lat="44.11044" lon="5.96047">
        <ele>611.79998779297</ele>
        <time>2020-12-17T12:45:40.000Z</time>
      </trkpt>
      <trkpt lat="44.11048" lon="5.96044">
        <ele>610.59997558594</ele>
        <time>2020-12-17T12:45:42.000Z</time>
      </trkpt>
      <trkpt lat="44.11052" lon="5.96043">
        <ele>610.20001220703</ele>
        <time>2020-12-17T12:45:44.000Z</time>
      </trkpt>
      <trkpt lat="44.11056" lon="5.96044">
        <ele>610</ele>
        <time>2020-12-17T12:45:46.000Z</time>
      </trkpt>
      <trkpt lat="44.11061" lon="5.9605">
        <ele>610</ele>
        <time>2020-12-17T12:45:49.000Z</time>
      </trkpt>
      <trkpt lat="44.11063" lon="5.96054">
        <ele>609.79998779297</ele>
        <time>2020-12-17T12:45:50.000Z</time>
      </trkpt>
      <trkpt lat="44.11063" lon="5.96063">
        <ele>609.79998779297</ele>
        <time>2020-12-17T12:45:52.000Z</time>
      </trkpt>
      <trkpt lat="44.11064" lon="5.96078">
        <ele>609.59997558594</ele>
        <time>2020-12-17T12:45:56.000Z</time>
      </trkpt>
      <trkpt lat="44.11075" lon="5.96094">
        <ele>609.59997558594</ele>
        <time>2020-12-17T12:45:59.000Z</time>
      </trkpt>
      <trkpt lat="44.11095" lon="5.96108">
        <ele>609.59997558594</ele>
        <time>2020-12-17T12:46:02.000Z</time>
      </trkpt>
      <trkpt lat="44.11102" lon="5.96112">
        <ele>609.40002441406</ele>
        <time>2020-12-17T12:46:03.000Z</time>
      </trkpt>
      <trkpt lat="44.11109" lon="5.96116">
        <ele>608.20001220703</ele>
        <time>2020-12-17T12:46:04.000Z</time>
      </trkpt>
      <trkpt lat="44.11122" lon="5.96124">
        <ele>606.59997558594</ele>
        <time>2020-12-17T12:46:06.000Z</time>
      </trkpt>
      <trkpt lat="44.11133" lon="5.96131">
        <ele>604.40002441406</ele>
        <time>2020-12-17T12:46:08.000Z</time>
      </trkpt>
      <trkpt lat="44.11139" lon="5.96134">
        <ele>603.20001220703</ele>
        <time>2020-12-17T12:46:09.000Z</time>
      </trkpt>
      <trkpt lat="44.11151" lon="5.9614">
        <ele>602.40002441406</ele>
        <time>2020-12-17T12:46:11.000Z</time>
      </trkpt>
      <trkpt lat="44.11157" lon="5.96144">
        <ele>602</ele>
        <time>2020-12-17T12:46:12.000Z</time>
      </trkpt>
      <trkpt lat="44.11163" lon="5.96149">
        <ele>601.79998779297</ele>
        <time>2020-12-17T12:46:13.000Z</time>
      </trkpt>
      <trkpt lat="44.11185" lon="5.96166">
        <ele>600.79998779297</ele>
        <time>2020-12-17T12:46:17.000Z</time>
      </trkpt>
      <trkpt lat="44.11191" lon="5.96168">
        <ele>600.59997558594</ele>
        <time>2020-12-17T12:46:18.000Z</time>
      </trkpt>
      <trkpt lat="44.11202" lon="5.96171">
        <ele>599.59997558594</ele>
        <time>2020-12-17T12:46:20.000Z</time>
      </trkpt>
      <trkpt lat="44.11207" lon="5.96172">
        <ele>599</ele>
        <time>2020-12-17T12:46:21.000Z</time>
      </trkpt>
      <trkpt lat="44.11213" lon="5.96174">
        <ele>598.40002441406</ele>
        <time>2020-12-17T12:46:22.000Z</time>
      </trkpt>
      <trkpt lat="44.11227" lon="5.96177">
        <ele>597.40002441406</ele>
        <time>2020-12-17T12:46:25.000Z</time>
      </trkpt>
      <trkpt lat="44.11229" lon="5.9618">
        <ele>597</ele>
        <time>2020-12-17T12:46:26.000Z</time>
      </trkpt>
      <trkpt lat="44.11233" lon="5.96186">
        <ele>596.40002441406</ele>
        <time>2020-12-17T12:46:28.000Z</time>
      </trkpt>
      <trkpt lat="44.1124" lon="5.96188">
        <ele>595.79998779297</ele>
        <time>2020-12-17T12:46:30.000Z</time>
      </trkpt>
      <trkpt lat="44.1125" lon="5.96194">
        <ele>595.40002441406</ele>
        <time>2020-12-17T12:46:33.000Z</time>
      </trkpt>
      <trkpt lat="44.11252" lon="5.96198">
        <ele>595.20001220703</ele>
        <time>2020-12-17T12:46:34.000Z</time>
      </trkpt>
      <trkpt lat="44.11262" lon="5.96205">
        <ele>594</ele>
        <time>2020-12-17T12:46:37.000Z</time>
      </trkpt>
      <trkpt lat="44.11264" lon="5.96208">
        <ele>593.40002441406</ele>
        <time>2020-12-17T12:46:38.000Z</time>
      </trkpt>
      <trkpt lat="44.11266" lon="5.96211">
        <ele>592.79998779297</ele>
        <time>2020-12-17T12:46:39.000Z</time>
      </trkpt>
      <trkpt lat="44.1127" lon="5.96218">
        <ele>591.59997558594</ele>
        <time>2020-12-17T12:46:41.000Z</time>
      </trkpt>
      <trkpt lat="44.1127" lon="5.96223">
        <ele>591.20001220703</ele>
        <time>2020-12-17T12:46:42.000Z</time>
      </trkpt>
      <trkpt lat="44.1127" lon="5.96228">
        <ele>590.59997558594</ele>
        <time>2020-12-17T12:46:43.000Z</time>
      </trkpt>
      <trkpt lat="44.11266" lon="5.96235">
        <ele>589.59997558594</ele>
        <time>2020-12-17T12:46:45.000Z</time>
      </trkpt>
      <trkpt lat="44.11262" lon="5.96238">
        <ele>589.40002441406</ele>
        <time>2020-12-17T12:46:46.000Z</time>
      </trkpt>
      <trkpt lat="44.11258" lon="5.96249">
        <ele>588.59997558594</ele>
        <time>2020-12-17T12:46:48.000Z</time>
      </trkpt>
      <trkpt lat="44.11259" lon="5.96256">
        <ele>588.20001220703</ele>
        <time>2020-12-17T12:46:49.000Z</time>
      </trkpt>
      <trkpt lat="44.11263" lon="5.96263">
        <ele>587.59997558594</ele>
        <time>2020-12-17T12:46:50.000Z</time>
      </trkpt>
      <trkpt lat="44.11268" lon="5.96268">
        <ele>587.20001220703</ele>
        <time>2020-12-17T12:46:51.000Z</time>
      </trkpt>
      <trkpt lat="44.11283" lon="5.96276">
        <ele>586</ele>
        <time>2020-12-17T12:46:53.000Z</time>
      </trkpt>
      <trkpt lat="44.11291" lon="5.96279">
        <ele>585.59997558594</ele>
        <time>2020-12-17T12:46:54.000Z</time>
      </trkpt>
      <trkpt lat="44.11298" lon="5.96281">
        <ele>585</ele>
        <time>2020-12-17T12:46:55.000Z</time>
      </trkpt>
      <trkpt lat="44.1131" lon="5.96282">
        <ele>583.40002441406</ele>
        <time>2020-12-17T12:46:57.000Z</time>
      </trkpt>
      <trkpt lat="44.11322" lon="5.96283">
        <ele>581.79998779297</ele>
        <time>2020-12-17T12:46:59.000Z</time>
      </trkpt>
      <trkpt lat="44.11328" lon="5.96282">
        <ele>580.20001220703</ele>
        <time>2020-12-17T12:47:00.000Z</time>
      </trkpt>
      <trkpt lat="44.11332" lon="5.96282">
        <ele>579.20001220703</ele>
        <time>2020-12-17T12:47:01.000Z</time>
      </trkpt>
      <trkpt lat="44.11338" lon="5.9628">
        <ele>577.59997558594</ele>
        <time>2020-12-17T12:47:03.000Z</time>
      </trkpt>
      <trkpt lat="44.11344" lon="5.96276">
        <ele>576.59997558594</ele>
        <time>2020-12-17T12:47:05.000Z</time>
      </trkpt>
      <trkpt lat="44.11348" lon="5.96275">
        <ele>575.79998779297</ele>
        <time>2020-12-17T12:47:06.000Z</time>
      </trkpt>
      <trkpt lat="44.11352" lon="5.96274">
        <ele>575</ele>
        <time>2020-12-17T12:47:07.000Z</time>
      </trkpt>
      <trkpt lat="44.1136" lon="5.96273">
        <ele>573.79998779297</ele>
        <time>2020-12-17T12:47:09.000Z</time>
      </trkpt>
      <trkpt lat="44.11364" lon="5.96272">
        <ele>573.40002441406</ele>
        <time>2020-12-17T12:47:10.000Z</time>
      </trkpt>
      <trkpt lat="44.11369" lon="5.96272">
        <ele>572.79998779297</ele>
        <time>2020-12-17T12:47:11.000Z</time>
      </trkpt>
      <trkpt lat="44.11378" lon="5.96272">
        <ele>572</ele>
        <time>2020-12-17T12:47:12.000Z</time>
      </trkpt>
      <trkpt lat="44.11378" lon="5.96272">
        <ele>571.20001220703</ele>
        <time>2020-12-17T12:47:13.000Z</time>
      </trkpt>
      <trkpt lat="44.11383" lon="5.96273">
        <ele>570.40002441406</ele>
        <time>2020-12-17T12:47:14.000Z</time>
      </trkpt>
      <trkpt lat="44.11386" lon="5.96273">
        <ele>569.40002441406</ele>
        <time>2020-12-17T12:47:15.000Z</time>
      </trkpt>
      <trkpt lat="44.11389" lon="5.96274">
        <ele>568</ele>
        <time>2020-12-17T12:47:16.000Z</time>
      </trkpt>
      <trkpt lat="44.1139" lon="5.96275">
        <ele>566.79998779297</ele>
        <time>2020-12-17T12:47:17.000Z</time>
      </trkpt>
      <trkpt lat="44.1139" lon="5.96275">
        <ele>565.59997558594</ele>
        <time>2020-12-17T12:47:18.000Z</time>
      </trkpt>
      <trkpt lat="44.1139" lon="5.96275">
        <ele>564.40002441406</ele>
        <time>2020-12-17T12:47:19.000Z</time>
      </trkpt>
      <trkpt lat="44.11391" lon="5.96275">
        <ele>562.40002441406</ele>
        <time>2020-12-17T12:47:21.000Z</time>
      </trkpt>
      <trkpt lat="44.11391" lon="5.96275">
        <ele>561.20001220703</ele>
        <time>2020-12-17T12:47:23.000Z</time>
      </trkpt>
      <trkpt lat="44.11392" lon="5.96278">
        <ele>560.20001220703</ele>
        <time>2020-12-17T12:47:32.000Z</time>
      </trkpt>
      <trkpt lat="44.11393" lon="5.96281">
        <ele>560</ele>
        <time>2020-12-17T12:47:35.000Z</time>
      </trkpt>
      <trkpt lat="44.11395" lon="5.96287">
        <ele>560</ele>
        <time>2020-12-17T12:47:37.000Z</time>
      </trkpt>
      <trkpt lat="44.11402" lon="5.963">
        <ele>560</ele>
        <time>2020-12-17T12:47:41.000Z</time>
      </trkpt>
      <trkpt lat="44.11405" lon="5.96303">
        <ele>560</ele>
        <time>2020-12-17T12:47:42.000Z</time>
      </trkpt>
      <trkpt lat="44.11409" lon="5.9631">
        <ele>559.59997558594</ele>
        <time>2020-12-17T12:47:44.000Z</time>
      </trkpt>
      <trkpt lat="44.11412" lon="5.9632">
        <ele>558.79998779297</ele>
        <time>2020-12-17T12:47:46.000Z</time>
      </trkpt>
      <trkpt lat="44.11425" lon="5.9633">
        <ele>557.79998779297</ele>
        <time>2020-12-17T12:47:49.000Z</time>
      </trkpt>
      <trkpt lat="44.11436" lon="5.96335">
        <ele>557</ele>
        <time>2020-12-17T12:47:51.000Z</time>
      </trkpt>
      <trkpt lat="44.11447" lon="5.96336">
        <ele>556.59997558594</ele>
        <time>2020-12-17T12:47:53.000Z</time>
      </trkpt>
      <trkpt lat="44.11455" lon="5.96341">
        <ele>556.20001220703</ele>
        <time>2020-12-17T12:47:55.000Z</time>
      </trkpt>
      <trkpt lat="44.11458" lon="5.96346">
        <ele>555.79998779297</ele>
        <time>2020-12-17T12:47:56.000Z</time>
      </trkpt>
      <trkpt lat="44.1146" lon="5.9635">
        <ele>555.20001220703</ele>
        <time>2020-12-17T12:47:57.000Z</time>
      </trkpt>
      <trkpt lat="44.11461" lon="5.96358">
        <ele>554</ele>
        <time>2020-12-17T12:47:59.000Z</time>
      </trkpt>
      <trkpt lat="44.1146" lon="5.96361">
        <ele>553.79998779297</ele>
        <time>2020-12-17T12:48:00.000Z</time>
      </trkpt>
      <trkpt lat="44.11453" lon="5.9637">
        <ele>552.79998779297</ele>
        <time>2020-12-17T12:48:03.000Z</time>
      </trkpt>
      <trkpt lat="44.11451" lon="5.96379">
        <ele>551</ele>
        <time>2020-12-17T12:48:05.000Z</time>
      </trkpt>
      <trkpt lat="44.11448" lon="5.96389">
        <ele>550.20001220703</ele>
        <time>2020-12-17T12:48:07.000Z</time>
      </trkpt>
      <trkpt lat="44.11446" lon="5.96395">
        <ele>549.79998779297</ele>
        <time>2020-12-17T12:48:08.000Z</time>
      </trkpt>
      <trkpt lat="44.11439" lon="5.9641">
        <ele>548.79998779297</ele>
        <time>2020-12-17T12:48:11.000Z</time>
      </trkpt>
      <trkpt lat="44.11438" lon="5.96416">
        <ele>548.40002441406</ele>
        <time>2020-12-17T12:48:12.000Z</time>
      </trkpt>
      <trkpt lat="44.11439" lon="5.96429">
        <ele>547.40002441406</ele>
        <time>2020-12-17T12:48:14.000Z</time>
      </trkpt>
      <trkpt lat="44.11441" lon="5.96438">
        <ele>546.20001220703</ele>
        <time>2020-12-17T12:48:16.000Z</time>
      </trkpt>
      <trkpt lat="44.1144" lon="5.96447">
        <ele>544.79998779297</ele>
        <time>2020-12-17T12:48:18.000Z</time>
      </trkpt>
      <trkpt lat="44.1144" lon="5.96451">
        <ele>544.40002441406</ele>
        <time>2020-12-17T12:48:19.000Z</time>
      </trkpt>
      <trkpt lat="44.1144" lon="5.9646">
        <ele>543.59997558594</ele>
        <time>2020-12-17T12:48:21.000Z</time>
      </trkpt>
      <trkpt lat="44.11441" lon="5.96463">
        <ele>543.40002441406</ele>
        <time>2020-12-17T12:48:22.000Z</time>
      </trkpt>
      <trkpt lat="44.11442" lon="5.96465">
        <ele>543.20001220703</ele>
        <time>2020-12-17T12:48:23.000Z</time>
      </trkpt>
      <trkpt lat="44.11449" lon="5.96473">
        <ele>542.79998779297</ele>
        <time>2020-12-17T12:48:26.000Z</time>
      </trkpt>
      <trkpt lat="44.11457" lon="5.96486">
        <ele>542.40002441406</ele>
        <time>2020-12-17T12:48:29.000Z</time>
      </trkpt>
      <trkpt lat="44.11459" lon="5.9649">
        <ele>542.40002441406</ele>
        <time>2020-12-17T12:48:30.000Z</time>
      </trkpt>
      <trkpt lat="44.11462" lon="5.96496">
        <ele>541.79998779297</ele>
        <time>2020-12-17T12:48:32.000Z</time>
      </trkpt>
      <trkpt lat="44.11465" lon="5.96498">
        <ele>541.20001220703</ele>
        <time>2020-12-17T12:48:33.000Z</time>
      </trkpt>
      <trkpt lat="44.1147" lon="5.96503">
        <ele>539.59997558594</ele>
        <time>2020-12-17T12:48:35.000Z</time>
      </trkpt>
      <trkpt lat="44.11482" lon="5.96513">
        <ele>538.59997558594</ele>
        <time>2020-12-17T12:48:39.000Z</time>
      </trkpt>
      <trkpt lat="44.11484" lon="5.96516">
        <ele>538.59997558594</ele>
        <time>2020-12-17T12:48:40.000Z</time>
      </trkpt>
      <trkpt lat="44.11487" lon="5.96521">
        <ele>538.59997558594</ele>
        <time>2020-12-17T12:48:41.000Z</time>
      </trkpt>
      <trkpt lat="44.11492" lon="5.96532">
        <ele>538</ele>
        <time>2020-12-17T12:48:43.000Z</time>
      </trkpt>
      <trkpt lat="44.11494" lon="5.96537">
        <ele>537.59997558594</ele>
        <time>2020-12-17T12:48:44.000Z</time>
      </trkpt>
      <trkpt lat="44.11495" lon="5.96541">
        <ele>536.79998779297</ele>
        <time>2020-12-17T12:48:45.000Z</time>
      </trkpt>
      <trkpt lat="44.11495" lon="5.96545">
        <ele>535.79998779297</ele>
        <time>2020-12-17T12:48:46.000Z</time>
      </trkpt>
      <trkpt lat="44.1149" lon="5.96553">
        <ele>534.20001220703</ele>
        <time>2020-12-17T12:48:48.000Z</time>
      </trkpt>
      <trkpt lat="44.11488" lon="5.96556">
        <ele>533.20001220703</ele>
        <time>2020-12-17T12:48:49.000Z</time>
      </trkpt>
      <trkpt lat="44.11485" lon="5.96559">
        <ele>532.20001220703</ele>
        <time>2020-12-17T12:48:50.000Z</time>
      </trkpt>
      <trkpt lat="44.11482" lon="5.96562">
        <ele>531.20001220703</ele>
        <time>2020-12-17T12:48:51.000Z</time>
      </trkpt>
      <trkpt lat="44.1148" lon="5.96565">
        <ele>530.20001220703</ele>
        <time>2020-12-17T12:48:52.000Z</time>
      </trkpt>
      <trkpt lat="44.11476" lon="5.96572">
        <ele>528.79998779297</ele>
        <time>2020-12-17T12:48:54.000Z</time>
      </trkpt>
      <trkpt lat="44.11474" lon="5.96576">
        <ele>527.59997558594</ele>
        <time>2020-12-17T12:48:55.000Z</time>
      </trkpt>
      <trkpt lat="44.11473" lon="5.96584">
        <ele>526.79998779297</ele>
        <time>2020-12-17T12:48:57.000Z</time>
      </trkpt>
      <trkpt lat="44.11471" lon="5.96587">
        <ele>526.59997558594</ele>
        <time>2020-12-17T12:48:58.000Z</time>
      </trkpt>
      <trkpt lat="44.1147" lon="5.96589">
        <ele>526.59997558594</ele>
        <time>2020-12-17T12:48:59.000Z</time>
      </trkpt>
      <trkpt lat="44.11468" lon="5.96602">
        <ele>526.20001220703</ele>
        <time>2020-12-17T12:49:03.000Z</time>
      </trkpt>
      <trkpt lat="44.11467" lon="5.96612">
        <ele>525.79998779297</ele>
        <time>2020-12-17T12:49:08.000Z</time>
      </trkpt>
      <trkpt lat="44.11464" lon="5.96623">
        <ele>525.40002441406</ele>
        <time>2020-12-17T12:49:11.000Z</time>
      </trkpt>
      <trkpt lat="44.11462" lon="5.96626">
        <ele>525.20001220703</ele>
        <time>2020-12-17T12:49:12.000Z</time>
      </trkpt>
      <trkpt lat="44.11452" lon="5.96652">
        <ele>525</ele>
        <time>2020-12-17T12:49:18.000Z</time>
      </trkpt>
      <trkpt lat="44.11443" lon="5.96674">
        <ele>523.79998779297</ele>
        <time>2020-12-17T12:49:23.000Z</time>
      </trkpt>
      <trkpt lat="44.11442" lon="5.96677">
        <ele>523.40002441406</ele>
        <time>2020-12-17T12:49:24.000Z</time>
      </trkpt>
      <trkpt lat="44.11436" lon="5.96694">
        <ele>522.79998779297</ele>
        <time>2020-12-17T12:49:28.000Z</time>
      </trkpt>
      <trkpt lat="44.11436" lon="5.96701">
        <ele>522.59997558594</ele>
        <time>2020-12-17T12:49:30.000Z</time>
      </trkpt>
      <trkpt lat="44.11434" lon="5.96714">
        <ele>522.59997558594</ele>
        <time>2020-12-17T12:49:33.000Z</time>
      </trkpt>
      <trkpt lat="44.11435" lon="5.96736">
        <ele>521.59997558594</ele>
        <time>2020-12-17T12:49:38.000Z</time>
      </trkpt>
      <trkpt lat="44.11437" lon="5.96741">
        <ele>521.40002441406</ele>
        <time>2020-12-17T12:49:40.000Z</time>
      </trkpt>
      <trkpt lat="44.11443" lon="5.96748">
        <ele>520.79998779297</ele>
        <time>2020-12-17T12:49:43.000Z</time>
      </trkpt>
      <trkpt lat="44.11443" lon="5.96754">
        <ele>520.40002441406</ele>
        <time>2020-12-17T12:49:46.000Z</time>
      </trkpt>
      <trkpt lat="44.11443" lon="5.96757">
        <ele>520</ele>
        <time>2020-12-17T12:49:47.000Z</time>
      </trkpt>
      <trkpt lat="44.11439" lon="5.96769">
        <ele>519.20001220703</ele>
        <time>2020-12-17T12:49:51.000Z</time>
      </trkpt>
      <trkpt lat="44.11437" lon="5.96772">
        <ele>519</ele>
        <time>2020-12-17T12:49:52.000Z</time>
      </trkpt>
      <trkpt lat="44.11432" lon="5.96786">
        <ele>518.59997558594</ele>
        <time>2020-12-17T12:49:56.000Z</time>
      </trkpt>
      <trkpt lat="44.11429" lon="5.96791">
        <ele>517.79998779297</ele>
        <time>2020-12-17T12:49:58.000Z</time>
      </trkpt>
      <trkpt lat="44.11426" lon="5.96804">
        <ele>516.79998779297</ele>
        <time>2020-12-17T12:50:03.000Z</time>
      </trkpt>
      <trkpt lat="44.11428" lon="5.96818">
        <ele>515.79998779297</ele>
        <time>2020-12-17T12:50:08.000Z</time>
      </trkpt>
      <trkpt lat="44.11428" lon="5.96833">
        <ele>514.79998779297</ele>
        <time>2020-12-17T12:50:13.000Z</time>
      </trkpt>
      <trkpt lat="44.11427" lon="5.96835">
        <ele>514.40002441406</ele>
        <time>2020-12-17T12:50:14.000Z</time>
      </trkpt>
      <trkpt lat="44.11427" lon="5.96839">
        <ele>513.79998779297</ele>
        <time>2020-12-17T12:50:18.000Z</time>
      </trkpt>
      <trkpt lat="44.11427" lon="5.96839">
        <ele>513.59997558594</ele>
        <time>2020-12-17T12:50:19.000Z</time>
      </trkpt>
      <trkpt lat="44.11427" lon="5.9684">
        <ele>513.40002441406</ele>
        <time>2020-12-17T12:50:21.000Z</time>
      </trkpt>
      <trkpt lat="44.11428" lon="5.96842">
        <ele>513</ele>
        <time>2020-12-17T12:50:25.000Z</time>
      </trkpt>
      <trkpt lat="44.1143" lon="5.96845">
        <ele>513</ele>
        <time>2020-12-17T12:50:27.000Z</time>
      </trkpt>
      <trkpt lat="44.11431" lon="5.96853">
        <ele>512.79998779297</ele>
        <time>2020-12-17T12:50:32.000Z</time>
      </trkpt>
      <trkpt lat="44.11431" lon="5.96856">
        <ele>512.59997558594</ele>
        <time>2020-12-17T12:50:33.000Z</time>
      </trkpt>
      <trkpt lat="44.11433" lon="5.96866">
        <ele>512</ele>
        <time>2020-12-17T12:50:36.000Z</time>
      </trkpt>
      <trkpt lat="44.11433" lon="5.96871">
        <ele>512</ele>
        <time>2020-12-17T12:50:37.000Z</time>
      </trkpt>
      <trkpt lat="44.11436" lon="5.96883">
        <ele>511.39999389648</ele>
        <time>2020-12-17T12:50:41.000Z</time>
      </trkpt>
      <trkpt lat="44.11439" lon="5.96886">
        <ele>511.20001220703</ele>
        <time>2020-12-17T12:50:44.000Z</time>
      </trkpt>
      <trkpt lat="44.11441" lon="5.96888">
        <ele>510.79998779297</ele>
        <time>2020-12-17T12:50:46.000Z</time>
      </trkpt>
      <trkpt lat="44.1145" lon="5.96899">
        <ele>510</ele>
        <time>2020-12-17T12:50:51.000Z</time>
      </trkpt>
      <trkpt lat="44.11454" lon="5.96907">
        <ele>509.79998779297</ele>
        <time>2020-12-17T12:50:53.000Z</time>
      </trkpt>
      <trkpt lat="44.11458" lon="5.96917">
        <ele>509.39999389648</ele>
        <time>2020-12-17T12:50:56.000Z</time>
      </trkpt>
      <trkpt lat="44.11461" lon="5.96919">
        <ele>508.60000610352</ele>
        <time>2020-12-17T12:51:00.000Z</time>
      </trkpt>
      <trkpt lat="44.11462" lon="5.96922">
        <ele>507.60000610352</ele>
        <time>2020-12-17T12:51:04.000Z</time>
      </trkpt>
      <trkpt lat="44.11467" lon="5.96924">
        <ele>507</ele>
        <time>2020-12-17T12:51:10.000Z</time>
      </trkpt>
      <trkpt lat="44.11471" lon="5.96928">
        <ele>506.20001220703</ele>
        <time>2020-12-17T12:51:18.000Z</time>
      </trkpt>
      <trkpt lat="44.11472" lon="5.96933">
        <ele>505.60000610352</ele>
        <time>2020-12-17T12:51:28.000Z</time>
      </trkpt>
      <trkpt lat="44.11474" lon="5.96937">
        <ele>505</ele>
        <time>2020-12-17T12:51:34.000Z</time>
      </trkpt>
      <trkpt lat="44.11474" lon="5.9694">
        <ele>505</ele>
        <time>2020-12-17T12:51:35.000Z</time>
      </trkpt>
      <trkpt lat="44.11472" lon="5.96947">
        <ele>505</ele>
        <time>2020-12-17T12:51:37.000Z</time>
      </trkpt>
      <trkpt lat="44.11469" lon="5.96954">
        <ele>504.79998779297</ele>
        <time>2020-12-17T12:51:39.000Z</time>
      </trkpt>
      <trkpt lat="44.1147" lon="5.96969">
        <ele>504.79998779297</ele>
        <time>2020-12-17T12:51:43.000Z</time>
      </trkpt>
      <trkpt lat="44.11475" lon="5.9698">
        <ele>504.79998779297</ele>
        <time>2020-12-17T12:51:47.000Z</time>
      </trkpt>
      <trkpt lat="44.11476" lon="5.96999">
        <ele>504.60000610352</ele>
        <time>2020-12-17T12:51:52.000Z</time>
      </trkpt>
      <trkpt lat="44.11477" lon="5.97001">
        <ele>504.60000610352</ele>
        <time>2020-12-17T12:51:53.000Z</time>
      </trkpt>
      <trkpt lat="44.11478" lon="5.97004">
        <ele>505</ele>
        <time>2020-12-17T12:51:57.000Z</time>
      </trkpt>
      <trkpt lat="44.11479" lon="5.97007">
        <ele>505.79998779297</ele>
        <time>2020-12-17T12:52:05.000Z</time>
      </trkpt>
      <trkpt lat="44.11479" lon="5.97008">
        <ele>505.79998779297</ele>
        <time>2020-12-17T12:52:06.000Z</time>
      </trkpt>
      <trkpt lat="44.11484" lon="5.97013">
        <ele>506</ele>
        <time>2020-12-17T12:52:12.000Z</time>
      </trkpt>
      <trkpt lat="44.11494" lon="5.9702">
        <ele>506</ele>
        <time>2020-12-17T12:52:18.000Z</time>
      </trkpt>
      <trkpt lat="44.11503" lon="5.97029">
        <ele>506.39999389648</ele>
        <time>2020-12-17T12:52:25.000Z</time>
      </trkpt>
      <trkpt lat="44.11505" lon="5.97031">
        <ele>506.79998779297</ele>
        <time>2020-12-17T12:52:27.000Z</time>
      </trkpt>
      <trkpt lat="44.11508" lon="5.97035">
        <ele>507</ele>
        <time>2020-12-17T12:52:30.000Z</time>
      </trkpt>
      <trkpt lat="44.1151" lon="5.97036">
        <ele>507.20001220703</ele>
        <time>2020-12-17T12:52:32.000Z</time>
      </trkpt>
      <trkpt lat="44.11519" lon="5.97044">
        <ele>507.79998779297</ele>
        <time>2020-12-17T12:52:37.000Z</time>
      </trkpt>
      <trkpt lat="44.11522" lon="5.97046">
        <ele>508</ele>
        <time>2020-12-17T12:52:38.000Z</time>
      </trkpt>
      <trkpt lat="44.11537" lon="5.97056">
        <ele>509</ele>
        <time>2020-12-17T12:52:44.000Z</time>
      </trkpt>
      <trkpt lat="44.11552" lon="5.97064">
        <ele>510</ele>
        <time>2020-12-17T12:52:50.000Z</time>
      </trkpt>
      <trkpt lat="44.11555" lon="5.97066">
        <ele>510.20001220703</ele>
        <time>2020-12-17T12:52:51.000Z</time>
      </trkpt>
      <trkpt lat="44.11573" lon="5.97076">
        <ele>510.60000610352</ele>
        <time>2020-12-17T12:52:57.000Z</time>
      </trkpt>
      <trkpt lat="44.11579" lon="5.9709">
        <ele>510.79998779297</ele>
        <time>2020-12-17T12:53:01.000Z</time>
      </trkpt>
      <trkpt lat="44.11585" lon="5.97105">
        <ele>510.79998779297</ele>
        <time>2020-12-17T12:53:06.000Z</time>
      </trkpt>
      <trkpt lat="44.11592" lon="5.97119">
        <ele>511.20001220703</ele>
        <time>2020-12-17T12:53:10.000Z</time>
      </trkpt>
      <trkpt lat="44.11597" lon="5.9713">
        <ele>511.79998779297</ele>
        <time>2020-12-17T12:53:14.000Z</time>
      </trkpt>
      <trkpt lat="44.116" lon="5.97135">
        <ele>512.40002441406</ele>
        <time>2020-12-17T12:53:16.000Z</time>
      </trkpt>
      <trkpt lat="44.11607" lon="5.9714">
        <ele>513.20001220703</ele>
        <time>2020-12-17T12:53:19.000Z</time>
      </trkpt>
      <trkpt lat="44.11609" lon="5.9714">
        <ele>513.40002441406</ele>
        <time>2020-12-17T12:53:20.000Z</time>
      </trkpt>
      <trkpt lat="44.11617" lon="5.97143">
        <ele>514.79998779297</ele>
        <time>2020-12-17T12:53:23.000Z</time>
      </trkpt>
      <trkpt lat="44.11628" lon="5.97147">
        <ele>516</ele>
        <time>2020-12-17T12:53:27.000Z</time>
      </trkpt>
      <trkpt lat="44.11637" lon="5.97147">
        <ele>516.79998779297</ele>
        <time>2020-12-17T12:53:30.000Z</time>
      </trkpt>
      <trkpt lat="44.11643" lon="5.97147">
        <ele>517.79998779297</ele>
        <time>2020-12-17T12:53:32.000Z</time>
      </trkpt>
      <trkpt lat="44.11646" lon="5.97146">
        <ele>518.40002441406</ele>
        <time>2020-12-17T12:53:33.000Z</time>
      </trkpt>
      <trkpt lat="44.11652" lon="5.97146">
        <ele>519.20001220703</ele>
        <time>2020-12-17T12:53:35.000Z</time>
      </trkpt>
      <trkpt lat="44.11668" lon="5.97148">
        <ele>520.20001220703</ele>
        <time>2020-12-17T12:53:40.000Z</time>
      </trkpt>
      <trkpt lat="44.11687" lon="5.97153">
        <ele>520.79998779297</ele>
        <time>2020-12-17T12:53:46.000Z</time>
      </trkpt>
      <trkpt lat="44.11698" lon="5.97157">
        <ele>520.79998779297</ele>
        <time>2020-12-17T12:53:49.000Z</time>
      </trkpt>
      <trkpt lat="44.11703" lon="5.97163">
        <ele>520.79998779297</ele>
        <time>2020-12-17T12:53:51.000Z</time>
      </trkpt>
      <trkpt lat="44.11714" lon="5.97168">
        <ele>521</ele>
        <time>2020-12-17T12:53:55.000Z</time>
      </trkpt>
      <trkpt lat="44.11717" lon="5.97169">
        <ele>521</ele>
        <time>2020-12-17T12:53:56.000Z</time>
      </trkpt>
      <trkpt lat="44.11735" lon="5.97174">
        <ele>521.20001220703</ele>
        <time>2020-12-17T12:54:02.000Z</time>
      </trkpt>
      <trkpt lat="44.11743" lon="5.97175">
        <ele>521</ele>
        <time>2020-12-17T12:54:04.000Z</time>
      </trkpt>
      <trkpt lat="44.11756" lon="5.97172">
        <ele>521</ele>
        <time>2020-12-17T12:54:07.000Z</time>
      </trkpt>
      <trkpt lat="44.11777" lon="5.97165">
        <ele>520.79998779297</ele>
        <time>2020-12-17T12:54:12.000Z</time>
      </trkpt>
      <trkpt lat="44.11796" lon="5.97162">
        <ele>519.20001220703</ele>
        <time>2020-12-17T12:54:18.000Z</time>
      </trkpt>
      <trkpt lat="44.11813" lon="5.97145">
        <ele>519</ele>
        <time>2020-12-17T12:54:23.000Z</time>
      </trkpt>
      <trkpt lat="44.11832" lon="5.97136">
        <ele>518.59997558594</ele>
        <time>2020-12-17T12:54:27.000Z</time>
      </trkpt>
      <trkpt lat="44.11836" lon="5.97132">
        <ele>518.20001220703</ele>
        <time>2020-12-17T12:54:28.000Z</time>
      </trkpt>
      <trkpt lat="44.11842" lon="5.97122">
        <ele>517.20001220703</ele>
        <time>2020-12-17T12:54:30.000Z</time>
      </trkpt>
      <trkpt lat="44.11844" lon="5.97116">
        <ele>516.79998779297</ele>
        <time>2020-12-17T12:54:31.000Z</time>
      </trkpt>
      <trkpt lat="44.11852" lon="5.97103">
        <ele>516</ele>
        <time>2020-12-17T12:54:33.000Z</time>
      </trkpt>
      <trkpt lat="44.11857" lon="5.97097">
        <ele>515.59997558594</ele>
        <time>2020-12-17T12:54:34.000Z</time>
      </trkpt>
      <trkpt lat="44.11861" lon="5.97091">
        <ele>515.20001220703</ele>
        <time>2020-12-17T12:54:35.000Z</time>
      </trkpt>
      <trkpt lat="44.11868" lon="5.97081">
        <ele>514.79998779297</ele>
        <time>2020-12-17T12:54:37.000Z</time>
      </trkpt>
      <trkpt lat="44.11872" lon="5.97078">
        <ele>514.40002441406</ele>
        <time>2020-12-17T12:54:38.000Z</time>
      </trkpt>
      <trkpt lat="44.11881" lon="5.97077">
        <ele>513.20001220703</ele>
        <time>2020-12-17T12:54:40.000Z</time>
      </trkpt>
      <trkpt lat="44.11886" lon="5.97076">
        <ele>512.59997558594</ele>
        <time>2020-12-17T12:54:41.000Z</time>
      </trkpt>
      <trkpt lat="44.11891" lon="5.97074">
        <ele>511.79998779297</ele>
        <time>2020-12-17T12:54:42.000Z</time>
      </trkpt>
      <trkpt lat="44.11894" lon="5.97069">
        <ele>511.39999389648</ele>
        <time>2020-12-17T12:54:43.000Z</time>
      </trkpt>
      <trkpt lat="44.11896" lon="5.97064">
        <ele>510.79998779297</ele>
        <time>2020-12-17T12:54:44.000Z</time>
      </trkpt>
      <trkpt lat="44.11898" lon="5.97053">
        <ele>509.39999389648</ele>
        <time>2020-12-17T12:54:46.000Z</time>
      </trkpt>
      <trkpt lat="44.119" lon="5.97048">
        <ele>509.20001220703</ele>
        <time>2020-12-17T12:54:47.000Z</time>
      </trkpt>
      <trkpt lat="44.11904" lon="5.97033">
        <ele>508.39999389648</ele>
        <time>2020-12-17T12:54:50.000Z</time>
      </trkpt>
      <trkpt lat="44.11906" lon="5.97029">
        <ele>508.20001220703</ele>
        <time>2020-12-17T12:54:51.000Z</time>
      </trkpt>
      <trkpt lat="44.1191" lon="5.97027">
        <ele>508</ele>
        <time>2020-12-17T12:54:52.000Z</time>
      </trkpt>
      <trkpt lat="44.11919" lon="5.97029">
        <ele>507.39999389648</ele>
        <time>2020-12-17T12:54:55.000Z</time>
      </trkpt>
      <trkpt lat="44.11923" lon="5.97038">
        <ele>506.79998779297</ele>
        <time>2020-12-17T12:54:57.000Z</time>
      </trkpt>
      <trkpt lat="44.11926" lon="5.9705">
        <ele>506.60000610352</ele>
        <time>2020-12-17T12:55:00.000Z</time>
      </trkpt>
      <trkpt lat="44.11936" lon="5.97075">
        <ele>506.60000610352</ele>
        <time>2020-12-17T12:55:06.000Z</time>
      </trkpt>
      <trkpt lat="44.11938" lon="5.9708">
        <ele>506.60000610352</ele>
        <time>2020-12-17T12:55:07.000Z</time>
      </trkpt>
      <trkpt lat="44.11951" lon="5.9709">
        <ele>506.60000610352</ele>
        <time>2020-12-17T12:55:10.000Z</time>
      </trkpt>
      <trkpt lat="44.11975" lon="5.971">
        <ele>506.60000610352</ele>
        <time>2020-12-17T12:55:15.000Z</time>
      </trkpt>
      <trkpt lat="44.11984" lon="5.9711">
        <ele>506.60000610352</ele>
        <time>2020-12-17T12:55:17.000Z</time>
      </trkpt>
      <trkpt lat="44.11989" lon="5.97114">
        <ele>506.20001220703</ele>
        <time>2020-12-17T12:55:18.000Z</time>
      </trkpt>
      <trkpt lat="44.11995" lon="5.97118">
        <ele>505.79998779297</ele>
        <time>2020-12-17T12:55:19.000Z</time>
      </trkpt>
      <trkpt lat="44.12001" lon="5.9712">
        <ele>505.60000610352</ele>
        <time>2020-12-17T12:55:20.000Z</time>
      </trkpt>
      <trkpt lat="44.12012" lon="5.97124">
        <ele>504.60000610352</ele>
        <time>2020-12-17T12:55:22.000Z</time>
      </trkpt>
      <trkpt lat="44.12021" lon="5.97122">
        <ele>504</ele>
        <time>2020-12-17T12:55:24.000Z</time>
      </trkpt>
      <trkpt lat="44.12027" lon="5.97113">
        <ele>503.20001220703</ele>
        <time>2020-12-17T12:55:26.000Z</time>
      </trkpt>
      <trkpt lat="44.12029" lon="5.97106">
        <ele>502.60000610352</ele>
        <time>2020-12-17T12:55:27.000Z</time>
      </trkpt>
      <trkpt lat="44.1203" lon="5.971">
        <ele>502</ele>
        <time>2020-12-17T12:55:28.000Z</time>
      </trkpt>
      <trkpt lat="44.12035" lon="5.97086">
        <ele>501.60000610352</ele>
        <time>2020-12-17T12:55:30.000Z</time>
      </trkpt>
      <trkpt lat="44.12039" lon="5.9708">
        <ele>501.39999389648</ele>
        <time>2020-12-17T12:55:31.000Z</time>
      </trkpt>
      <trkpt lat="44.12049" lon="5.97074">
        <ele>500.79998779297</ele>
        <time>2020-12-17T12:55:33.000Z</time>
      </trkpt>
      <trkpt lat="44.12054" lon="5.97072">
        <ele>500.39999389648</ele>
        <time>2020-12-17T12:55:34.000Z</time>
      </trkpt>
      <trkpt lat="44.12062" lon="5.9707">
        <ele>499.60000610352</ele>
        <time>2020-12-17T12:55:36.000Z</time>
      </trkpt>
      <trkpt lat="44.12068" lon="5.97069">
        <ele>499.39999389648</ele>
        <time>2020-12-17T12:55:38.000Z</time>
      </trkpt>
      <trkpt lat="44.12078" lon="5.97069">
        <ele>499.20001220703</ele>
        <time>2020-12-17T12:55:41.000Z</time>
      </trkpt>
      <trkpt lat="44.12086" lon="5.97071">
        <ele>499.20001220703</ele>
        <time>2020-12-17T12:55:44.000Z</time>
      </trkpt>
      <trkpt lat="44.12106" lon="5.97085">
        <ele>500.79998779297</ele>
        <time>2020-12-17T12:55:51.000Z</time>
      </trkpt>
      <trkpt lat="44.12109" lon="5.97087">
        <ele>501.20001220703</ele>
        <time>2020-12-17T12:55:52.000Z</time>
      </trkpt>
      <trkpt lat="44.12117" lon="5.97093">
        <ele>502.20001220703</ele>
        <time>2020-12-17T12:55:55.000Z</time>
      </trkpt>
      <trkpt lat="44.12121" lon="5.97092">
        <ele>502.39999389648</ele>
        <time>2020-12-17T12:55:57.000Z</time>
      </trkpt>
      <trkpt lat="44.12123" lon="5.97084">
        <ele>503</ele>
        <time>2020-12-17T12:56:00.000Z</time>
      </trkpt>
      <trkpt lat="44.12123" lon="5.9708">
        <ele>503.20001220703</ele>
        <time>2020-12-17T12:56:01.000Z</time>
      </trkpt>
      <trkpt lat="44.12129" lon="5.97067">
        <ele>503.79998779297</ele>
        <time>2020-12-17T12:56:06.000Z</time>
      </trkpt>
      <trkpt lat="44.12133" lon="5.97063">
        <ele>504.39999389648</ele>
        <time>2020-12-17T12:56:08.000Z</time>
      </trkpt>
      <trkpt lat="44.1214" lon="5.97057">
        <ele>505.79998779297</ele>
        <time>2020-12-17T12:56:11.000Z</time>
      </trkpt>
      <trkpt lat="44.12145" lon="5.97053">
        <ele>506.20001220703</ele>
        <time>2020-12-17T12:56:13.000Z</time>
      </trkpt>
      <trkpt lat="44.12152" lon="5.97048">
        <ele>506.79998779297</ele>
        <time>2020-12-17T12:56:16.000Z</time>
      </trkpt>
      <trkpt lat="44.12164" lon="5.97037">
        <ele>508</ele>
        <time>2020-12-17T12:56:21.000Z</time>
      </trkpt>
      <trkpt lat="44.12173" lon="5.97029">
        <ele>509</ele>
        <time>2020-12-17T12:56:26.000Z</time>
      </trkpt>
      <trkpt lat="44.12176" lon="5.97028">
        <ele>509.79998779297</ele>
        <time>2020-12-17T12:56:31.000Z</time>
      </trkpt>
      <trkpt lat="44.12181" lon="5.97025">
        <ele>510</ele>
        <time>2020-12-17T12:56:33.000Z</time>
      </trkpt>
      <trkpt lat="44.12186" lon="5.97021">
        <ele>510.39999389648</ele>
        <time>2020-12-17T12:56:35.000Z</time>
      </trkpt>
      <trkpt lat="44.12209" lon="5.97006">
        <ele>510.79998779297</ele>
        <time>2020-12-17T12:56:43.000Z</time>
      </trkpt>
      <trkpt lat="44.12211" lon="5.97004">
        <ele>511.20001220703</ele>
        <time>2020-12-17T12:56:44.000Z</time>
      </trkpt>
      <trkpt lat="44.12221" lon="5.96996">
        <ele>512.20001220703</ele>
        <time>2020-12-17T12:56:48.000Z</time>
      </trkpt>
      <trkpt lat="44.12226" lon="5.96994">
        <ele>512.40002441406</ele>
        <time>2020-12-17T12:56:50.000Z</time>
      </trkpt>
      <trkpt lat="44.12236" lon="5.96989">
        <ele>513</ele>
        <time>2020-12-17T12:56:55.000Z</time>
      </trkpt>
      <trkpt lat="44.12241" lon="5.96986">
        <ele>513.20001220703</ele>
        <time>2020-12-17T12:56:58.000Z</time>
      </trkpt>
      <trkpt lat="44.12245" lon="5.96985">
        <ele>514.79998779297</ele>
        <time>2020-12-17T12:57:01.000Z</time>
      </trkpt>
      <trkpt lat="44.12246" lon="5.96984">
        <ele>516</ele>
        <time>2020-12-17T12:57:04.000Z</time>
      </trkpt>
      <trkpt lat="44.12246" lon="5.96984">
        <ele>517</ele>
        <time>2020-12-17T12:57:07.000Z</time>
      </trkpt>
      <trkpt lat="44.12255" lon="5.96982">
        <ele>517.79998779297</ele>
        <time>2020-12-17T12:57:11.000Z</time>
      </trkpt>
      <trkpt lat="44.1227" lon="5.96976">
        <ele>518</ele>
        <time>2020-12-17T12:57:17.000Z</time>
      </trkpt>
      <trkpt lat="44.12272" lon="5.96976">
        <ele>518</ele>
        <time>2020-12-17T12:57:18.000Z</time>
      </trkpt>
      <trkpt lat="44.12281" lon="5.96972">
        <ele>518.59997558594</ele>
        <time>2020-12-17T12:57:22.000Z</time>
      </trkpt>
      <trkpt lat="44.12288" lon="5.96961">
        <ele>519.20001220703</ele>
        <time>2020-12-17T12:57:26.000Z</time>
      </trkpt>
      <trkpt lat="44.12292" lon="5.96957">
        <ele>519.40002441406</ele>
        <time>2020-12-17T12:57:28.000Z</time>
      </trkpt>
      <trkpt lat="44.12305" lon="5.96948">
        <ele>520.40002441406</ele>
        <time>2020-12-17T12:57:34.000Z</time>
      </trkpt>
      <trkpt lat="44.12315" lon="5.9694">
        <ele>521.59997558594</ele>
        <time>2020-12-17T12:57:39.000Z</time>
      </trkpt>
      <trkpt lat="44.12322" lon="5.96938">
        <ele>522.59997558594</ele>
        <time>2020-12-17T12:57:42.000Z</time>
      </trkpt>
      <trkpt lat="44.12324" lon="5.96937">
        <ele>523</ele>
        <time>2020-12-17T12:57:43.000Z</time>
      </trkpt>
      <trkpt lat="44.1233" lon="5.96934">
        <ele>523.79998779297</ele>
        <time>2020-12-17T12:57:46.000Z</time>
      </trkpt>
      <trkpt lat="44.1234" lon="5.96931">
        <ele>525</ele>
        <time>2020-12-17T12:57:50.000Z</time>
      </trkpt>
      <trkpt lat="44.12351" lon="5.96925">
        <ele>526</ele>
        <time>2020-12-17T12:57:55.000Z</time>
      </trkpt>
      <trkpt lat="44.12355" lon="5.96921">
        <ele>526.59997558594</ele>
        <time>2020-12-17T12:57:57.000Z</time>
      </trkpt>
      <trkpt lat="44.12358" lon="5.96917">
        <ele>527</ele>
        <time>2020-12-17T12:57:59.000Z</time>
      </trkpt>
      <trkpt lat="44.12366" lon="5.96911">
        <ele>527.40002441406</ele>
        <time>2020-12-17T12:58:03.000Z</time>
      </trkpt>
      <trkpt lat="44.12371" lon="5.96905">
        <ele>528</ele>
        <time>2020-12-17T12:58:06.000Z</time>
      </trkpt>
      <trkpt lat="44.1237" lon="5.969">
        <ele>528.59997558594</ele>
        <time>2020-12-17T12:58:08.000Z</time>
      </trkpt>
      <trkpt lat="44.12369" lon="5.96898">
        <ele>529.20001220703</ele>
        <time>2020-12-17T12:58:09.000Z</time>
      </trkpt>
      <trkpt lat="44.12363" lon="5.96889">
        <ele>530.20001220703</ele>
        <time>2020-12-17T12:58:12.000Z</time>
      </trkpt>
      <trkpt lat="44.12363" lon="5.96886">
        <ele>530.59997558594</ele>
        <time>2020-12-17T12:58:13.000Z</time>
      </trkpt>
      <trkpt lat="44.12365" lon="5.96876">
        <ele>531.79998779297</ele>
        <time>2020-12-17T12:58:16.000Z</time>
      </trkpt>
      <trkpt lat="44.1236" lon="5.96867">
        <ele>532.40002441406</ele>
        <time>2020-12-17T12:58:20.000Z</time>
      </trkpt>
      <trkpt lat="44.12357" lon="5.96866">
        <ele>532.59997558594</ele>
        <time>2020-12-17T12:58:21.000Z</time>
      </trkpt>
      <trkpt lat="44.12344" lon="5.96864">
        <ele>533</ele>
        <time>2020-12-17T12:58:25.000Z</time>
      </trkpt>
      <trkpt lat="44.1234" lon="5.96864">
        <ele>533.20001220703</ele>
        <time>2020-12-17T12:58:26.000Z</time>
      </trkpt>
      <trkpt lat="44.12328" lon="5.96859">
        <ele>533.59997558594</ele>
        <time>2020-12-17T12:58:30.000Z</time>
      </trkpt>
      <trkpt lat="44.12307" lon="5.96854">
        <ele>534</ele>
        <time>2020-12-17T12:58:35.000Z</time>
      </trkpt>
      <trkpt lat="44.12303" lon="5.96854">
        <ele>534.40002441406</ele>
        <time>2020-12-17T12:58:36.000Z</time>
      </trkpt>
      <trkpt lat="44.12292" lon="5.96845">
        <ele>534.59997558594</ele>
        <time>2020-12-17T12:58:40.000Z</time>
      </trkpt>
      <trkpt lat="44.12296" lon="5.96833">
        <ele>534.79998779297</ele>
        <time>2020-12-17T12:58:43.000Z</time>
      </trkpt>
      <trkpt lat="44.12299" lon="5.9683">
        <ele>535</ele>
        <time>2020-12-17T12:58:44.000Z</time>
      </trkpt>
      <trkpt lat="44.12302" lon="5.96826">
        <ele>535.20001220703</ele>
        <time>2020-12-17T12:58:45.000Z</time>
      </trkpt>
      <trkpt lat="44.12308" lon="5.96818">
        <ele>535.40002441406</ele>
        <time>2020-12-17T12:58:47.000Z</time>
      </trkpt>
      <trkpt lat="44.12314" lon="5.96809">
        <ele>535.79998779297</ele>
        <time>2020-12-17T12:58:49.000Z</time>
      </trkpt>
      <trkpt lat="44.12317" lon="5.96805">
        <ele>535.79998779297</ele>
        <time>2020-12-17T12:58:50.000Z</time>
      </trkpt>
      <trkpt lat="44.12326" lon="5.96798">
        <ele>536</ele>
        <time>2020-12-17T12:58:53.000Z</time>
      </trkpt>
      <trkpt lat="44.12336" lon="5.96788">
        <ele>536.20001220703</ele>
        <time>2020-12-17T12:58:58.000Z</time>
      </trkpt>
      <trkpt lat="44.12339" lon="5.96779">
        <ele>536.20001220703</ele>
        <time>2020-12-17T12:59:01.000Z</time>
      </trkpt>
      <trkpt lat="44.1234" lon="5.96777">
        <ele>536.20001220703</ele>
        <time>2020-12-17T12:59:02.000Z</time>
      </trkpt>
      <trkpt lat="44.12344" lon="5.96771">
        <ele>536</ele>
        <time>2020-12-17T12:59:06.000Z</time>
      </trkpt>
      <trkpt lat="44.12345" lon="5.9677">
        <ele>536</ele>
        <time>2020-12-17T12:59:07.000Z</time>
      </trkpt>
      <trkpt lat="44.12345" lon="5.96765">
        <ele>536</ele>
        <time>2020-12-17T12:59:11.000Z</time>
      </trkpt>
      <trkpt lat="44.12343" lon="5.96765">
        <ele>536</ele>
        <time>2020-12-17T12:59:13.000Z</time>
      </trkpt>
      <trkpt lat="44.12342" lon="5.96766">
        <ele>536.20001220703</ele>
        <time>2020-12-17T12:59:14.000Z</time>
      </trkpt>
      <trkpt lat="44.12338" lon="5.96767">
        <ele>536.40002441406</ele>
        <time>2020-12-17T12:59:16.000Z</time>
      </trkpt>
      <trkpt lat="44.12331" lon="5.9677">
        <ele>537.20001220703</ele>
        <time>2020-12-17T12:59:19.000Z</time>
      </trkpt>
      <trkpt lat="44.12325" lon="5.96769">
        <ele>537.59997558594</ele>
        <time>2020-12-17T12:59:21.000Z</time>
      </trkpt>
      <trkpt lat="44.12311" lon="5.96767">
        <ele>537.59997558594</ele>
        <time>2020-12-17T12:59:25.000Z</time>
      </trkpt>
      <trkpt lat="44.12306" lon="5.96763">
        <ele>537.79998779297</ele>
        <time>2020-12-17T12:59:27.000Z</time>
      </trkpt>
      <trkpt lat="44.123" lon="5.96755">
        <ele>537.79998779297</ele>
        <time>2020-12-17T12:59:30.000Z</time>
      </trkpt>
      <trkpt lat="44.12295" lon="5.96756">
        <ele>538</ele>
        <time>2020-12-17T12:59:33.000Z</time>
      </trkpt>
      <trkpt lat="44.1229" lon="5.96759">
        <ele>538.20001220703</ele>
        <time>2020-12-17T12:59:37.000Z</time>
      </trkpt>
      <trkpt lat="44.12286" lon="5.96759">
        <ele>538.20001220703</ele>
        <time>2020-12-17T12:59:38.000Z</time>
      </trkpt>
      <trkpt lat="44.12277" lon="5.96761">
        <ele>538.20001220703</ele>
        <time>2020-12-17T12:59:41.000Z</time>
      </trkpt>
      <trkpt lat="44.12273" lon="5.96762">
        <ele>538.40002441406</ele>
        <time>2020-12-17T12:59:42.000Z</time>
      </trkpt>
      <trkpt lat="44.12261" lon="5.96763">
        <ele>538.59997558594</ele>
        <time>2020-12-17T12:59:46.000Z</time>
      </trkpt>
      <trkpt lat="44.12258" lon="5.96761">
        <ele>538.79998779297</ele>
        <time>2020-12-17T12:59:47.000Z</time>
      </trkpt>
      <trkpt lat="44.12251" lon="5.96752">
        <ele>539</ele>
        <time>2020-12-17T12:59:50.000Z</time>
      </trkpt>
      <trkpt lat="44.12251" lon="5.96748">
        <ele>539</ele>
        <time>2020-12-17T12:59:51.000Z</time>
      </trkpt>
      <trkpt lat="44.12253" lon="5.96734">
        <ele>539.20001220703</ele>
        <time>2020-12-17T12:59:57.000Z</time>
      </trkpt>
      <trkpt lat="44.12254" lon="5.96727">
        <ele>539.40002441406</ele>
        <time>2020-12-17T12:59:59.000Z</time>
      </trkpt>
      <trkpt lat="44.12253" lon="5.96724">
        <ele>539.59997558594</ele>
        <time>2020-12-17T13:00:00.000Z</time>
      </trkpt>
      <trkpt lat="44.12251" lon="5.96723">
        <ele>540</ele>
        <time>2020-12-17T13:00:01.000Z</time>
      </trkpt>
      <trkpt lat="44.12246" lon="5.96728">
        <ele>540.59997558594</ele>
        <time>2020-12-17T13:00:04.000Z</time>
      </trkpt>
      <trkpt lat="44.12243" lon="5.9673">
        <ele>540.59997558594</ele>
        <time>2020-12-17T13:00:05.000Z</time>
      </trkpt>
      <trkpt lat="44.12237" lon="5.96733">
        <ele>540.59997558594</ele>
        <time>2020-12-17T13:00:07.000Z</time>
      </trkpt>
      <trkpt lat="44.12231" lon="5.96737">
        <ele>540.59997558594</ele>
        <time>2020-12-17T13:00:09.000Z</time>
      </trkpt>
      <trkpt lat="44.12219" lon="5.96738">
        <ele>540.59997558594</ele>
        <time>2020-12-17T13:00:13.000Z</time>
      </trkpt>
      <trkpt lat="44.12214" lon="5.96734">
        <ele>540.59997558594</ele>
        <time>2020-12-17T13:00:16.000Z</time>
      </trkpt>
      <trkpt lat="44.12203" lon="5.96739">
        <ele>540.59997558594</ele>
        <time>2020-12-17T13:00:20.000Z</time>
      </trkpt>
      <trkpt lat="44.122" lon="5.9674">
        <ele>540.59997558594</ele>
        <time>2020-12-17T13:00:21.000Z</time>
      </trkpt>
      <trkpt lat="44.12183" lon="5.96741">
        <ele>540.79998779297</ele>
        <time>2020-12-17T13:00:26.000Z</time>
      </trkpt>
      <trkpt lat="44.12167" lon="5.9675">
        <ele>541.20001220703</ele>
        <time>2020-12-17T13:00:31.000Z</time>
      </trkpt>
      <trkpt lat="44.12164" lon="5.96751">
        <ele>541.40002441406</ele>
        <time>2020-12-17T13:00:32.000Z</time>
      </trkpt>
      <trkpt lat="44.1215" lon="5.96752">
        <ele>542</ele>
        <time>2020-12-17T13:00:36.000Z</time>
      </trkpt>
      <trkpt lat="44.12137" lon="5.96743">
        <ele>542.40002441406</ele>
        <time>2020-12-17T13:00:40.000Z</time>
      </trkpt>
      <trkpt lat="44.12133" lon="5.96741">
        <ele>542.59997558594</ele>
        <time>2020-12-17T13:00:41.000Z</time>
      </trkpt>
      <trkpt lat="44.12127" lon="5.96735">
        <ele>542.79998779297</ele>
        <time>2020-12-17T13:00:43.000Z</time>
      </trkpt>
      <trkpt lat="44.12122" lon="5.96727">
        <ele>543</ele>
        <time>2020-12-17T13:00:45.000Z</time>
      </trkpt>
      <trkpt lat="44.12121" lon="5.9672">
        <ele>543</ele>
        <time>2020-12-17T13:00:47.000Z</time>
      </trkpt>
      <trkpt lat="44.12125" lon="5.96701">
        <ele>543.20001220703</ele>
        <time>2020-12-17T13:00:52.000Z</time>
      </trkpt>
      <trkpt lat="44.12126" lon="5.96696">
        <ele>543.40002441406</ele>
        <time>2020-12-17T13:00:53.000Z</time>
      </trkpt>
      <trkpt lat="44.12129" lon="5.96683">
        <ele>543.59997558594</ele>
        <time>2020-12-17T13:00:56.000Z</time>
      </trkpt>
      <trkpt lat="44.1213" lon="5.96677">
        <ele>543.59997558594</ele>
        <time>2020-12-17T13:00:57.000Z</time>
      </trkpt>
      <trkpt lat="44.12133" lon="5.9665">
        <ele>544</ele>
        <time>2020-12-17T13:01:02.000Z</time>
      </trkpt>
      <trkpt lat="44.12137" lon="5.96629">
        <ele>544.20001220703</ele>
        <time>2020-12-17T13:01:06.000Z</time>
      </trkpt>
      <trkpt lat="44.1214" lon="5.96617">
        <ele>544.20001220703</ele>
        <time>2020-12-17T13:01:09.000Z</time>
      </trkpt>
      <trkpt lat="44.12134" lon="5.966">
        <ele>544.20001220703</ele>
        <time>2020-12-17T13:01:12.000Z</time>
      </trkpt>
      <trkpt lat="44.12132" lon="5.96594">
        <ele>544.20001220703</ele>
        <time>2020-12-17T13:01:13.000Z</time>
      </trkpt>
      <trkpt lat="44.12133" lon="5.96577">
        <ele>544.40002441406</ele>
        <time>2020-12-17T13:01:16.000Z</time>
      </trkpt>
      <trkpt lat="44.12134" lon="5.96572">
        <ele>544.59997558594</ele>
        <time>2020-12-17T13:01:17.000Z</time>
      </trkpt>
      <trkpt lat="44.12142" lon="5.96561">
        <ele>545</ele>
        <time>2020-12-17T13:01:20.000Z</time>
      </trkpt>
      <trkpt lat="44.12146" lon="5.96549">
        <ele>545</ele>
        <time>2020-12-17T13:01:23.000Z</time>
      </trkpt>
      <trkpt lat="44.1215" lon="5.96529">
        <ele>545.40002441406</ele>
        <time>2020-12-17T13:01:27.000Z</time>
      </trkpt>
      <trkpt lat="44.12154" lon="5.96518">
        <ele>545.59997558594</ele>
        <time>2020-12-17T13:01:30.000Z</time>
      </trkpt>
      <trkpt lat="44.12155" lon="5.96515">
        <ele>545.59997558594</ele>
        <time>2020-12-17T13:01:31.000Z</time>
      </trkpt>
      <trkpt lat="44.12165" lon="5.965">
        <ele>546</ele>
        <time>2020-12-17T13:01:37.000Z</time>
      </trkpt>
      <trkpt lat="44.12173" lon="5.96493">
        <ele>547</ele>
        <time>2020-12-17T13:01:40.000Z</time>
      </trkpt>
      <trkpt lat="44.1218" lon="5.96487">
        <ele>548.20001220703</ele>
        <time>2020-12-17T13:01:43.000Z</time>
      </trkpt>
      <trkpt lat="44.12188" lon="5.96482">
        <ele>549.20001220703</ele>
        <time>2020-12-17T13:01:46.000Z</time>
      </trkpt>
      <trkpt lat="44.12197" lon="5.96479">
        <ele>550.40002441406</ele>
        <time>2020-12-17T13:01:49.000Z</time>
      </trkpt>
      <trkpt lat="44.12202" lon="5.96476">
        <ele>551.59997558594</ele>
        <time>2020-12-17T13:01:51.000Z</time>
      </trkpt>
      <trkpt lat="44.1221" lon="5.96473">
        <ele>552.79998779297</ele>
        <time>2020-12-17T13:01:54.000Z</time>
      </trkpt>
      <trkpt lat="44.12213" lon="5.96471">
        <ele>553</ele>
        <time>2020-12-17T13:01:55.000Z</time>
      </trkpt>
      <trkpt lat="44.12219" lon="5.96469">
        <ele>554</ele>
        <time>2020-12-17T13:01:58.000Z</time>
      </trkpt>
      <trkpt lat="44.12225" lon="5.96463">
        <ele>555.20001220703</ele>
        <time>2020-12-17T13:02:01.000Z</time>
      </trkpt>
      <trkpt lat="44.12233" lon="5.96459">
        <ele>556.20001220703</ele>
        <time>2020-12-17T13:02:05.000Z</time>
      </trkpt>
      <trkpt lat="44.12235" lon="5.96458">
        <ele>556.59997558594</ele>
        <time>2020-12-17T13:02:06.000Z</time>
      </trkpt>
      <trkpt lat="44.12244" lon="5.96453">
        <ele>557.59997558594</ele>
        <time>2020-12-17T13:02:10.000Z</time>
      </trkpt>
      <trkpt lat="44.12252" lon="5.96446">
        <ele>558.59997558594</ele>
        <time>2020-12-17T13:02:13.000Z</time>
      </trkpt>
      <trkpt lat="44.12254" lon="5.96444">
        <ele>559</ele>
        <time>2020-12-17T13:02:14.000Z</time>
      </trkpt>
      <trkpt lat="44.12255" lon="5.96439">
        <ele>559.59997558594</ele>
        <time>2020-12-17T13:02:16.000Z</time>
      </trkpt>
      <trkpt lat="44.12252" lon="5.96426">
        <ele>559.79998779297</ele>
        <time>2020-12-17T13:02:20.000Z</time>
      </trkpt>
      <trkpt lat="44.12253" lon="5.96414">
        <ele>560</ele>
        <time>2020-12-17T13:02:24.000Z</time>
      </trkpt>
      <trkpt lat="44.12263" lon="5.96408">
        <ele>558.40002441406</ele>
        <time>2020-12-17T13:02:27.000Z</time>
      </trkpt>
      <trkpt lat="44.12267" lon="5.96407">
        <ele>557.79998779297</ele>
        <time>2020-12-17T13:02:28.000Z</time>
      </trkpt>
      <trkpt lat="44.1227" lon="5.96406">
        <ele>557.20001220703</ele>
        <time>2020-12-17T13:02:29.000Z</time>
      </trkpt>
      <trkpt lat="44.12273" lon="5.96403">
        <ele>556.40002441406</ele>
        <time>2020-12-17T13:02:30.000Z</time>
      </trkpt>
      <trkpt lat="44.12276" lon="5.96398">
        <ele>555.59997558594</ele>
        <time>2020-12-17T13:02:31.000Z</time>
      </trkpt>
      <trkpt lat="44.12279" lon="5.9639">
        <ele>554.59997558594</ele>
        <time>2020-12-17T13:02:33.000Z</time>
      </trkpt>
      <trkpt lat="44.12288" lon="5.96383">
        <ele>554.40002441406</ele>
        <time>2020-12-17T13:02:36.000Z</time>
      </trkpt>
      <trkpt lat="44.1229" lon="5.96382">
        <ele>554.20001220703</ele>
        <time>2020-12-17T13:02:37.000Z</time>
      </trkpt>
      <trkpt lat="44.12296" lon="5.96377">
        <ele>554.20001220703</ele>
        <time>2020-12-17T13:02:40.000Z</time>
      </trkpt>
      <trkpt lat="44.123" lon="5.96364">
        <ele>554.79998779297</ele>
        <time>2020-12-17T13:02:45.000Z</time>
      </trkpt>
      <trkpt lat="44.12301" lon="5.96361">
        <ele>555.79998779297</ele>
        <time>2020-12-17T13:02:46.000Z</time>
      </trkpt>
      <trkpt lat="44.12302" lon="5.96356">
        <ele>556.59997558594</ele>
        <time>2020-12-17T13:02:48.000Z</time>
      </trkpt>
      <trkpt lat="44.12303" lon="5.96352">
        <ele>557.20001220703</ele>
        <time>2020-12-17T13:02:50.000Z</time>
      </trkpt>
      <trkpt lat="44.12305" lon="5.96345">
        <ele>558.40002441406</ele>
        <time>2020-12-17T13:02:53.000Z</time>
      </trkpt>
      <trkpt lat="44.12306" lon="5.96337">
        <ele>559.79998779297</ele>
        <time>2020-12-17T13:02:56.000Z</time>
      </trkpt>
      <trkpt lat="44.12307" lon="5.96335">
        <ele>560.40002441406</ele>
        <time>2020-12-17T13:02:57.000Z</time>
      </trkpt>
      <trkpt lat="44.12308" lon="5.96332">
        <ele>561.20001220703</ele>
        <time>2020-12-17T13:02:58.000Z</time>
      </trkpt>
      <trkpt lat="44.12309" lon="5.96326">
        <ele>562.40002441406</ele>
        <time>2020-12-17T13:03:00.000Z</time>
      </trkpt>
      <trkpt lat="44.12311" lon="5.96317">
        <ele>563.79998779297</ele>
        <time>2020-12-17T13:03:03.000Z</time>
      </trkpt>
      <trkpt lat="44.12314" lon="5.96311">
        <ele>565</ele>
        <time>2020-12-17T13:03:06.000Z</time>
      </trkpt>
      <trkpt lat="44.12316" lon="5.96307">
        <ele>565.59997558594</ele>
        <time>2020-12-17T13:03:08.000Z</time>
      </trkpt>
      <trkpt lat="44.1232" lon="5.96301">
        <ele>566</ele>
        <time>2020-12-17T13:03:11.000Z</time>
      </trkpt>
      <trkpt lat="44.12322" lon="5.96294">
        <ele>567.59997558594</ele>
        <time>2020-12-17T13:03:14.000Z</time>
      </trkpt>
      <trkpt lat="44.12323" lon="5.96292">
        <ele>567.79998779297</ele>
        <time>2020-12-17T13:03:15.000Z</time>
      </trkpt>
      <trkpt lat="44.12321" lon="5.96287">
        <ele>568.59997558594</ele>
        <time>2020-12-17T13:03:17.000Z</time>
      </trkpt>
      <trkpt lat="44.12315" lon="5.96276">
        <ele>569.79998779297</ele>
        <time>2020-12-17T13:03:20.000Z</time>
      </trkpt>
      <trkpt lat="44.12313" lon="5.96271">
        <ele>569.79998779297</ele>
        <time>2020-12-17T13:03:21.000Z</time>
      </trkpt>
      <trkpt lat="44.1231" lon="5.96262">
        <ele>569.79998779297</ele>
        <time>2020-12-17T13:03:24.000Z</time>
      </trkpt>
      <trkpt lat="44.1231" lon="5.9626">
        <ele>569.79998779297</ele>
        <time>2020-12-17T13:03:29.000Z</time>
      </trkpt>
      <trkpt lat="44.12309" lon="5.96259">
        <ele>569.79998779297</ele>
        <time>2020-12-17T13:03:39.000Z</time>
      </trkpt>
      <trkpt lat="44.12307" lon="5.96257">
        <ele>569.79998779297</ele>
        <time>2020-12-17T13:03:41.000Z</time>
      </trkpt>
      <trkpt lat="44.12301" lon="5.96259">
        <ele>569.79998779297</ele>
        <time>2020-12-17T13:03:44.000Z</time>
      </trkpt>
      <trkpt lat="44.12294" lon="5.96259">
        <ele>569.79998779297</ele>
        <time>2020-12-17T13:03:46.000Z</time>
      </trkpt>
      <trkpt lat="44.12285" lon="5.96256">
        <ele>569.79998779297</ele>
        <time>2020-12-17T13:03:48.000Z</time>
      </trkpt>
      <trkpt lat="44.12278" lon="5.96253">
        <ele>569.79998779297</ele>
        <time>2020-12-17T13:03:50.000Z</time>
      </trkpt>
      <trkpt lat="44.12269" lon="5.96249">
        <ele>569</ele>
        <time>2020-12-17T13:03:53.000Z</time>
      </trkpt>
      <trkpt lat="44.12267" lon="5.96247">
        <ele>568.79998779297</ele>
        <time>2020-12-17T13:03:54.000Z</time>
      </trkpt>
      <trkpt lat="44.12253" lon="5.96239">
        <ele>568.20001220703</ele>
        <time>2020-12-17T13:03:59.000Z</time>
      </trkpt>
      <trkpt lat="44.12233" lon="5.96228">
        <ele>568.40002441406</ele>
        <time>2020-12-17T13:04:07.000Z</time>
      </trkpt>
      <trkpt lat="44.12215" lon="5.96216">
        <ele>569.20001220703</ele>
        <time>2020-12-17T13:04:14.000Z</time>
      </trkpt>
      <trkpt lat="44.12199" lon="5.96212">
        <ele>570.20001220703</ele>
        <time>2020-12-17T13:04:19.000Z</time>
      </trkpt>
      <trkpt lat="44.12182" lon="5.96209">
        <ele>571.20001220703</ele>
        <time>2020-12-17T13:04:25.000Z</time>
      </trkpt>
      <trkpt lat="44.12163" lon="5.96202">
        <ele>572</ele>
        <time>2020-12-17T13:04:32.000Z</time>
      </trkpt>
      <trkpt lat="44.12159" lon="5.96198">
        <ele>572.59997558594</ele>
        <time>2020-12-17T13:04:34.000Z</time>
      </trkpt>
      <trkpt lat="44.12151" lon="5.9619">
        <ele>573.40002441406</ele>
        <time>2020-12-17T13:04:38.000Z</time>
      </trkpt>
      <trkpt lat="44.12149" lon="5.96189">
        <ele>573.59997558594</ele>
        <time>2020-12-17T13:04:39.000Z</time>
      </trkpt>
      <trkpt lat="44.1214" lon="5.96184">
        <ele>574.79998779297</ele>
        <time>2020-12-17T13:04:42.000Z</time>
      </trkpt>
      <trkpt lat="44.12137" lon="5.96182">
        <ele>575.20001220703</ele>
        <time>2020-12-17T13:04:43.000Z</time>
      </trkpt>
      <trkpt lat="44.12134" lon="5.96181">
        <ele>575.79998779297</ele>
        <time>2020-12-17T13:04:44.000Z</time>
      </trkpt>
      <trkpt lat="44.12125" lon="5.96178">
        <ele>577</ele>
        <time>2020-12-17T13:04:47.000Z</time>
      </trkpt>
      <trkpt lat="44.12119" lon="5.96176">
        <ele>577.40002441406</ele>
        <time>2020-12-17T13:04:49.000Z</time>
      </trkpt>
      <trkpt lat="44.12099" lon="5.96176">
        <ele>578</ele>
        <time>2020-12-17T13:04:56.000Z</time>
      </trkpt>
      <trkpt lat="44.12092" lon="5.96178">
        <ele>578.20001220703</ele>
        <time>2020-12-17T13:04:58.000Z</time>
      </trkpt>
      <trkpt lat="44.12072" lon="5.96178">
        <ele>579</ele>
        <time>2020-12-17T13:05:05.000Z</time>
      </trkpt>
      <trkpt lat="44.12065" lon="5.96176">
        <ele>579.20001220703</ele>
        <time>2020-12-17T13:05:08.000Z</time>
      </trkpt>
      <trkpt lat="44.12059" lon="5.96172">
        <ele>579.79998779297</ele>
        <time>2020-12-17T13:05:11.000Z</time>
      </trkpt>
      <trkpt lat="44.12055" lon="5.96171">
        <ele>580.40002441406</ele>
        <time>2020-12-17T13:05:13.000Z</time>
      </trkpt>
      <trkpt lat="44.12047" lon="5.9617">
        <ele>581.20001220703</ele>
        <time>2020-12-17T13:05:17.000Z</time>
      </trkpt>
      <trkpt lat="44.12045" lon="5.96169">
        <ele>581.79998779297</ele>
        <time>2020-12-17T13:05:18.000Z</time>
      </trkpt>
      <trkpt lat="44.12041" lon="5.96167">
        <ele>582.79998779297</ele>
        <time>2020-12-17T13:05:20.000Z</time>
      </trkpt>
      <trkpt lat="44.12037" lon="5.96165">
        <ele>584</ele>
        <time>2020-12-17T13:05:22.000Z</time>
      </trkpt>
      <trkpt lat="44.12034" lon="5.96163">
        <ele>585</ele>
        <time>2020-12-17T13:05:24.000Z</time>
      </trkpt>
      <trkpt lat="44.12032" lon="5.96163">
        <ele>585.59997558594</ele>
        <time>2020-12-17T13:05:25.000Z</time>
      </trkpt>
      <trkpt lat="44.12024" lon="5.96161">
        <ele>587</ele>
        <time>2020-12-17T13:05:29.000Z</time>
      </trkpt>
      <trkpt lat="44.12022" lon="5.9616">
        <ele>587.40002441406</ele>
        <time>2020-12-17T13:05:30.000Z</time>
      </trkpt>
      <trkpt lat="44.12018" lon="5.96158">
        <ele>588</ele>
        <time>2020-12-17T13:05:32.000Z</time>
      </trkpt>
      <trkpt lat="44.12013" lon="5.96156">
        <ele>589.40002441406</ele>
        <time>2020-12-17T13:05:34.000Z</time>
      </trkpt>
      <trkpt lat="44.12007" lon="5.96152">
        <ele>590.59997558594</ele>
        <time>2020-12-17T13:05:37.000Z</time>
      </trkpt>
      <trkpt lat="44.11998" lon="5.96147">
        <ele>591.79998779297</ele>
        <time>2020-12-17T13:05:41.000Z</time>
      </trkpt>
      <trkpt lat="44.11991" lon="5.96146">
        <ele>592.79998779297</ele>
        <time>2020-12-17T13:05:44.000Z</time>
      </trkpt>
      <trkpt lat="44.11988" lon="5.96145">
        <ele>593</ele>
        <time>2020-12-17T13:05:45.000Z</time>
      </trkpt>
      <trkpt lat="44.11977" lon="5.96144">
        <ele>594.20001220703</ele>
        <time>2020-12-17T13:05:50.000Z</time>
      </trkpt>
      <trkpt lat="44.11965" lon="5.96139">
        <ele>595.20001220703</ele>
        <time>2020-12-17T13:05:56.000Z</time>
      </trkpt>
      <trkpt lat="44.11962" lon="5.96139">
        <ele>595.20001220703</ele>
        <time>2020-12-17T13:05:57.000Z</time>
      </trkpt>
      <trkpt lat="44.11953" lon="5.96143">
        <ele>596.40002441406</ele>
        <time>2020-12-17T13:06:00.000Z</time>
      </trkpt>
      <trkpt lat="44.11945" lon="5.96144">
        <ele>596.59997558594</ele>
        <time>2020-12-17T13:06:02.000Z</time>
      </trkpt>
      <trkpt lat="44.1194" lon="5.96145">
        <ele>596.59997558594</ele>
        <time>2020-12-17T13:06:03.000Z</time>
      </trkpt>
      <trkpt lat="44.11921" lon="5.96148">
        <ele>596.59997558594</ele>
        <time>2020-12-17T13:06:06.000Z</time>
      </trkpt>
      <trkpt lat="44.11915" lon="5.96147">
        <ele>596.59997558594</ele>
        <time>2020-12-17T13:06:07.000Z</time>
      </trkpt>
      <trkpt lat="44.11904" lon="5.96138">
        <ele>596</ele>
        <time>2020-12-17T13:06:10.000Z</time>
      </trkpt>
      <trkpt lat="44.11902" lon="5.96135">
        <ele>595.79998779297</ele>
        <time>2020-12-17T13:06:11.000Z</time>
      </trkpt>
      <trkpt lat="44.11896" lon="5.9612">
        <ele>595.59997558594</ele>
        <time>2020-12-17T13:06:16.000Z</time>
      </trkpt>
      <trkpt lat="44.11886" lon="5.96108">
        <ele>596.20001220703</ele>
        <time>2020-12-17T13:06:22.000Z</time>
      </trkpt>
      <trkpt lat="44.11874" lon="5.96101">
        <ele>597.79998779297</ele>
        <time>2020-12-17T13:06:27.000Z</time>
      </trkpt>
      <trkpt lat="44.11867" lon="5.96096">
        <ele>598.40002441406</ele>
        <time>2020-12-17T13:06:29.000Z</time>
      </trkpt>
      <trkpt lat="44.1186" lon="5.96091">
        <ele>598.59997558594</ele>
        <time>2020-12-17T13:06:31.000Z</time>
      </trkpt>
      <trkpt lat="44.11852" lon="5.9609">
        <ele>598.59997558594</ele>
        <time>2020-12-17T13:06:33.000Z</time>
      </trkpt>
      <trkpt lat="44.11843" lon="5.96089">
        <ele>598.59997558594</ele>
        <time>2020-12-17T13:06:35.000Z</time>
      </trkpt>
      <trkpt lat="44.11838" lon="5.96087">
        <ele>598.59997558594</ele>
        <time>2020-12-17T13:06:36.000Z</time>
      </trkpt>
      <trkpt lat="44.11823" lon="5.96083">
        <ele>598.59997558594</ele>
        <time>2020-12-17T13:06:39.000Z</time>
      </trkpt>
      <trkpt lat="44.11819" lon="5.96084">
        <ele>598.59997558594</ele>
        <time>2020-12-17T13:06:40.000Z</time>
      </trkpt>
      <trkpt lat="44.1181" lon="5.96089">
        <ele>598.20001220703</ele>
        <time>2020-12-17T13:06:43.000Z</time>
      </trkpt>
      <trkpt lat="44.11795" lon="5.96092">
        <ele>597.79998779297</ele>
        <time>2020-12-17T13:06:47.000Z</time>
      </trkpt>
      <trkpt lat="44.11792" lon="5.96094">
        <ele>597.79998779297</ele>
        <time>2020-12-17T13:06:48.000Z</time>
      </trkpt>
      <trkpt lat="44.11776" lon="5.96097">
        <ele>597.40002441406</ele>
        <time>2020-12-17T13:06:53.000Z</time>
      </trkpt>
      <trkpt lat="44.11754" lon="5.96084">
        <ele>598.20001220703</ele>
        <time>2020-12-17T13:07:00.000Z</time>
      </trkpt>
      <trkpt lat="44.11734" lon="5.96076">
        <ele>599.20001220703</ele>
        <time>2020-12-17T13:07:04.000Z</time>
      </trkpt>
      <trkpt lat="44.11716" lon="5.96072">
        <ele>599.40002441406</ele>
        <time>2020-12-17T13:07:08.000Z</time>
      </trkpt>
      <trkpt lat="44.1169" lon="5.9607">
        <ele>599.59997558594</ele>
        <time>2020-12-17T13:07:14.000Z</time>
      </trkpt>
      <trkpt lat="44.11687" lon="5.96072">
        <ele>599.59997558594</ele>
        <time>2020-12-17T13:07:15.000Z</time>
      </trkpt>
      <trkpt lat="44.1168" lon="5.96079">
        <ele>599.59997558594</ele>
        <time>2020-12-17T13:07:17.000Z</time>
      </trkpt>
      <trkpt lat="44.11663" lon="5.96085">
        <ele>599.40002441406</ele>
        <time>2020-12-17T13:07:21.000Z</time>
      </trkpt>
      <trkpt lat="44.11648" lon="5.96086">
        <ele>598</ele>
        <time>2020-12-17T13:07:25.000Z</time>
      </trkpt>
      <trkpt lat="44.11645" lon="5.96087">
        <ele>597.20001220703</ele>
        <time>2020-12-17T13:07:26.000Z</time>
      </trkpt>
      <trkpt lat="44.11642" lon="5.96087">
        <ele>596.59997558594</ele>
        <time>2020-12-17T13:07:27.000Z</time>
      </trkpt>
      <trkpt lat="44.11634" lon="5.96089">
        <ele>595.79998779297</ele>
        <time>2020-12-17T13:07:29.000Z</time>
      </trkpt>
      <trkpt lat="44.1163" lon="5.96091">
        <ele>595.59997558594</ele>
        <time>2020-12-17T13:07:30.000Z</time>
      </trkpt>
      <trkpt lat="44.11625" lon="5.96094">
        <ele>595.59997558594</ele>
        <time>2020-12-17T13:07:31.000Z</time>
      </trkpt>
      <trkpt lat="44.1161" lon="5.96105">
        <ele>595.40002441406</ele>
        <time>2020-12-17T13:07:34.000Z</time>
      </trkpt>
      <trkpt lat="44.11607" lon="5.9611">
        <ele>595.20001220703</ele>
        <time>2020-12-17T13:07:35.000Z</time>
      </trkpt>
      <trkpt lat="44.11597" lon="5.96119">
        <ele>594.59997558594</ele>
        <time>2020-12-17T13:07:37.000Z</time>
      </trkpt>
      <trkpt lat="44.11592" lon="5.96122">
        <ele>594.20001220703</ele>
        <time>2020-12-17T13:07:38.000Z</time>
      </trkpt>
      <trkpt lat="44.11588" lon="5.96131">
        <ele>593</ele>
        <time>2020-12-17T13:07:40.000Z</time>
      </trkpt>
      <trkpt lat="44.11588" lon="5.96136">
        <ele>592.40002441406</ele>
        <time>2020-12-17T13:07:41.000Z</time>
      </trkpt>
      <trkpt lat="44.11587" lon="5.96141">
        <ele>591.79998779297</ele>
        <time>2020-12-17T13:07:42.000Z</time>
      </trkpt>
      <trkpt lat="44.11583" lon="5.96156">
        <ele>590.20001220703</ele>
        <time>2020-12-17T13:07:44.000Z</time>
      </trkpt>
      <trkpt lat="44.11574" lon="5.96167">
        <ele>588.79998779297</ele>
        <time>2020-12-17T13:07:46.000Z</time>
      </trkpt>
      <trkpt lat="44.11569" lon="5.96169">
        <ele>588.20001220703</ele>
        <time>2020-12-17T13:07:47.000Z</time>
      </trkpt>
      <trkpt lat="44.11564" lon="5.9617">
        <ele>587.59997558594</ele>
        <time>2020-12-17T13:07:48.000Z</time>
      </trkpt>
      <trkpt lat="44.11557" lon="5.96175">
        <ele>585.79998779297</ele>
        <time>2020-12-17T13:07:50.000Z</time>
      </trkpt>
      <trkpt lat="44.11554" lon="5.96177">
        <ele>583.20001220703</ele>
        <time>2020-12-17T13:07:51.000Z</time>
      </trkpt>
      <trkpt lat="44.1155" lon="5.96179">
        <ele>582</ele>
        <time>2020-12-17T13:07:52.000Z</time>
      </trkpt>
      <trkpt lat="44.11545" lon="5.96179">
        <ele>580.79998779297</ele>
        <time>2020-12-17T13:07:53.000Z</time>
      </trkpt>
      <trkpt lat="44.11542" lon="5.96179">
        <ele>579.59997558594</ele>
        <time>2020-12-17T13:07:54.000Z</time>
      </trkpt>
      <trkpt lat="44.11538" lon="5.96179">
        <ele>578.20001220703</ele>
        <time>2020-12-17T13:07:56.000Z</time>
      </trkpt>
      <trkpt lat="44.11535" lon="5.9618">
        <ele>577.59997558594</ele>
        <time>2020-12-17T13:07:57.000Z</time>
      </trkpt>
      <trkpt lat="44.11532" lon="5.96181">
        <ele>576.79998779297</ele>
        <time>2020-12-17T13:07:58.000Z</time>
      </trkpt>
      <trkpt lat="44.11527" lon="5.96178">
        <ele>574.79998779297</ele>
        <time>2020-12-17T13:08:00.000Z</time>
      </trkpt>
      <trkpt lat="44.11526" lon="5.96175">
        <ele>573.79998779297</ele>
        <time>2020-12-17T13:08:01.000Z</time>
      </trkpt>
      <trkpt lat="44.11527" lon="5.96173">
        <ele>573.20001220703</ele>
        <time>2020-12-17T13:08:02.000Z</time>
      </trkpt>
      <trkpt lat="44.11529" lon="5.96171">
        <ele>572.40002441406</ele>
        <time>2020-12-17T13:08:04.000Z</time>
      </trkpt>
      <trkpt lat="44.1153" lon="5.9617">
        <ele>571.79998779297</ele>
        <time>2020-12-17T13:08:05.000Z</time>
      </trkpt>
      <trkpt lat="44.11531" lon="5.96167">
        <ele>570.40002441406</ele>
        <time>2020-12-17T13:08:07.000Z</time>
      </trkpt>
      <trkpt lat="44.11532" lon="5.96166">
        <ele>569.40002441406</ele>
        <time>2020-12-17T13:08:09.000Z</time>
      </trkpt>
      <trkpt lat="44.11532" lon="5.96166">
        <ele>569.20001220703</ele>
        <time>2020-12-17T13:08:10.000Z</time>
      </trkpt>
      <trkpt lat="44.11531" lon="5.96166">
        <ele>568.59997558594</ele>
        <time>2020-12-17T13:08:25.000Z</time>
      </trkpt>
      <trkpt lat="44.11535" lon="5.96163">
        <ele>568.59997558594</ele>
        <time>2020-12-17T13:08:32.000Z</time>
      </trkpt>
      <trkpt lat="44.11546" lon="5.96153">
        <ele>568.59997558594</ele>
        <time>2020-12-17T13:08:37.000Z</time>
      </trkpt>
      <trkpt lat="44.11556" lon="5.96138">
        <ele>568.59997558594</ele>
        <time>2020-12-17T13:08:40.000Z</time>
      </trkpt>
      <trkpt lat="44.11559" lon="5.96131">
        <ele>568.40002441406</ele>
        <time>2020-12-17T13:08:41.000Z</time>
      </trkpt>
      <trkpt lat="44.11565" lon="5.96115">
        <ele>568.20001220703</ele>
        <time>2020-12-17T13:08:43.000Z</time>
      </trkpt>
      <trkpt lat="44.11575" lon="5.96086">
        <ele>566.79998779297</ele>
        <time>2020-12-17T13:08:46.000Z</time>
      </trkpt>
      <trkpt lat="44.1158" lon="5.96064">
        <ele>565.79998779297</ele>
        <time>2020-12-17T13:08:48.000Z</time>
      </trkpt>
      <trkpt lat="44.11583" lon="5.96047">
        <ele>564.59997558594</ele>
        <time>2020-12-17T13:08:50.000Z</time>
      </trkpt>
      <trkpt lat="44.11587" lon="5.96037">
        <ele>563</ele>
        <time>2020-12-17T13:08:52.000Z</time>
      </trkpt>
      <trkpt lat="44.11589" lon="5.96031">
        <ele>561.59997558594</ele>
        <time>2020-12-17T13:08:54.000Z</time>
      </trkpt>
      <trkpt lat="44.11588" lon="5.96027">
        <ele>560.40002441406</ele>
        <time>2020-12-17T13:08:56.000Z</time>
      </trkpt>
      <trkpt lat="44.11587" lon="5.96023">
        <ele>559.20001220703</ele>
        <time>2020-12-17T13:08:58.000Z</time>
      </trkpt>
      <trkpt lat="44.11586" lon="5.96021">
        <ele>558.79998779297</ele>
        <time>2020-12-17T13:08:59.000Z</time>
      </trkpt>
      <trkpt lat="44.11586" lon="5.96019">
        <ele>558.20001220703</ele>
        <time>2020-12-17T13:09:00.000Z</time>
      </trkpt>
      <trkpt lat="44.11583" lon="5.96014">
        <ele>557.20001220703</ele>
        <time>2020-12-17T13:09:03.000Z</time>
      </trkpt>
      <trkpt lat="44.11583" lon="5.96012">
        <ele>556.79998779297</ele>
        <time>2020-12-17T13:09:04.000Z</time>
      </trkpt>
      <trkpt lat="44.11583" lon="5.96011">
        <ele>556.40002441406</ele>
        <time>2020-12-17T13:09:05.000Z</time>
      </trkpt>
      <trkpt lat="44.11582" lon="5.9601">
        <ele>555.79998779297</ele>
        <time>2020-12-17T13:09:06.000Z</time>
      </trkpt>
      <trkpt lat="44.11581" lon="5.96008">
        <ele>554.79998779297</ele>
        <time>2020-12-17T13:09:08.000Z</time>
      </trkpt>
      <trkpt lat="44.1158" lon="5.96006">
        <ele>553.59997558594</ele>
        <time>2020-12-17T13:09:10.000Z</time>
      </trkpt>
      <trkpt lat="44.11579" lon="5.96005">
        <ele>552.79998779297</ele>
        <time>2020-12-17T13:09:11.000Z</time>
      </trkpt>
      <trkpt lat="44.11579" lon="5.96003">
        <ele>552.20001220703</ele>
        <time>2020-12-17T13:09:12.000Z</time>
      </trkpt>
      <trkpt lat="44.11579" lon="5.95999">
        <ele>551.20001220703</ele>
        <time>2020-12-17T13:09:14.000Z</time>
      </trkpt>
      <trkpt lat="44.1158" lon="5.95996">
        <ele>550.79998779297</ele>
        <time>2020-12-17T13:09:15.000Z</time>
      </trkpt>
      <trkpt lat="44.11582" lon="5.95991">
        <ele>550.40002441406</ele>
        <time>2020-12-17T13:09:16.000Z</time>
      </trkpt>
      <trkpt lat="44.11584" lon="5.95985">
        <ele>550</ele>
        <time>2020-12-17T13:09:17.000Z</time>
      </trkpt>
      <trkpt lat="44.11586" lon="5.95973">
        <ele>548.79998779297</ele>
        <time>2020-12-17T13:09:20.000Z</time>
      </trkpt>
      <trkpt lat="44.11588" lon="5.95968">
        <ele>546.79998779297</ele>
        <time>2020-12-17T13:09:22.000Z</time>
      </trkpt>
      <trkpt lat="44.11589" lon="5.95964">
        <ele>545.40002441406</ele>
        <time>2020-12-17T13:09:23.000Z</time>
      </trkpt>
      <trkpt lat="44.11589" lon="5.95961">
        <ele>544.20001220703</ele>
        <time>2020-12-17T13:09:24.000Z</time>
      </trkpt>
      <trkpt lat="44.11587" lon="5.95953">
        <ele>542.79998779297</ele>
        <time>2020-12-17T13:09:26.000Z</time>
      </trkpt>
      <trkpt lat="44.11586" lon="5.95947">
        <ele>542.20001220703</ele>
        <time>2020-12-17T13:09:27.000Z</time>
      </trkpt>
      <trkpt lat="44.11584" lon="5.9594">
        <ele>541.79998779297</ele>
        <time>2020-12-17T13:09:28.000Z</time>
      </trkpt>
      <trkpt lat="44.11582" lon="5.95932">
        <ele>541.59997558594</ele>
        <time>2020-12-17T13:09:29.000Z</time>
      </trkpt>
      <trkpt lat="44.1158" lon="5.95905">
        <ele>541</ele>
        <time>2020-12-17T13:09:32.000Z</time>
      </trkpt>
      <trkpt lat="44.11577" lon="5.9589">
        <ele>540.20001220703</ele>
        <time>2020-12-17T13:09:34.000Z</time>
      </trkpt>
      <trkpt lat="44.11575" lon="5.95883">
        <ele>539.40002441406</ele>
        <time>2020-12-17T13:09:35.000Z</time>
      </trkpt>
      <trkpt lat="44.11573" lon="5.95878">
        <ele>538.59997558594</ele>
        <time>2020-12-17T13:09:36.000Z</time>
      </trkpt>
      <trkpt lat="44.11571" lon="5.95871">
        <ele>536.79998779297</ele>
        <time>2020-12-17T13:09:38.000Z</time>
      </trkpt>
      <trkpt lat="44.11571" lon="5.95868">
        <ele>536.40002441406</ele>
        <time>2020-12-17T13:09:39.000Z</time>
      </trkpt>
      <trkpt lat="44.11571" lon="5.95865">
        <ele>535.40002441406</ele>
        <time>2020-12-17T13:09:40.000Z</time>
      </trkpt>
      <trkpt lat="44.11571" lon="5.95861">
        <ele>535</ele>
        <time>2020-12-17T13:09:41.000Z</time>
      </trkpt>
      <trkpt lat="44.11576" lon="5.95855">
        <ele>534.20001220703</ele>
        <time>2020-12-17T13:09:43.000Z</time>
      </trkpt>
      <trkpt lat="44.11583" lon="5.95847">
        <ele>533.20001220703</ele>
        <time>2020-12-17T13:09:46.000Z</time>
      </trkpt>
      <trkpt lat="44.11585" lon="5.95843">
        <ele>532.79998779297</ele>
        <time>2020-12-17T13:09:47.000Z</time>
      </trkpt>
      <trkpt lat="44.11595" lon="5.95837">
        <ele>531.79998779297</ele>
        <time>2020-12-17T13:09:50.000Z</time>
      </trkpt>
      <trkpt lat="44.11599" lon="5.95836">
        <ele>531.59997558594</ele>
        <time>2020-12-17T13:09:51.000Z</time>
      </trkpt>
      <trkpt lat="44.11603" lon="5.95836">
        <ele>531.59997558594</ele>
        <time>2020-12-17T13:09:52.000Z</time>
      </trkpt>
      <trkpt lat="44.11613" lon="5.95834">
        <ele>531.40002441406</ele>
        <time>2020-12-17T13:09:55.000Z</time>
      </trkpt>
      <trkpt lat="44.11638" lon="5.9584">
        <ele>531.79998779297</ele>
        <time>2020-12-17T13:10:02.000Z</time>
      </trkpt>
      <trkpt lat="44.11652" lon="5.95842">
        <ele>532</ele>
        <time>2020-12-17T13:10:07.000Z</time>
      </trkpt>
      <trkpt lat="44.11662" lon="5.95842">
        <ele>532</ele>
        <time>2020-12-17T13:10:11.000Z</time>
      </trkpt>
      <trkpt lat="44.11665" lon="5.95844">
        <ele>532</ele>
        <time>2020-12-17T13:10:12.000Z</time>
      </trkpt>
      <trkpt lat="44.11674" lon="5.9585">
        <ele>532</ele>
        <time>2020-12-17T13:10:15.000Z</time>
      </trkpt>
      <trkpt lat="44.11685" lon="5.95857">
        <ele>532</ele>
        <time>2020-12-17T13:10:18.000Z</time>
      </trkpt>
      <trkpt lat="44.11689" lon="5.95858">
        <ele>531.79998779297</ele>
        <time>2020-12-17T13:10:19.000Z</time>
      </trkpt>
      <trkpt lat="44.11704" lon="5.95859">
        <ele>530.40002441406</ele>
        <time>2020-12-17T13:10:23.000Z</time>
      </trkpt>
      <trkpt lat="44.11708" lon="5.95863">
        <ele>529.20001220703</ele>
        <time>2020-12-17T13:10:26.000Z</time>
      </trkpt>
      <trkpt lat="44.11709" lon="5.95864">
        <ele>529</ele>
        <time>2020-12-17T13:10:27.000Z</time>
      </trkpt>
      <trkpt lat="44.1171" lon="5.95865">
        <ele>528.40002441406</ele>
        <time>2020-12-17T13:10:34.000Z</time>
      </trkpt>
      <trkpt lat="44.11713" lon="5.95867">
        <ele>528.20001220703</ele>
        <time>2020-12-17T13:10:37.000Z</time>
      </trkpt>
      <trkpt lat="44.11716" lon="5.95868">
        <ele>528.20001220703</ele>
        <time>2020-12-17T13:10:39.000Z</time>
      </trkpt>
      <trkpt lat="44.11716" lon="5.95869">
        <ele>528.20001220703</ele>
        <time>2020-12-17T13:10:40.000Z</time>
      </trkpt>
      <trkpt lat="44.11717" lon="5.95869">
        <ele>526.79998779297</ele>
        <time>2020-12-17T13:10:45.000Z</time>
      </trkpt>
      <trkpt lat="44.11717" lon="5.95869">
        <ele>525.79998779297</ele>
        <time>2020-12-17T13:10:48.000Z</time>
      </trkpt>
      <trkpt lat="44.11717" lon="5.9587">
        <ele>525.40002441406</ele>
        <time>2020-12-17T13:11:01.000Z</time>
      </trkpt>
      <trkpt lat="44.11717" lon="5.95869">
        <ele>525.40002441406</ele>
        <time>2020-12-17T13:11:15.000Z</time>
      </trkpt>
      <trkpt lat="44.11718" lon="5.95868">
        <ele>525.40002441406</ele>
        <time>2020-12-17T13:11:17.000Z</time>
      </trkpt>
      <trkpt lat="44.1172" lon="5.95865">
        <ele>525.40002441406</ele>
        <time>2020-12-17T13:11:19.000Z</time>
      </trkpt>
      <trkpt lat="44.11722" lon="5.95859">
        <ele>525.40002441406</ele>
        <time>2020-12-17T13:11:24.000Z</time>
      </trkpt>
      <trkpt lat="44.11723" lon="5.95859">
        <ele>526.59997558594</ele>
        <time>2020-12-17T13:11:30.000Z</time>
      </trkpt>
      <trkpt lat="44.11723" lon="5.95859">
        <ele>527.20001220703</ele>
        <time>2020-12-17T13:11:31.000Z</time>
      </trkpt>
      <trkpt lat="44.11723" lon="5.95859">
        <ele>527.59997558594</ele>
        <time>2020-12-17T13:11:33.000Z</time>
      </trkpt>
      <trkpt lat="44.11724" lon="5.95858">
        <ele>528</ele>
        <time>2020-12-17T13:11:40.000Z</time>
      </trkpt>
      <trkpt lat="44.11726" lon="5.95856">
        <ele>528</ele>
        <time>2020-12-17T13:11:47.000Z</time>
      </trkpt>
      <trkpt lat="44.11727" lon="5.95854">
        <ele>528.59997558594</ele>
        <time>2020-12-17T13:11:50.000Z</time>
      </trkpt>
      <trkpt lat="44.11729" lon="5.95849">
        <ele>529.40002441406</ele>
        <time>2020-12-17T13:11:53.000Z</time>
      </trkpt>
      <trkpt lat="44.1173" lon="5.95845">
        <ele>529.59997558594</ele>
        <time>2020-12-17T13:11:55.000Z</time>
      </trkpt>
      <trkpt lat="44.11736" lon="5.9584">
        <ele>529.79998779297</ele>
        <time>2020-12-17T13:11:57.000Z</time>
      </trkpt>
      <trkpt lat="44.11738" lon="5.95837">
        <ele>530</ele>
        <time>2020-12-17T13:11:58.000Z</time>
      </trkpt>
      <trkpt lat="44.11741" lon="5.95831">
        <ele>530.59997558594</ele>
        <time>2020-12-17T13:12:00.000Z</time>
      </trkpt>
      <trkpt lat="44.11744" lon="5.95829">
        <ele>531.20001220703</ele>
        <time>2020-12-17T13:12:01.000Z</time>
      </trkpt>
      <trkpt lat="44.1176" lon="5.95821">
        <ele>531.79998779297</ele>
        <time>2020-12-17T13:12:07.000Z</time>
      </trkpt>
      <trkpt lat="44.1178" lon="5.95819">
        <ele>531.79998779297</ele>
        <time>2020-12-17T13:12:12.000Z</time>
      </trkpt>
      <trkpt lat="44.118" lon="5.95824">
        <ele>531.20001220703</ele>
        <time>2020-12-17T13:12:18.000Z</time>
      </trkpt>
      <trkpt lat="44.11803" lon="5.95826">
        <ele>531.20001220703</ele>
        <time>2020-12-17T13:12:19.000Z</time>
      </trkpt>
      <trkpt lat="44.11809" lon="5.95825">
        <ele>531</ele>
        <time>2020-12-17T13:12:21.000Z</time>
      </trkpt>
      <trkpt lat="44.11815" lon="5.95827">
        <ele>531</ele>
        <time>2020-12-17T13:12:23.000Z</time>
      </trkpt>
      <trkpt lat="44.11817" lon="5.95829">
        <ele>531</ele>
        <time>2020-12-17T13:12:24.000Z</time>
      </trkpt>
      <trkpt lat="44.11823" lon="5.9584">
        <ele>530.79998779297</ele>
        <time>2020-12-17T13:12:29.000Z</time>
      </trkpt>
      <trkpt lat="44.11832" lon="5.95852">
        <ele>530.59997558594</ele>
        <time>2020-12-17T13:12:33.000Z</time>
      </trkpt>
      <trkpt lat="44.1184" lon="5.9585">
        <ele>530.40002441406</ele>
        <time>2020-12-17T13:12:36.000Z</time>
      </trkpt>
      <trkpt lat="44.11845" lon="5.95847">
        <ele>530.20001220703</ele>
        <time>2020-12-17T13:12:37.000Z</time>
      </trkpt>
      <trkpt lat="44.11849" lon="5.95846">
        <ele>530</ele>
        <time>2020-12-17T13:12:38.000Z</time>
      </trkpt>
      <trkpt lat="44.11856" lon="5.95845">
        <ele>530</ele>
        <time>2020-12-17T13:12:40.000Z</time>
      </trkpt>
      <trkpt lat="44.1187" lon="5.95846">
        <ele>529.59997558594</ele>
        <time>2020-12-17T13:12:44.000Z</time>
      </trkpt>
      <trkpt lat="44.11875" lon="5.95846">
        <ele>529.59997558594</ele>
        <time>2020-12-17T13:12:49.000Z</time>
      </trkpt>
      <trkpt lat="44.11876" lon="5.95846">
        <ele>530.20001220703</ele>
        <time>2020-12-17T13:13:00.000Z</time>
      </trkpt>
      <trkpt lat="44.11876" lon="5.95845">
        <ele>530.20001220703</ele>
        <time>2020-12-17T13:13:09.000Z</time>
      </trkpt>
      <trkpt lat="44.11877" lon="5.95846">
        <ele>530.20001220703</ele>
        <time>2020-12-17T13:13:15.000Z</time>
      </trkpt>
      <trkpt lat="44.11881" lon="5.95846">
        <ele>530.20001220703</ele>
        <time>2020-12-17T13:13:21.000Z</time>
      </trkpt>
      <trkpt lat="44.11882" lon="5.95844">
        <ele>530.20001220703</ele>
        <time>2020-12-17T13:13:22.000Z</time>
      </trkpt>
      <trkpt lat="44.11891" lon="5.95842">
        <ele>530</ele>
        <time>2020-12-17T13:13:27.000Z</time>
      </trkpt>
      <trkpt lat="44.11897" lon="5.95848">
        <ele>530</ele>
        <time>2020-12-17T13:13:29.000Z</time>
      </trkpt>
      <trkpt lat="44.11902" lon="5.9585">
        <ele>529.79998779297</ele>
        <time>2020-12-17T13:13:30.000Z</time>
      </trkpt>
      <trkpt lat="44.11911" lon="5.95854">
        <ele>528.79998779297</ele>
        <time>2020-12-17T13:13:32.000Z</time>
      </trkpt>
      <trkpt lat="44.11921" lon="5.95857">
        <ele>528</ele>
        <time>2020-12-17T13:13:34.000Z</time>
      </trkpt>
      <trkpt lat="44.11926" lon="5.95857">
        <ele>527.59997558594</ele>
        <time>2020-12-17T13:13:35.000Z</time>
      </trkpt>
      <trkpt lat="44.11936" lon="5.95856">
        <ele>526.20001220703</ele>
        <time>2020-12-17T13:13:38.000Z</time>
      </trkpt>
      <trkpt lat="44.11938" lon="5.95855">
        <ele>525.79998779297</ele>
        <time>2020-12-17T13:13:39.000Z</time>
      </trkpt>
      <trkpt lat="44.11952" lon="5.95847">
        <ele>525.40002441406</ele>
        <time>2020-12-17T13:13:43.000Z</time>
      </trkpt>
      <trkpt lat="44.11955" lon="5.95844">
        <ele>525.40002441406</ele>
        <time>2020-12-17T13:13:44.000Z</time>
      </trkpt>
      <trkpt lat="44.11962" lon="5.95841">
        <ele>525.40002441406</ele>
        <time>2020-12-17T13:13:47.000Z</time>
      </trkpt>
      <trkpt lat="44.11971" lon="5.95841">
        <ele>525.59997558594</ele>
        <time>2020-12-17T13:13:50.000Z</time>
      </trkpt>
      <trkpt lat="44.11977" lon="5.95842">
        <ele>525.79998779297</ele>
        <time>2020-12-17T13:13:52.000Z</time>
      </trkpt>
      <trkpt lat="44.11985" lon="5.95843">
        <ele>525.79998779297</ele>
        <time>2020-12-17T13:13:54.000Z</time>
      </trkpt>
      <trkpt lat="44.11991" lon="5.95848">
        <ele>525.79998779297</ele>
        <time>2020-12-17T13:13:56.000Z</time>
      </trkpt>
      <trkpt lat="44.11995" lon="5.9586">
        <ele>525.59997558594</ele>
        <time>2020-12-17T13:13:59.000Z</time>
      </trkpt>
      <trkpt lat="44.11998" lon="5.95865">
        <ele>525.59997558594</ele>
        <time>2020-12-17T13:14:00.000Z</time>
      </trkpt>
      <trkpt lat="44.12011" lon="5.95875">
        <ele>525.20001220703</ele>
        <time>2020-12-17T13:14:03.000Z</time>
      </trkpt>
      <trkpt lat="44.12023" lon="5.95873">
        <ele>525</ele>
        <time>2020-12-17T13:14:06.000Z</time>
      </trkpt>
      <trkpt lat="44.12026" lon="5.95872">
        <ele>524.79998779297</ele>
        <time>2020-12-17T13:14:07.000Z</time>
      </trkpt>
      <trkpt lat="44.12033" lon="5.9587">
        <ele>524.20001220703</ele>
        <time>2020-12-17T13:14:09.000Z</time>
      </trkpt>
      <trkpt lat="44.12042" lon="5.95867">
        <ele>523.79998779297</ele>
        <time>2020-12-17T13:14:12.000Z</time>
      </trkpt>
      <trkpt lat="44.12045" lon="5.95868">
        <ele>523.79998779297</ele>
        <time>2020-12-17T13:14:13.000Z</time>
      </trkpt>
      <trkpt lat="44.1206" lon="5.95868">
        <ele>524</ele>
        <time>2020-12-17T13:14:18.000Z</time>
      </trkpt>
      <trkpt lat="44.12067" lon="5.95865">
        <ele>524.59997558594</ele>
        <time>2020-12-17T13:14:21.000Z</time>
      </trkpt>
      <trkpt lat="44.1207" lon="5.95866">
        <ele>524.59997558594</ele>
        <time>2020-12-17T13:14:22.000Z</time>
      </trkpt>
      <trkpt lat="44.12082" lon="5.95874">
        <ele>524.59997558594</ele>
        <time>2020-12-17T13:14:25.000Z</time>
      </trkpt>
      <trkpt lat="44.12087" lon="5.95876">
        <ele>524.59997558594</ele>
        <time>2020-12-17T13:14:26.000Z</time>
      </trkpt>
      <trkpt lat="44.12095" lon="5.9588">
        <ele>524.59997558594</ele>
        <time>2020-12-17T13:14:28.000Z</time>
      </trkpt>
      <trkpt lat="44.12096" lon="5.95884">
        <ele>524.59997558594</ele>
        <time>2020-12-17T13:14:29.000Z</time>
      </trkpt>
      <trkpt lat="44.12099" lon="5.95898">
        <ele>524.40002441406</ele>
        <time>2020-12-17T13:14:32.000Z</time>
      </trkpt>
      <trkpt lat="44.12103" lon="5.95911">
        <ele>522.79998779297</ele>
        <time>2020-12-17T13:14:35.000Z</time>
      </trkpt>
      <trkpt lat="44.12107" lon="5.95919">
        <ele>521.79998779297</ele>
        <time>2020-12-17T13:14:37.000Z</time>
      </trkpt>
      <trkpt lat="44.1211" lon="5.95922">
        <ele>521.59997558594</ele>
        <time>2020-12-17T13:14:38.000Z</time>
      </trkpt>
      <trkpt lat="44.12113" lon="5.95923">
        <ele>521.20001220703</ele>
        <time>2020-12-17T13:14:39.000Z</time>
      </trkpt>
      <trkpt lat="44.12118" lon="5.95924">
        <ele>520.40002441406</ele>
        <time>2020-12-17T13:14:41.000Z</time>
      </trkpt>
      <trkpt lat="44.1212" lon="5.95924">
        <ele>519.59997558594</ele>
        <time>2020-12-17T13:14:43.000Z</time>
      </trkpt>
      <trkpt lat="44.12121" lon="5.95925">
        <ele>519</ele>
        <time>2020-12-17T13:14:44.000Z</time>
      </trkpt>
      <trkpt lat="44.12123" lon="5.95927">
        <ele>518.40002441406</ele>
        <time>2020-12-17T13:14:49.000Z</time>
      </trkpt>
      <trkpt lat="44.12123" lon="5.95929">
        <ele>518.40002441406</ele>
        <time>2020-12-17T13:14:50.000Z</time>
      </trkpt>
      <trkpt lat="44.1212" lon="5.95943">
        <ele>518.59997558594</ele>
        <time>2020-12-17T13:14:55.000Z</time>
      </trkpt>
      <trkpt lat="44.12121" lon="5.95956">
        <ele>519</ele>
        <time>2020-12-17T13:15:00.000Z</time>
      </trkpt>
      <trkpt lat="44.12125" lon="5.95964">
        <ele>520</ele>
        <time>2020-12-17T13:15:03.000Z</time>
      </trkpt>
      <trkpt lat="44.12129" lon="5.9597">
        <ele>520.79998779297</ele>
        <time>2020-12-17T13:15:05.000Z</time>
      </trkpt>
      <trkpt lat="44.12131" lon="5.95973">
        <ele>521.40002441406</ele>
        <time>2020-12-17T13:15:06.000Z</time>
      </trkpt>
      <trkpt lat="44.12136" lon="5.95983">
        <ele>522.40002441406</ele>
        <time>2020-12-17T13:15:09.000Z</time>
      </trkpt>
      <trkpt lat="44.12138" lon="5.95985">
        <ele>522.79998779297</ele>
        <time>2020-12-17T13:15:10.000Z</time>
      </trkpt>
      <trkpt lat="44.12144" lon="5.95988">
        <ele>523.59997558594</ele>
        <time>2020-12-17T13:15:12.000Z</time>
      </trkpt>
      <trkpt lat="44.1216" lon="5.95996">
        <ele>523.79998779297</ele>
        <time>2020-12-17T13:15:16.000Z</time>
      </trkpt>
      <trkpt lat="44.12174" lon="5.96008">
        <ele>523.79998779297</ele>
        <time>2020-12-17T13:15:19.000Z</time>
      </trkpt>
      <trkpt lat="44.12189" lon="5.96019">
        <ele>522.59997558594</ele>
        <time>2020-12-17T13:15:23.000Z</time>
      </trkpt>
      <trkpt lat="44.12196" lon="5.9602">
        <ele>521.40002441406</ele>
        <time>2020-12-17T13:15:26.000Z</time>
      </trkpt>
      <trkpt lat="44.12199" lon="5.96021">
        <ele>521.20001220703</ele>
        <time>2020-12-17T13:15:27.000Z</time>
      </trkpt>
      <trkpt lat="44.12212" lon="5.96024">
        <ele>520.59997558594</ele>
        <time>2020-12-17T13:15:31.000Z</time>
      </trkpt>
      <trkpt lat="44.12227" lon="5.9603">
        <ele>520.40002441406</ele>
        <time>2020-12-17T13:15:36.000Z</time>
      </trkpt>
      <trkpt lat="44.1223" lon="5.9603">
        <ele>520.40002441406</ele>
        <time>2020-12-17T13:15:37.000Z</time>
      </trkpt>
      <trkpt lat="44.12238" lon="5.96033">
        <ele>520.20001220703</ele>
        <time>2020-12-17T13:15:40.000Z</time>
      </trkpt>
      <trkpt lat="44.12255" lon="5.96039">
        <ele>520</ele>
        <time>2020-12-17T13:15:45.000Z</time>
      </trkpt>
      <trkpt lat="44.12264" lon="5.96041">
        <ele>520</ele>
        <time>2020-12-17T13:15:47.000Z</time>
      </trkpt>
      <trkpt lat="44.12275" lon="5.96046">
        <ele>519.79998779297</ele>
        <time>2020-12-17T13:15:49.000Z</time>
      </trkpt>
      <trkpt lat="44.1229" lon="5.96053">
        <ele>519.59997558594</ele>
        <time>2020-12-17T13:15:52.000Z</time>
      </trkpt>
      <trkpt lat="44.12294" lon="5.96052">
        <ele>519.40002441406</ele>
        <time>2020-12-17T13:15:53.000Z</time>
      </trkpt>
      <trkpt lat="44.123" lon="5.96047">
        <ele>518.40002441406</ele>
        <time>2020-12-17T13:15:55.000Z</time>
      </trkpt>
      <trkpt lat="44.12304" lon="5.9604">
        <ele>517.40002441406</ele>
        <time>2020-12-17T13:15:57.000Z</time>
      </trkpt>
      <trkpt lat="44.12307" lon="5.96025">
        <ele>516.59997558594</ele>
        <time>2020-12-17T13:16:01.000Z</time>
      </trkpt>
      <trkpt lat="44.12314" lon="5.96017">
        <ele>516.59997558594</ele>
        <time>2020-12-17T13:16:05.000Z</time>
      </trkpt>
      <trkpt lat="44.1232" lon="5.96018">
        <ele>516.59997558594</ele>
        <time>2020-12-17T13:16:07.000Z</time>
      </trkpt>
      <trkpt lat="44.1233" lon="5.96022">
        <ele>517.20001220703</ele>
        <time>2020-12-17T13:16:10.000Z</time>
      </trkpt>
      <trkpt lat="44.12339" lon="5.96035">
        <ele>517.40002441406</ele>
        <time>2020-12-17T13:16:14.000Z</time>
      </trkpt>
      <trkpt lat="44.12345" lon="5.96042">
        <ele>517.40002441406</ele>
        <time>2020-12-17T13:16:16.000Z</time>
      </trkpt>
      <trkpt lat="44.12349" lon="5.96051">
        <ele>517.40002441406</ele>
        <time>2020-12-17T13:16:18.000Z</time>
      </trkpt>
      <trkpt lat="44.12352" lon="5.96066">
        <ele>517.40002441406</ele>
        <time>2020-12-17T13:16:22.000Z</time>
      </trkpt>
      <trkpt lat="44.12354" lon="5.96076">
        <ele>515.79998779297</ele>
        <time>2020-12-17T13:16:25.000Z</time>
      </trkpt>
      <trkpt lat="44.12354" lon="5.9608">
        <ele>515.20001220703</ele>
        <time>2020-12-17T13:16:26.000Z</time>
      </trkpt>
      <trkpt lat="44.12354" lon="5.96083">
        <ele>514.79998779297</ele>
        <time>2020-12-17T13:16:27.000Z</time>
      </trkpt>
      <trkpt lat="44.12355" lon="5.96087">
        <ele>514.79998779297</ele>
        <time>2020-12-17T13:16:28.000Z</time>
      </trkpt>
      <trkpt lat="44.12363" lon="5.961">
        <ele>514.40002441406</ele>
        <time>2020-12-17T13:16:32.000Z</time>
      </trkpt>
      <trkpt lat="44.12372" lon="5.96102">
        <ele>514.59997558594</ele>
        <time>2020-12-17T13:16:36.000Z</time>
      </trkpt>
      <trkpt lat="44.12377" lon="5.96091">
        <ele>515.40002441406</ele>
        <time>2020-12-17T13:16:40.000Z</time>
      </trkpt>
      <trkpt lat="44.12377" lon="5.96088">
        <ele>515.59997558594</ele>
        <time>2020-12-17T13:16:41.000Z</time>
      </trkpt>
      <trkpt lat="44.12378" lon="5.96067">
        <ele>516.20001220703</ele>
        <time>2020-12-17T13:16:45.000Z</time>
      </trkpt>
      <trkpt lat="44.12384" lon="5.96036">
        <ele>516.20001220703</ele>
        <time>2020-12-17T13:16:51.000Z</time>
      </trkpt>
      <trkpt lat="44.12388" lon="5.96022">
        <ele>516</ele>
        <time>2020-12-17T13:16:54.000Z</time>
      </trkpt>
      <trkpt lat="44.1239" lon="5.96019">
        <ele>515.79998779297</ele>
        <time>2020-12-17T13:16:55.000Z</time>
      </trkpt>
      <trkpt lat="44.12398" lon="5.96014">
        <ele>515.79998779297</ele>
        <time>2020-12-17T13:16:58.000Z</time>
      </trkpt>
      <trkpt lat="44.12407" lon="5.96007">
        <ele>515.59997558594</ele>
        <time>2020-12-17T13:17:01.000Z</time>
      </trkpt>
      <trkpt lat="44.12411" lon="5.96004">
        <ele>515.59997558594</ele>
        <time>2020-12-17T13:17:02.000Z</time>
      </trkpt>
      <trkpt lat="44.1242" lon="5.96">
        <ele>515.40002441406</ele>
        <time>2020-12-17T13:17:04.000Z</time>
      </trkpt>
      <trkpt lat="44.1243" lon="5.96002">
        <ele>515.20001220703</ele>
        <time>2020-12-17T13:17:07.000Z</time>
      </trkpt>
      <trkpt lat="44.12441" lon="5.96002">
        <ele>514.20001220703</ele>
        <time>2020-12-17T13:17:10.000Z</time>
      </trkpt>
      <trkpt lat="44.12453" lon="5.95998">
        <ele>513</ele>
        <time>2020-12-17T13:17:13.000Z</time>
      </trkpt>
      <trkpt lat="44.12457" lon="5.95996">
        <ele>512.79998779297</ele>
        <time>2020-12-17T13:17:14.000Z</time>
      </trkpt>
      <trkpt lat="44.12466" lon="5.95991">
        <ele>511.60000610352</ele>
        <time>2020-12-17T13:17:17.000Z</time>
      </trkpt>
      <trkpt lat="44.12469" lon="5.95991">
        <ele>511.39999389648</ele>
        <time>2020-12-17T13:17:18.000Z</time>
      </trkpt>
      <trkpt lat="44.12473" lon="5.95992">
        <ele>511</ele>
        <time>2020-12-17T13:17:19.000Z</time>
      </trkpt>
      <trkpt lat="44.12481" lon="5.95993">
        <ele>510.39999389648</ele>
        <time>2020-12-17T13:17:21.000Z</time>
      </trkpt>
      <trkpt lat="44.12483" lon="5.95995">
        <ele>510.39999389648</ele>
        <time>2020-12-17T13:17:22.000Z</time>
      </trkpt>
      <trkpt lat="44.12495" lon="5.96">
        <ele>510.39999389648</ele>
        <time>2020-12-17T13:17:27.000Z</time>
      </trkpt>
      <trkpt lat="44.12497" lon="5.96002">
        <ele>510.39999389648</ele>
        <time>2020-12-17T13:17:28.000Z</time>
      </trkpt>
      <trkpt lat="44.125" lon="5.96014">
        <ele>510.39999389648</ele>
        <time>2020-12-17T13:17:33.000Z</time>
      </trkpt>
      <trkpt lat="44.1251" lon="5.96014">
        <ele>510</ele>
        <time>2020-12-17T13:17:37.000Z</time>
      </trkpt>
      <trkpt lat="44.12514" lon="5.96018">
        <ele>509.79998779297</ele>
        <time>2020-12-17T13:17:39.000Z</time>
      </trkpt>
      <trkpt lat="44.12516" lon="5.96021">
        <ele>509.79998779297</ele>
        <time>2020-12-17T13:17:40.000Z</time>
      </trkpt>
      <trkpt lat="44.1252" lon="5.96026">
        <ele>509.39999389648</ele>
        <time>2020-12-17T13:17:42.000Z</time>
      </trkpt>
      <trkpt lat="44.12525" lon="5.96031">
        <ele>509.20001220703</ele>
        <time>2020-12-17T13:17:44.000Z</time>
      </trkpt>
      <trkpt lat="44.12532" lon="5.96036">
        <ele>508.60000610352</ele>
        <time>2020-12-17T13:17:46.000Z</time>
      </trkpt>
      <trkpt lat="44.12537" lon="5.96036">
        <ele>508.20001220703</ele>
        <time>2020-12-17T13:17:47.000Z</time>
      </trkpt>
      <trkpt lat="44.12548" lon="5.96035">
        <ele>507.79998779297</ele>
        <time>2020-12-17T13:17:51.000Z</time>
      </trkpt>
      <trkpt lat="44.12561" lon="5.96033">
        <ele>507.79998779297</ele>
        <time>2020-12-17T13:17:57.000Z</time>
      </trkpt>
      <trkpt lat="44.1257" lon="5.96029">
        <ele>509</ele>
        <time>2020-12-17T13:18:01.000Z</time>
      </trkpt>
      <trkpt lat="44.12575" lon="5.96029">
        <ele>509.20001220703</ele>
        <time>2020-12-17T13:18:02.000Z</time>
      </trkpt>
      <trkpt lat="44.12585" lon="5.96034">
        <ele>509.20001220703</ele>
        <time>2020-12-17T13:18:04.000Z</time>
      </trkpt>
      <trkpt lat="44.12595" lon="5.96043">
        <ele>509.20001220703</ele>
        <time>2020-12-17T13:18:07.000Z</time>
      </trkpt>
      <trkpt lat="44.126" lon="5.96056">
        <ele>509</ele>
        <time>2020-12-17T13:18:11.000Z</time>
      </trkpt>
      <trkpt lat="44.12606" lon="5.96067">
        <ele>509</ele>
        <time>2020-12-17T13:18:15.000Z</time>
      </trkpt>
      <trkpt lat="44.1261" lon="5.96083">
        <ele>508.79998779297</ele>
        <time>2020-12-17T13:18:21.000Z</time>
      </trkpt>
      <trkpt lat="44.12612" lon="5.96089">
        <ele>508.79998779297</ele>
        <time>2020-12-17T13:18:22.000Z</time>
      </trkpt>
      <trkpt lat="44.12614" lon="5.96105">
        <ele>508.79998779297</ele>
        <time>2020-12-17T13:18:25.000Z</time>
      </trkpt>
      <trkpt lat="44.12614" lon="5.96113">
        <ele>508.79998779297</ele>
        <time>2020-12-17T13:18:27.000Z</time>
      </trkpt>
      <trkpt lat="44.12615" lon="5.96126">
        <ele>508.20001220703</ele>
        <time>2020-12-17T13:18:29.000Z</time>
      </trkpt>
      <trkpt lat="44.12617" lon="5.96144">
        <ele>507</ele>
        <time>2020-12-17T13:18:33.000Z</time>
      </trkpt>
      <trkpt lat="44.12618" lon="5.96148">
        <ele>506.60000610352</ele>
        <time>2020-12-17T13:18:34.000Z</time>
      </trkpt>
      <trkpt lat="44.12622" lon="5.96155">
        <ele>506.20001220703</ele>
        <time>2020-12-17T13:18:37.000Z</time>
      </trkpt>
      <trkpt lat="44.12635" lon="5.96154">
        <ele>506.20001220703</ele>
        <time>2020-12-17T13:18:43.000Z</time>
      </trkpt>
      <trkpt lat="44.12647" lon="5.96155">
        <ele>507.60000610352</ele>
        <time>2020-12-17T13:18:50.000Z</time>
      </trkpt>
      <trkpt lat="44.12648" lon="5.96154">
        <ele>508</ele>
        <time>2020-12-17T13:18:51.000Z</time>
      </trkpt>
      <trkpt lat="44.12654" lon="5.96152">
        <ele>509.39999389648</ele>
        <time>2020-12-17T13:18:54.000Z</time>
      </trkpt>
      <trkpt lat="44.12658" lon="5.96153">
        <ele>510.60000610352</ele>
        <time>2020-12-17T13:18:56.000Z</time>
      </trkpt>
      <trkpt lat="44.1266" lon="5.96156">
        <ele>511.60000610352</ele>
        <time>2020-12-17T13:18:58.000Z</time>
      </trkpt>
      <trkpt lat="44.1266" lon="5.96158">
        <ele>512</ele>
        <time>2020-12-17T13:18:59.000Z</time>
      </trkpt>
      <trkpt lat="44.1266" lon="5.96158">
        <ele>512.79998779297</ele>
        <time>2020-12-17T13:19:02.000Z</time>
      </trkpt>
      <trkpt lat="44.1266" lon="5.96159">
        <ele>514</ele>
        <time>2020-12-17T13:19:05.000Z</time>
      </trkpt>
      <trkpt lat="44.1266" lon="5.96159">
        <ele>514.40002441406</ele>
        <time>2020-12-17T13:19:07.000Z</time>
      </trkpt>
      <trkpt lat="44.1266" lon="5.96162">
        <ele>515</ele>
        <time>2020-12-17T13:19:11.000Z</time>
      </trkpt>
      <trkpt lat="44.1266" lon="5.96166">
        <ele>515.20001220703</ele>
        <time>2020-12-17T13:19:13.000Z</time>
      </trkpt>
      <trkpt lat="44.12654" lon="5.96174">
        <ele>515.40002441406</ele>
        <time>2020-12-17T13:19:18.000Z</time>
      </trkpt>
      <trkpt lat="44.12652" lon="5.96176">
        <ele>516.20001220703</ele>
        <time>2020-12-17T13:19:20.000Z</time>
      </trkpt>
      <trkpt lat="44.1265" lon="5.9618">
        <ele>517.20001220703</ele>
        <time>2020-12-17T13:19:22.000Z</time>
      </trkpt>
      <trkpt lat="44.12648" lon="5.96187">
        <ele>518.59997558594</ele>
        <time>2020-12-17T13:19:25.000Z</time>
      </trkpt>
      <trkpt lat="44.12647" lon="5.96193">
        <ele>520</ele>
        <time>2020-12-17T13:19:28.000Z</time>
      </trkpt>
      <trkpt lat="44.12647" lon="5.96199">
        <ele>520.79998779297</ele>
        <time>2020-12-17T13:19:31.000Z</time>
      </trkpt>
      <trkpt lat="44.12647" lon="5.96199">
        <ele>521</ele>
        <time>2020-12-17T13:19:32.000Z</time>
      </trkpt>
      <trkpt lat="44.12647" lon="5.96202">
        <ele>522</ele>
        <time>2020-12-17T13:19:37.000Z</time>
      </trkpt>
      <trkpt lat="44.12647" lon="5.96204">
        <ele>522.59997558594</ele>
        <time>2020-12-17T13:19:41.000Z</time>
      </trkpt>
      <trkpt lat="44.12647" lon="5.96208">
        <ele>522.79998779297</ele>
        <time>2020-12-17T13:19:44.000Z</time>
      </trkpt>
      <trkpt lat="44.12649" lon="5.96215">
        <ele>522.79998779297</ele>
        <time>2020-12-17T13:19:46.000Z</time>
      </trkpt>
      <trkpt lat="44.12653" lon="5.96229">
        <ele>522.59997558594</ele>
        <time>2020-12-17T13:19:49.000Z</time>
      </trkpt>
      <trkpt lat="44.12658" lon="5.96226">
        <ele>521.40002441406</ele>
        <time>2020-12-17T13:19:52.000Z</time>
      </trkpt>
      <trkpt lat="44.1266" lon="5.96224">
        <ele>519.79998779297</ele>
        <time>2020-12-17T13:19:53.000Z</time>
      </trkpt>
      <trkpt lat="44.12661" lon="5.96223">
        <ele>517.79998779297</ele>
        <time>2020-12-17T13:19:54.000Z</time>
      </trkpt>
      <trkpt lat="44.12663" lon="5.96221">
        <ele>516.59997558594</ele>
        <time>2020-12-17T13:19:55.000Z</time>
      </trkpt>
      <trkpt lat="44.12664" lon="5.9622">
        <ele>516.20001220703</ele>
        <time>2020-12-17T13:19:56.000Z</time>
      </trkpt>
      <trkpt lat="44.12668" lon="5.96218">
        <ele>515.79998779297</ele>
        <time>2020-12-17T13:19:58.000Z</time>
      </trkpt>
      <trkpt lat="44.1267" lon="5.96219">
        <ele>515.59997558594</ele>
        <time>2020-12-17T13:19:59.000Z</time>
      </trkpt>
      <trkpt lat="44.12673" lon="5.96223">
        <ele>515.59997558594</ele>
        <time>2020-12-17T13:20:02.000Z</time>
      </trkpt>
      <trkpt lat="44.12674" lon="5.96228">
        <ele>515.59997558594</ele>
        <time>2020-12-17T13:20:05.000Z</time>
      </trkpt>
      <trkpt lat="44.12673" lon="5.96235">
        <ele>515.59997558594</ele>
        <time>2020-12-17T13:20:07.000Z</time>
      </trkpt>
      <trkpt lat="44.12674" lon="5.96251">
        <ele>515.59997558594</ele>
        <time>2020-12-17T13:20:12.000Z</time>
      </trkpt>
      <trkpt lat="44.12675" lon="5.96252">
        <ele>515.59997558594</ele>
        <time>2020-12-17T13:20:13.000Z</time>
      </trkpt>
      <trkpt lat="44.12678" lon="5.96252">
        <ele>514</ele>
        <time>2020-12-17T13:20:15.000Z</time>
      </trkpt>
      <trkpt lat="44.12681" lon="5.96253">
        <ele>513</ele>
        <time>2020-12-17T13:20:16.000Z</time>
      </trkpt>
      <trkpt lat="44.12684" lon="5.96253">
        <ele>512</ele>
        <time>2020-12-17T13:20:17.000Z</time>
      </trkpt>
      <trkpt lat="44.12687" lon="5.96253">
        <ele>510</ele>
        <time>2020-12-17T13:20:18.000Z</time>
      </trkpt>
      <trkpt lat="44.12689" lon="5.96253">
        <ele>509.39999389648</ele>
        <time>2020-12-17T13:20:19.000Z</time>
      </trkpt>
      <trkpt lat="44.12692" lon="5.96253">
        <ele>508.79998779297</ele>
        <time>2020-12-17T13:20:20.000Z</time>
      </trkpt>
      <trkpt lat="44.12701" lon="5.96253">
        <ele>507.39999389648</ele>
        <time>2020-12-17T13:20:23.000Z</time>
      </trkpt>
      <trkpt lat="44.12706" lon="5.96253">
        <ele>506.20001220703</ele>
        <time>2020-12-17T13:20:25.000Z</time>
      </trkpt>
      <trkpt lat="44.12709" lon="5.96252">
        <ele>505.60000610352</ele>
        <time>2020-12-17T13:20:26.000Z</time>
      </trkpt>
      <trkpt lat="44.12712" lon="5.9625">
        <ele>505</ele>
        <time>2020-12-17T13:20:27.000Z</time>
      </trkpt>
      <trkpt lat="44.12716" lon="5.96247">
        <ele>503.79998779297</ele>
        <time>2020-12-17T13:20:29.000Z</time>
      </trkpt>
      <trkpt lat="44.12718" lon="5.96246">
        <ele>503.39999389648</ele>
        <time>2020-12-17T13:20:30.000Z</time>
      </trkpt>
      <trkpt lat="44.1272" lon="5.96246">
        <ele>503.20001220703</ele>
        <time>2020-12-17T13:20:31.000Z</time>
      </trkpt>
      <trkpt lat="44.12723" lon="5.96248">
        <ele>502.39999389648</ele>
        <time>2020-12-17T13:20:33.000Z</time>
      </trkpt>
      <trkpt lat="44.12731" lon="5.9625">
        <ele>502</ele>
        <time>2020-12-17T13:20:37.000Z</time>
      </trkpt>
      <trkpt lat="44.12747" lon="5.9625">
        <ele>502</ele>
        <time>2020-12-17T13:20:44.000Z</time>
      </trkpt>
      <trkpt lat="44.12758" lon="5.96242">
        <ele>502.20001220703</ele>
        <time>2020-12-17T13:20:50.000Z</time>
      </trkpt>
      <trkpt lat="44.12765" lon="5.96236">
        <ele>504</ele>
        <time>2020-12-17T13:20:55.000Z</time>
      </trkpt>
      <trkpt lat="44.12766" lon="5.96236">
        <ele>504.60000610352</ele>
        <time>2020-12-17T13:20:56.000Z</time>
      </trkpt>
      <trkpt lat="44.12768" lon="5.96238">
        <ele>505</ele>
        <time>2020-12-17T13:20:57.000Z</time>
      </trkpt>
      <trkpt lat="44.12772" lon="5.96243">
        <ele>506.20001220703</ele>
        <time>2020-12-17T13:20:59.000Z</time>
      </trkpt>
      <trkpt lat="44.12774" lon="5.96246">
        <ele>506.60000610352</ele>
        <time>2020-12-17T13:21:00.000Z</time>
      </trkpt>
      <trkpt lat="44.12781" lon="5.96257">
        <ele>507.20001220703</ele>
        <time>2020-12-17T13:21:03.000Z</time>
      </trkpt>
      <trkpt lat="44.12784" lon="5.96262">
        <ele>507.20001220703</ele>
        <time>2020-12-17T13:21:04.000Z</time>
      </trkpt>
      <trkpt lat="44.12789" lon="5.96274">
        <ele>507.39999389648</ele>
        <time>2020-12-17T13:21:06.000Z</time>
      </trkpt>
      <trkpt lat="44.12791" lon="5.96281">
        <ele>507.39999389648</ele>
        <time>2020-12-17T13:21:07.000Z</time>
      </trkpt>
      <trkpt lat="44.12794" lon="5.96288">
        <ele>507.39999389648</ele>
        <time>2020-12-17T13:21:08.000Z</time>
      </trkpt>
      <trkpt lat="44.12799" lon="5.96297">
        <ele>507.39999389648</ele>
        <time>2020-12-17T13:21:10.000Z</time>
      </trkpt>
      <trkpt lat="44.12808" lon="5.96305">
        <ele>506</ele>
        <time>2020-12-17T13:21:13.000Z</time>
      </trkpt>
      <trkpt lat="44.12809" lon="5.96306">
        <ele>505.79998779297</ele>
        <time>2020-12-17T13:21:14.000Z</time>
      </trkpt>
      <trkpt lat="44.12822" lon="5.96309">
        <ele>505.79998779297</ele>
        <time>2020-12-17T13:21:20.000Z</time>
      </trkpt>
      <trkpt lat="44.12834" lon="5.96316">
        <ele>507</ele>
        <time>2020-12-17T13:21:26.000Z</time>
      </trkpt>
      <trkpt lat="44.12834" lon="5.96316">
        <ele>508</ele>
        <time>2020-12-17T13:21:35.000Z</time>
      </trkpt>
      <trkpt lat="44.12834" lon="5.96316">
        <ele>508</ele>
        <time>2020-12-17T13:21:50.000Z</time>
      </trkpt>
      <trkpt lat="44.12834" lon="5.96316">
        <ele>508</ele>
        <time>2020-12-17T13:21:52.000Z</time>
      </trkpt>
      <trkpt lat="44.12835" lon="5.96319">
        <ele>508</ele>
        <time>2020-12-17T13:22:03.000Z</time>
      </trkpt>
      <trkpt lat="44.12837" lon="5.9633">
        <ele>508</ele>
        <time>2020-12-17T13:22:06.000Z</time>
      </trkpt>
      <trkpt lat="44.12844" lon="5.96343">
        <ele>508</ele>
        <time>2020-12-17T13:22:09.000Z</time>
      </trkpt>
      <trkpt lat="44.12847" lon="5.96348">
        <ele>508</ele>
        <time>2020-12-17T13:22:10.000Z</time>
      </trkpt>
      <trkpt lat="44.12855" lon="5.9636">
        <ele>506.20001220703</ele>
        <time>2020-12-17T13:22:13.000Z</time>
      </trkpt>
      <trkpt lat="44.12856" lon="5.96366">
        <ele>505.20001220703</ele>
        <time>2020-12-17T13:22:14.000Z</time>
      </trkpt>
      <trkpt lat="44.12858" lon="5.96372">
        <ele>504.39999389648</ele>
        <time>2020-12-17T13:22:15.000Z</time>
      </trkpt>
      <trkpt lat="44.12864" lon="5.96383">
        <ele>503</ele>
        <time>2020-12-17T13:22:17.000Z</time>
      </trkpt>
      <trkpt lat="44.12867" lon="5.96388">
        <ele>502.20001220703</ele>
        <time>2020-12-17T13:22:18.000Z</time>
      </trkpt>
      <trkpt lat="44.1287" lon="5.96394">
        <ele>501.79998779297</ele>
        <time>2020-12-17T13:22:20.000Z</time>
      </trkpt>
      <trkpt lat="44.12871" lon="5.96396">
        <ele>501.20001220703</ele>
        <time>2020-12-17T13:22:21.000Z</time>
      </trkpt>
      <trkpt lat="44.12872" lon="5.96399">
        <ele>500.39999389648</ele>
        <time>2020-12-17T13:22:22.000Z</time>
      </trkpt>
      <trkpt lat="44.12874" lon="5.96402">
        <ele>499.39999389648</ele>
        <time>2020-12-17T13:22:23.000Z</time>
      </trkpt>
      <trkpt lat="44.12877" lon="5.96404">
        <ele>498</ele>
        <time>2020-12-17T13:22:24.000Z</time>
      </trkpt>
      <trkpt lat="44.1288" lon="5.96406">
        <ele>497.39999389648</ele>
        <time>2020-12-17T13:22:25.000Z</time>
      </trkpt>
      <trkpt lat="44.12883" lon="5.96409">
        <ele>497</ele>
        <time>2020-12-17T13:22:26.000Z</time>
      </trkpt>
      <trkpt lat="44.12886" lon="5.96417">
        <ele>496.60000610352</ele>
        <time>2020-12-17T13:22:28.000Z</time>
      </trkpt>
      <trkpt lat="44.12887" lon="5.96425">
        <ele>496</ele>
        <time>2020-12-17T13:22:30.000Z</time>
      </trkpt>
      <trkpt lat="44.12887" lon="5.96429">
        <ele>495.39999389648</ele>
        <time>2020-12-17T13:22:31.000Z</time>
      </trkpt>
      <trkpt lat="44.12888" lon="5.96436">
        <ele>494.60000610352</ele>
        <time>2020-12-17T13:22:33.000Z</time>
      </trkpt>
      <trkpt lat="44.12889" lon="5.96444">
        <ele>494.39999389648</ele>
        <time>2020-12-17T13:22:35.000Z</time>
      </trkpt>
      <trkpt lat="44.12894" lon="5.96453">
        <ele>494.20001220703</ele>
        <time>2020-12-17T13:22:38.000Z</time>
      </trkpt>
      <trkpt lat="44.12898" lon="5.96464">
        <ele>494.20001220703</ele>
        <time>2020-12-17T13:22:43.000Z</time>
      </trkpt>
      <trkpt lat="44.12898" lon="5.96477">
        <ele>494.39999389648</ele>
        <time>2020-12-17T13:22:48.000Z</time>
      </trkpt>
      <trkpt lat="44.12899" lon="5.96482">
        <ele>494.39999389648</ele>
        <time>2020-12-17T13:22:50.000Z</time>
      </trkpt>
      <trkpt lat="44.12901" lon="5.96495">
        <ele>495</ele>
        <time>2020-12-17T13:22:55.000Z</time>
      </trkpt>
      <trkpt lat="44.12901" lon="5.96501">
        <ele>495.39999389648</ele>
        <time>2020-12-17T13:22:57.000Z</time>
      </trkpt>
      <trkpt lat="44.12905" lon="5.96511">
        <ele>496</ele>
        <time>2020-12-17T13:23:01.000Z</time>
      </trkpt>
      <trkpt lat="44.12912" lon="5.96521">
        <ele>496.60000610352</ele>
        <time>2020-12-17T13:23:05.000Z</time>
      </trkpt>
      <trkpt lat="44.12916" lon="5.96527">
        <ele>496.79998779297</ele>
        <time>2020-12-17T13:23:07.000Z</time>
      </trkpt>
      <trkpt lat="44.12932" lon="5.96532">
        <ele>497</ele>
        <time>2020-12-17T13:23:12.000Z</time>
      </trkpt>
      <trkpt lat="44.12951" lon="5.96537">
        <ele>497</ele>
        <time>2020-12-17T13:23:17.000Z</time>
      </trkpt>
      <trkpt lat="44.12975" lon="5.96538">
        <ele>495.79998779297</ele>
        <time>2020-12-17T13:23:24.000Z</time>
      </trkpt>
      <trkpt lat="44.12992" lon="5.96534">
        <ele>495.60000610352</ele>
        <time>2020-12-17T13:23:29.000Z</time>
      </trkpt>
      <trkpt lat="44.12998" lon="5.96532">
        <ele>495.39999389648</ele>
        <time>2020-12-17T13:23:30.000Z</time>
      </trkpt>
      <trkpt lat="44.13004" lon="5.96533">
        <ele>495.39999389648</ele>
        <time>2020-12-17T13:23:31.000Z</time>
      </trkpt>
      <trkpt lat="44.13008" lon="5.96533">
        <ele>495.20001220703</ele>
        <time>2020-12-17T13:23:32.000Z</time>
      </trkpt>
      <trkpt lat="44.13019" lon="5.96536">
        <ele>495</ele>
        <time>2020-12-17T13:23:35.000Z</time>
      </trkpt>
      <trkpt lat="44.13023" lon="5.96539">
        <ele>494.60000610352</ele>
        <time>2020-12-17T13:23:36.000Z</time>
      </trkpt>
      <trkpt lat="44.13026" lon="5.96543">
        <ele>493.79998779297</ele>
        <time>2020-12-17T13:23:37.000Z</time>
      </trkpt>
      <trkpt lat="44.13031" lon="5.96553">
        <ele>492.20001220703</ele>
        <time>2020-12-17T13:23:39.000Z</time>
      </trkpt>
      <trkpt lat="44.13033" lon="5.96558">
        <ele>492</ele>
        <time>2020-12-17T13:23:40.000Z</time>
      </trkpt>
      <trkpt lat="44.1304" lon="5.96572">
        <ele>491</ele>
        <time>2020-12-17T13:23:43.000Z</time>
      </trkpt>
      <trkpt lat="44.13043" lon="5.96591">
        <ele>489.60000610352</ele>
        <time>2020-12-17T13:23:46.000Z</time>
      </trkpt>
      <trkpt lat="44.13043" lon="5.96596">
        <ele>489.39999389648</ele>
        <time>2020-12-17T13:23:47.000Z</time>
      </trkpt>
      <trkpt lat="44.1304" lon="5.96607">
        <ele>488.60000610352</ele>
        <time>2020-12-17T13:23:50.000Z</time>
      </trkpt>
      <trkpt lat="44.13039" lon="5.9661">
        <ele>488.39999389648</ele>
        <time>2020-12-17T13:23:51.000Z</time>
      </trkpt>
      <trkpt lat="44.13038" lon="5.96613">
        <ele>488.20001220703</ele>
        <time>2020-12-17T13:23:52.000Z</time>
      </trkpt>
      <trkpt lat="44.1303" lon="5.96638">
        <ele>488.39999389648</ele>
        <time>2020-12-17T13:24:01.000Z</time>
      </trkpt>
      <trkpt lat="44.13027" lon="5.96647">
        <ele>489.60000610352</ele>
        <time>2020-12-17T13:24:05.000Z</time>
      </trkpt>
      <trkpt lat="44.13023" lon="5.96658">
        <ele>490.79998779297</ele>
        <time>2020-12-17T13:24:09.000Z</time>
      </trkpt>
      <trkpt lat="44.13023" lon="5.96661">
        <ele>491.20001220703</ele>
        <time>2020-12-17T13:24:10.000Z</time>
      </trkpt>
      <trkpt lat="44.1302" lon="5.96669">
        <ele>492</ele>
        <time>2020-12-17T13:24:13.000Z</time>
      </trkpt>
      <trkpt lat="44.13017" lon="5.96679">
        <ele>493.39999389648</ele>
        <time>2020-12-17T13:24:17.000Z</time>
      </trkpt>
      <trkpt lat="44.13016" lon="5.96685">
        <ele>494</ele>
        <time>2020-12-17T13:24:19.000Z</time>
      </trkpt>
      <trkpt lat="44.13014" lon="5.96691">
        <ele>494.60000610352</ele>
        <time>2020-12-17T13:24:21.000Z</time>
      </trkpt>
      <trkpt lat="44.1301" lon="5.96701">
        <ele>495.79998779297</ele>
        <time>2020-12-17T13:24:25.000Z</time>
      </trkpt>
      <trkpt lat="44.13008" lon="5.96705">
        <ele>496.39999389648</ele>
        <time>2020-12-17T13:24:27.000Z</time>
      </trkpt>
      <trkpt lat="44.13006" lon="5.9671">
        <ele>497</ele>
        <time>2020-12-17T13:24:29.000Z</time>
      </trkpt>
      <trkpt lat="44.12999" lon="5.96721">
        <ele>498.20001220703</ele>
        <time>2020-12-17T13:24:34.000Z</time>
      </trkpt>
      <trkpt lat="44.12997" lon="5.96726">
        <ele>498.39999389648</ele>
        <time>2020-12-17T13:24:36.000Z</time>
      </trkpt>
      <trkpt lat="44.12993" lon="5.96737">
        <ele>499.20001220703</ele>
        <time>2020-12-17T13:24:41.000Z</time>
      </trkpt>
      <trkpt lat="44.12991" lon="5.96742">
        <ele>499.39999389648</ele>
        <time>2020-12-17T13:24:43.000Z</time>
      </trkpt>
      <trkpt lat="44.12987" lon="5.96752">
        <ele>500.20001220703</ele>
        <time>2020-12-17T13:24:47.000Z</time>
      </trkpt>
      <trkpt lat="44.12983" lon="5.96757">
        <ele>501</ele>
        <time>2020-12-17T13:24:50.000Z</time>
      </trkpt>
      <trkpt lat="44.12982" lon="5.96761">
        <ele>501.39999389648</ele>
        <time>2020-12-17T13:24:52.000Z</time>
      </trkpt>
      <trkpt lat="44.1298" lon="5.96771">
        <ele>502.20001220703</ele>
        <time>2020-12-17T13:24:56.000Z</time>
      </trkpt>
      <trkpt lat="44.12983" lon="5.96792">
        <ele>502.39999389648</ele>
        <time>2020-12-17T13:25:01.000Z</time>
      </trkpt>
      <trkpt lat="44.12983" lon="5.96815">
        <ele>502.39999389648</ele>
        <time>2020-12-17T13:25:04.000Z</time>
      </trkpt>
      <trkpt lat="44.12982" lon="5.96823">
        <ele>502.39999389648</ele>
        <time>2020-12-17T13:25:05.000Z</time>
      </trkpt>
      <trkpt lat="44.12976" lon="5.96852">
        <ele>499.79998779297</ele>
        <time>2020-12-17T13:25:09.000Z</time>
      </trkpt>
      <trkpt lat="44.12976" lon="5.9686">
        <ele>498.60000610352</ele>
        <time>2020-12-17T13:25:10.000Z</time>
      </trkpt>
      <trkpt lat="44.12975" lon="5.96868">
        <ele>497.39999389648</ele>
        <time>2020-12-17T13:25:11.000Z</time>
      </trkpt>
      <trkpt lat="44.12975" lon="5.96876">
        <ele>496</ele>
        <time>2020-12-17T13:25:12.000Z</time>
      </trkpt>
      <trkpt lat="44.12974" lon="5.96884">
        <ele>494.79998779297</ele>
        <time>2020-12-17T13:25:13.000Z</time>
      </trkpt>
      <trkpt lat="44.12974" lon="5.96898">
        <ele>493</ele>
        <time>2020-12-17T13:25:15.000Z</time>
      </trkpt>
      <trkpt lat="44.12974" lon="5.96905">
        <ele>492</ele>
        <time>2020-12-17T13:25:16.000Z</time>
      </trkpt>
      <trkpt lat="44.12973" lon="5.96912">
        <ele>490.79998779297</ele>
        <time>2020-12-17T13:25:17.000Z</time>
      </trkpt>
      <trkpt lat="44.12972" lon="5.96917">
        <ele>489.79998779297</ele>
        <time>2020-12-17T13:25:18.000Z</time>
      </trkpt>
      <trkpt lat="44.12972" lon="5.96922">
        <ele>488.60000610352</ele>
        <time>2020-12-17T13:25:19.000Z</time>
      </trkpt>
      <trkpt lat="44.1297" lon="5.96927">
        <ele>486.79998779297</ele>
        <time>2020-12-17T13:25:21.000Z</time>
      </trkpt>
      <trkpt lat="44.12965" lon="5.96929">
        <ele>484.79998779297</ele>
        <time>2020-12-17T13:25:23.000Z</time>
      </trkpt>
      <trkpt lat="44.12961" lon="5.96928">
        <ele>482.60000610352</ele>
        <time>2020-12-17T13:25:24.000Z</time>
      </trkpt>
      <trkpt lat="44.12955" lon="5.96925">
        <ele>480.79998779297</ele>
        <time>2020-12-17T13:25:26.000Z</time>
      </trkpt>
      <trkpt lat="44.1295" lon="5.96921">
        <ele>479.60000610352</ele>
        <time>2020-12-17T13:25:28.000Z</time>
      </trkpt>
      <trkpt lat="44.12941" lon="5.96917">
        <ele>478.39999389648</ele>
        <time>2020-12-17T13:25:31.000Z</time>
      </trkpt>
      <trkpt lat="44.12922" lon="5.96916">
        <ele>478.20001220703</ele>
        <time>2020-12-17T13:25:38.000Z</time>
      </trkpt>
      <trkpt lat="44.12906" lon="5.9691">
        <ele>479.39999389648</ele>
        <time>2020-12-17T13:25:46.000Z</time>
      </trkpt>
      <trkpt lat="44.12905" lon="5.96909">
        <ele>479.60000610352</ele>
        <time>2020-12-17T13:25:47.000Z</time>
      </trkpt>
      <trkpt lat="44.12898" lon="5.96899">
        <ele>480.39999389648</ele>
        <time>2020-12-17T13:25:53.000Z</time>
      </trkpt>
      <trkpt lat="44.12897" lon="5.96898">
        <ele>480.60000610352</ele>
        <time>2020-12-17T13:25:54.000Z</time>
      </trkpt>
      <trkpt lat="44.12893" lon="5.96893">
        <ele>481.20001220703</ele>
        <time>2020-12-17T13:25:58.000Z</time>
      </trkpt>
      <trkpt lat="44.12889" lon="5.96885">
        <ele>481.60000610352</ele>
        <time>2020-12-17T13:26:01.000Z</time>
      </trkpt>
      <trkpt lat="44.12886" lon="5.96881">
        <ele>481.79998779297</ele>
        <time>2020-12-17T13:26:03.000Z</time>
      </trkpt>
      <trkpt lat="44.12881" lon="5.96871">
        <ele>482.20001220703</ele>
        <time>2020-12-17T13:26:07.000Z</time>
      </trkpt>
      <trkpt lat="44.12879" lon="5.96867">
        <ele>482.60000610352</ele>
        <time>2020-12-17T13:26:09.000Z</time>
      </trkpt>
      <trkpt lat="44.12878" lon="5.96864">
        <ele>483</ele>
        <time>2020-12-17T13:26:10.000Z</time>
      </trkpt>
      <trkpt lat="44.12874" lon="5.96859">
        <ele>483.79998779297</ele>
        <time>2020-12-17T13:26:13.000Z</time>
      </trkpt>
      <trkpt lat="44.12868" lon="5.96851">
        <ele>484.79998779297</ele>
        <time>2020-12-17T13:26:17.000Z</time>
      </trkpt>
      <trkpt lat="44.12866" lon="5.9685">
        <ele>485</ele>
        <time>2020-12-17T13:26:18.000Z</time>
      </trkpt>
      <trkpt lat="44.12865" lon="5.96848">
        <ele>485.39999389648</ele>
        <time>2020-12-17T13:26:19.000Z</time>
      </trkpt>
      <trkpt lat="44.12863" lon="5.9684">
        <ele>485.79998779297</ele>
        <time>2020-12-17T13:26:22.000Z</time>
      </trkpt>
      <trkpt lat="44.12862" lon="5.96837">
        <ele>486</ele>
        <time>2020-12-17T13:26:23.000Z</time>
      </trkpt>
      <trkpt lat="44.12854" lon="5.96827">
        <ele>486.79998779297</ele>
        <time>2020-12-17T13:26:28.000Z</time>
      </trkpt>
      <trkpt lat="44.1285" lon="5.96823">
        <ele>487</ele>
        <time>2020-12-17T13:26:30.000Z</time>
      </trkpt>
      <trkpt lat="44.1285" lon="5.96821">
        <ele>487.20001220703</ele>
        <time>2020-12-17T13:26:31.000Z</time>
      </trkpt>
      <trkpt lat="44.1285" lon="5.96818">
        <ele>487.39999389648</ele>
        <time>2020-12-17T13:26:32.000Z</time>
      </trkpt>
      <trkpt lat="44.12855" lon="5.96818">
        <ele>488</ele>
        <time>2020-12-17T13:26:35.000Z</time>
      </trkpt>
      <trkpt lat="44.12857" lon="5.96822">
        <ele>488.20001220703</ele>
        <time>2020-12-17T13:26:37.000Z</time>
      </trkpt>
      <trkpt lat="44.12857" lon="5.96826">
        <ele>488.20001220703</ele>
        <time>2020-12-17T13:26:38.000Z</time>
      </trkpt>
      <trkpt lat="44.12858" lon="5.9683">
        <ele>488.39999389648</ele>
        <time>2020-12-17T13:26:39.000Z</time>
      </trkpt>
      <trkpt lat="44.12867" lon="5.9685">
        <ele>488.39999389648</ele>
        <time>2020-12-17T13:26:43.000Z</time>
      </trkpt>
      <trkpt lat="44.12871" lon="5.96856">
        <ele>488.39999389648</ele>
        <time>2020-12-17T13:26:44.000Z</time>
      </trkpt>
      <trkpt lat="44.12887" lon="5.96883">
        <ele>488</ele>
        <time>2020-12-17T13:26:48.000Z</time>
      </trkpt>
      <trkpt lat="44.12895" lon="5.96899">
        <ele>486.60000610352</ele>
        <time>2020-12-17T13:26:51.000Z</time>
      </trkpt>
      <trkpt lat="44.12895" lon="5.96903">
        <ele>485</ele>
        <time>2020-12-17T13:26:53.000Z</time>
      </trkpt>
      <trkpt lat="44.12895" lon="5.96903">
        <ele>483.79998779297</ele>
        <time>2020-12-17T13:26:55.000Z</time>
      </trkpt>
      <trkpt lat="44.12895" lon="5.96901">
        <ele>482.60000610352</ele>
        <time>2020-12-17T13:26:58.000Z</time>
      </trkpt>
      <trkpt lat="44.12895" lon="5.96901">
        <ele>482.60000610352</ele>
        <time>2020-12-17T13:27:00.000Z</time>
      </trkpt>
      <trkpt lat="44.12895" lon="5.969">
        <ele>482.60000610352</ele>
        <time>2020-12-17T13:27:13.000Z</time>
      </trkpt>
      <trkpt lat="44.12895" lon="5.969">
        <ele>482.39999389648</ele>
        <time>2020-12-17T13:27:28.000Z</time>
      </trkpt>
      <trkpt lat="44.12895" lon="5.969">
        <ele>482.39999389648</ele>
        <time>2020-12-17T13:27:31.000Z</time>
      </trkpt>
      <trkpt lat="44.12895" lon="5.969">
        <ele>482.60000610352</ele>
        <time>2020-12-17T13:27:34.000Z</time>
      </trkpt>
    </trkseg>
  </trk>
</gpx>